<?xml version="1.0" encoding="UTF-8" standalone="no" ?>
<gpx xmlns="http://www.topografix.com/GPX/1/1" xmlns:xsi="http://www.w3.org/2001/XMLSchema-instance" xsi:schemaLocation="http://www.topografix.com/GPX/1/1 http://www.topografix.com/GPX/1/1/gpx.xsd" version="1.1" creator="VisuGPX - https://www.visugpx.com">
  <metadata>
    <name>GR34-finistere-sud</name>
    <desc><![CDATA[Randonnée en Bretagne sur le GR34 à travers le Finistère de Trunvel à Concarneau. Gîte d'étape, Maison d'hôtes, Chambres d'hôtes, Hôtel, Camping, Refuge, Auberge.]]></desc>
  </metadata>
  <trk>
    <name><![CDATA[GR34 De Trunvel à Concarneau (Finistère) (2020)]]></name>
    <desc><![CDATA[Randonnée en Bretagne sur le GR34 à travers le Finistère de Trunvel à Concarneau. Gîte d'étape, Maison d'hôtes, Chambres d'hôtes, Hôtel, Camping, Refuge, Auberge.]]></desc>
    <extensions>
      <line xmlns="http://www.topografix.com/GPX/gpx_style/0/2">
        <color>0000FF</color>
        <width>4</width>
      </line>
    </extensions>
    <trkseg>
      <trkpt lat="47.87135" lon="-3.91711">
        <ele>4.384</ele>
        <time>2016-04-26T11:30:05Z</time>
      </trkpt>
      <trkpt lat="47.8694" lon="-3.91604">
        <ele>7.908</ele>
        <time>2020-01-03T18:12:03Z</time>
      </trkpt>
      <trkpt lat="47.86898" lon="-3.91559">
        <ele>6.217</ele>
        <time>2020-01-03T18:11:43Z</time>
      </trkpt>
      <trkpt lat="47.86887" lon="-3.91574">
        <ele>7.425</ele>
        <time>2020-01-03T18:11:23Z</time>
      </trkpt>
      <trkpt lat="47.86878" lon="-3.91664">
        <ele>9.683</ele>
        <time>2020-12-18T23:49:51Z</time>
      </trkpt>
      <trkpt lat="47.86844" lon="-3.91715">
        <ele>7.136</ele>
        <time>2020-12-18T23:49:31Z</time>
      </trkpt>
      <trkpt lat="47.86852" lon="-3.91758">
        <ele>6.788</ele>
        <time>2020-12-18T23:49:11Z</time>
      </trkpt>
      <trkpt lat="47.8688" lon="-3.91783">
        <ele>7.273</ele>
        <time>2020-12-18T23:48:51Z</time>
      </trkpt>
      <trkpt lat="47.86931" lon="-3.91897">
        <ele>6.162</ele>
        <time>2020-12-18T23:48:31Z</time>
      </trkpt>
      <trkpt lat="47.86953" lon="-3.91917">
        <ele>8.639</ele>
        <time>2020-01-03T18:10:23Z</time>
      </trkpt>
      <trkpt lat="47.86983" lon="-3.92099">
        <ele>8.612</ele>
        <time>2020-01-03T18:10:03Z</time>
      </trkpt>
      <trkpt lat="47.87028" lon="-3.92269">
        <ele>9.03</ele>
        <time>2020-01-03T18:09:43Z</time>
      </trkpt>
      <trkpt lat="47.87022" lon="-3.92318">
        <ele>8.444</ele>
        <time>2020-01-03T18:09:23Z</time>
      </trkpt>
      <trkpt lat="47.86992" lon="-3.92368">
        <ele>6.308</ele>
        <time>2020-01-03T18:09:03Z</time>
      </trkpt>
      <trkpt lat="47.86969" lon="-3.92498">
        <ele>7.617</ele>
        <time>2020-01-03T18:08:43Z</time>
      </trkpt>
      <trkpt lat="47.86971" lon="-3.92588">
        <ele>7.789</ele>
        <time>2020-12-18T23:46:11Z</time>
      </trkpt>
      <trkpt lat="47.86994" lon="-3.92662">
        <ele>6.685</ele>
        <time>2020-12-18T23:45:51Z</time>
      </trkpt>
      <trkpt lat="47.87048" lon="-3.92709">
        <ele>7.621</ele>
        <time>2020-01-03T18:07:43Z</time>
      </trkpt>
      <trkpt lat="47.87113" lon="-3.92861">
        <ele>5.133</ele>
        <time>2020-01-03T18:07:23Z</time>
      </trkpt>
      <trkpt lat="47.87144" lon="-3.92975">
        <ele>5.038</ele>
        <time>2020-01-03T18:07:03Z</time>
      </trkpt>
      <trkpt lat="47.87246" lon="-3.93058">
        <ele>3.077</ele>
        <time>2020-01-03T18:06:43Z</time>
      </trkpt>
      <trkpt lat="47.87288" lon="-3.93043">
        <ele>3.384</ele>
        <time>2020-01-03T18:06:23Z</time>
      </trkpt>
      <trkpt lat="47.87339" lon="-3.92949">
        <ele>5.557</ele>
        <time>2020-01-03T18:06:03Z</time>
      </trkpt>
      <trkpt lat="47.87377" lon="-3.92902">
        <ele>5.895</ele>
        <time>2020-01-03T18:05:43Z</time>
      </trkpt>
      <trkpt lat="47.8749" lon="-3.92868">
        <ele>8.469</ele>
        <time>2020-01-03T18:05:23Z</time>
      </trkpt>
      <trkpt lat="47.8753" lon="-3.92872">
        <ele>10.808</ele>
        <time>2020-01-03T18:05:03Z</time>
      </trkpt>
      <trkpt lat="47.87612" lon="-3.92964">
        <ele>11.318</ele>
        <time>2020-01-03T18:04:43Z</time>
      </trkpt>
      <trkpt lat="47.87678" lon="-3.93024">
        <ele>11.517</ele>
        <time>2020-01-03T18:04:23Z</time>
      </trkpt>
      <trkpt lat="47.87744" lon="-3.93037">
        <ele>9.336</ele>
        <time>2020-01-03T18:04:03Z</time>
      </trkpt>
      <trkpt lat="47.87818" lon="-3.93011">
        <ele>2.846</ele>
        <time>2020-01-03T18:03:43Z</time>
      </trkpt>
      <trkpt lat="47.87898" lon="-3.93005">
        <ele>3.888</ele>
        <time>2020-01-03T18:03:23Z</time>
      </trkpt>
      <trkpt lat="47.8798" lon="-3.93064">
        <ele>6.533</ele>
        <time>2020-12-18T23:40:51Z</time>
      </trkpt>
      <trkpt lat="47.88058" lon="-3.93088">
        <ele>8.162</ele>
        <time>2020-12-18T23:40:31Z</time>
      </trkpt>
      <trkpt lat="47.88202" lon="-3.9331">
        <ele>11.059</ele>
        <time>2019-08-22T17:01:36Z</time>
      </trkpt>
      <trkpt lat="47.88254" lon="-3.93395">
        <ele>12.462</ele>
        <time>2019-08-22T17:01:16Z</time>
      </trkpt>
      <trkpt lat="47.883" lon="-3.93625">
        <ele>13.59</ele>
        <time>2019-08-22T17:00:56Z</time>
      </trkpt>
      <trkpt lat="47.88323" lon="-3.93818">
        <ele>8.834</ele>
        <time>2019-08-22T17:00:36Z</time>
      </trkpt>
      <trkpt lat="47.88347" lon="-3.93891">
        <ele>15.308</ele>
        <time>2019-08-22T17:00:16Z</time>
      </trkpt>
      <trkpt lat="47.88353" lon="-3.93981">
        <ele>7.126</ele>
        <time>2019-08-22T16:59:56Z</time>
      </trkpt>
      <trkpt lat="47.88383" lon="-3.94048">
        <ele>9.006</ele>
        <time>2019-08-22T16:59:36Z</time>
      </trkpt>
      <trkpt lat="47.88386" lon="-3.94088">
        <ele>9.089</ele>
        <time>2019-08-22T16:59:16Z</time>
      </trkpt>
      <trkpt lat="47.8846" lon="-3.94226">
        <ele>4.839</ele>
        <time>2019-08-22T16:58:56Z</time>
      </trkpt>
      <trkpt lat="47.88496" lon="-3.94243">
        <ele>6.971</ele>
        <time>2019-08-22T16:58:36Z</time>
      </trkpt>
      <trkpt lat="47.88523" lon="-3.94282">
        <ele>8.026</ele>
        <time>2019-08-22T16:58:16Z</time>
      </trkpt>
      <trkpt lat="47.8854" lon="-3.94355">
        <ele>6.125</ele>
        <time>2019-08-22T16:57:56Z</time>
      </trkpt>
      <trkpt lat="47.88581" lon="-3.94412">
        <ele>8.182</ele>
        <time>2019-08-22T16:57:36Z</time>
      </trkpt>
      <trkpt lat="47.88619" lon="-3.94419">
        <ele>10.355</ele>
        <time>2019-08-22T16:57:16Z</time>
      </trkpt>
      <trkpt lat="47.88668" lon="-3.94462">
        <ele>6.933</ele>
        <time>2019-08-22T16:56:56Z</time>
      </trkpt>
      <trkpt lat="47.88707" lon="-3.94451">
        <ele>10.317</ele>
        <time>2019-08-22T16:56:36Z</time>
      </trkpt>
      <trkpt lat="47.88736" lon="-3.9449">
        <ele>12.308</ele>
        <time>2019-08-22T16:56:16Z</time>
      </trkpt>
      <trkpt lat="47.88719" lon="-3.9455">
        <ele>9.613</ele>
        <time>2019-08-22T16:55:56Z</time>
      </trkpt>
      <trkpt lat="47.88723" lon="-3.94631">
        <ele>7.776</ele>
        <time>2019-08-22T16:55:36Z</time>
      </trkpt>
      <trkpt lat="47.88712" lon="-3.947">
        <ele>3.116</ele>
        <time>2019-08-22T16:55:16Z</time>
      </trkpt>
      <trkpt lat="47.88745" lon="-3.94706">
        <ele>6.456</ele>
        <time>2019-08-22T16:54:56Z</time>
      </trkpt>
      <trkpt lat="47.88768" lon="-3.94747">
        <ele>4.498</ele>
        <time>2019-08-22T16:54:36Z</time>
      </trkpt>
      <trkpt lat="47.88814" lon="-3.94767">
        <ele>3.283</ele>
        <time>2019-08-22T16:54:16Z</time>
      </trkpt>
      <trkpt lat="47.88861" lon="-3.94717">
        <ele>12.652</ele>
        <time>2019-08-22T16:53:56Z</time>
      </trkpt>
      <trkpt lat="47.89017" lon="-3.9467">
        <ele>7.589</ele>
        <time>2019-08-22T16:53:36Z</time>
      </trkpt>
      <trkpt lat="47.89122" lon="-3.94509">
        <ele>16.932</ele>
        <time>2019-08-22T16:53:16Z</time>
      </trkpt>
      <trkpt lat="47.89225" lon="-3.9446">
        <ele>14.61</ele>
        <time>2019-08-22T16:52:56Z</time>
      </trkpt>
      <trkpt lat="47.89284" lon="-3.94408">
        <ele>10.734</ele>
        <time>2019-08-22T16:52:36Z</time>
      </trkpt>
      <trkpt lat="47.89306" lon="-3.94307">
        <ele>13.808</ele>
        <time>2019-08-22T16:52:16Z</time>
      </trkpt>
      <trkpt lat="47.89404" lon="-3.94262">
        <ele>10.017</ele>
        <time>2019-08-22T16:51:56Z</time>
      </trkpt>
      <trkpt lat="47.89402" lon="-3.94095">
        <ele>18.207</ele>
        <time>2019-08-22T16:51:36Z</time>
      </trkpt>
      <trkpt lat="47.89427" lon="-3.94078">
        <ele>15.184</ele>
        <time>2019-08-22T16:51:16Z</time>
      </trkpt>
      <trkpt lat="47.89493" lon="-3.9417">
        <ele>15.399</ele>
        <time>2019-08-22T16:50:56Z</time>
      </trkpt>
      <trkpt lat="47.89486" lon="-3.94269">
        <ele>16.151</ele>
        <time>2019-08-22T16:50:36Z</time>
      </trkpt>
      <trkpt lat="47.89457" lon="-3.94303">
        <ele>11.926</ele>
        <time>2019-08-22T16:50:16Z</time>
      </trkpt>
      <trkpt lat="47.89454" lon="-3.94331">
        <ele>13.265</ele>
        <time>2019-08-22T16:49:56Z</time>
      </trkpt>
      <trkpt lat="47.89408" lon="-3.94374">
        <ele>18.712</ele>
        <time>2019-08-22T16:49:36Z</time>
      </trkpt>
      <trkpt lat="47.89352" lon="-3.94391">
        <ele>15.315</ele>
        <time>2019-08-22T16:49:16Z</time>
      </trkpt>
      <trkpt lat="47.89303" lon="-3.9453">
        <ele>21.173</ele>
        <time>2019-08-22T16:48:56Z</time>
      </trkpt>
      <trkpt lat="47.89183" lon="-3.94595">
        <ele>16.487</ele>
        <time>2019-08-22T16:48:36Z</time>
      </trkpt>
      <trkpt lat="47.89142" lon="-3.94659">
        <ele>12.108</ele>
        <time>2019-08-22T16:48:16Z</time>
      </trkpt>
      <trkpt lat="47.89117" lon="-3.94818">
        <ele>13.707</ele>
        <time>2019-08-22T16:47:56Z</time>
      </trkpt>
      <trkpt lat="47.89091" lon="-3.94855">
        <ele>8.043</ele>
        <time>2019-08-22T16:47:36Z</time>
      </trkpt>
      <trkpt lat="47.8909" lon="-3.94891">
        <ele>6.913</ele>
        <time>2019-08-22T16:47:16Z</time>
      </trkpt>
      <trkpt lat="47.89071" lon="-3.94958">
        <ele>3.781</ele>
        <time>2019-08-22T16:46:56Z</time>
      </trkpt>
      <trkpt lat="47.89146" lon="-3.9496">
        <ele>6.293</ele>
        <time>2019-08-22T16:46:36Z</time>
      </trkpt>
      <trkpt lat="47.89146" lon="-3.94919">
        <ele>13.328</ele>
        <time>2019-08-22T16:46:16Z</time>
      </trkpt>
      <trkpt lat="47.89166" lon="-3.949">
        <ele>16.157</ele>
        <time>2019-08-22T16:45:56Z</time>
      </trkpt>
      <trkpt lat="47.89257" lon="-3.94951">
        <ele>11.844</ele>
        <time>2019-08-22T16:45:36Z</time>
      </trkpt>
      <trkpt lat="47.8931" lon="-3.94955">
        <ele>13.397</ele>
        <time>2019-08-22T16:45:16Z</time>
      </trkpt>
      <trkpt lat="47.89346" lon="-3.94908">
        <ele>16.445</ele>
        <time>2019-08-22T16:44:56Z</time>
      </trkpt>
      <trkpt lat="47.89371" lon="-3.94803">
        <ele>20.289</ele>
        <time>2019-08-22T16:44:36Z</time>
      </trkpt>
      <trkpt lat="47.89465" lon="-3.94762">
        <ele>14.808</ele>
        <time>2019-08-22T16:44:16Z</time>
      </trkpt>
      <trkpt lat="47.89535" lon="-3.94706">
        <ele>14.907</ele>
        <time>2019-08-22T16:43:56Z</time>
      </trkpt>
      <trkpt lat="47.89612" lon="-3.94687">
        <ele>10.361</ele>
        <time>2019-08-22T16:43:36Z</time>
      </trkpt>
      <trkpt lat="47.89691" lon="-3.94691">
        <ele>9.431</ele>
        <time>2019-08-22T16:43:16Z</time>
      </trkpt>
      <trkpt lat="47.89722" lon="-3.94724">
        <ele>7.847</ele>
        <time>2019-08-22T16:42:56Z</time>
      </trkpt>
      <trkpt lat="47.89758" lon="-3.94745">
        <ele>9.649</ele>
        <time>2019-08-22T16:42:36Z</time>
      </trkpt>
      <trkpt lat="47.89788" lon="-3.94724">
        <ele>14.924</ele>
        <time>2019-08-22T16:42:16Z</time>
      </trkpt>
      <trkpt lat="47.89845" lon="-3.94769">
        <ele>12.943</ele>
        <time>2019-08-22T16:41:56Z</time>
      </trkpt>
      <trkpt lat="47.89956" lon="-3.94719">
        <ele>14.51</ele>
        <time>2019-08-22T16:41:36Z</time>
      </trkpt>
      <trkpt lat="47.89996" lon="-3.94724">
        <ele>12.113</ele>
        <time>2019-08-22T16:41:16Z</time>
      </trkpt>
      <trkpt lat="47.90107" lon="-3.94672">
        <ele>17.321</ele>
        <time>2019-08-22T16:40:56Z</time>
      </trkpt>
      <trkpt lat="47.90147" lon="-3.94616">
        <ele>16.725</ele>
        <time>2019-08-22T16:40:36Z</time>
      </trkpt>
      <trkpt lat="47.90232" lon="-3.94571">
        <ele>14.908</ele>
        <time>2019-08-22T16:40:16Z</time>
      </trkpt>
      <trkpt lat="47.9027" lon="-3.94526">
        <ele>17.821</ele>
        <time>2019-08-22T16:39:56Z</time>
      </trkpt>
      <trkpt lat="47.90326" lon="-3.94518">
        <ele>15.865</ele>
        <time>2019-08-22T16:39:36Z</time>
      </trkpt>
      <trkpt lat="47.90362" lon="-3.94496">
        <ele>20.893</ele>
        <time>2019-08-22T16:39:16Z</time>
      </trkpt>
      <trkpt lat="47.90507" lon="-3.94548">
        <ele>17.057</ele>
        <time>2019-08-22T16:38:56Z</time>
      </trkpt>
      <trkpt lat="47.9052" lon="-3.94582">
        <ele>13.629</ele>
        <time>2019-08-22T16:38:36Z</time>
      </trkpt>
      <trkpt lat="47.905" lon="-3.94621">
        <ele>10.094</ele>
        <time>2019-08-22T16:38:16Z</time>
      </trkpt>
      <trkpt lat="47.90472" lon="-3.94606">
        <ele>8.273</ele>
        <time>2019-08-22T16:37:56Z</time>
      </trkpt>
      <trkpt lat="47.90411" lon="-3.94696">
        <ele>24.63</ele>
        <time>2019-08-22T16:37:36Z</time>
      </trkpt>
      <trkpt lat="47.90359" lon="-3.94721">
        <ele>25.983</ele>
        <time>2019-08-22T16:37:16Z</time>
      </trkpt>
      <trkpt lat="47.90313" lon="-3.94712">
        <ele>24.241</ele>
        <time>2020-12-18T23:15:31Z</time>
      </trkpt>
      <trkpt lat="47.90219" lon="-3.94746">
        <ele>19.715</ele>
        <time>2020-12-18T23:15:11Z</time>
      </trkpt>
      <trkpt lat="47.9013" lon="-3.94775">
        <ele>21.308</ele>
        <time>2020-12-18T23:14:51Z</time>
      </trkpt>
      <trkpt lat="47.90119" lon="-3.94799">
        <ele>21.325</ele>
        <time>2019-08-22T16:35:56Z</time>
      </trkpt>
      <trkpt lat="47.90074" lon="-3.94822">
        <ele>20.823</ele>
        <time>2019-08-22T16:35:36Z</time>
      </trkpt>
      <trkpt lat="47.8994" lon="-3.94833">
        <ele>11.797</ele>
        <time>2019-08-22T16:35:16Z</time>
      </trkpt>
      <trkpt lat="47.89936" lon="-3.94934">
        <ele>10.397</ele>
        <time>2019-08-22T16:34:56Z</time>
      </trkpt>
      <trkpt lat="47.89911" lon="-3.94981">
        <ele>8.999</ele>
        <time>2019-08-22T16:34:36Z</time>
      </trkpt>
      <trkpt lat="47.89886" lon="-3.9499">
        <ele>7.564</ele>
        <time>2019-08-22T16:34:16Z</time>
      </trkpt>
      <trkpt lat="47.89852" lon="-3.9505">
        <ele>8.273</ele>
        <time>2019-08-22T16:33:56Z</time>
      </trkpt>
      <trkpt lat="47.89841" lon="-3.95129">
        <ele>9.89</ele>
        <time>2019-08-22T16:33:36Z</time>
      </trkpt>
      <trkpt lat="47.89824" lon="-3.95153">
        <ele>11.573</ele>
        <time>2019-08-22T16:33:16Z</time>
      </trkpt>
      <trkpt lat="47.89805" lon="-3.9514">
        <ele>9.211</ele>
        <time>2019-08-22T16:32:56Z</time>
      </trkpt>
      <trkpt lat="47.89739" lon="-3.95151">
        <ele>12.325</ele>
        <time>2019-08-22T16:32:36Z</time>
      </trkpt>
      <trkpt lat="47.89703" lon="-3.9514">
        <ele>11.808</ele>
        <time>2019-08-22T16:32:16Z</time>
      </trkpt>
      <trkpt lat="47.8953" lon="-3.95243">
        <ele>13.124</ele>
        <time>2019-08-22T16:31:56Z</time>
      </trkpt>
      <trkpt lat="47.89496" lon="-3.95224">
        <ele>9.031</ele>
        <time>2019-08-22T16:31:36Z</time>
      </trkpt>
      <trkpt lat="47.8945" lon="-3.95232">
        <ele>8.096</ele>
        <time>2019-08-22T16:31:16Z</time>
      </trkpt>
      <trkpt lat="47.89424" lon="-3.95391">
        <ele>8.281</ele>
        <time>2019-08-22T16:30:56Z</time>
      </trkpt>
      <trkpt lat="47.89445" lon="-3.95436">
        <ele>8.113</ele>
        <time>2019-08-22T16:30:36Z</time>
      </trkpt>
      <trkpt lat="47.89435" lon="-3.95477">
        <ele>7.358</ele>
        <time>2019-08-22T16:30:16Z</time>
      </trkpt>
      <trkpt lat="47.89441" lon="-3.95526">
        <ele>6.747</ele>
        <time>2019-08-22T16:29:56Z</time>
      </trkpt>
      <trkpt lat="47.89503" lon="-3.95623">
        <ele>9.074</ele>
        <time>2019-08-22T16:29:36Z</time>
      </trkpt>
      <trkpt lat="47.89565" lon="-3.95651">
        <ele>10.317</ele>
        <time>2019-08-22T16:29:16Z</time>
      </trkpt>
      <trkpt lat="47.89615" lon="-3.957">
        <ele>9.655</ele>
        <time>2019-08-22T16:28:56Z</time>
      </trkpt>
      <trkpt lat="47.89637" lon="-3.95687">
        <ele>10.349</ele>
        <time>2019-08-22T16:28:36Z</time>
      </trkpt>
      <trkpt lat="47.8966" lon="-3.95704">
        <ele>10.008</ele>
        <time>2019-08-22T16:28:16Z</time>
      </trkpt>
      <trkpt lat="47.89671" lon="-3.95736">
        <ele>9.418</ele>
        <time>2019-08-22T16:27:56Z</time>
      </trkpt>
      <trkpt lat="47.8969" lon="-3.95754">
        <ele>10.517</ele>
        <time>2019-08-22T16:27:36Z</time>
      </trkpt>
      <trkpt lat="47.89725" lon="-3.95857">
        <ele>11.436</ele>
        <time>2020-12-18T23:05:51Z</time>
      </trkpt>
      <trkpt lat="47.89725" lon="-3.95915">
        <ele>11.139</ele>
        <time>2020-12-18T23:05:31Z</time>
      </trkpt>
      <trkpt lat="47.89706" lon="-3.95927">
        <ele>9.481</ele>
        <time>2019-08-22T16:26:36Z</time>
      </trkpt>
      <trkpt lat="47.89696" lon="-3.95975">
        <ele>5.956</ele>
        <time>2019-08-22T16:26:16Z</time>
      </trkpt>
      <trkpt lat="47.89731" lon="-3.96022">
        <ele>4.875</ele>
        <time>2020-12-18T23:04:31Z</time>
      </trkpt>
      <trkpt lat="47.89726" lon="-3.96121">
        <ele>3.182</ele>
        <time>2019-08-22T16:25:36Z</time>
      </trkpt>
      <trkpt lat="47.897" lon="-3.96243">
        <ele>2.355</ele>
        <time>2019-08-22T16:25:16Z</time>
      </trkpt>
      <trkpt lat="47.89667" lon="-3.96601">
        <ele>5.063</ele>
        <time>2019-08-22T16:24:56Z</time>
      </trkpt>
      <trkpt lat="47.89575" lon="-3.97168">
        <ele>6.767</ele>
        <time>2019-08-22T16:24:36Z</time>
      </trkpt>
      <trkpt lat="47.89553" lon="-3.97213">
        <ele>4.008</ele>
        <time>2019-08-22T16:24:16Z</time>
      </trkpt>
      <trkpt lat="47.89565" lon="-3.97292">
        <ele>0.007</ele>
        <time>2019-08-22T16:23:56Z</time>
      </trkpt>
      <trkpt lat="47.89682" lon="-3.97385">
        <ele>0.343</ele>
        <time>2020-12-18T23:02:11Z</time>
      </trkpt>
      <trkpt lat="47.89748" lon="-3.97388">
        <ele>4.013</ele>
        <time>2020-12-18T23:01:51Z</time>
      </trkpt>
      <trkpt lat="47.89771" lon="-3.97338">
        <ele>3.173</ele>
        <time>2020-12-18T23:01:31Z</time>
      </trkpt>
      <trkpt lat="47.89845" lon="-3.97352">
        <ele>3.085</ele>
        <time>2020-12-18T23:01:11Z</time>
      </trkpt>
      <trkpt lat="47.89851" lon="-3.97292">
        <ele>4.21</ele>
        <time>2019-08-22T16:21:16Z</time>
      </trkpt>
      <trkpt lat="47.90189" lon="-3.97348">
        <ele>9.299</ele>
        <time>2020-12-18T23:00:31Z</time>
      </trkpt>
      <trkpt lat="47.90173" lon="-3.97476">
        <ele>8.316</ele>
        <time>2020-12-18T23:00:11Z</time>
      </trkpt>
      <trkpt lat="47.90176" lon="-3.97528">
        <ele>5.749</ele>
        <time>2020-12-18T22:59:51Z</time>
      </trkpt>
      <trkpt lat="47.90148" lon="-3.97573">
        <ele>1.877</ele>
        <time>2020-12-18T22:59:31Z</time>
      </trkpt>
      <trkpt lat="47.902" lon="-3.97555">
        <ele>6.491</ele>
        <time>2020-12-18T22:59:11Z</time>
      </trkpt>
      <trkpt lat="47.90256" lon="-3.97563">
        <ele>5.908</ele>
        <time>2020-12-18T22:58:51Z</time>
      </trkpt>
      <trkpt lat="47.90389" lon="-3.97628">
        <ele>5.823</ele>
        <time>2020-12-18T22:58:31Z</time>
      </trkpt>
      <trkpt lat="47.90472" lon="-3.97689">
        <ele>5.003</ele>
        <time>2020-12-18T22:58:11Z</time>
      </trkpt>
      <trkpt lat="47.90505" lon="-3.97693">
        <ele>5.259</ele>
        <time>2020-12-18T22:57:51Z</time>
      </trkpt>
      <trkpt lat="47.90533" lon="-3.97709">
        <ele>5.622</ele>
        <time>2020-12-18T22:57:31Z</time>
      </trkpt>
      <trkpt lat="47.90577" lon="-3.97688">
        <ele>7.024</ele>
        <time>2020-12-18T22:57:11Z</time>
      </trkpt>
      <trkpt lat="47.90612" lon="-3.97717">
        <ele>5.259</ele>
        <time>2020-12-18T22:56:51Z</time>
      </trkpt>
      <trkpt lat="47.90685" lon="-3.97706">
        <ele>9.648</ele>
        <time>2020-12-18T22:56:31Z</time>
      </trkpt>
      <trkpt lat="47.90763" lon="-3.97676">
        <ele>12.295</ele>
        <time>2020-12-18T22:56:11Z</time>
      </trkpt>
      <trkpt lat="47.90861" lon="-3.97689">
        <ele>10.618</ele>
        <time>2020-12-18T22:55:51Z</time>
      </trkpt>
      <trkpt lat="47.9093" lon="-3.97698">
        <ele>8.446</ele>
        <time>2020-12-18T22:55:31Z</time>
      </trkpt>
      <trkpt lat="47.90921" lon="-3.97772">
        <ele>6.54</ele>
        <time>2020-12-18T22:55:11Z</time>
      </trkpt>
      <trkpt lat="47.90886" lon="-3.97843">
        <ele>8.608</ele>
        <time>2020-12-18T22:54:51Z</time>
      </trkpt>
      <trkpt lat="47.90802" lon="-3.97841">
        <ele>8.414</ele>
        <time>2020-12-18T22:54:31Z</time>
      </trkpt>
      <trkpt lat="47.90753" lon="-3.97871">
        <ele>7.922</ele>
        <time>2020-12-18T22:54:11Z</time>
      </trkpt>
      <trkpt lat="47.90662" lon="-3.97907">
        <ele>7.442</ele>
        <time>2020-12-18T22:53:51Z</time>
      </trkpt>
      <trkpt lat="47.90631" lon="-3.97911">
        <ele>8.112</ele>
        <time>2020-12-18T22:53:31Z</time>
      </trkpt>
      <trkpt lat="47.90625" lon="-3.97931">
        <ele>9.024</ele>
        <time>2020-12-18T22:53:11Z</time>
      </trkpt>
      <trkpt lat="47.90569" lon="-3.97913">
        <ele>4.639</ele>
        <time>2020-12-18T22:52:51Z</time>
      </trkpt>
      <trkpt lat="47.90519" lon="-3.97939">
        <ele>7.148</ele>
        <time>2020-12-18T22:52:31Z</time>
      </trkpt>
      <trkpt lat="47.90493" lon="-3.97939">
        <ele>7.135</ele>
        <time>2020-12-18T22:52:11Z</time>
      </trkpt>
      <trkpt lat="47.9046" lon="-3.97917">
        <ele>4.268</ele>
        <time>2020-12-18T22:51:51Z</time>
      </trkpt>
      <trkpt lat="47.90377" lon="-3.97902">
        <ele>7.746</ele>
        <time>2020-12-18T22:51:31Z</time>
      </trkpt>
      <trkpt lat="47.90349" lon="-3.97936">
        <ele>4.32</ele>
        <time>2020-12-18T22:51:11Z</time>
      </trkpt>
      <trkpt lat="47.90325" lon="-3.97994">
        <ele>6.308</ele>
        <time>2020-12-18T22:50:51Z</time>
      </trkpt>
      <trkpt lat="47.90304" lon="-3.98023">
        <ele>6.511</ele>
        <time>2020-12-18T22:50:31Z</time>
      </trkpt>
      <trkpt lat="47.90272" lon="-3.98015">
        <ele>3.747</ele>
        <time>2020-12-18T22:50:11Z</time>
      </trkpt>
      <trkpt lat="47.90223" lon="-3.97957">
        <ele>3.445</ele>
        <time>2020-12-18T22:49:51Z</time>
      </trkpt>
      <trkpt lat="47.90188" lon="-3.97955">
        <ele>4.433</ele>
        <time>2019-08-22T16:18:36Z</time>
      </trkpt>
      <trkpt lat="47.90137" lon="-3.98007">
        <ele>7.485</ele>
        <time>2019-08-22T16:18:16Z</time>
      </trkpt>
      <trkpt lat="47.90088" lon="-3.9802">
        <ele>7.25</ele>
        <time>2019-08-22T16:17:56Z</time>
      </trkpt>
      <trkpt lat="47.90028" lon="-3.98077">
        <ele>10.459</ele>
        <time>2019-08-22T16:17:36Z</time>
      </trkpt>
      <trkpt lat="47.89978" lon="-3.9809">
        <ele>7.636</ele>
        <time>2019-08-22T16:17:16Z</time>
      </trkpt>
      <trkpt lat="47.89932" lon="-3.98157">
        <ele>8.319</ele>
        <time>2019-08-22T16:16:56Z</time>
      </trkpt>
      <trkpt lat="47.89907" lon="-3.98168">
        <ele>8.747</ele>
        <time>2019-08-22T16:16:36Z</time>
      </trkpt>
      <trkpt lat="47.89844" lon="-3.98125">
        <ele>5.041</ele>
        <time>2019-08-22T16:16:16Z</time>
      </trkpt>
      <trkpt lat="47.89808" lon="-3.98114">
        <ele>4.208</ele>
        <time>2019-08-22T16:15:56Z</time>
      </trkpt>
      <trkpt lat="47.89759" lon="-3.98163">
        <ele>5.917</ele>
        <time>2019-08-22T16:15:36Z</time>
      </trkpt>
      <trkpt lat="47.89699" lon="-3.98176">
        <ele>6.552</ele>
        <time>2019-08-22T16:15:16Z</time>
      </trkpt>
      <trkpt lat="47.89654" lon="-3.98155">
        <ele>4.058</ele>
        <time>2019-08-22T16:14:56Z</time>
      </trkpt>
      <trkpt lat="47.89632" lon="-3.98097">
        <ele>5.285</ele>
        <time>2019-08-22T16:14:36Z</time>
      </trkpt>
      <trkpt lat="47.89596" lon="-3.98103">
        <ele>9.147</ele>
        <time>2019-08-22T16:14:16Z</time>
      </trkpt>
      <trkpt lat="47.89545" lon="-3.98084">
        <ele>10.452</ele>
        <time>2019-08-22T16:13:56Z</time>
      </trkpt>
      <trkpt lat="47.89486" lon="-3.98045">
        <ele>5.141</ele>
        <time>2019-08-22T16:13:36Z</time>
      </trkpt>
      <trkpt lat="47.89378" lon="-3.9821">
        <ele>3.818</ele>
        <time>2019-08-22T16:12:56Z</time>
      </trkpt>
      <trkpt lat="47.89418" lon="-3.98292">
        <ele>11.681</ele>
        <time>2019-08-22T16:12:36Z</time>
      </trkpt>
      <trkpt lat="47.89391" lon="-3.98333">
        <ele>6.479</ele>
        <time>2019-08-22T16:12:16Z</time>
      </trkpt>
      <trkpt lat="47.89411" lon="-3.98378">
        <ele>7.863</ele>
        <time>2019-08-22T16:11:56Z</time>
      </trkpt>
      <trkpt lat="47.89437" lon="-3.98453">
        <ele>7.908</ele>
        <time>2019-08-22T16:11:36Z</time>
      </trkpt>
      <trkpt lat="47.895" lon="-3.98513">
        <ele>5.527</ele>
        <time>2019-08-22T16:11:16Z</time>
      </trkpt>
      <trkpt lat="47.89535" lon="-3.98496">
        <ele>9.061</ele>
        <time>2019-08-22T16:10:56Z</time>
      </trkpt>
      <trkpt lat="47.89594" lon="-3.98571">
        <ele>6.777</ele>
        <time>2019-08-22T16:10:36Z</time>
      </trkpt>
      <trkpt lat="47.89571" lon="-3.98631">
        <ele>7.334</ele>
        <time>2019-08-22T16:10:16Z</time>
      </trkpt>
      <trkpt lat="47.89562" lon="-3.98678">
        <ele>1.766</ele>
        <time>2019-08-22T16:09:56Z</time>
      </trkpt>
      <trkpt lat="47.89563" lon="-3.9873">
        <ele>1.731</ele>
        <time>2019-08-22T16:09:36Z</time>
      </trkpt>
      <trkpt lat="47.8956" lon="-3.98869">
        <ele>1.02</ele>
        <time>2019-08-22T16:09:16Z</time>
      </trkpt>
      <trkpt lat="47.89583" lon="-3.98946">
        <ele>6.077</ele>
        <time>2019-08-22T16:08:56Z</time>
      </trkpt>
      <trkpt lat="47.89638" lon="-3.98998">
        <ele>5.14</ele>
        <time>2019-08-22T16:08:36Z</time>
      </trkpt>
      <trkpt lat="47.89714" lon="-3.99022">
        <ele>9.168</ele>
        <time>2019-08-22T16:08:16Z</time>
      </trkpt>
      <trkpt lat="47.89695" lon="-3.9925">
        <ele>11.032</ele>
        <time>2019-08-22T16:07:56Z</time>
      </trkpt>
      <trkpt lat="47.89653" lon="-3.99229">
        <ele>8.908</ele>
        <time>2019-08-22T16:07:36Z</time>
      </trkpt>
      <trkpt lat="47.89603" lon="-3.9922">
        <ele>7.011</ele>
        <time>2019-08-22T16:07:16Z</time>
      </trkpt>
      <trkpt lat="47.8952" lon="-3.99161">
        <ele>3.983</ele>
        <time>2019-08-22T16:06:56Z</time>
      </trkpt>
      <trkpt lat="47.89463" lon="-3.99169">
        <ele>8.462</ele>
        <time>2019-08-22T16:06:36Z</time>
      </trkpt>
      <trkpt lat="47.89398" lon="-3.99089">
        <ele>2.211</ele>
        <time>2019-08-22T16:06:16Z</time>
      </trkpt>
      <trkpt lat="47.89354" lon="-3.99055">
        <ele>2.863</ele>
        <time>2019-08-22T16:05:56Z</time>
      </trkpt>
      <trkpt lat="47.89313" lon="-3.98961">
        <ele>3.288</ele>
        <time>2019-08-22T16:05:36Z</time>
      </trkpt>
      <trkpt lat="47.89338" lon="-3.98914">
        <ele>0.047</ele>
        <time>2019-08-22T16:05:16Z</time>
      </trkpt>
      <trkpt lat="47.8933" lon="-3.98887">
        <ele>0.064</ele>
        <time>2019-08-22T16:04:56Z</time>
      </trkpt>
      <trkpt lat="47.8925" lon="-3.98843">
        <ele>3.537</ele>
        <time>2019-08-22T16:04:36Z</time>
      </trkpt>
      <trkpt lat="47.89179" lon="-3.98785">
        <ele>4.375</ele>
        <time>2019-08-22T16:04:16Z</time>
      </trkpt>
      <trkpt lat="47.89103" lon="-3.98763">
        <ele>7.269</ele>
        <time>2019-08-22T16:03:56Z</time>
      </trkpt>
      <trkpt lat="47.89078" lon="-3.98737">
        <ele>7.408</ele>
        <time>2019-08-22T16:03:36Z</time>
      </trkpt>
      <trkpt lat="47.89065" lon="-3.98709">
        <ele>6.011</ele>
        <time>2019-08-22T16:03:16Z</time>
      </trkpt>
      <trkpt lat="47.89045" lon="-3.98698">
        <ele>7.592</ele>
        <time>2019-08-22T16:02:56Z</time>
      </trkpt>
      <trkpt lat="47.89048" lon="-3.98674">
        <ele>6.032</ele>
        <time>2019-08-22T16:02:36Z</time>
      </trkpt>
      <trkpt lat="47.89005" lon="-3.98554">
        <ele>5.052</ele>
        <time>2019-08-22T16:02:16Z</time>
      </trkpt>
      <trkpt lat="47.88989" lon="-3.98434">
        <ele>2.264</ele>
        <time>2019-08-22T16:01:56Z</time>
      </trkpt>
      <trkpt lat="47.88991" lon="-3.98389">
        <ele>1.329</ele>
        <time>2016-04-28T00:50:17Z</time>
      </trkpt>
      <trkpt lat="47.88906" lon="-3.982">
        <ele>2.758</ele>
        <time>2016-04-28T00:49:57Z</time>
      </trkpt>
      <trkpt lat="47.88854" lon="-3.98178">
        <ele>8.035</ele>
        <time>2016-04-28T00:49:37Z</time>
      </trkpt>
      <trkpt lat="47.88745" lon="-3.98406">
        <ele>6.628</ele>
        <time>2016-04-28T00:49:17Z</time>
      </trkpt>
      <trkpt lat="47.88706" lon="-3.98543">
        <ele>5.996</ele>
        <time>2016-04-28T00:48:57Z</time>
      </trkpt>
      <trkpt lat="47.88566" lon="-3.98753">
        <ele>5.51</ele>
        <time>2016-04-28T00:48:37Z</time>
      </trkpt>
      <trkpt lat="47.88428" lon="-3.98925">
        <ele>5.008</ele>
        <time>2016-04-28T00:48:17Z</time>
      </trkpt>
      <trkpt lat="47.88355" lon="-3.98998">
        <ele>6.717</ele>
        <time>2016-04-28T00:47:57Z</time>
      </trkpt>
      <trkpt lat="47.8828" lon="-3.99015">
        <ele>16.961</ele>
        <time>2016-04-28T00:47:37Z</time>
      </trkpt>
      <trkpt lat="47.88188" lon="-3.98972">
        <ele>14.248</ele>
        <time>2016-04-28T00:47:17Z</time>
      </trkpt>
      <trkpt lat="47.88099" lon="-3.98886">
        <ele>13.293</ele>
        <time>2016-04-28T00:46:57Z</time>
      </trkpt>
      <trkpt lat="47.88057" lon="-3.98867">
        <ele>13.425</ele>
        <time>2016-04-28T00:46:37Z</time>
      </trkpt>
      <trkpt lat="47.88038" lon="-3.98828">
        <ele>11.92</ele>
        <time>2016-04-28T00:46:17Z</time>
      </trkpt>
      <trkpt lat="47.88027" lon="-3.98794">
        <ele>10.439</ele>
        <time>2016-04-28T00:45:57Z</time>
      </trkpt>
      <trkpt lat="47.87962" lon="-3.98732">
        <ele>7.666</ele>
        <time>2016-04-28T00:45:37Z</time>
      </trkpt>
      <trkpt lat="47.87942" lon="-3.98751">
        <ele>16.739</ele>
        <time>2016-04-28T00:45:17Z</time>
      </trkpt>
      <trkpt lat="47.87914" lon="-3.9871">
        <ele>12.187</ele>
        <time>2016-04-28T00:44:57Z</time>
      </trkpt>
      <trkpt lat="47.87886" lon="-3.9874">
        <ele>20.291</ele>
        <time>2016-04-28T00:44:37Z</time>
      </trkpt>
      <trkpt lat="47.87858" lon="-3.98738">
        <ele>19.508</ele>
        <time>2016-04-28T00:44:17Z</time>
      </trkpt>
      <trkpt lat="47.87815" lon="-3.98695">
        <ele>13.517</ele>
        <time>2016-04-28T00:43:57Z</time>
      </trkpt>
      <trkpt lat="47.87788" lon="-3.98706">
        <ele>17.252</ele>
        <time>2016-04-28T00:43:37Z</time>
      </trkpt>
      <trkpt lat="47.87734" lon="-3.9867">
        <ele>14.058</ele>
        <time>2016-04-28T00:43:17Z</time>
      </trkpt>
      <trkpt lat="47.87665" lon="-3.98655">
        <ele>20.833</ele>
        <time>2016-04-28T00:42:57Z</time>
      </trkpt>
      <trkpt lat="47.87595" lon="-3.98541">
        <ele>10.775</ele>
        <time>2016-04-28T00:42:37Z</time>
      </trkpt>
      <trkpt lat="47.87559" lon="-3.98532">
        <ele>9.57</ele>
        <time>2016-04-28T00:42:17Z</time>
      </trkpt>
      <trkpt lat="47.87484" lon="-3.98573">
        <ele>12.349</ele>
        <time>2016-04-28T00:41:57Z</time>
      </trkpt>
      <trkpt lat="47.87356" lon="-3.98556">
        <ele>7.676</ele>
        <time>2016-04-28T00:41:37Z</time>
      </trkpt>
      <trkpt lat="47.87358" lon="-3.98534">
        <ele>5.739</ele>
        <time>2020-12-18T22:23:51Z</time>
      </trkpt>
      <trkpt lat="47.87343" lon="-3.98529">
        <ele>5.887</ele>
        <time>2020-12-18T22:23:31Z</time>
      </trkpt>
      <trkpt lat="47.8735" lon="-3.98484">
        <ele>2.441</ele>
        <time>2020-12-18T22:23:11Z</time>
      </trkpt>
      <trkpt lat="47.87328" lon="-3.98484">
        <ele>2.908</ele>
        <time>2020-12-18T22:22:51Z</time>
      </trkpt>
      <trkpt lat="47.87304" lon="-3.98534">
        <ele>8.42</ele>
        <time>2016-04-28T00:39:17Z</time>
      </trkpt>
      <trkpt lat="47.87278" lon="-3.98534">
        <ele>6.5</ele>
        <time>2016-04-28T00:38:57Z</time>
      </trkpt>
      <trkpt lat="47.87272" lon="-3.98515">
        <ele>4.757</ele>
        <time>2016-04-28T00:38:37Z</time>
      </trkpt>
      <trkpt lat="47.87251" lon="-3.9856">
        <ele>7.45</ele>
        <time>2016-04-28T00:38:17Z</time>
      </trkpt>
      <trkpt lat="47.87218" lon="-3.98562">
        <ele>7.852</ele>
        <time>2016-04-28T00:37:57Z</time>
      </trkpt>
      <trkpt lat="47.87182" lon="-3.98539">
        <ele>8.837</ele>
        <time>2016-04-28T00:37:37Z</time>
      </trkpt>
      <trkpt lat="47.87146" lon="-3.98554">
        <ele>10.966</ele>
        <time>2016-04-28T00:37:17Z</time>
      </trkpt>
      <trkpt lat="47.86993" lon="-3.9853">
        <ele>14.483</ele>
        <time>2016-04-28T00:36:57Z</time>
      </trkpt>
      <trkpt lat="47.86954" lon="-3.98442">
        <ele>6.046</ele>
        <time>2016-04-28T00:36:37Z</time>
      </trkpt>
      <trkpt lat="47.86864" lon="-3.98528">
        <ele>15.834</ele>
        <time>2016-04-28T00:36:17Z</time>
      </trkpt>
      <trkpt lat="47.86866" lon="-3.9855">
        <ele>15.818</ele>
        <time>2016-04-28T00:35:57Z</time>
      </trkpt>
      <trkpt lat="47.86832" lon="-3.98571">
        <ele>13.808</ele>
        <time>2016-04-28T00:35:37Z</time>
      </trkpt>
      <trkpt lat="47.86803" lon="-3.98569">
        <ele>10.311</ele>
        <time>2016-04-28T00:35:17Z</time>
      </trkpt>
      <trkpt lat="47.86779" lon="-3.98607">
        <ele>10.847</ele>
        <time>2016-04-28T00:34:57Z</time>
      </trkpt>
      <trkpt lat="47.86727" lon="-3.98595">
        <ele>8.326</ele>
        <time>2016-04-28T00:34:37Z</time>
      </trkpt>
      <trkpt lat="47.86708" lon="-3.98627">
        <ele>12.253</ele>
        <time>2016-04-28T00:34:17Z</time>
      </trkpt>
      <trkpt lat="47.86684" lon="-3.98601">
        <ele>9.785</ele>
        <time>2016-04-28T00:33:57Z</time>
      </trkpt>
      <trkpt lat="47.86649" lon="-3.98597">
        <ele>9.58</ele>
        <time>2016-04-28T00:33:37Z</time>
      </trkpt>
      <trkpt lat="47.86625" lon="-3.98584">
        <ele>9.039</ele>
        <time>2016-04-28T00:33:17Z</time>
      </trkpt>
      <trkpt lat="47.8663" lon="-3.98545">
        <ele>7.636</ele>
        <time>2016-04-28T00:32:57Z</time>
      </trkpt>
      <trkpt lat="47.86616" lon="-3.98511">
        <ele>2.749</ele>
        <time>2016-04-28T00:32:37Z</time>
      </trkpt>
      <trkpt lat="47.86593" lon="-3.98539">
        <ele>8.387</ele>
        <time>2016-04-28T00:32:17Z</time>
      </trkpt>
      <trkpt lat="47.86543" lon="-3.98528">
        <ele>10.561</ele>
        <time>2016-04-28T00:31:57Z</time>
      </trkpt>
      <trkpt lat="47.86518" lon="-3.98492">
        <ele>7.008</ele>
        <time>2016-04-28T00:31:37Z</time>
      </trkpt>
      <trkpt lat="47.86525" lon="-3.98468">
        <ele>4.217</ele>
        <time>2016-04-28T00:31:17Z</time>
      </trkpt>
      <trkpt lat="47.86505" lon="-3.98442">
        <ele>2.352</ele>
        <time>2016-04-28T00:30:57Z</time>
      </trkpt>
      <trkpt lat="47.86491" lon="-3.98477">
        <ele>4.658</ele>
        <time>2016-04-28T00:30:37Z</time>
      </trkpt>
      <trkpt lat="47.86471" lon="-3.98453">
        <ele>3.426</ele>
        <time>2016-04-28T00:30:17Z</time>
      </trkpt>
      <trkpt lat="47.86394" lon="-3.98492">
        <ele>9.568</ele>
        <time>2016-04-28T00:29:57Z</time>
      </trkpt>
      <trkpt lat="47.86386" lon="-3.98612">
        <ele>14.053</ele>
        <time>2016-04-28T00:29:37Z</time>
      </trkpt>
      <trkpt lat="47.86341" lon="-3.98592">
        <ele>13.862</ele>
        <time>2016-04-28T00:29:17Z</time>
      </trkpt>
      <trkpt lat="47.86327" lon="-3.98599">
        <ele>13.389</ele>
        <time>2016-04-28T00:28:57Z</time>
      </trkpt>
      <trkpt lat="47.86301" lon="-3.98588">
        <ele>13.022</ele>
        <time>2016-04-28T00:28:37Z</time>
      </trkpt>
      <trkpt lat="47.86278" lon="-3.98693">
        <ele>16.02</ele>
        <time>2016-04-28T00:28:17Z</time>
      </trkpt>
      <trkpt lat="47.86209" lon="-3.98659">
        <ele>15.264</ele>
        <time>2016-04-28T00:27:57Z</time>
      </trkpt>
      <trkpt lat="47.86188" lon="-3.98629">
        <ele>14.008</ele>
        <time>2016-04-28T00:27:37Z</time>
      </trkpt>
      <trkpt lat="47.86197" lon="-3.98603">
        <ele>14.026</ele>
        <time>2016-04-28T00:27:17Z</time>
      </trkpt>
      <trkpt lat="47.86186" lon="-3.98532">
        <ele>13.76</ele>
        <time>2016-04-28T00:26:57Z</time>
      </trkpt>
      <trkpt lat="47.8616" lon="-3.98537">
        <ele>13.286</ele>
        <time>2016-04-28T00:26:37Z</time>
      </trkpt>
      <trkpt lat="47.86155" lon="-3.9855">
        <ele>13.523</ele>
        <time>2016-04-28T00:26:17Z</time>
      </trkpt>
      <trkpt lat="47.86112" lon="-3.98526">
        <ele>12.965</ele>
        <time>2016-04-28T00:25:57Z</time>
      </trkpt>
      <trkpt lat="47.86108" lon="-3.98534">
        <ele>13.47</ele>
        <time>2016-04-28T00:25:37Z</time>
      </trkpt>
      <trkpt lat="47.86079" lon="-3.98526">
        <ele>14.169</ele>
        <time>2016-04-28T00:25:17Z</time>
      </trkpt>
      <trkpt lat="47.86088" lon="-3.98479">
        <ele>12.126</ele>
        <time>2016-04-28T00:24:57Z</time>
      </trkpt>
      <trkpt lat="47.86043" lon="-3.9847">
        <ele>13.429</ele>
        <time>2016-04-28T00:24:37Z</time>
      </trkpt>
      <trkpt lat="47.86012" lon="-3.98451">
        <ele>13.837</ele>
        <time>2020-12-18T22:07:31Z</time>
      </trkpt>
      <trkpt lat="47.85975" lon="-3.98452">
        <ele>15.961</ele>
        <time>2020-12-18T22:07:11Z</time>
      </trkpt>
      <trkpt lat="47.85983" lon="-3.98363">
        <ele>11.208</ele>
        <time>2020-12-18T22:06:51Z</time>
      </trkpt>
      <trkpt lat="47.85975" lon="-3.98332">
        <ele>9.917</ele>
        <time>2020-12-18T22:06:31Z</time>
      </trkpt>
      <trkpt lat="47.85951" lon="-3.98322">
        <ele>10.007</ele>
        <time>2020-12-18T22:06:11Z</time>
      </trkpt>
      <trkpt lat="47.85966" lon="-3.98224">
        <ele>4.655</ele>
        <time>2020-12-18T22:05:51Z</time>
      </trkpt>
      <trkpt lat="47.85947" lon="-3.98226">
        <ele>6.153</ele>
        <time>2020-12-18T22:05:31Z</time>
      </trkpt>
      <trkpt lat="47.85926" lon="-3.98207">
        <ele>8.225</ele>
        <time>2020-12-18T22:05:11Z</time>
      </trkpt>
      <trkpt lat="47.85929" lon="-3.98191">
        <ele>6.79</ele>
        <time>2020-12-18T22:04:51Z</time>
      </trkpt>
      <trkpt lat="47.85895" lon="-3.9813">
        <ele>8.159</ele>
        <time>2020-12-18T22:04:31Z</time>
      </trkpt>
      <trkpt lat="47.85874" lon="-3.98129">
        <ele>10.696</ele>
        <time>2020-12-18T22:04:11Z</time>
      </trkpt>
      <trkpt lat="47.85866" lon="-3.98081">
        <ele>5.489</ele>
        <time>2020-12-18T22:03:51Z</time>
      </trkpt>
      <trkpt lat="47.85808" lon="-3.9803">
        <ele>10.167</ele>
        <time>2020-12-18T22:03:31Z</time>
      </trkpt>
      <trkpt lat="47.85787" lon="-3.98048">
        <ele>10.171</ele>
        <time>2020-12-18T22:03:11Z</time>
      </trkpt>
      <trkpt lat="47.8577" lon="-3.98036">
        <ele>9.408</ele>
        <time>2020-12-18T22:02:51Z</time>
      </trkpt>
      <trkpt lat="47.85773" lon="-3.97997">
        <ele>7.823</ele>
        <time>2020-12-18T22:02:31Z</time>
      </trkpt>
      <trkpt lat="47.8573" lon="-3.98001">
        <ele>8.703</ele>
        <time>2020-12-18T22:02:11Z</time>
      </trkpt>
      <trkpt lat="47.85703" lon="-3.97939">
        <ele>7.559</ele>
        <time>2020-12-18T22:01:51Z</time>
      </trkpt>
      <trkpt lat="47.85692" lon="-3.97885">
        <ele>6.551</ele>
        <time>2016-04-28T00:22:17Z</time>
      </trkpt>
      <trkpt lat="47.85708" lon="-3.97855">
        <ele>2.833</ele>
        <time>2016-04-28T00:21:57Z</time>
      </trkpt>
      <trkpt lat="47.85699" lon="-3.97825">
        <ele>3.018</ele>
        <time>2016-04-28T00:21:37Z</time>
      </trkpt>
      <trkpt lat="47.85686" lon="-3.97813">
        <ele>4.337</ele>
        <time>2016-04-28T00:21:17Z</time>
      </trkpt>
      <trkpt lat="47.85671" lon="-3.97821">
        <ele>6.644</ele>
        <time>2016-04-28T00:20:57Z</time>
      </trkpt>
      <trkpt lat="47.85667" lon="-3.97791">
        <ele>4.967</ele>
        <time>2016-04-28T00:20:37Z</time>
      </trkpt>
      <trkpt lat="47.85626" lon="-3.9776">
        <ele>7.275</ele>
        <time>2016-04-28T00:20:17Z</time>
      </trkpt>
      <trkpt lat="47.85598" lon="-3.97709">
        <ele>6.559</ele>
        <time>2016-04-28T00:19:57Z</time>
      </trkpt>
      <trkpt lat="47.85591" lon="-3.97643">
        <ele>5.408</ele>
        <time>2016-04-28T00:19:37Z</time>
      </trkpt>
      <trkpt lat="47.856" lon="-3.9763">
        <ele>4.607</ele>
        <time>2016-04-28T00:19:17Z</time>
      </trkpt>
      <trkpt lat="47.85588" lon="-3.97594">
        <ele>4.261</ele>
        <time>2016-04-28T00:18:57Z</time>
      </trkpt>
      <trkpt lat="47.85565" lon="-3.97585">
        <ele>6.131</ele>
        <time>2016-04-28T00:18:37Z</time>
      </trkpt>
      <trkpt lat="47.85563" lon="-3.97569">
        <ele>5.721</ele>
        <time>2016-04-28T00:18:17Z</time>
      </trkpt>
      <trkpt lat="47.85572" lon="-3.97553">
        <ele>4.143</ele>
        <time>2016-04-28T00:17:57Z</time>
      </trkpt>
      <trkpt lat="47.8557" lon="-3.97522">
        <ele>3.378</ele>
        <time>2016-04-28T00:17:37Z</time>
      </trkpt>
      <trkpt lat="47.85516" lon="-3.97518">
        <ele>5.427</ele>
        <time>2016-04-28T00:17:17Z</time>
      </trkpt>
      <trkpt lat="47.85505" lon="-3.97487">
        <ele>4.084</ele>
        <time>2016-04-28T00:16:57Z</time>
      </trkpt>
      <trkpt lat="47.85502" lon="-3.97514">
        <ele>5.577</ele>
        <time>2016-04-28T00:16:37Z</time>
      </trkpt>
      <trkpt lat="47.85481" lon="-3.97521">
        <ele>5.135</ele>
        <time>2016-04-28T00:16:17Z</time>
      </trkpt>
      <trkpt lat="47.85437" lon="-3.97602">
        <ele>6.189</ele>
        <time>2016-04-28T00:15:57Z</time>
      </trkpt>
      <trkpt lat="47.85415" lon="-3.97765">
        <ele>7.808</ele>
        <time>2016-04-28T00:15:37Z</time>
      </trkpt>
      <trkpt lat="47.85458" lon="-3.97945">
        <ele>8.41</ele>
        <time>2016-04-28T00:15:17Z</time>
      </trkpt>
      <trkpt lat="47.85467" lon="-3.9806">
        <ele>8.155</ele>
        <time>2016-04-28T00:14:57Z</time>
      </trkpt>
      <trkpt lat="47.85454" lon="-3.98133">
        <ele>8.434</ele>
        <time>2016-04-28T00:13:37Z</time>
      </trkpt>
      <trkpt lat="47.85402" lon="-3.98217">
        <ele>6.345</ele>
        <time>2016-04-28T00:13:17Z</time>
      </trkpt>
      <trkpt lat="47.85416" lon="-3.98281">
        <ele>9.957</ele>
        <time>2020-12-18T21:53:11Z</time>
      </trkpt>
      <trkpt lat="47.85435" lon="-3.98468">
        <ele>9.512</ele>
        <time>2016-04-28T00:12:37Z</time>
      </trkpt>
      <trkpt lat="47.85389" lon="-3.98663">
        <ele>7.921</ele>
        <time>2016-04-28T00:11:37Z</time>
      </trkpt>
      <trkpt lat="47.85361" lon="-3.98721">
        <ele>6.958</ele>
        <time>2016-04-28T00:11:17Z</time>
      </trkpt>
      <trkpt lat="47.85379" lon="-3.98774">
        <ele>7.741</ele>
        <time>2016-04-28T00:10:57Z</time>
      </trkpt>
      <trkpt lat="47.85433" lon="-3.98859">
        <ele>9.379</ele>
        <time>2016-04-28T00:10:37Z</time>
      </trkpt>
      <trkpt lat="47.85434" lon="-3.98927">
        <ele>6.253</ele>
        <time>2016-04-28T00:10:17Z</time>
      </trkpt>
      <trkpt lat="47.85424" lon="-3.99068">
        <ele>5.308</ele>
        <time>2016-04-28T00:09:57Z</time>
      </trkpt>
      <trkpt lat="47.8538" lon="-3.99358">
        <ele>3.615</ele>
        <time>2016-04-28T00:09:37Z</time>
      </trkpt>
      <trkpt lat="47.85434" lon="-3.99361">
        <ele>4.041</ele>
        <time>2016-04-28T00:09:17Z</time>
      </trkpt>
      <trkpt lat="47.85361" lon="-3.99556">
        <ele>3.071</ele>
        <time>2016-04-28T00:08:57Z</time>
      </trkpt>
      <trkpt lat="47.85299" lon="-3.9982">
        <ele>2.835</ele>
        <time>2016-04-28T00:08:37Z</time>
      </trkpt>
      <trkpt lat="47.85238" lon="-4.0014">
        <ele>5.477</ele>
        <time>2016-04-28T00:08:17Z</time>
      </trkpt>
      <trkpt lat="47.85306" lon="-4.00127">
        <ele>4.092</ele>
        <time>2016-04-28T00:07:57Z</time>
      </trkpt>
      <trkpt lat="47.85355" lon="-4.00148">
        <ele>4.281</ele>
        <time>2016-04-28T00:07:37Z</time>
      </trkpt>
      <trkpt lat="47.85333" lon="-4.00294">
        <ele>4.638</ele>
        <time>2016-04-28T00:07:17Z</time>
      </trkpt>
      <trkpt lat="47.85346" lon="-4.00438">
        <ele>6.131</ele>
        <time>2016-04-28T00:06:57Z</time>
      </trkpt>
      <trkpt lat="47.85319" lon="-4.0053">
        <ele>4.489</ele>
        <time>2016-04-28T00:06:37Z</time>
      </trkpt>
      <trkpt lat="47.85338" lon="-4.00655">
        <ele>5.063</ele>
        <time>2016-04-28T00:06:17Z</time>
      </trkpt>
      <trkpt lat="47.85329" lon="-4.00781">
        <ele>2.008</ele>
        <time>2016-04-28T00:05:57Z</time>
      </trkpt>
      <trkpt lat="47.85339" lon="-4.00916">
        <ele>4.019</ele>
        <time>2016-04-28T00:05:37Z</time>
      </trkpt>
      <trkpt lat="47.85368" lon="-4.01036">
        <ele>3.79</ele>
        <time>2016-04-28T00:05:17Z</time>
      </trkpt>
      <trkpt lat="47.85434" lon="-4.01266">
        <ele>3.776</ele>
        <time>2016-04-28T00:04:57Z</time>
      </trkpt>
      <trkpt lat="47.85484" lon="-4.01382">
        <ele>3.926</ele>
        <time>2016-04-28T00:04:37Z</time>
      </trkpt>
      <trkpt lat="47.8552" lon="-4.01401">
        <ele>4.068</ele>
        <time>2016-04-28T00:04:17Z</time>
      </trkpt>
      <trkpt lat="47.85568" lon="-4.01463">
        <ele>3.233</ele>
        <time>2016-04-28T00:03:57Z</time>
      </trkpt>
      <trkpt lat="47.85689" lon="-4.01592">
        <ele>3.092</ele>
        <time>2016-04-28T00:03:37Z</time>
      </trkpt>
      <trkpt lat="47.85634" lon="-4.01691">
        <ele>4.929</ele>
        <time>2016-04-28T00:03:17Z</time>
      </trkpt>
      <trkpt lat="47.85571" lon="-4.01678">
        <ele>4.252</ele>
        <time>2016-04-28T00:02:57Z</time>
      </trkpt>
      <trkpt lat="47.85502" lon="-4.01721">
        <ele>3.14</ele>
        <time>2016-04-28T00:02:37Z</time>
      </trkpt>
      <trkpt lat="47.85389" lon="-4.0188">
        <ele>2.344</ele>
        <time>2016-04-28T00:02:17Z</time>
      </trkpt>
      <trkpt lat="47.85369" lon="-4.01946">
        <ele>2.308</ele>
        <time>2016-04-28T00:01:57Z</time>
      </trkpt>
      <trkpt lat="47.85332" lon="-4.02062">
        <ele>2.417</ele>
        <time>2016-04-28T00:01:37Z</time>
      </trkpt>
      <trkpt lat="47.85315" lon="-4.0218">
        <ele>3.743</ele>
        <time>2016-04-28T00:01:17Z</time>
      </trkpt>
      <trkpt lat="47.85253" lon="-4.0241">
        <ele>4.782</ele>
        <time>2016-04-28T00:00:57Z</time>
      </trkpt>
      <trkpt lat="47.85271" lon="-4.02564">
        <ele>3.07</ele>
        <time>2016-04-28T00:00:37Z</time>
      </trkpt>
      <trkpt lat="47.85263" lon="-4.02631">
        <ele>3.042</ele>
        <time>2016-04-28T00:00:17Z</time>
      </trkpt>
      <trkpt lat="47.85264" lon="-4.0274">
        <ele>3.817</ele>
        <time>2016-04-27T23:59:57Z</time>
      </trkpt>
      <trkpt lat="47.85281" lon="-4.0289">
        <ele>6.946</ele>
        <time>2016-04-27T23:59:37Z</time>
      </trkpt>
      <trkpt lat="47.85319" lon="-4.02935">
        <ele>5.553</ele>
        <time>2016-04-27T23:59:17Z</time>
      </trkpt>
      <trkpt lat="47.85375" lon="-4.02948">
        <ele>5.666</ele>
        <time>2016-04-27T23:58:57Z</time>
      </trkpt>
      <trkpt lat="47.85304" lon="-4.0332">
        <ele>4.474</ele>
        <time>2016-04-27T23:57:17Z</time>
      </trkpt>
      <trkpt lat="47.85234" lon="-4.03352">
        <ele>2.798</ele>
        <time>2016-04-27T23:56:57Z</time>
      </trkpt>
      <trkpt lat="47.85133" lon="-4.03341">
        <ele>4.008</ele>
        <time>2016-04-27T23:56:37Z</time>
      </trkpt>
      <trkpt lat="47.85106" lon="-4.03397">
        <ele>4.42</ele>
        <time>2016-04-27T23:56:17Z</time>
      </trkpt>
      <trkpt lat="47.85084" lon="-4.03506">
        <ele>6</ele>
        <time>2016-04-27T23:55:57Z</time>
      </trkpt>
      <trkpt lat="47.85093" lon="-4.03607">
        <ele>4.429</ele>
        <time>2016-04-27T23:55:37Z</time>
      </trkpt>
      <trkpt lat="47.85113" lon="-4.03719">
        <ele>5.044</ele>
        <time>2016-04-27T23:55:17Z</time>
      </trkpt>
      <trkpt lat="47.85116" lon="-4.03764">
        <ele>4.636</ele>
        <time>2016-04-27T23:54:57Z</time>
      </trkpt>
      <trkpt lat="47.8507" lon="-4.03738">
        <ele>4.381</ele>
        <time>2016-04-27T23:54:37Z</time>
      </trkpt>
      <trkpt lat="47.8507" lon="-4.03738">
        <ele>4.35</ele>
        <time>2016-04-27T23:54:17Z</time>
      </trkpt>
      <trkpt lat="47.8497" lon="-4.03728">
        <ele>5.757</ele>
        <time>2020-12-18T21:36:11Z</time>
      </trkpt>
      <trkpt lat="47.84898" lon="-4.03706">
        <ele>3.03</ele>
        <time>2016-04-27T23:53:37Z</time>
      </trkpt>
      <trkpt lat="47.8478" lon="-4.03605">
        <ele>4.098</ele>
        <time>2016-04-27T23:53:17Z</time>
      </trkpt>
      <trkpt lat="47.84484" lon="-4.03965">
        <ele>1.942</ele>
        <time>2016-04-27T23:52:57Z</time>
      </trkpt>
      <trkpt lat="47.84455" lon="-4.04045">
        <ele>1.408</ele>
        <time>2016-04-27T23:52:37Z</time>
      </trkpt>
      <trkpt lat="47.84534" lon="-4.04139">
        <ele>3.216</ele>
        <time>2016-04-27T23:52:17Z</time>
      </trkpt>
      <trkpt lat="47.84648" lon="-4.04118">
        <ele>5.006</ele>
        <time>2016-04-27T23:51:57Z</time>
      </trkpt>
      <trkpt lat="47.84787" lon="-4.04328">
        <ele>5.564</ele>
        <time>2016-04-27T23:51:37Z</time>
      </trkpt>
      <trkpt lat="47.84933" lon="-4.04507">
        <ele>4.657</ele>
        <time>2020-12-18T21:33:31Z</time>
      </trkpt>
      <trkpt lat="47.84964" lon="-4.04495">
        <ele>5.059</ele>
        <time>2020-12-18T21:33:11Z</time>
      </trkpt>
      <trkpt lat="47.85107" lon="-4.04656">
        <ele>3.824</ele>
        <time>2016-04-27T23:50:37Z</time>
      </trkpt>
      <trkpt lat="47.85363" lon="-4.05055">
        <ele>3.963</ele>
        <time>2016-04-27T23:50:17Z</time>
      </trkpt>
      <trkpt lat="47.85433" lon="-4.05214">
        <ele>4.23</ele>
        <time>2016-04-27T23:49:57Z</time>
      </trkpt>
      <trkpt lat="47.85469" lon="-4.05143">
        <ele>1.993</ele>
        <time>2016-04-27T23:49:37Z</time>
      </trkpt>
      <trkpt lat="47.85579" lon="-4.05137">
        <ele>5.151</ele>
        <time>2016-04-27T23:49:17Z</time>
      </trkpt>
      <trkpt lat="47.85677" lon="-4.05032">
        <ele>6.945</ele>
        <time>2016-04-27T23:48:57Z</time>
      </trkpt>
      <trkpt lat="47.85716" lon="-4.05036">
        <ele>7.808</ele>
        <time>2016-04-27T23:48:37Z</time>
      </trkpt>
      <trkpt lat="47.85843" lon="-4.05133">
        <ele>9.12</ele>
        <time>2016-04-27T23:48:17Z</time>
      </trkpt>
      <trkpt lat="47.85983" lon="-4.05148">
        <ele>7.773</ele>
        <time>2016-04-27T23:47:57Z</time>
      </trkpt>
      <trkpt lat="47.8605" lon="-4.05225">
        <ele>8.892</ele>
        <time>2016-04-27T23:47:37Z</time>
      </trkpt>
      <trkpt lat="47.86078" lon="-4.05236">
        <ele>9.036</ele>
        <time>2016-04-27T23:47:17Z</time>
      </trkpt>
      <trkpt lat="47.86214" lon="-4.05382">
        <ele>6.668</ele>
        <time>2020-12-18T21:29:11Z</time>
      </trkpt>
      <trkpt lat="47.86206" lon="-4.05411">
        <ele>6.123</ele>
        <time>2020-12-18T21:28:51Z</time>
      </trkpt>
      <trkpt lat="47.86218" lon="-4.05555">
        <ele>6.272</ele>
        <time>2020-12-18T21:28:31Z</time>
      </trkpt>
      <trkpt lat="47.86202" lon="-4.05606">
        <ele>5.929</ele>
        <time>2020-12-18T21:28:11Z</time>
      </trkpt>
      <trkpt lat="47.86208" lon="-4.05654">
        <ele>5.892</ele>
        <time>2020-12-18T21:27:51Z</time>
      </trkpt>
      <trkpt lat="47.86265" lon="-4.05721">
        <ele>6.59</ele>
        <time>2020-12-18T21:27:31Z</time>
      </trkpt>
      <trkpt lat="47.86311" lon="-4.05811">
        <ele>8.054</ele>
        <time>2016-04-27T23:40:37Z</time>
      </trkpt>
      <trkpt lat="47.86389" lon="-4.05761">
        <ele>10.008</ele>
        <time>2016-04-27T23:40:17Z</time>
      </trkpt>
      <trkpt lat="47.86419" lon="-4.05927">
        <ele>9.926</ele>
        <time>2016-04-27T23:39:57Z</time>
      </trkpt>
      <trkpt lat="47.86088" lon="-4.06225">
        <ele>3.142</ele>
        <time>2016-04-27T23:39:37Z</time>
      </trkpt>
      <trkpt lat="47.86112" lon="-4.06335">
        <ele>4.087</ele>
        <time>2016-04-27T23:39:17Z</time>
      </trkpt>
      <trkpt lat="47.86151" lon="-4.06353">
        <ele>3.645</ele>
        <time>2016-04-27T23:38:57Z</time>
      </trkpt>
      <trkpt lat="47.8623" lon="-4.06321">
        <ele>3.317</ele>
        <time>2016-04-27T23:38:37Z</time>
      </trkpt>
      <trkpt lat="47.86226" lon="-4.06482">
        <ele>0.752</ele>
        <time>2016-04-27T23:38:17Z</time>
      </trkpt>
      <trkpt lat="47.86393" lon="-4.06421">
        <ele>6.771</ele>
        <time>2016-04-27T23:37:57Z</time>
      </trkpt>
      <trkpt lat="47.86475" lon="-4.06319">
        <ele>4.928</ele>
        <time>2016-04-27T23:37:37Z</time>
      </trkpt>
      <trkpt lat="47.8651" lon="-4.06313">
        <ele>3.831</ele>
        <time>2016-04-27T23:37:17Z</time>
      </trkpt>
      <trkpt lat="47.8659" lon="-4.06185">
        <ele>8.859</ele>
        <time>2016-04-27T23:36:57Z</time>
      </trkpt>
      <trkpt lat="47.86604" lon="-4.06198">
        <ele>9.213</ele>
        <time>2020-12-18T21:23:11Z</time>
      </trkpt>
      <trkpt lat="47.86577" lon="-4.06261">
        <ele>5.008</ele>
        <time>2020-12-18T21:22:51Z</time>
      </trkpt>
      <trkpt lat="47.86576" lon="-4.06326">
        <ele>4.014</ele>
        <time>2020-12-18T21:22:31Z</time>
      </trkpt>
      <trkpt lat="47.86638" lon="-4.06345">
        <ele>6.913</ele>
        <time>2020-12-18T21:22:11Z</time>
      </trkpt>
      <trkpt lat="47.86717" lon="-4.06314">
        <ele>7.272</ele>
        <time>2020-12-18T21:21:51Z</time>
      </trkpt>
      <trkpt lat="47.86744" lon="-4.06319">
        <ele>5.969</ele>
        <time>2020-12-18T21:21:31Z</time>
      </trkpt>
      <trkpt lat="47.86753" lon="-4.06386">
        <ele>5.081</ele>
        <time>2016-04-27T23:35:57Z</time>
      </trkpt>
      <trkpt lat="47.86659" lon="-4.06401">
        <ele>6.486</ele>
        <time>2016-04-27T23:35:37Z</time>
      </trkpt>
      <trkpt lat="47.86589" lon="-4.06441">
        <ele>7.855</ele>
        <time>2016-04-27T23:35:17Z</time>
      </trkpt>
      <trkpt lat="47.86512" lon="-4.06433">
        <ele>6.072</ele>
        <time>2016-04-27T23:34:57Z</time>
      </trkpt>
      <trkpt lat="47.86424" lon="-4.065">
        <ele>5.045</ele>
        <time>2016-04-27T23:34:37Z</time>
      </trkpt>
      <trkpt lat="47.86378" lon="-4.06604">
        <ele>5.313</ele>
        <time>2016-04-27T23:34:17Z</time>
      </trkpt>
      <trkpt lat="47.86307" lon="-4.0668">
        <ele>4.037</ele>
        <time>2016-04-27T23:33:57Z</time>
      </trkpt>
      <trkpt lat="47.8632" lon="-4.0674">
        <ele>3.408</ele>
        <time>2016-04-27T23:33:37Z</time>
      </trkpt>
      <trkpt lat="47.86355" lon="-4.06778">
        <ele>2.817</ele>
        <time>2016-04-27T23:33:17Z</time>
      </trkpt>
      <trkpt lat="47.86498" lon="-4.06788">
        <ele>7.498</ele>
        <time>2016-04-27T23:32:57Z</time>
      </trkpt>
      <trkpt lat="47.86569" lon="-4.06836">
        <ele>9.518</ele>
        <time>2016-04-27T23:32:37Z</time>
      </trkpt>
      <trkpt lat="47.86617" lon="-4.0683">
        <ele>10.074</ele>
        <time>2016-04-27T23:32:17Z</time>
      </trkpt>
      <trkpt lat="47.86663" lon="-4.06806">
        <ele>9.136</ele>
        <time>2016-04-27T23:31:57Z</time>
      </trkpt>
      <trkpt lat="47.8675" lon="-4.06678">
        <ele>9.461</ele>
        <time>2016-04-27T23:31:37Z</time>
      </trkpt>
      <trkpt lat="47.86933" lon="-4.0652">
        <ele>11.95</ele>
        <time>2016-04-27T23:31:17Z</time>
      </trkpt>
      <trkpt lat="47.87049" lon="-4.0647">
        <ele>12.267</ele>
        <time>2016-04-27T23:30:57Z</time>
      </trkpt>
      <trkpt lat="47.87104" lon="-4.066">
        <ele>15.15</ele>
        <time>2016-04-27T23:30:37Z</time>
      </trkpt>
      <trkpt lat="47.87163" lon="-4.06798">
        <ele>12.758</ele>
        <time>2016-04-27T23:30:17Z</time>
      </trkpt>
      <trkpt lat="47.87231" lon="-4.06978">
        <ele>16.222</ele>
        <time>2016-04-27T23:29:57Z</time>
      </trkpt>
      <trkpt lat="47.8728" lon="-4.0703">
        <ele>16.108</ele>
        <time>2016-04-27T23:29:37Z</time>
      </trkpt>
      <trkpt lat="47.87576" lon="-4.07231">
        <ele>19.514</ele>
        <time>2016-04-27T23:29:17Z</time>
      </trkpt>
      <trkpt lat="47.87625" lon="-4.07315">
        <ele>20.068</ele>
        <time>2016-04-27T23:28:57Z</time>
      </trkpt>
      <trkpt lat="47.87631" lon="-4.07401">
        <ele>18.665</ele>
        <time>2016-04-27T23:28:37Z</time>
      </trkpt>
      <trkpt lat="47.87595" lon="-4.07525">
        <ele>19.861</ele>
        <time>2016-04-27T23:28:17Z</time>
      </trkpt>
      <trkpt lat="47.87531" lon="-4.07643">
        <ele>18.483</ele>
        <time>2016-04-27T23:27:57Z</time>
      </trkpt>
      <trkpt lat="47.87526" lon="-4.07697">
        <ele>14.118</ele>
        <time>2016-04-27T23:27:37Z</time>
      </trkpt>
      <trkpt lat="47.87543" lon="-4.07841">
        <ele>7.347</ele>
        <time>2016-04-27T23:27:17Z</time>
      </trkpt>
      <trkpt lat="47.87504" lon="-4.07819">
        <ele>9.564</ele>
        <time>2016-04-27T23:26:57Z</time>
      </trkpt>
      <trkpt lat="47.87453" lon="-4.07809">
        <ele>8.897</ele>
        <time>2016-04-27T23:26:37Z</time>
      </trkpt>
      <trkpt lat="47.87346" lon="-4.07883">
        <ele>9.555</ele>
        <time>2016-04-27T23:26:17Z</time>
      </trkpt>
      <trkpt lat="47.87392" lon="-4.07989">
        <ele>9.319</ele>
        <time>2016-04-27T23:25:57Z</time>
      </trkpt>
      <trkpt lat="47.87328" lon="-4.08059">
        <ele>7.508</ele>
        <time>2016-04-27T23:25:37Z</time>
      </trkpt>
      <trkpt lat="47.87274" lon="-4.08145">
        <ele>2.914</ele>
        <time>2016-04-27T23:25:17Z</time>
      </trkpt>
      <trkpt lat="47.87278" lon="-4.08189">
        <ele>3.086</ele>
        <time>2016-04-27T23:24:57Z</time>
      </trkpt>
      <trkpt lat="47.87361" lon="-4.08237">
        <ele>2.535</ele>
        <time>2016-04-27T23:24:37Z</time>
      </trkpt>
      <trkpt lat="47.87373" lon="-4.08339">
        <ele>2.611</ele>
        <time>2016-04-27T23:24:17Z</time>
      </trkpt>
      <trkpt lat="47.87316" lon="-4.08442">
        <ele>4.613</ele>
        <time>2016-04-27T23:23:57Z</time>
      </trkpt>
      <trkpt lat="47.87232" lon="-4.08406">
        <ele>3.938</ele>
        <time>2016-04-27T23:23:37Z</time>
      </trkpt>
      <trkpt lat="47.87173" lon="-4.08305">
        <ele>4.817</ele>
        <time>2016-04-27T23:23:17Z</time>
      </trkpt>
      <trkpt lat="47.87064" lon="-4.08265">
        <ele>5.944</ele>
        <time>2016-04-27T23:22:57Z</time>
      </trkpt>
      <trkpt lat="47.86999" lon="-4.08249">
        <ele>6.087</ele>
        <time>2016-04-27T23:22:37Z</time>
      </trkpt>
      <trkpt lat="47.87" lon="-4.08153">
        <ele>4.095</ele>
        <time>2016-04-27T23:22:17Z</time>
      </trkpt>
      <trkpt lat="47.86988" lon="-4.08101">
        <ele>4.299</ele>
        <time>2016-04-27T23:21:57Z</time>
      </trkpt>
      <trkpt lat="47.86906" lon="-4.08065">
        <ele>5.408</ele>
        <time>2016-04-27T23:21:37Z</time>
      </trkpt>
      <trkpt lat="47.8679" lon="-4.07957">
        <ele>1.718</ele>
        <time>2016-04-27T23:21:17Z</time>
      </trkpt>
      <trkpt lat="47.86748" lon="-4.07879">
        <ele>2.017</ele>
        <time>2016-04-27T23:20:57Z</time>
      </trkpt>
      <trkpt lat="47.86723" lon="-4.07791">
        <ele>3.036</ele>
        <time>2020-12-18T21:05:51Z</time>
      </trkpt>
      <trkpt lat="47.86649" lon="-4.07793">
        <ele>3.39</ele>
        <time>2016-04-27T23:18:57Z</time>
      </trkpt>
      <trkpt lat="47.866" lon="-4.07847">
        <ele>3.592</ele>
        <time>2016-04-27T23:18:37Z</time>
      </trkpt>
      <trkpt lat="47.86475" lon="-4.08129">
        <ele>4.277</ele>
        <time>2016-04-27T23:18:17Z</time>
      </trkpt>
      <trkpt lat="47.86469" lon="-4.08303">
        <ele>4.536</ele>
        <time>2016-04-27T23:17:57Z</time>
      </trkpt>
      <trkpt lat="47.86487" lon="-4.08406">
        <ele>2.433</ele>
        <time>2016-04-27T23:17:37Z</time>
      </trkpt>
      <trkpt lat="47.86494" lon="-4.08468">
        <ele>3.116</ele>
        <time>2016-04-27T23:17:17Z</time>
      </trkpt>
      <trkpt lat="47.8648" lon="-4.08514">
        <ele>5.154</ele>
        <time>2016-04-27T23:16:57Z</time>
      </trkpt>
      <trkpt lat="47.86479" lon="-4.08558">
        <ele>4.978</ele>
        <time>2016-04-27T23:16:37Z</time>
      </trkpt>
      <trkpt lat="47.86447" lon="-4.08638">
        <ele>0.408</ele>
        <time>2016-04-27T23:16:17Z</time>
      </trkpt>
      <trkpt lat="47.86463" lon="-4.0876">
        <ele>8.911</ele>
        <time>2016-04-27T23:15:57Z</time>
      </trkpt>
      <trkpt lat="47.86436" lon="-4.08836">
        <ele>4.283</ele>
        <time>2016-04-27T23:15:37Z</time>
      </trkpt>
      <trkpt lat="47.86381" lon="-4.0892">
        <ele>0.523</ele>
        <time>2016-04-27T23:15:17Z</time>
      </trkpt>
      <trkpt lat="47.86279" lon="-4.09021">
        <ele>5.147</ele>
        <time>2016-04-27T23:14:57Z</time>
      </trkpt>
      <trkpt lat="47.86191" lon="-4.09062">
        <ele>5.179</ele>
        <time>2016-04-27T23:12:37Z</time>
      </trkpt>
      <trkpt lat="47.86116" lon="-4.09059">
        <ele>2.144</ele>
        <time>2016-04-27T23:12:17Z</time>
      </trkpt>
      <trkpt lat="47.86144" lon="-4.09345">
        <ele>5.943</ele>
        <time>2016-04-27T23:11:57Z</time>
      </trkpt>
      <trkpt lat="47.86142" lon="-4.09392">
        <ele>3.52</ele>
        <time>2016-04-27T23:11:37Z</time>
      </trkpt>
      <trkpt lat="47.86165" lon="-4.09465">
        <ele>3.543</ele>
        <time>2016-04-27T23:11:17Z</time>
      </trkpt>
      <trkpt lat="47.8622" lon="-4.09542">
        <ele>9.281</ele>
        <time>2016-04-27T23:10:57Z</time>
      </trkpt>
      <trkpt lat="47.86232" lon="-4.09617">
        <ele>7.655</ele>
        <time>2016-04-27T23:10:37Z</time>
      </trkpt>
      <trkpt lat="47.86315" lon="-4.09778">
        <ele>11.308</ele>
        <time>2016-04-27T23:10:17Z</time>
      </trkpt>
      <trkpt lat="47.86351" lon="-4.09866">
        <ele>5.52</ele>
        <time>2016-04-27T23:09:57Z</time>
      </trkpt>
      <trkpt lat="47.86432" lon="-4.09888">
        <ele>5.273</ele>
        <time>2016-04-27T23:09:37Z</time>
      </trkpt>
      <trkpt lat="47.86509" lon="-4.09963">
        <ele>4.292</ele>
        <time>2016-04-27T23:09:17Z</time>
      </trkpt>
      <trkpt lat="47.86554" lon="-4.10064">
        <ele>4.615</ele>
        <time>2016-04-27T23:07:57Z</time>
      </trkpt>
      <trkpt lat="47.86609" lon="-4.10139">
        <ele>4.867</ele>
        <time>2016-04-27T23:07:37Z</time>
      </trkpt>
      <trkpt lat="47.86672" lon="-4.10186">
        <ele>5.142</ele>
        <time>2016-04-27T23:07:17Z</time>
      </trkpt>
      <trkpt lat="47.86702" lon="-4.10188">
        <ele>5.371</ele>
        <time>2016-04-27T23:06:57Z</time>
      </trkpt>
      <trkpt lat="47.86747" lon="-4.10122">
        <ele>8.498</ele>
        <time>2016-04-27T23:06:37Z</time>
      </trkpt>
      <trkpt lat="47.86799" lon="-4.10113">
        <ele>3.931</ele>
        <time>2016-04-27T23:06:17Z</time>
      </trkpt>
      <trkpt lat="47.86848" lon="-4.10044">
        <ele>1.369</ele>
        <time>2016-04-27T23:05:57Z</time>
      </trkpt>
      <trkpt lat="47.86885" lon="-4.10034">
        <ele>0.923</ele>
        <time>2016-04-27T23:05:37Z</time>
      </trkpt>
      <trkpt lat="47.86997" lon="-4.10107">
        <ele>4.208</ele>
        <time>2016-04-27T23:05:17Z</time>
      </trkpt>
      <trkpt lat="47.87051" lon="-4.10188">
        <ele>4.213</ele>
        <time>2016-04-27T23:04:57Z</time>
      </trkpt>
      <trkpt lat="47.87128" lon="-4.10392">
        <ele>5.085</ele>
        <time>2016-04-27T23:04:37Z</time>
      </trkpt>
      <trkpt lat="47.87154" lon="-4.10531">
        <ele>5.773</ele>
        <time>2016-04-27T23:04:17Z</time>
      </trkpt>
      <trkpt lat="47.87163" lon="-4.10819">
        <ele>5.78</ele>
        <time>2016-04-27T23:03:57Z</time>
      </trkpt>
      <trkpt lat="47.87151" lon="-4.1092">
        <ele>7.532</ele>
        <time>2016-04-27T23:03:37Z</time>
      </trkpt>
      <trkpt lat="47.87121" lon="-4.11024">
        <ele>0.027</ele>
        <time>2020-12-18T20:52:51Z</time>
      </trkpt>
      <trkpt lat="47.87177" lon="-4.11096">
        <ele>0.096</ele>
        <time>2016-04-27T23:02:17Z</time>
      </trkpt>
      <trkpt lat="47.87275" lon="-4.11154">
        <ele>7.543</ele>
        <time>2016-04-27T23:01:57Z</time>
      </trkpt>
      <trkpt lat="47.87377" lon="-4.11358">
        <ele>4.746</ele>
        <time>2016-04-27T23:01:37Z</time>
      </trkpt>
      <trkpt lat="47.87412" lon="-4.11375">
        <ele>7.214</ele>
        <time>2016-04-27T23:01:17Z</time>
      </trkpt>
      <trkpt lat="47.87455" lon="-4.11443">
        <ele>6.088</ele>
        <time>2016-04-27T23:00:57Z</time>
      </trkpt>
      <trkpt lat="47.87482" lon="-4.1147">
        <ele>6.408</ele>
        <time>2016-04-27T23:00:37Z</time>
      </trkpt>
      <trkpt lat="47.87511" lon="-4.11477">
        <ele>7.614</ele>
        <time>2016-04-27T23:00:17Z</time>
      </trkpt>
      <trkpt lat="47.87607" lon="-4.1157">
        <ele>3.704</ele>
        <time>2016-04-27T22:59:57Z</time>
      </trkpt>
      <trkpt lat="47.8764" lon="-4.11567">
        <ele>3.824</ele>
        <time>2016-04-27T22:59:37Z</time>
      </trkpt>
      <trkpt lat="47.87644" lon="-4.11596">
        <ele>1.824</ele>
        <time>2016-04-27T22:59:17Z</time>
      </trkpt>
      <trkpt lat="47.87674" lon="-4.11641">
        <ele>1.586</ele>
        <time>2016-04-27T22:58:57Z</time>
      </trkpt>
      <trkpt lat="47.87737" lon="-4.11642">
        <ele>3.861</ele>
        <time>2016-04-27T22:58:37Z</time>
      </trkpt>
      <trkpt lat="47.87748" lon="-4.11653">
        <ele>3.48</ele>
        <time>2016-04-27T22:58:17Z</time>
      </trkpt>
      <trkpt lat="47.87793" lon="-4.11651">
        <ele>5.327</ele>
        <time>2020-12-18T20:48:11Z</time>
      </trkpt>
      <trkpt lat="47.87812" lon="-4.1167">
        <ele>4.62</ele>
        <time>2020-12-18T20:47:51Z</time>
      </trkpt>
      <trkpt lat="47.87856" lon="-4.1167">
        <ele>3.228</ele>
        <time>2020-12-18T20:47:31Z</time>
      </trkpt>
      <trkpt lat="47.87874" lon="-4.11658">
        <ele>3.852</ele>
        <time>2020-12-18T20:47:11Z</time>
      </trkpt>
      <trkpt lat="47.87932" lon="-4.11752">
        <ele>0.008</ele>
        <time>2016-04-27T22:57:17Z</time>
      </trkpt>
      <trkpt lat="47.8795" lon="-4.11692">
        <ele>5.519</ele>
        <time>2016-04-27T22:56:57Z</time>
      </trkpt>
      <trkpt lat="47.88037" lon="-4.11581">
        <ele>11.481</ele>
        <time>2016-04-27T22:56:37Z</time>
      </trkpt>
      <trkpt lat="47.88097" lon="-4.11589">
        <ele>3.867</ele>
        <time>2016-04-27T22:56:17Z</time>
      </trkpt>
      <trkpt lat="47.8813" lon="-4.11555">
        <ele>3.36</ele>
        <time>2016-04-27T22:55:57Z</time>
      </trkpt>
      <trkpt lat="47.88159" lon="-4.11553">
        <ele>1.362</ele>
        <time>2016-04-27T22:55:37Z</time>
      </trkpt>
      <trkpt lat="47.88225" lon="-4.11467">
        <ele>0.947</ele>
        <time>2016-04-27T22:55:17Z</time>
      </trkpt>
      <trkpt lat="47.8825" lon="-4.11413">
        <ele>0.036</ele>
        <time>2016-04-27T22:54:37Z</time>
      </trkpt>
      <trkpt lat="47.88258" lon="-4.11317">
        <ele>0.053</ele>
        <time>2016-04-27T22:54:17Z</time>
      </trkpt>
      <trkpt lat="47.88278" lon="-4.11246">
        <ele>0.036</ele>
        <time>2016-04-27T22:53:57Z</time>
      </trkpt>
      <trkpt lat="47.8827" lon="-4.11207">
        <ele>0.044</ele>
        <time>2016-04-27T22:53:37Z</time>
      </trkpt>
      <trkpt lat="47.88206" lon="-4.11139">
        <ele>7.058</ele>
        <time>2020-12-18T20:43:11Z</time>
      </trkpt>
      <trkpt lat="47.88201" lon="-4.11077">
        <ele>0.008</ele>
        <time>2016-04-27T22:52:17Z</time>
      </trkpt>
      <trkpt lat="47.88186" lon="-4.10916">
        <ele>2.411</ele>
        <time>2016-04-27T22:51:57Z</time>
      </trkpt>
      <trkpt lat="47.88149" lon="-4.1089">
        <ele>9.083</ele>
        <time>2016-04-27T22:51:37Z</time>
      </trkpt>
      <trkpt lat="47.88139" lon="-4.10849">
        <ele>9.023</ele>
        <time>2016-04-27T22:51:17Z</time>
      </trkpt>
      <trkpt lat="47.88152" lon="-4.10742">
        <ele>0.092</ele>
        <time>2016-04-27T22:50:57Z</time>
      </trkpt>
      <trkpt lat="47.8811" lon="-4.10649">
        <ele>9.474</ele>
        <time>2020-12-18T20:41:11Z</time>
      </trkpt>
      <trkpt lat="47.88079" lon="-4.10598">
        <ele>8.599</ele>
        <time>2020-12-18T20:40:51Z</time>
      </trkpt>
      <trkpt lat="47.88085" lon="-4.10546">
        <ele>7.028</ele>
        <time>2016-04-27T22:49:57Z</time>
      </trkpt>
      <trkpt lat="47.88119" lon="-4.10563">
        <ele>8.755</ele>
        <time>2016-04-27T22:49:37Z</time>
      </trkpt>
      <trkpt lat="47.88149" lon="-4.10588">
        <ele>10.678</ele>
        <time>2016-04-27T22:49:17Z</time>
      </trkpt>
      <trkpt lat="47.88214" lon="-4.10687">
        <ele>1.476</ele>
        <time>2016-04-27T22:48:57Z</time>
      </trkpt>
      <trkpt lat="47.88227" lon="-4.10695">
        <ele>1.23</ele>
        <time>2016-04-27T22:48:37Z</time>
      </trkpt>
      <trkpt lat="47.8836" lon="-4.10946">
        <ele>5.108</ele>
        <time>2016-04-27T22:48:17Z</time>
      </trkpt>
      <trkpt lat="47.88326" lon="-4.10999">
        <ele>7.61</ele>
        <time>2016-04-27T22:47:57Z</time>
      </trkpt>
      <trkpt lat="47.88323" lon="-4.11037">
        <ele>7.164</ele>
        <time>2016-04-27T22:47:37Z</time>
      </trkpt>
      <trkpt lat="47.8836" lon="-4.11086">
        <ele>4.843</ele>
        <time>2016-04-27T22:47:17Z</time>
      </trkpt>
      <trkpt lat="47.88402" lon="-4.1109">
        <ele>6.41</ele>
        <time>2016-04-27T22:46:57Z</time>
      </trkpt>
      <trkpt lat="47.88456" lon="-4.11123">
        <ele>6.432</ele>
        <time>2016-04-27T22:46:37Z</time>
      </trkpt>
      <trkpt lat="47.88484" lon="-4.11176">
        <ele>8.187</ele>
        <time>2016-04-27T22:46:17Z</time>
      </trkpt>
      <trkpt lat="47.88454" lon="-4.11274">
        <ele>7.036</ele>
        <time>2016-04-27T22:45:57Z</time>
      </trkpt>
      <trkpt lat="47.88493" lon="-4.11324">
        <ele>11.043</ele>
        <time>2016-04-27T22:45:37Z</time>
      </trkpt>
      <trkpt lat="47.88491" lon="-4.11342">
        <ele>9.926</ele>
        <time>2016-04-27T22:45:17Z</time>
      </trkpt>
      <trkpt lat="47.8852" lon="-4.11366">
        <ele>11.084</ele>
        <time>2016-04-27T22:44:57Z</time>
      </trkpt>
      <trkpt lat="47.88521" lon="-4.11461">
        <ele>4.168</ele>
        <time>2016-04-27T22:44:37Z</time>
      </trkpt>
      <trkpt lat="47.88504" lon="-4.11549">
        <ele>9.808</ele>
        <time>2016-04-27T22:44:17Z</time>
      </trkpt>
      <trkpt lat="47.88475" lon="-4.11601">
        <ele>9.208</ele>
        <time>2016-04-27T22:43:57Z</time>
      </trkpt>
      <trkpt lat="47.88459" lon="-4.11615">
        <ele>7.462</ele>
        <time>2016-04-27T22:41:37Z</time>
      </trkpt>
      <trkpt lat="47.88446" lon="-4.11674">
        <ele>4.022</ele>
        <time>2016-04-27T22:41:17Z</time>
      </trkpt>
      <trkpt lat="47.88476" lon="-4.11672">
        <ele>8.026</ele>
        <time>2016-04-27T22:40:57Z</time>
      </trkpt>
      <trkpt lat="47.88475" lon="-4.11691">
        <ele>7.228</ele>
        <time>2016-04-27T22:38:17Z</time>
      </trkpt>
      <trkpt lat="47.88493" lon="-4.11704">
        <ele>7.413</ele>
        <time>2016-04-27T22:37:57Z</time>
      </trkpt>
      <trkpt lat="47.8851" lon="-4.11731">
        <ele>8.112</ele>
        <time>2016-04-27T22:37:37Z</time>
      </trkpt>
      <trkpt lat="47.88542" lon="-4.11815">
        <ele>7.159</ele>
        <time>2016-04-27T22:37:17Z</time>
      </trkpt>
      <trkpt lat="47.88598" lon="-4.11878">
        <ele>15.712</ele>
        <time>2020-12-18T20:31:51Z</time>
      </trkpt>
      <trkpt lat="47.88607" lon="-4.1202">
        <ele>0.81</ele>
        <time>2020-12-18T20:31:31Z</time>
      </trkpt>
      <trkpt lat="47.87975" lon="-4.12954">
        <ele>22.334</ele>
        <time>2016-04-27T22:25:37Z</time>
      </trkpt>
      <trkpt lat="47.87883" lon="-4.13102">
        <ele>22.708</ele>
        <time>2016-04-27T22:25:17Z</time>
      </trkpt>
      <trkpt lat="47.87831" lon="-4.13272">
        <ele>27.717</ele>
        <time>2016-04-27T22:24:57Z</time>
      </trkpt>
      <trkpt lat="47.87809" lon="-4.13439">
        <ele>30.461</ele>
        <time>2016-04-27T22:24:37Z</time>
      </trkpt>
      <trkpt lat="47.8777" lon="-4.13422">
        <ele>28.381</ele>
        <time>2016-04-27T22:24:17Z</time>
      </trkpt>
      <trkpt lat="47.87717" lon="-4.13332">
        <ele>25.089</ele>
        <time>2016-04-27T22:23:57Z</time>
      </trkpt>
      <trkpt lat="47.87467" lon="-4.12999">
        <ele>22.261</ele>
        <time>2016-04-27T22:23:37Z</time>
      </trkpt>
      <trkpt lat="47.87426" lon="-4.12913">
        <ele>23.056</ele>
        <time>2016-04-27T22:23:17Z</time>
      </trkpt>
      <trkpt lat="47.87376" lon="-4.12772">
        <ele>19.925</ele>
        <time>2016-04-27T22:22:57Z</time>
      </trkpt>
      <trkpt lat="47.87495" lon="-4.12626">
        <ele>19.822</ele>
        <time>2016-04-27T22:22:37Z</time>
      </trkpt>
      <trkpt lat="47.87611" lon="-4.12458">
        <ele>21.535</ele>
        <time>2016-04-27T22:22:17Z</time>
      </trkpt>
      <trkpt lat="47.87624" lon="-4.12409">
        <ele>21.373</ele>
        <time>2016-04-27T22:21:57Z</time>
      </trkpt>
      <trkpt lat="47.87654" lon="-4.12355">
        <ele>22.167</ele>
        <time>2016-04-27T22:21:37Z</time>
      </trkpt>
      <trkpt lat="47.87658" lon="-4.12315">
        <ele>20.008</ele>
        <time>2016-04-27T22:21:17Z</time>
      </trkpt>
      <trkpt lat="47.87611" lon="-4.12255">
        <ele>16.009</ele>
        <time>2016-04-27T22:20:57Z</time>
      </trkpt>
      <trkpt lat="47.87533" lon="-4.12186">
        <ele>16.354</ele>
        <time>2016-04-27T22:20:37Z</time>
      </trkpt>
      <trkpt lat="47.87504" lon="-4.12179">
        <ele>14.814</ele>
        <time>2016-04-27T22:20:17Z</time>
      </trkpt>
      <trkpt lat="47.87498" lon="-4.12104">
        <ele>13.271</ele>
        <time>2016-04-27T22:19:57Z</time>
      </trkpt>
      <trkpt lat="47.87481" lon="-4.12053">
        <ele>7.333</ele>
        <time>2016-04-27T22:19:37Z</time>
      </trkpt>
      <trkpt lat="47.87432" lon="-4.12089">
        <ele>9.148</ele>
        <time>2016-04-27T22:19:17Z</time>
      </trkpt>
      <trkpt lat="47.87404" lon="-4.1206">
        <ele>7.647</ele>
        <time>2020-12-18T20:24:31Z</time>
      </trkpt>
      <trkpt lat="47.87393" lon="-4.11999">
        <ele>5.544</ele>
        <time>2020-12-18T20:24:11Z</time>
      </trkpt>
      <trkpt lat="47.87369" lon="-4.12008">
        <ele>9.877</ele>
        <time>2016-04-27T22:18:17Z</time>
      </trkpt>
      <trkpt lat="47.8733" lon="-4.11875">
        <ele>14.035</ele>
        <time>2016-04-27T22:17:57Z</time>
      </trkpt>
      <trkpt lat="47.87265" lon="-4.11821">
        <ele>14.189</ele>
        <time>2016-04-27T22:17:37Z</time>
      </trkpt>
      <trkpt lat="47.87084" lon="-4.11759">
        <ele>14.008</ele>
        <time>2016-04-27T22:17:17Z</time>
      </trkpt>
      <trkpt lat="47.87092" lon="-4.11699">
        <ele>12.413</ele>
        <time>2016-04-27T22:16:57Z</time>
      </trkpt>
      <trkpt lat="47.87068" lon="-4.11686">
        <ele>11.849</ele>
        <time>2016-04-27T22:16:37Z</time>
      </trkpt>
      <trkpt lat="47.87064" lon="-4.11656">
        <ele>11.237</ele>
        <time>2016-04-27T22:16:17Z</time>
      </trkpt>
      <trkpt lat="47.87031" lon="-4.11647">
        <ele>11.977</ele>
        <time>2016-04-27T22:15:57Z</time>
      </trkpt>
      <trkpt lat="47.87029" lon="-4.11493">
        <ele>4.289</ele>
        <time>2016-04-27T22:15:37Z</time>
      </trkpt>
      <trkpt lat="47.86982" lon="-4.11497">
        <ele>4.324</ele>
        <time>2016-04-27T22:12:57Z</time>
      </trkpt>
      <trkpt lat="47.86946" lon="-4.11463">
        <ele>4.673</ele>
        <time>2016-04-27T22:12:37Z</time>
      </trkpt>
      <trkpt lat="47.86938" lon="-4.11411">
        <ele>2.99</ele>
        <time>2016-04-27T22:12:17Z</time>
      </trkpt>
      <trkpt lat="47.86895" lon="-4.11355">
        <ele>2.843</ele>
        <time>2016-04-27T22:11:57Z</time>
      </trkpt>
      <trkpt lat="47.86866" lon="-4.1136">
        <ele>3.871</ele>
        <time>2016-04-27T22:11:37Z</time>
      </trkpt>
      <trkpt lat="47.86829" lon="-4.11332">
        <ele>4.135</ele>
        <time>2016-04-27T22:11:17Z</time>
      </trkpt>
      <trkpt lat="47.8674" lon="-4.11298">
        <ele>4.808</ele>
        <time>2016-04-27T22:10:57Z</time>
      </trkpt>
      <trkpt lat="47.86659" lon="-4.11295">
        <ele>3.526</ele>
        <time>2016-04-27T22:10:37Z</time>
      </trkpt>
      <trkpt lat="47.86592" lon="-4.11293">
        <ele>5.115</ele>
        <time>2016-04-27T22:10:17Z</time>
      </trkpt>
      <trkpt lat="47.86501" lon="-4.11248">
        <ele>4.698</ele>
        <time>2016-04-27T22:09:57Z</time>
      </trkpt>
      <trkpt lat="47.86419" lon="-4.1128">
        <ele>5.257</ele>
        <time>2016-04-27T22:09:37Z</time>
      </trkpt>
      <trkpt lat="47.86427" lon="-4.11375">
        <ele>10.569</ele>
        <time>2016-04-27T22:09:17Z</time>
      </trkpt>
      <trkpt lat="47.8636" lon="-4.11377">
        <ele>9.194</ele>
        <time>2016-04-27T22:08:57Z</time>
      </trkpt>
      <trkpt lat="47.86301" lon="-4.1136">
        <ele>7.653</ele>
        <time>2020-12-18T20:16:31Z</time>
      </trkpt>
      <trkpt lat="47.8625" lon="-4.11333">
        <ele>3.09</ele>
        <time>2020-12-18T20:16:11Z</time>
      </trkpt>
      <trkpt lat="47.86244" lon="-4.1136">
        <ele>2.633</ele>
        <time>2020-12-18T20:15:51Z</time>
      </trkpt>
      <trkpt lat="47.86246" lon="-4.11486">
        <ele>3.121</ele>
        <time>2016-04-27T22:07:57Z</time>
      </trkpt>
      <trkpt lat="47.86338" lon="-4.11611">
        <ele>4.735</ele>
        <time>2016-04-27T22:07:37Z</time>
      </trkpt>
      <trkpt lat="47.86422" lon="-4.11737">
        <ele>7.008</ele>
        <time>2016-04-27T22:07:17Z</time>
      </trkpt>
      <trkpt lat="47.86416" lon="-4.11845">
        <ele>3.921</ele>
        <time>2016-04-27T22:06:57Z</time>
      </trkpt>
      <trkpt lat="47.86438" lon="-4.11918">
        <ele>6.465</ele>
        <time>2016-04-27T22:06:37Z</time>
      </trkpt>
      <trkpt lat="47.86494" lon="-4.1204">
        <ele>6.993</ele>
        <time>2016-04-27T22:06:17Z</time>
      </trkpt>
      <trkpt lat="47.86511" lon="-4.12126">
        <ele>5.17</ele>
        <time>2016-04-27T22:05:57Z</time>
      </trkpt>
      <trkpt lat="47.86535" lon="-4.12137">
        <ele>6.362</ele>
        <time>2016-04-27T22:05:37Z</time>
      </trkpt>
      <trkpt lat="47.86521" lon="-4.12244">
        <ele>5.117</ele>
        <time>2016-04-27T22:05:17Z</time>
      </trkpt>
      <trkpt lat="47.86554" lon="-4.12293">
        <ele>4.546</ele>
        <time>2016-04-27T22:04:57Z</time>
      </trkpt>
      <trkpt lat="47.86498" lon="-4.12516">
        <ele>3.163</ele>
        <time>2016-04-27T22:04:17Z</time>
      </trkpt>
      <trkpt lat="47.86366" lon="-4.13036">
        <ele>1.686</ele>
        <time>2016-04-27T22:03:57Z</time>
      </trkpt>
      <trkpt lat="47.86296" lon="-4.13274">
        <ele>2.684</ele>
        <time>2016-04-27T22:03:37Z</time>
      </trkpt>
      <trkpt lat="47.86086" lon="-4.13838">
        <ele>2.368</ele>
        <time>2016-04-27T22:03:17Z</time>
      </trkpt>
      <trkpt lat="47.86008" lon="-4.14005">
        <ele>2.508</ele>
        <time>2016-04-27T22:02:57Z</time>
      </trkpt>
      <trkpt lat="47.85938" lon="-4.14211">
        <ele>2.22</ele>
        <time>2016-04-27T22:02:37Z</time>
      </trkpt>
      <trkpt lat="47.85713" lon="-4.14636">
        <ele>2.7</ele>
        <time>2016-04-27T22:02:17Z</time>
      </trkpt>
      <trkpt lat="47.85595" lon="-4.14972">
        <ele>3.629</ele>
        <time>2016-04-27T22:01:57Z</time>
      </trkpt>
      <trkpt lat="47.856" lon="-4.15006">
        <ele>3.985</ele>
        <time>2016-04-27T22:01:37Z</time>
      </trkpt>
      <trkpt lat="47.85582" lon="-4.15065">
        <ele>4.637</ele>
        <time>2016-04-27T22:01:17Z</time>
      </trkpt>
      <trkpt lat="47.85539" lon="-4.15124">
        <ele>2.482</ele>
        <time>2020-12-18T20:08:51Z</time>
      </trkpt>
      <trkpt lat="47.85507" lon="-4.15147">
        <ele>3.021</ele>
        <time>2016-04-27T22:00:17Z</time>
      </trkpt>
      <trkpt lat="47.8548" lon="-4.15138">
        <ele>3.068</ele>
        <time>2016-04-27T21:59:57Z</time>
      </trkpt>
      <trkpt lat="47.8533" lon="-4.15432">
        <ele>5.991</ele>
        <time>2016-04-27T21:59:37Z</time>
      </trkpt>
      <trkpt lat="47.85133" lon="-4.15701">
        <ele>2.489</ele>
        <time>2016-04-27T21:59:17Z</time>
      </trkpt>
      <trkpt lat="47.85105" lon="-4.15781">
        <ele>1.743</ele>
        <time>2020-12-18T20:07:11Z</time>
      </trkpt>
      <trkpt lat="47.85035" lon="-4.16044">
        <ele>6.008</ele>
        <time>2020-12-18T20:06:51Z</time>
      </trkpt>
      <trkpt lat="47.84951" lon="-4.16226">
        <ele>0.127</ele>
        <time>2020-12-18T20:06:31Z</time>
      </trkpt>
      <trkpt lat="47.84819" lon="-4.1643">
        <ele>1.561</ele>
        <time>2020-12-18T20:06:11Z</time>
      </trkpt>
      <trkpt lat="47.84709" lon="-4.16533">
        <ele>3.077</ele>
        <time>2020-12-18T20:05:51Z</time>
      </trkpt>
      <trkpt lat="47.84595" lon="-4.16621">
        <ele>4.342</ele>
        <time>2020-12-18T20:05:31Z</time>
      </trkpt>
      <trkpt lat="47.84547" lon="-4.16661">
        <ele>6.294</ele>
        <time>2020-12-18T20:05:11Z</time>
      </trkpt>
      <trkpt lat="47.84452" lon="-4.1673">
        <ele>2.679</ele>
        <time>2020-12-18T20:04:51Z</time>
      </trkpt>
      <trkpt lat="47.84418" lon="-4.16696">
        <ele>1.158</ele>
        <time>2020-12-18T20:04:31Z</time>
      </trkpt>
      <trkpt lat="47.84375" lon="-4.16661">
        <ele>1.725</ele>
        <time>2020-12-18T20:04:11Z</time>
      </trkpt>
      <trkpt lat="47.84332" lon="-4.16656">
        <ele>1.688</ele>
        <time>2020-12-18T20:03:51Z</time>
      </trkpt>
      <trkpt lat="47.84323" lon="-4.1667">
        <ele>2.236</ele>
        <time>2020-12-18T20:03:31Z</time>
      </trkpt>
      <trkpt lat="47.84293" lon="-4.1668">
        <ele>3.09</ele>
        <time>2020-12-18T20:03:11Z</time>
      </trkpt>
      <trkpt lat="47.84257" lon="-4.16705">
        <ele>5.108</ele>
        <time>2020-12-18T20:02:51Z</time>
      </trkpt>
      <trkpt lat="47.84227" lon="-4.16749">
        <ele>4.31</ele>
        <time>2020-12-18T20:02:31Z</time>
      </trkpt>
      <trkpt lat="47.84171" lon="-4.16776">
        <ele>1.264</ele>
        <time>2020-12-18T20:02:11Z</time>
      </trkpt>
      <trkpt lat="47.84115" lon="-4.16814">
        <ele>3.743</ele>
        <time>2020-12-18T20:01:51Z</time>
      </trkpt>
      <trkpt lat="47.84065" lon="-4.16832">
        <ele>5.292</ele>
        <time>2020-12-18T20:01:31Z</time>
      </trkpt>
      <trkpt lat="47.84026" lon="-4.16833">
        <ele>2.964</ele>
        <time>2020-12-18T20:01:11Z</time>
      </trkpt>
      <trkpt lat="47.8398" lon="-4.16855">
        <ele>2.949</ele>
        <time>2020-12-18T20:00:51Z</time>
      </trkpt>
      <trkpt lat="47.83931" lon="-4.169">
        <ele>2.758</ele>
        <time>2020-12-18T20:00:31Z</time>
      </trkpt>
      <trkpt lat="47.83941" lon="-4.1694">
        <ele>2.975</ele>
        <time>2020-12-18T20:00:11Z</time>
      </trkpt>
      <trkpt lat="47.84018" lon="-4.16958">
        <ele>6.678</ele>
        <time>2020-12-18T19:59:51Z</time>
      </trkpt>
      <trkpt lat="47.84028" lon="-4.16947">
        <ele>7.096</ele>
        <time>2020-12-18T19:59:31Z</time>
      </trkpt>
      <trkpt lat="47.84056" lon="-4.16946">
        <ele>7.07</ele>
        <time>2020-12-18T19:59:11Z</time>
      </trkpt>
      <trkpt lat="47.84105" lon="-4.16963">
        <ele>6.508</ele>
        <time>2020-12-18T19:58:51Z</time>
      </trkpt>
      <trkpt lat="47.84115" lon="-4.16927">
        <ele>6.61</ele>
        <time>2020-12-18T19:58:31Z</time>
      </trkpt>
      <trkpt lat="47.84209" lon="-4.16856">
        <ele>4.564</ele>
        <time>2020-12-18T19:58:11Z</time>
      </trkpt>
      <trkpt lat="47.84246" lon="-4.16845">
        <ele>5.043</ele>
        <time>2020-12-18T19:57:51Z</time>
      </trkpt>
      <trkpt lat="47.84314" lon="-4.16868">
        <ele>4.751</ele>
        <time>2020-12-18T19:57:31Z</time>
      </trkpt>
      <trkpt lat="47.84378" lon="-4.16862">
        <ele>5.653</ele>
        <time>2020-12-18T19:57:11Z</time>
      </trkpt>
      <trkpt lat="47.84453" lon="-4.16879">
        <ele>3.768</ele>
        <time>2020-12-18T19:56:51Z</time>
      </trkpt>
      <trkpt lat="47.84683" lon="-4.1685">
        <ele>6.457</ele>
        <time>2020-12-18T19:56:31Z</time>
      </trkpt>
      <trkpt lat="47.84754" lon="-4.16808">
        <ele>5.164</ele>
        <time>2020-12-18T19:56:11Z</time>
      </trkpt>
      <trkpt lat="47.84988" lon="-4.16544">
        <ele>3.617</ele>
        <time>2016-04-27T21:57:17Z</time>
      </trkpt>
      <trkpt lat="47.85094" lon="-4.16424">
        <ele>2.545</ele>
        <time>2016-04-27T21:56:57Z</time>
      </trkpt>
      <trkpt lat="47.85202" lon="-4.16515">
        <ele>2.689</ele>
        <time>2016-04-27T21:56:37Z</time>
      </trkpt>
      <trkpt lat="47.85677" lon="-4.16632">
        <ele>0.408</ele>
        <time>2016-04-27T21:56:17Z</time>
      </trkpt>
      <trkpt lat="47.85734" lon="-4.16535">
        <ele>-0.718</ele>
        <time>2016-04-27T21:55:57Z</time>
      </trkpt>
      <trkpt lat="47.85899" lon="-4.16516">
        <ele>2.217</ele>
        <time>2016-04-27T21:55:37Z</time>
      </trkpt>
      <trkpt lat="47.8598" lon="-4.1646">
        <ele>3.036</ele>
        <time>2016-04-27T21:55:17Z</time>
      </trkpt>
      <trkpt lat="47.85996" lon="-4.164">
        <ele>2.043</ele>
        <time>2016-04-27T21:54:57Z</time>
      </trkpt>
      <trkpt lat="47.86024" lon="-4.16422">
        <ele>2.055</ele>
        <time>2016-04-27T21:54:37Z</time>
      </trkpt>
      <trkpt lat="47.86089" lon="-4.1657">
        <ele>3.02</ele>
        <time>2016-04-27T21:54:17Z</time>
      </trkpt>
      <trkpt lat="47.86147" lon="-4.16662">
        <ele>4.029</ele>
        <time>2016-04-27T21:53:57Z</time>
      </trkpt>
      <trkpt lat="47.86127" lon="-4.16688">
        <ele>3.916</ele>
        <time>2016-04-27T21:53:37Z</time>
      </trkpt>
      <trkpt lat="47.8614" lon="-4.16746">
        <ele>5.849</ele>
        <time>2016-04-27T21:53:17Z</time>
      </trkpt>
      <trkpt lat="47.86183" lon="-4.16789">
        <ele>7.477</ele>
        <time>2016-04-27T21:52:57Z</time>
      </trkpt>
      <trkpt lat="47.86238" lon="-4.16784">
        <ele>6.841</ele>
        <time>2020-12-18T19:51:11Z</time>
      </trkpt>
      <trkpt lat="47.86273" lon="-4.16799">
        <ele>5.608</ele>
        <time>2016-04-27T21:52:37Z</time>
      </trkpt>
      <trkpt lat="47.86344" lon="-4.16786">
        <ele>6.111</ele>
        <time>2016-04-27T21:52:17Z</time>
      </trkpt>
      <trkpt lat="47.86386" lon="-4.16731">
        <ele>6.456</ele>
        <time>2016-04-27T21:51:57Z</time>
      </trkpt>
      <trkpt lat="47.86498" lon="-4.16771">
        <ele>5.354</ele>
        <time>2016-04-27T21:51:37Z</time>
      </trkpt>
      <trkpt lat="47.86579" lon="-4.16765">
        <ele>8.164</ele>
        <time>2016-04-27T21:51:17Z</time>
      </trkpt>
      <trkpt lat="47.86592" lon="-4.16643">
        <ele>9.796</ele>
        <time>2016-04-27T21:50:57Z</time>
      </trkpt>
      <trkpt lat="47.86576" lon="-4.16619">
        <ele>8.971</ele>
        <time>2016-04-27T21:50:37Z</time>
      </trkpt>
      <trkpt lat="47.86625" lon="-4.16377">
        <ele>5.26</ele>
        <time>2016-04-27T21:50:17Z</time>
      </trkpt>
      <trkpt lat="47.86802" lon="-4.16553">
        <ele>7.297</ele>
        <time>2016-04-27T21:49:57Z</time>
      </trkpt>
      <trkpt lat="47.86878" lon="-4.16583">
        <ele>9.24</ele>
        <time>2016-04-27T21:49:37Z</time>
      </trkpt>
      <trkpt lat="47.87013" lon="-4.1658">
        <ele>12.658</ele>
        <time>2016-04-27T21:49:17Z</time>
      </trkpt>
      <trkpt lat="47.87235" lon="-4.16542">
        <ele>12.052</ele>
        <time>2016-04-27T21:48:57Z</time>
      </trkpt>
      <trkpt lat="47.8732" lon="-4.16548">
        <ele>10.508</ele>
        <time>2016-04-27T21:48:37Z</time>
      </trkpt>
      <trkpt lat="47.87349" lon="-4.16537">
        <ele>10.011</ele>
        <time>2016-04-27T21:48:17Z</time>
      </trkpt>
      <trkpt lat="47.87378" lon="-4.16503">
        <ele>10.083</ele>
        <time>2020-12-18T19:46:11Z</time>
      </trkpt>
      <trkpt lat="47.87723" lon="-4.16612">
        <ele>17.062</ele>
        <time>2020-12-18T19:45:51Z</time>
      </trkpt>
      <trkpt lat="47.87736" lon="-4.16662">
        <ele>17.054</ele>
        <time>2020-12-18T19:45:31Z</time>
      </trkpt>
      <trkpt lat="47.87786" lon="-4.16722">
        <ele>18.766</ele>
        <time>2016-04-27T21:46:57Z</time>
      </trkpt>
      <trkpt lat="47.87795" lon="-4.16941">
        <ele>13.481</ele>
        <time>2016-04-27T21:46:37Z</time>
      </trkpt>
      <trkpt lat="47.87905" lon="-4.17455">
        <ele>10.72</ele>
        <time>2016-04-27T21:46:17Z</time>
      </trkpt>
      <trkpt lat="47.88132" lon="-4.17801">
        <ele>9.317</ele>
        <time>2016-04-27T21:45:57Z</time>
      </trkpt>
      <trkpt lat="47.88166" lon="-4.17896">
        <ele>11.76</ele>
        <time>2016-04-27T21:45:37Z</time>
      </trkpt>
      <trkpt lat="47.88181" lon="-4.18078">
        <ele>13.758</ele>
        <time>2016-04-27T21:45:17Z</time>
      </trkpt>
      <trkpt lat="47.88201" lon="-4.18162">
        <ele>19.972</ele>
        <time>2016-04-27T21:44:57Z</time>
      </trkpt>
      <trkpt lat="47.88173" lon="-4.18166">
        <ele>17.708</ele>
        <time>2016-04-27T21:44:37Z</time>
      </trkpt>
      <trkpt lat="47.8814" lon="-4.18198">
        <ele>16.319</ele>
        <time>2016-04-27T21:44:17Z</time>
      </trkpt>
      <trkpt lat="47.88074" lon="-4.18185">
        <ele>12.781</ele>
        <time>2016-04-27T21:43:57Z</time>
      </trkpt>
      <trkpt lat="47.88032" lon="-4.18194">
        <ele>9.567</ele>
        <time>2016-04-27T21:43:37Z</time>
      </trkpt>
      <trkpt lat="47.87983" lon="-4.18179">
        <ele>10.073</ele>
        <time>2016-04-27T21:43:17Z</time>
      </trkpt>
      <trkpt lat="47.87952" lon="-4.18207">
        <ele>7.745</ele>
        <time>2016-04-27T21:42:57Z</time>
      </trkpt>
      <trkpt lat="47.87959" lon="-4.1825">
        <ele>6.08</ele>
        <time>2016-04-27T21:42:37Z</time>
      </trkpt>
      <trkpt lat="47.88018" lon="-4.18288">
        <ele>5.669</ele>
        <time>2016-04-27T21:42:17Z</time>
      </trkpt>
      <trkpt lat="47.88055" lon="-4.18383">
        <ele>8.246</ele>
        <time>2016-04-27T21:41:37Z</time>
      </trkpt>
      <trkpt lat="47.88113" lon="-4.18428">
        <ele>6.359</ele>
        <time>2016-04-27T21:41:17Z</time>
      </trkpt>
      <trkpt lat="47.88168" lon="-4.18406">
        <ele>12.597</ele>
        <time>2016-04-27T21:40:57Z</time>
      </trkpt>
      <trkpt lat="47.88264" lon="-4.18426">
        <ele>10.241</ele>
        <time>2016-04-27T21:40:37Z</time>
      </trkpt>
      <trkpt lat="47.88294" lon="-4.18381">
        <ele>12.708</ele>
        <time>2016-04-27T21:40:17Z</time>
      </trkpt>
      <trkpt lat="47.88327" lon="-4.18383">
        <ele>13.82</ele>
        <time>2016-04-27T21:39:57Z</time>
      </trkpt>
      <trkpt lat="47.88385" lon="-4.18477">
        <ele>11.8</ele>
        <time>2016-04-27T21:39:37Z</time>
      </trkpt>
      <trkpt lat="47.8851" lon="-4.18539">
        <ele>19.557</ele>
        <time>2016-04-27T21:39:17Z</time>
      </trkpt>
      <trkpt lat="47.88394" lon="-4.19357">
        <ele>12.749</ele>
        <time>2016-04-27T21:38:57Z</time>
      </trkpt>
      <trkpt lat="47.88362" lon="-4.19666">
        <ele>9.941</ele>
        <time>2016-04-27T21:38:37Z</time>
      </trkpt>
      <trkpt lat="47.8836" lon="-4.19843">
        <ele>13.646</ele>
        <time>2016-04-27T21:38:17Z</time>
      </trkpt>
      <trkpt lat="47.88319" lon="-4.19773">
        <ele>18.735</ele>
        <time>2016-04-27T21:37:57Z</time>
      </trkpt>
      <trkpt lat="47.88219" lon="-4.19778">
        <ele>29.122</ele>
        <time>2016-04-27T21:37:37Z</time>
      </trkpt>
      <trkpt lat="47.88149" lon="-4.19657">
        <ele>30.095</ele>
        <time>2016-04-27T21:37:17Z</time>
      </trkpt>
      <trkpt lat="47.88142" lon="-4.19876">
        <ele>29.413</ele>
        <time>2016-04-27T21:35:57Z</time>
      </trkpt>
      <trkpt lat="47.88122" lon="-4.20029">
        <ele>33.457</ele>
        <time>2016-04-27T21:35:37Z</time>
      </trkpt>
      <trkpt lat="47.88122" lon="-4.20145">
        <ele>34.808</ele>
        <time>2016-04-27T21:35:17Z</time>
      </trkpt>
      <trkpt lat="47.88134" lon="-4.20271">
        <ele>33.111</ele>
        <time>2016-04-27T21:34:57Z</time>
      </trkpt>
      <trkpt lat="47.87845" lon="-4.20179">
        <ele>24.065</ele>
        <time>2016-04-27T21:34:37Z</time>
      </trkpt>
      <trkpt lat="47.87824" lon="-4.20406">
        <ele>25.015</ele>
        <time>2016-04-27T21:33:57Z</time>
      </trkpt>
      <trkpt lat="47.87783" lon="-4.20396">
        <ele>20.71</ele>
        <time>2016-04-27T21:33:37Z</time>
      </trkpt>
      <trkpt lat="47.87755" lon="-4.20366">
        <ele>17.572</ele>
        <time>2016-04-27T21:33:17Z</time>
      </trkpt>
      <trkpt lat="47.87747" lon="-4.20232">
        <ele>14.767</ele>
        <time>2016-04-27T21:32:57Z</time>
      </trkpt>
      <trkpt lat="47.87687" lon="-4.2023">
        <ele>10.236</ele>
        <time>2016-04-27T21:32:37Z</time>
      </trkpt>
      <trkpt lat="47.87537" lon="-4.20153">
        <ele>4.333</ele>
        <time>2016-04-27T21:32:17Z</time>
      </trkpt>
      <trkpt lat="47.87436" lon="-4.20374">
        <ele>3.516</ele>
        <time>2016-04-27T21:31:57Z</time>
      </trkpt>
      <trkpt lat="47.87301" lon="-4.20269">
        <ele>7.014</ele>
        <time>2016-04-27T21:31:37Z</time>
      </trkpt>
      <trkpt lat="47.87246" lon="-4.204">
        <ele>8.168</ele>
        <time>2016-04-27T21:31:17Z</time>
      </trkpt>
      <trkpt lat="47.87189" lon="-4.20578">
        <ele>10.008</ele>
        <time>2016-04-27T21:30:57Z</time>
      </trkpt>
      <trkpt lat="47.8716" lon="-4.20623">
        <ele>10.714</ele>
        <time>2016-04-27T21:30:37Z</time>
      </trkpt>
      <trkpt lat="47.87149" lon="-4.20844">
        <ele>9.468</ele>
        <time>2016-04-27T21:30:17Z</time>
      </trkpt>
      <trkpt lat="47.87163" lon="-4.2117">
        <ele>6.927</ele>
        <time>2016-04-27T21:29:57Z</time>
      </trkpt>
      <trkpt lat="47.87115" lon="-4.21492">
        <ele>6.743</ele>
        <time>2016-04-27T21:29:37Z</time>
      </trkpt>
      <trkpt lat="47.87056" lon="-4.21634">
        <ele>9.085</ele>
        <time>2016-04-27T21:29:17Z</time>
      </trkpt>
      <trkpt lat="47.87035" lon="-4.21762">
        <ele>10.79</ele>
        <time>2016-04-27T21:28:57Z</time>
      </trkpt>
      <trkpt lat="47.86914" lon="-4.21752">
        <ele>7.279</ele>
        <time>2016-04-27T21:28:37Z</time>
      </trkpt>
      <trkpt lat="47.86888" lon="-4.21786">
        <ele>8.456</ele>
        <time>2016-04-27T21:28:17Z</time>
      </trkpt>
      <trkpt lat="47.86874" lon="-4.21915">
        <ele>6.189</ele>
        <time>2016-04-27T21:27:57Z</time>
      </trkpt>
      <trkpt lat="47.86797" lon="-4.21889">
        <ele>6.077</ele>
        <time>2016-04-27T21:27:37Z</time>
      </trkpt>
      <trkpt lat="47.86784" lon="-4.22091">
        <ele>4.411</ele>
        <time>2016-04-27T21:27:17Z</time>
      </trkpt>
      <trkpt lat="47.86796" lon="-4.22162">
        <ele>5.508</ele>
        <time>2016-04-27T21:26:57Z</time>
      </trkpt>
      <trkpt lat="47.86787" lon="-4.22222">
        <ele>5.314</ele>
        <time>2016-04-27T21:26:37Z</time>
      </trkpt>
      <trkpt lat="47.86717" lon="-4.22207">
        <ele>7.759</ele>
        <time>2016-04-27T21:25:57Z</time>
      </trkpt>
      <trkpt lat="47.86747" lon="-4.21973">
        <ele>6.256</ele>
        <time>2016-04-27T21:25:37Z</time>
      </trkpt>
      <trkpt lat="47.8674" lon="-4.21863">
        <ele>5.352</ele>
        <time>2016-04-27T21:25:17Z</time>
      </trkpt>
      <trkpt lat="47.86639" lon="-4.21683">
        <ele>6.674</ele>
        <time>2016-04-27T21:24:57Z</time>
      </trkpt>
      <trkpt lat="47.86602" lon="-4.21595">
        <ele>6.269</ele>
        <time>2016-04-27T21:24:37Z</time>
      </trkpt>
      <trkpt lat="47.866" lon="-4.21462">
        <ele>6.778</ele>
        <time>2016-04-27T21:24:17Z</time>
      </trkpt>
      <trkpt lat="47.86633" lon="-4.21372">
        <ele>12.025</ele>
        <time>2016-04-27T21:23:57Z</time>
      </trkpt>
      <trkpt lat="47.86678" lon="-4.21183">
        <ele>4.688</ele>
        <time>2016-04-27T21:23:37Z</time>
      </trkpt>
      <trkpt lat="47.86674" lon="-4.21095">
        <ele>5.756</ele>
        <time>2016-04-27T21:23:17Z</time>
      </trkpt>
      <trkpt lat="47.86541" lon="-4.20803">
        <ele>4.95</ele>
        <time>2016-04-27T21:22:57Z</time>
      </trkpt>
      <trkpt lat="47.86399" lon="-4.20679">
        <ele>4.408</ele>
        <time>2016-04-27T21:22:37Z</time>
      </trkpt>
      <trkpt lat="47.86361" lon="-4.20589">
        <ele>1.414</ele>
        <time>2016-04-27T21:22:17Z</time>
      </trkpt>
      <trkpt lat="47.86322" lon="-4.20569">
        <ele>2.222</ele>
        <time>2016-04-27T21:21:57Z</time>
      </trkpt>
      <trkpt lat="47.86292" lon="-4.20589">
        <ele>2.342</ele>
        <time>2016-04-27T21:21:37Z</time>
      </trkpt>
      <trkpt lat="47.86207" lon="-4.20567">
        <ele>7.627</ele>
        <time>2016-04-27T21:21:17Z</time>
      </trkpt>
      <trkpt lat="47.86181" lon="-4.20514">
        <ele>8.179</ele>
        <time>2016-04-27T21:20:57Z</time>
      </trkpt>
      <trkpt lat="47.86078" lon="-4.20415">
        <ele>14.224</ele>
        <time>2016-04-27T21:20:37Z</time>
      </trkpt>
      <trkpt lat="47.86046" lon="-4.20278">
        <ele>10.793</ele>
        <time>2016-04-27T21:20:17Z</time>
      </trkpt>
      <trkpt lat="47.86023" lon="-4.2022">
        <ele>6.17</ele>
        <time>2016-04-27T21:19:57Z</time>
      </trkpt>
      <trkpt lat="47.86006" lon="-4.20078">
        <ele>4.453</ele>
        <time>2016-04-27T21:19:37Z</time>
      </trkpt>
      <trkpt lat="47.85931" lon="-4.20026">
        <ele>6.461</ele>
        <time>2016-04-27T21:18:17Z</time>
      </trkpt>
      <trkpt lat="47.85915" lon="-4.19979">
        <ele>6.435</ele>
        <time>2016-04-27T21:17:57Z</time>
      </trkpt>
      <trkpt lat="47.85826" lon="-4.19941">
        <ele>7.108</ele>
        <time>2016-04-27T21:17:37Z</time>
      </trkpt>
      <trkpt lat="47.85785" lon="-4.19893">
        <ele>5.124</ele>
        <time>2016-04-27T21:17:17Z</time>
      </trkpt>
      <trkpt lat="47.85741" lon="-4.19868">
        <ele>5.831</ele>
        <time>2016-04-27T21:16:57Z</time>
      </trkpt>
      <trkpt lat="47.85695" lon="-4.19782">
        <ele>5.796</ele>
        <time>2016-04-27T21:16:37Z</time>
      </trkpt>
      <trkpt lat="47.85695" lon="-4.19733">
        <ele>6.353</ele>
        <time>2016-04-27T21:16:17Z</time>
      </trkpt>
      <trkpt lat="47.85689" lon="-4.19683">
        <ele>6.525</ele>
        <time>2016-04-27T21:15:57Z</time>
      </trkpt>
      <trkpt lat="47.85705" lon="-4.19625">
        <ele>4.63</ele>
        <time>2016-04-27T21:15:37Z</time>
      </trkpt>
      <trkpt lat="47.85499" lon="-4.19514">
        <ele>8.079</ele>
        <time>2016-04-27T21:15:17Z</time>
      </trkpt>
      <trkpt lat="47.85482" lon="-4.19486">
        <ele>3.966</ele>
        <time>2016-04-27T21:14:57Z</time>
      </trkpt>
      <trkpt lat="47.85456" lon="-4.19471">
        <ele>4.029</ele>
        <time>2016-04-27T21:14:37Z</time>
      </trkpt>
      <trkpt lat="47.85427" lon="-4.19411">
        <ele>1.817</ele>
        <time>2016-04-27T21:14:17Z</time>
      </trkpt>
      <trkpt lat="47.85359" lon="-4.19404">
        <ele>6.271</ele>
        <time>2016-04-27T21:13:57Z</time>
      </trkpt>
      <trkpt lat="47.85306" lon="-4.19346">
        <ele>6.008</ele>
        <time>2016-04-27T21:13:37Z</time>
      </trkpt>
      <trkpt lat="47.85291" lon="-4.19426">
        <ele>9.014</ele>
        <time>2016-04-27T21:13:17Z</time>
      </trkpt>
      <trkpt lat="47.8526" lon="-4.19462">
        <ele>8.459</ele>
        <time>2016-04-27T21:12:57Z</time>
      </trkpt>
      <trkpt lat="47.85237" lon="-4.19574">
        <ele>10.556</ele>
        <time>2016-04-27T21:12:37Z</time>
      </trkpt>
      <trkpt lat="47.85198" lon="-4.19632">
        <ele>12.192</ele>
        <time>2016-04-27T21:12:17Z</time>
      </trkpt>
      <trkpt lat="47.85186" lon="-4.1967">
        <ele>12.744</ele>
        <time>2016-04-27T21:11:57Z</time>
      </trkpt>
      <trkpt lat="47.8511" lon="-4.19569">
        <ele>12.079</ele>
        <time>2016-04-27T21:11:37Z</time>
      </trkpt>
      <trkpt lat="47.85024" lon="-4.19404">
        <ele>13.378</ele>
        <time>2016-04-27T21:11:17Z</time>
      </trkpt>
      <trkpt lat="47.84868" lon="-4.19183">
        <ele>9.665</ele>
        <time>2016-04-27T21:10:57Z</time>
      </trkpt>
      <trkpt lat="47.84823" lon="-4.19136">
        <ele>9.958</ele>
        <time>2016-04-27T21:10:37Z</time>
      </trkpt>
      <trkpt lat="47.84796" lon="-4.19066">
        <ele>8.026</ele>
        <time>2020-12-18T19:11:31Z</time>
      </trkpt>
      <trkpt lat="47.84804" lon="-4.19034">
        <ele>7.21</ele>
        <time>2020-12-18T19:11:11Z</time>
      </trkpt>
      <trkpt lat="47.8476" lon="-4.18986">
        <ele>5.208</ele>
        <time>2016-04-27T21:09:17Z</time>
      </trkpt>
      <trkpt lat="47.84724" lon="-4.18988">
        <ele>6.509</ele>
        <time>2020-12-18T19:10:31Z</time>
      </trkpt>
      <trkpt lat="47.84705" lon="-4.19003">
        <ele>6.981</ele>
        <time>2020-12-18T19:10:11Z</time>
      </trkpt>
      <trkpt lat="47.84723" lon="-4.19121">
        <ele>5.441</ele>
        <time>2016-04-27T21:08:17Z</time>
      </trkpt>
      <trkpt lat="47.84725" lon="-4.1918">
        <ele>7.654</ele>
        <time>2020-12-18T19:09:31Z</time>
      </trkpt>
      <trkpt lat="47.84714" lon="-4.19194">
        <ele>8.356</ele>
        <time>2016-04-27T21:07:57Z</time>
      </trkpt>
      <trkpt lat="47.84703" lon="-4.19142">
        <ele>6.281</ele>
        <time>2016-04-27T21:07:37Z</time>
      </trkpt>
      <trkpt lat="47.84695" lon="-4.19106">
        <ele>4.07</ele>
        <time>2016-04-27T21:07:17Z</time>
      </trkpt>
      <trkpt lat="47.84677" lon="-4.19093">
        <ele>4.017</ele>
        <time>2016-04-27T21:06:57Z</time>
      </trkpt>
      <trkpt lat="47.84643" lon="-4.19057">
        <ele>5.81</ele>
        <time>2016-04-27T21:06:37Z</time>
      </trkpt>
      <trkpt lat="47.84527" lon="-4.19001">
        <ele>4.088</ele>
        <time>2016-04-27T21:06:17Z</time>
      </trkpt>
      <trkpt lat="47.84508" lon="-4.18919">
        <ele>0.852</ele>
        <time>2016-04-27T21:05:57Z</time>
      </trkpt>
      <trkpt lat="47.84491" lon="-4.18887">
        <ele>1.308</ele>
        <time>2016-04-27T21:05:37Z</time>
      </trkpt>
      <trkpt lat="47.84495" lon="-4.18838">
        <ele>2.619</ele>
        <time>2016-04-27T21:05:17Z</time>
      </trkpt>
      <trkpt lat="47.84489" lon="-4.18767">
        <ele>4.081</ele>
        <time>2016-04-27T21:04:57Z</time>
      </trkpt>
      <trkpt lat="47.84502" lon="-4.18703">
        <ele>4.867</ele>
        <time>2016-04-27T21:04:37Z</time>
      </trkpt>
      <trkpt lat="47.8444" lon="-4.18619">
        <ele>4.183</ele>
        <time>2016-04-27T21:04:17Z</time>
      </trkpt>
      <trkpt lat="47.8438" lon="-4.18612">
        <ele>4.085</ele>
        <time>2016-04-27T21:03:57Z</time>
      </trkpt>
      <trkpt lat="47.84304" lon="-4.18516">
        <ele>5.07</ele>
        <time>2016-04-27T21:03:37Z</time>
      </trkpt>
      <trkpt lat="47.84298" lon="-4.18454">
        <ele>4.319</ele>
        <time>2016-04-27T21:03:17Z</time>
      </trkpt>
      <trkpt lat="47.84283" lon="-4.18456">
        <ele>4.456</ele>
        <time>2016-04-27T21:02:57Z</time>
      </trkpt>
      <trkpt lat="47.84237" lon="-4.18432">
        <ele>7.449</ele>
        <time>2016-04-27T21:02:37Z</time>
      </trkpt>
      <trkpt lat="47.84217" lon="-4.18441">
        <ele>9.577</ele>
        <time>2016-04-27T21:02:17Z</time>
      </trkpt>
      <trkpt lat="47.84184" lon="-4.18552">
        <ele>7.821</ele>
        <time>2016-04-27T21:01:57Z</time>
      </trkpt>
      <trkpt lat="47.84134" lon="-4.18632">
        <ele>11.308</ele>
        <time>2016-04-27T21:01:37Z</time>
      </trkpt>
      <trkpt lat="47.84027" lon="-4.18615">
        <ele>12.823</ele>
        <time>2016-04-27T21:01:17Z</time>
      </trkpt>
      <trkpt lat="47.83968" lon="-4.18587">
        <ele>7.703</ele>
        <time>2016-04-27T21:00:57Z</time>
      </trkpt>
      <trkpt lat="47.8391" lon="-4.18509">
        <ele>5.459</ele>
        <time>2016-04-27T21:00:37Z</time>
      </trkpt>
      <trkpt lat="47.8386" lon="-4.18533">
        <ele>4.562</ele>
        <time>2016-04-27T21:00:17Z</time>
      </trkpt>
      <trkpt lat="47.83857" lon="-4.18555">
        <ele>6.444</ele>
        <time>2016-04-27T20:59:57Z</time>
      </trkpt>
      <trkpt lat="47.838" lon="-4.18544">
        <ele>9.559</ele>
        <time>2016-04-27T20:59:37Z</time>
      </trkpt>
      <trkpt lat="47.83618" lon="-4.18424">
        <ele>9.428</ele>
        <time>2016-04-27T20:59:17Z</time>
      </trkpt>
      <trkpt lat="47.8356" lon="-4.18334">
        <ele>6.095</ele>
        <time>2016-04-27T20:58:57Z</time>
      </trkpt>
      <trkpt lat="47.83385" lon="-4.18164">
        <ele>9.238</ele>
        <time>2016-04-27T20:58:37Z</time>
      </trkpt>
      <trkpt lat="47.83346" lon="-4.18051">
        <ele>9.576</ele>
        <time>2020-12-18T18:59:31Z</time>
      </trkpt>
      <trkpt lat="47.83305" lon="-4.17943">
        <ele>10.01</ele>
        <time>2020-12-18T18:59:11Z</time>
      </trkpt>
      <trkpt lat="47.83259" lon="-4.17949">
        <ele>10.408</ele>
        <time>2020-12-18T18:58:51Z</time>
      </trkpt>
      <trkpt lat="47.83249" lon="-4.17853">
        <ele>6.822</ele>
        <time>2020-12-18T18:58:31Z</time>
      </trkpt>
      <trkpt lat="47.8329" lon="-4.17831">
        <ele>4.002</ele>
        <time>2020-12-18T18:58:11Z</time>
      </trkpt>
      <trkpt lat="47.83281" lon="-4.17763">
        <ele>5.449</ele>
        <time>2020-12-18T18:57:51Z</time>
      </trkpt>
      <trkpt lat="47.83236" lon="-4.17798">
        <ele>6.65</ele>
        <time>2020-12-18T18:57:31Z</time>
      </trkpt>
      <trkpt lat="47.83231" lon="-4.17822">
        <ele>7.212</ele>
        <time>2020-12-18T18:57:11Z</time>
      </trkpt>
      <trkpt lat="47.83217" lon="-4.17802">
        <ele>8.427</ele>
        <time>2020-12-18T18:56:51Z</time>
      </trkpt>
      <trkpt lat="47.83172" lon="-4.17765">
        <ele>9.816</ele>
        <time>2020-12-18T18:56:31Z</time>
      </trkpt>
      <trkpt lat="47.83165" lon="-4.17693">
        <ele>10.023</ele>
        <time>2020-12-18T18:56:11Z</time>
      </trkpt>
      <trkpt lat="47.83202" lon="-4.1754">
        <ele>5.156</ele>
        <time>2020-12-18T18:55:51Z</time>
      </trkpt>
      <trkpt lat="47.83198" lon="-4.17497">
        <ele>4.224</ele>
        <time>2020-12-18T18:55:31Z</time>
      </trkpt>
      <trkpt lat="47.83249" lon="-4.17484">
        <ele>5.458</ele>
        <time>2020-12-18T18:55:11Z</time>
      </trkpt>
      <trkpt lat="47.83291" lon="-4.17507">
        <ele>3.308</ele>
        <time>2016-04-27T20:56:37Z</time>
      </trkpt>
      <trkpt lat="47.83361" lon="-4.17255">
        <ele>5.22</ele>
        <time>2020-12-18T18:54:31Z</time>
      </trkpt>
      <trkpt lat="47.83379" lon="-4.17078">
        <ele>4.9</ele>
        <time>2020-12-18T18:54:11Z</time>
      </trkpt>
      <trkpt lat="47.83407" lon="-4.17026">
        <ele>4.229</ele>
        <time>2020-12-18T18:53:51Z</time>
      </trkpt>
      <trkpt lat="47.83461" lon="-4.16995">
        <ele>5.271</ele>
        <time>2020-12-18T18:53:31Z</time>
      </trkpt>
      <trkpt lat="47.83524" lon="-4.1699">
        <ele>3.583</ele>
        <time>2020-12-18T18:53:11Z</time>
      </trkpt>
      <trkpt lat="47.8353" lon="-4.16945">
        <ele>5.838</ele>
        <time>2020-12-18T18:52:51Z</time>
      </trkpt>
      <trkpt lat="47.83429" lon="-4.16909">
        <ele>8.077</ele>
        <time>2020-12-18T18:52:31Z</time>
      </trkpt>
      <trkpt lat="47.83492" lon="-4.16797">
        <ele>7.194</ele>
        <time>2020-12-18T18:52:11Z</time>
      </trkpt>
      <trkpt lat="47.83452" lon="-4.16759">
        <ele>9.037</ele>
        <time>2020-12-18T18:51:51Z</time>
      </trkpt>
      <trkpt lat="47.83448" lon="-4.16717">
        <ele>8.465</ele>
        <time>2020-12-18T18:51:31Z</time>
      </trkpt>
      <trkpt lat="47.83465" lon="-4.16592">
        <ele>5.399</ele>
        <time>2020-12-18T18:51:11Z</time>
      </trkpt>
      <trkpt lat="47.83449" lon="-4.16522">
        <ele>8.608</ele>
        <time>2020-12-18T18:50:51Z</time>
      </trkpt>
      <trkpt lat="47.83254" lon="-4.16616">
        <ele>8.015</ele>
        <time>2020-12-18T18:50:31Z</time>
      </trkpt>
      <trkpt lat="47.83233" lon="-4.16358">
        <ele>7.123</ele>
        <time>2020-12-18T18:50:11Z</time>
      </trkpt>
      <trkpt lat="47.83224" lon="-4.16271">
        <ele>7.833</ele>
        <time>2020-12-18T18:49:51Z</time>
      </trkpt>
      <trkpt lat="47.83194" lon="-4.16156">
        <ele>7.029</ele>
        <time>2020-12-18T18:49:31Z</time>
      </trkpt>
      <trkpt lat="47.83145" lon="-4.16059">
        <ele>5.011</ele>
        <time>2020-12-18T18:49:11Z</time>
      </trkpt>
      <trkpt lat="47.83102" lon="-4.15965">
        <ele>2.296</ele>
        <time>2020-12-18T18:48:51Z</time>
      </trkpt>
      <trkpt lat="47.82982" lon="-4.16137">
        <ele>4.655</ele>
        <time>2020-12-18T18:48:31Z</time>
      </trkpt>
      <trkpt lat="47.82944" lon="-4.16198">
        <ele>4.062</ele>
        <time>2020-12-18T18:48:11Z</time>
      </trkpt>
      <trkpt lat="47.8293" lon="-4.16202">
        <ele>4.195</ele>
        <time>2020-12-18T18:47:51Z</time>
      </trkpt>
      <trkpt lat="47.82784" lon="-4.1633">
        <ele>3.993</ele>
        <time>2020-12-18T18:47:31Z</time>
      </trkpt>
      <trkpt lat="47.82752" lon="-4.16335">
        <ele>3.167</ele>
        <time>2020-12-18T18:47:11Z</time>
      </trkpt>
      <trkpt lat="47.82661" lon="-4.16321">
        <ele>5.108</ele>
        <time>2020-12-18T18:46:51Z</time>
      </trkpt>
      <trkpt lat="47.82633" lon="-4.16601">
        <ele>5.005</ele>
        <time>2020-12-18T18:46:31Z</time>
      </trkpt>
      <trkpt lat="47.8261" lon="-4.16591">
        <ele>5.032</ele>
        <time>2020-12-18T18:46:11Z</time>
      </trkpt>
      <trkpt lat="47.82589" lon="-4.16681">
        <ele>5.612</ele>
        <time>2020-12-18T18:45:51Z</time>
      </trkpt>
      <trkpt lat="47.82583" lon="-4.16914">
        <ele>6.929</ele>
        <time>2020-12-18T18:45:31Z</time>
      </trkpt>
      <trkpt lat="47.82605" lon="-4.1702">
        <ele>5.451</ele>
        <time>2016-04-27T20:52:17Z</time>
      </trkpt>
      <trkpt lat="47.82539" lon="-4.17055">
        <ele>6.036</ele>
        <time>2016-04-27T20:51:57Z</time>
      </trkpt>
      <trkpt lat="47.82474" lon="-4.1704">
        <ele>6.015</ele>
        <time>2016-04-27T20:51:37Z</time>
      </trkpt>
      <trkpt lat="47.82434" lon="-4.1704">
        <ele>6.612</ele>
        <time>2016-04-27T20:51:17Z</time>
      </trkpt>
      <trkpt lat="47.82293" lon="-4.16999">
        <ele>8.025</ele>
        <time>2016-04-27T20:50:57Z</time>
      </trkpt>
      <trkpt lat="47.82274" lon="-4.17022">
        <ele>7.943</ele>
        <time>2016-04-27T20:50:37Z</time>
      </trkpt>
      <trkpt lat="47.82254" lon="-4.17177">
        <ele>6.037</ele>
        <time>2016-04-27T20:50:17Z</time>
      </trkpt>
      <trkpt lat="47.82265" lon="-4.17237">
        <ele>5.008</ele>
        <time>2016-04-27T20:49:57Z</time>
      </trkpt>
      <trkpt lat="47.8226" lon="-4.17325">
        <ele>4.019</ele>
        <time>2016-04-27T20:49:37Z</time>
      </trkpt>
      <trkpt lat="47.8225" lon="-4.17391">
        <ele>5.009</ele>
        <time>2016-04-27T20:49:17Z</time>
      </trkpt>
      <trkpt lat="47.82206" lon="-4.17353">
        <ele>5.219</ele>
        <time>2016-04-27T20:48:57Z</time>
      </trkpt>
      <trkpt lat="47.82091" lon="-4.17297">
        <ele>6.289</ele>
        <time>2016-04-27T20:48:37Z</time>
      </trkpt>
      <trkpt lat="47.82078" lon="-4.17355">
        <ele>7.221</ele>
        <time>2016-04-27T20:48:17Z</time>
      </trkpt>
      <trkpt lat="47.82072" lon="-4.17574">
        <ele>5.826</ele>
        <time>2016-04-27T20:47:57Z</time>
      </trkpt>
      <trkpt lat="47.82013" lon="-4.17563">
        <ele>8.965</ele>
        <time>2016-04-27T20:47:37Z</time>
      </trkpt>
      <trkpt lat="47.81967" lon="-4.1758">
        <ele>9.182</ele>
        <time>2016-04-27T20:47:17Z</time>
      </trkpt>
      <trkpt lat="47.81878" lon="-4.17542">
        <ele>8.625</ele>
        <time>2016-04-27T20:46:57Z</time>
      </trkpt>
      <trkpt lat="47.81737" lon="-4.17497">
        <ele>8.013</ele>
        <time>2016-04-27T20:46:37Z</time>
      </trkpt>
      <trkpt lat="47.81702" lon="-4.17505">
        <ele>7.297</ele>
        <time>2016-04-27T20:46:17Z</time>
      </trkpt>
      <trkpt lat="47.81669" lon="-4.1749">
        <ele>7.908</ele>
        <time>2016-04-27T20:45:57Z</time>
      </trkpt>
      <trkpt lat="47.81656" lon="-4.17385">
        <ele>7.403</ele>
        <time>2016-04-27T20:45:37Z</time>
      </trkpt>
      <trkpt lat="47.81667" lon="-4.17374">
        <ele>6.921</ele>
        <time>2016-04-27T20:45:17Z</time>
      </trkpt>
      <trkpt lat="47.81657" lon="-4.17301">
        <ele>5.111</ele>
        <time>2016-04-27T20:44:57Z</time>
      </trkpt>
      <trkpt lat="47.81659" lon="-4.17205">
        <ele>6.725</ele>
        <time>2016-04-27T20:44:37Z</time>
      </trkpt>
      <trkpt lat="47.81685" lon="-4.16988">
        <ele>7.017</ele>
        <time>2016-04-27T20:44:17Z</time>
      </trkpt>
      <trkpt lat="47.81703" lon="-4.16806">
        <ele>4.092</ele>
        <time>2016-04-27T20:43:57Z</time>
      </trkpt>
      <trkpt lat="47.81715" lon="-4.16746">
        <ele>3.921</ele>
        <time>2016-04-27T20:43:37Z</time>
      </trkpt>
      <trkpt lat="47.81657" lon="-4.16741">
        <ele>3.768</ele>
        <time>2016-04-27T20:43:17Z</time>
      </trkpt>
      <trkpt lat="47.8159" lon="-4.16711">
        <ele>5.711</ele>
        <time>2016-04-27T20:42:57Z</time>
      </trkpt>
      <trkpt lat="47.81544" lon="-4.16664">
        <ele>5.849</ele>
        <time>2016-04-27T20:42:37Z</time>
      </trkpt>
      <trkpt lat="47.81522" lon="-4.16563">
        <ele>2.573</ele>
        <time>2016-04-27T20:41:37Z</time>
      </trkpt>
      <trkpt lat="47.815" lon="-4.16525">
        <ele>2.008</ele>
        <time>2016-04-27T20:40:57Z</time>
      </trkpt>
      <trkpt lat="47.81453" lon="-4.16522">
        <ele>3.825</ele>
        <time>2016-04-27T20:40:37Z</time>
      </trkpt>
      <trkpt lat="47.81476" lon="-4.16638">
        <ele>6.905</ele>
        <time>2016-04-27T20:40:17Z</time>
      </trkpt>
      <trkpt lat="47.81477" lon="-4.16782">
        <ele>6.079</ele>
        <time>2016-04-27T20:39:57Z</time>
      </trkpt>
      <trkpt lat="47.81456" lon="-4.1684">
        <ele>6.119</ele>
        <time>2016-04-27T20:39:37Z</time>
      </trkpt>
      <trkpt lat="47.8144" lon="-4.16949">
        <ele>7.881</ele>
        <time>2016-04-27T20:39:17Z</time>
      </trkpt>
      <trkpt lat="47.81388" lon="-4.17207">
        <ele>5.036</ele>
        <time>2016-04-27T20:38:57Z</time>
      </trkpt>
      <trkpt lat="47.8131" lon="-4.17464">
        <ele>2.475</ele>
        <time>2016-04-27T20:38:37Z</time>
      </trkpt>
      <trkpt lat="47.81274" lon="-4.17497">
        <ele>4.082</ele>
        <time>2016-04-27T20:38:17Z</time>
      </trkpt>
      <trkpt lat="47.81189" lon="-4.17529">
        <ele>6.085</ele>
        <time>2016-04-27T20:37:57Z</time>
      </trkpt>
      <trkpt lat="47.81144" lon="-4.1758">
        <ele>4.553</ele>
        <time>2016-04-27T20:37:37Z</time>
      </trkpt>
      <trkpt lat="47.81068" lon="-4.17563">
        <ele>4.497</ele>
        <time>2016-04-27T20:37:17Z</time>
      </trkpt>
      <trkpt lat="47.81025" lon="-4.17505">
        <ele>3.408</ele>
        <time>2016-04-27T20:36:17Z</time>
      </trkpt>
      <trkpt lat="47.8099" lon="-4.17537">
        <ele>5.811</ele>
        <time>2016-04-27T20:35:17Z</time>
      </trkpt>
      <trkpt lat="47.8093" lon="-4.17565">
        <ele>5.465</ele>
        <time>2016-04-27T20:34:57Z</time>
      </trkpt>
      <trkpt lat="47.80918" lon="-4.1758">
        <ele>5.915</ele>
        <time>2016-04-27T20:34:37Z</time>
      </trkpt>
      <trkpt lat="47.8083" lon="-4.17552">
        <ele>4.827</ele>
        <time>2016-04-27T20:34:17Z</time>
      </trkpt>
      <trkpt lat="47.80788" lon="-4.17557">
        <ele>4.629</ele>
        <time>2016-04-27T20:33:57Z</time>
      </trkpt>
      <trkpt lat="47.80696" lon="-4.17651">
        <ele>6.124</ele>
        <time>2016-04-27T20:33:37Z</time>
      </trkpt>
      <trkpt lat="47.80656" lon="-4.1767">
        <ele>5.043</ele>
        <time>2016-04-27T20:33:17Z</time>
      </trkpt>
      <trkpt lat="47.80587" lon="-4.17722">
        <ele>5.98</ele>
        <time>2016-04-27T20:32:57Z</time>
      </trkpt>
      <trkpt lat="47.805" lon="-4.17803">
        <ele>5.073</ele>
        <time>2016-04-27T20:32:37Z</time>
      </trkpt>
      <trkpt lat="47.80431" lon="-4.17941">
        <ele>6.041</ele>
        <time>2016-04-27T20:32:17Z</time>
      </trkpt>
      <trkpt lat="47.80435" lon="-4.17992">
        <ele>5.395</ele>
        <time>2016-04-27T20:31:57Z</time>
      </trkpt>
      <trkpt lat="47.80425" lon="-4.18003">
        <ele>4.908</ele>
        <time>2016-04-27T20:31:37Z</time>
      </trkpt>
      <trkpt lat="47.80388" lon="-4.17977">
        <ele>4.919</ele>
        <time>2016-04-27T20:31:17Z</time>
      </trkpt>
      <trkpt lat="47.80362" lon="-4.18042">
        <ele>3.081</ele>
        <time>2016-04-27T20:30:57Z</time>
      </trkpt>
      <trkpt lat="47.80314" lon="-4.18115">
        <ele>2.491</ele>
        <time>2016-04-27T20:30:37Z</time>
      </trkpt>
      <trkpt lat="47.80266" lon="-4.18229">
        <ele>3.124</ele>
        <time>2016-04-27T20:30:17Z</time>
      </trkpt>
      <trkpt lat="47.80232" lon="-4.18266">
        <ele>2.636</ele>
        <time>2016-04-27T20:29:57Z</time>
      </trkpt>
      <trkpt lat="47.80191" lon="-4.18234">
        <ele>4.031</ele>
        <time>2016-04-27T20:29:37Z</time>
      </trkpt>
      <trkpt lat="47.8016" lon="-4.18263">
        <ele>4.95</ele>
        <time>2016-04-27T20:29:17Z</time>
      </trkpt>
      <trkpt lat="47.80023" lon="-4.18349">
        <ele>2.447</ele>
        <time>2016-04-27T20:28:57Z</time>
      </trkpt>
      <trkpt lat="47.79978" lon="-4.18524">
        <ele>3.95</ele>
        <time>2016-04-27T20:28:37Z</time>
      </trkpt>
      <trkpt lat="47.80164" lon="-4.18625">
        <ele>2.188</ele>
        <time>2016-04-27T20:28:17Z</time>
      </trkpt>
      <trkpt lat="47.80236" lon="-4.18743">
        <ele>2.922</ele>
        <time>2016-04-27T20:27:57Z</time>
      </trkpt>
      <trkpt lat="47.80231" lon="-4.18799">
        <ele>3.008</ele>
        <time>2016-04-27T20:27:37Z</time>
      </trkpt>
      <trkpt lat="47.80196" lon="-4.18915">
        <ele>5.016</ele>
        <time>2016-04-27T20:27:17Z</time>
      </trkpt>
      <trkpt lat="47.80179" lon="-4.19016">
        <ele>7.406</ele>
        <time>2016-04-27T20:26:57Z</time>
      </trkpt>
      <trkpt lat="47.80092" lon="-4.18992">
        <ele>7.264</ele>
        <time>2016-04-27T20:26:37Z</time>
      </trkpt>
      <trkpt lat="47.79996" lon="-4.19022">
        <ele>5.057</ele>
        <time>2016-04-27T20:26:17Z</time>
      </trkpt>
      <trkpt lat="47.79942" lon="-4.19018">
        <ele>5.629</ele>
        <time>2016-04-27T20:25:57Z</time>
      </trkpt>
      <trkpt lat="47.79893" lon="-4.18986">
        <ele>4.224</ele>
        <time>2016-04-27T20:25:37Z</time>
      </trkpt>
      <trkpt lat="47.79836" lon="-4.19085">
        <ele>2.023</ele>
        <time>2020-12-18T18:20:31Z</time>
      </trkpt>
      <trkpt lat="47.79802" lon="-4.19104">
        <ele>2.04</ele>
        <time>2020-12-18T18:20:11Z</time>
      </trkpt>
      <trkpt lat="47.79751" lon="-4.19222">
        <ele>4.073</ele>
        <time>2016-04-27T20:24:37Z</time>
      </trkpt>
      <trkpt lat="47.79716" lon="-4.19248">
        <ele>4.711</ele>
        <time>2016-04-27T20:24:17Z</time>
      </trkpt>
      <trkpt lat="47.7968" lon="-4.1925">
        <ele>3.545</ele>
        <time>2016-04-27T20:23:57Z</time>
      </trkpt>
      <trkpt lat="47.79664" lon="-4.1923">
        <ele>2.308</ele>
        <time>2016-04-27T20:23:37Z</time>
      </trkpt>
      <trkpt lat="47.79633" lon="-4.19224">
        <ele>2.027</ele>
        <time>2016-04-27T20:23:17Z</time>
      </trkpt>
      <trkpt lat="47.79608" lon="-4.19248">
        <ele>1.907</ele>
        <time>2016-04-27T20:22:57Z</time>
      </trkpt>
      <trkpt lat="47.79635" lon="-4.19288">
        <ele>2.999</ele>
        <time>2016-04-27T20:22:37Z</time>
      </trkpt>
      <trkpt lat="47.79673" lon="-4.19384">
        <ele>4.433</ele>
        <time>2020-12-18T18:17:31Z</time>
      </trkpt>
      <trkpt lat="47.7967" lon="-4.19456">
        <ele>2.885</ele>
        <time>2016-04-27T20:21:57Z</time>
      </trkpt>
      <trkpt lat="47.79739" lon="-4.19484">
        <ele>5.23</ele>
        <time>2016-04-27T20:21:37Z</time>
      </trkpt>
      <trkpt lat="47.79739" lon="-4.19632">
        <ele>5.639</ele>
        <time>2016-04-27T20:21:17Z</time>
      </trkpt>
      <trkpt lat="47.79867" lon="-4.19831">
        <ele>5.146</ele>
        <time>2016-04-27T20:20:57Z</time>
      </trkpt>
      <trkpt lat="47.79951" lon="-4.20052">
        <ele>4.969</ele>
        <time>2016-04-27T20:20:37Z</time>
      </trkpt>
      <trkpt lat="47.79996" lon="-4.20235">
        <ele>4.587</ele>
        <time>2016-04-27T20:20:17Z</time>
      </trkpt>
      <trkpt lat="47.8001" lon="-4.2046">
        <ele>4.381</ele>
        <time>2016-04-27T20:19:57Z</time>
      </trkpt>
      <trkpt lat="47.79996" lon="-4.20709">
        <ele>2.808</ele>
        <time>2016-04-27T20:19:37Z</time>
      </trkpt>
      <trkpt lat="47.80185" lon="-4.20848">
        <ele>4.517</ele>
        <time>2016-04-27T20:19:17Z</time>
      </trkpt>
      <trkpt lat="47.80189" lon="-4.20926">
        <ele>4.152</ele>
        <time>2016-04-27T20:18:57Z</time>
      </trkpt>
      <trkpt lat="47.80222" lon="-4.20973">
        <ele>2.058</ele>
        <time>2016-04-27T20:18:37Z</time>
      </trkpt>
      <trkpt lat="47.80339" lon="-4.21039">
        <ele>2.835</ele>
        <time>2016-04-27T20:18:17Z</time>
      </trkpt>
      <trkpt lat="47.80287" lon="-4.2132">
        <ele>1.037</ele>
        <time>2016-04-27T20:17:57Z</time>
      </trkpt>
      <trkpt lat="47.80268" lon="-4.21308">
        <ele>0.112</ele>
        <time>2016-04-27T20:17:37Z</time>
      </trkpt>
      <trkpt lat="47.80241" lon="-4.21325">
        <ele>1.881</ele>
        <time>2016-04-27T20:17:17Z</time>
      </trkpt>
      <trkpt lat="47.80212" lon="-4.21295">
        <ele>2.618</ele>
        <time>2016-04-27T20:16:57Z</time>
      </trkpt>
      <trkpt lat="47.80199" lon="-4.21247">
        <ele>1.921</ele>
        <time>2016-04-27T20:16:37Z</time>
      </trkpt>
      <trkpt lat="47.8016" lon="-4.21224">
        <ele>1.689</ele>
        <time>2016-04-27T20:16:17Z</time>
      </trkpt>
      <trkpt lat="47.80154" lon="-4.2135">
        <ele>6.753</ele>
        <time>2016-04-27T20:15:57Z</time>
      </trkpt>
      <trkpt lat="47.80095" lon="-4.2135">
        <ele>6.408</ele>
        <time>2016-04-27T20:15:17Z</time>
      </trkpt>
      <trkpt lat="47.80076" lon="-4.21456">
        <ele>6.819</ele>
        <time>2016-04-27T20:14:57Z</time>
      </trkpt>
      <trkpt lat="47.8003" lon="-4.21443">
        <ele>5.99</ele>
        <time>2016-04-27T20:14:37Z</time>
      </trkpt>
      <trkpt lat="47.79974" lon="-4.21408">
        <ele>4.976</ele>
        <time>2016-04-27T20:14:17Z</time>
      </trkpt>
      <trkpt lat="47.79976" lon="-4.21378">
        <ele>4.879</ele>
        <time>2016-04-27T20:13:57Z</time>
      </trkpt>
      <trkpt lat="47.79955" lon="-4.21363">
        <ele>5.621</ele>
        <time>2016-04-27T20:13:37Z</time>
      </trkpt>
      <trkpt lat="47.79934" lon="-4.2129">
        <ele>3.856</ele>
        <time>2016-04-27T20:13:17Z</time>
      </trkpt>
      <trkpt lat="47.79898" lon="-4.21284">
        <ele>6.015</ele>
        <time>2016-04-27T20:12:57Z</time>
      </trkpt>
      <trkpt lat="47.79842" lon="-4.21323">
        <ele>6.142</ele>
        <time>2016-04-27T20:12:37Z</time>
      </trkpt>
      <trkpt lat="47.79808" lon="-4.21325">
        <ele>5.175</ele>
        <time>2020-12-18T18:07:51Z</time>
      </trkpt>
      <trkpt lat="47.79781" lon="-4.21266">
        <ele>5.043</ele>
        <time>2020-12-18T18:07:31Z</time>
      </trkpt>
      <trkpt lat="47.79762" lon="-4.21294">
        <ele>3.687</ele>
        <time>2020-12-18T18:07:11Z</time>
      </trkpt>
      <trkpt lat="47.7978" lon="-4.21357">
        <ele>4.108</ele>
        <time>2016-04-27T20:11:57Z</time>
      </trkpt>
      <trkpt lat="47.79782" lon="-4.21402">
        <ele>4.603</ele>
        <time>2016-04-27T20:11:37Z</time>
      </trkpt>
      <trkpt lat="47.79769" lon="-4.2149">
        <ele>5.421</ele>
        <time>2016-04-27T20:11:17Z</time>
      </trkpt>
      <trkpt lat="47.79736" lon="-4.21531">
        <ele>4.011</ele>
        <time>2016-04-27T20:10:57Z</time>
      </trkpt>
      <trkpt lat="47.79682" lon="-4.21554">
        <ele>1.057</ele>
        <time>2016-04-27T20:10:37Z</time>
      </trkpt>
      <trkpt lat="47.79624" lon="-4.2155">
        <ele>0.559</ele>
        <time>2016-04-27T20:10:17Z</time>
      </trkpt>
      <trkpt lat="47.79559" lon="-4.2164">
        <ele>4.264</ele>
        <time>2016-04-27T20:09:57Z</time>
      </trkpt>
      <trkpt lat="47.79529" lon="-4.21653">
        <ele>4.513</ele>
        <time>2016-04-27T20:09:37Z</time>
      </trkpt>
      <trkpt lat="47.79509" lon="-4.21633">
        <ele>4.29</ele>
        <time>2020-12-18T18:04:11Z</time>
      </trkpt>
      <trkpt lat="47.79483" lon="-4.21629">
        <ele>4.533</ele>
        <time>2020-12-18T18:03:51Z</time>
      </trkpt>
      <trkpt lat="47.79484" lon="-4.21655">
        <ele>5.641</ele>
        <time>2016-04-27T20:08:57Z</time>
      </trkpt>
      <trkpt lat="47.79393" lon="-4.21677">
        <ele>3.775</ele>
        <time>2016-04-27T20:08:37Z</time>
      </trkpt>
      <trkpt lat="47.79372" lon="-4.21722">
        <ele>4.108</ele>
        <time>2016-04-27T20:08:17Z</time>
      </trkpt>
      <trkpt lat="47.79374" lon="-4.21795">
        <ele>5.025</ele>
        <time>2016-04-27T20:07:57Z</time>
      </trkpt>
      <trkpt lat="47.79338" lon="-4.21863">
        <ele>3.523</ele>
        <time>2016-04-27T20:07:37Z</time>
      </trkpt>
      <trkpt lat="47.79276" lon="-4.21915">
        <ele>0.097</ele>
        <time>2016-04-27T20:07:17Z</time>
      </trkpt>
      <trkpt lat="47.79347" lon="-4.22071">
        <ele>3.66</ele>
        <time>2016-04-27T20:06:57Z</time>
      </trkpt>
      <trkpt lat="47.79364" lon="-4.22153">
        <ele>4.232</ele>
        <time>2016-04-27T20:06:37Z</time>
      </trkpt>
      <trkpt lat="47.79366" lon="-4.2226">
        <ele>6.227</ele>
        <time>2016-04-27T20:06:17Z</time>
      </trkpt>
      <trkpt lat="47.79246" lon="-4.2238">
        <ele>2.616</ele>
        <time>2016-04-27T20:05:57Z</time>
      </trkpt>
      <trkpt lat="47.79265" lon="-4.22443">
        <ele>5.153</ele>
        <time>2016-04-27T20:05:37Z</time>
      </trkpt>
      <trkpt lat="47.79327" lon="-4.22524">
        <ele>5.716</ele>
        <time>2016-04-27T20:05:17Z</time>
      </trkpt>
      <trkpt lat="47.79356" lon="-4.22509">
        <ele>7.514</ele>
        <time>2016-04-27T20:04:57Z</time>
      </trkpt>
      <trkpt lat="47.79398" lon="-4.22509">
        <ele>8.738</ele>
        <time>2016-04-27T20:04:37Z</time>
      </trkpt>
      <trkpt lat="47.79412" lon="-4.22546">
        <ele>7.208</ele>
        <time>2016-04-27T20:04:17Z</time>
      </trkpt>
      <trkpt lat="47.79405" lon="-4.22599">
        <ele>5.611</ele>
        <time>2016-04-27T20:03:57Z</time>
      </trkpt>
      <trkpt lat="47.79448" lon="-4.22668">
        <ele>6.047</ele>
        <time>2016-04-27T20:03:37Z</time>
      </trkpt>
      <trkpt lat="47.79485" lon="-4.22752">
        <ele>4.526</ele>
        <time>2016-04-27T20:03:17Z</time>
      </trkpt>
      <trkpt lat="47.79527" lon="-4.228">
        <ele>6.067</ele>
        <time>2016-04-27T20:02:57Z</time>
      </trkpt>
      <trkpt lat="47.7954" lon="-4.22862">
        <ele>4.149</ele>
        <time>2016-04-27T20:02:37Z</time>
      </trkpt>
      <trkpt lat="47.79502" lon="-4.23126">
        <ele>4.934</ele>
        <time>2016-04-27T20:02:17Z</time>
      </trkpt>
      <trkpt lat="47.79451" lon="-4.23197">
        <ele>5.073</ele>
        <time>2016-04-27T20:01:57Z</time>
      </trkpt>
      <trkpt lat="47.79436" lon="-4.23454">
        <ele>6.86</ele>
        <time>2016-04-27T20:01:37Z</time>
      </trkpt>
      <trkpt lat="47.79445" lon="-4.23506">
        <ele>6.893</ele>
        <time>2016-04-27T20:01:17Z</time>
      </trkpt>
      <trkpt lat="47.79439" lon="-4.23624">
        <ele>5.631</ele>
        <time>2016-04-27T20:00:57Z</time>
      </trkpt>
      <trkpt lat="47.79461" lon="-4.23792">
        <ele>3.915</ele>
        <time>2016-04-27T20:00:37Z</time>
      </trkpt>
      <trkpt lat="47.79445" lon="-4.23827">
        <ele>4.008</ele>
        <time>2016-04-27T20:00:17Z</time>
      </trkpt>
      <trkpt lat="47.79421" lon="-4.23968">
        <ele>2.021</ele>
        <time>2016-04-27T19:59:57Z</time>
      </trkpt>
      <trkpt lat="47.79426" lon="-4.24002">
        <ele>2.065</ele>
        <time>2016-04-27T19:59:37Z</time>
      </trkpt>
      <trkpt lat="47.794" lon="-4.24132">
        <ele>2.093</ele>
        <time>2016-04-27T19:59:17Z</time>
      </trkpt>
      <trkpt lat="47.79403" lon="-4.24238">
        <ele>3.393</ele>
        <time>2016-04-27T19:58:57Z</time>
      </trkpt>
      <trkpt lat="47.79378" lon="-4.24261">
        <ele>4.625</ele>
        <time>2016-04-27T19:58:37Z</time>
      </trkpt>
      <trkpt lat="47.79376" lon="-4.24412">
        <ele>5.12</ele>
        <time>2016-04-27T19:58:17Z</time>
      </trkpt>
      <trkpt lat="47.79305" lon="-4.24535">
        <ele>2.849</ele>
        <time>2016-04-27T19:57:57Z</time>
      </trkpt>
      <trkpt lat="47.79287" lon="-4.24648">
        <ele>0.256</ele>
        <time>2016-04-27T19:57:37Z</time>
      </trkpt>
      <trkpt lat="47.79269" lon="-4.24689">
        <ele>1.249</ele>
        <time>2016-04-27T19:57:17Z</time>
      </trkpt>
      <trkpt lat="47.79256" lon="-4.24795">
        <ele>2.537</ele>
        <time>2016-04-27T19:56:57Z</time>
      </trkpt>
      <trkpt lat="47.79256" lon="-4.24921">
        <ele>1.111</ele>
        <time>2016-04-27T19:56:37Z</time>
      </trkpt>
      <trkpt lat="47.79288" lon="-4.25112">
        <ele>0.708</ele>
        <time>2016-04-27T19:56:17Z</time>
      </trkpt>
      <trkpt lat="47.79292" lon="-4.2523">
        <ele>2.514</ele>
        <time>2016-04-27T19:55:57Z</time>
      </trkpt>
      <trkpt lat="47.79269" lon="-4.2546">
        <ele>3.359</ele>
        <time>2016-04-27T19:55:37Z</time>
      </trkpt>
      <trkpt lat="47.79282" lon="-4.25554">
        <ele>0.956</ele>
        <time>2016-04-27T19:55:17Z</time>
      </trkpt>
      <trkpt lat="47.79287" lon="-4.25653">
        <ele>1.945</ele>
        <time>2016-04-27T19:54:57Z</time>
      </trkpt>
      <trkpt lat="47.79268" lon="-4.25717">
        <ele>3.487</ele>
        <time>2016-04-27T19:54:37Z</time>
      </trkpt>
      <trkpt lat="47.79263" lon="-4.25777">
        <ele>2.532</ele>
        <time>2016-04-27T19:54:17Z</time>
      </trkpt>
      <trkpt lat="47.79251" lon="-4.25844">
        <ele>3.081</ele>
        <time>2016-04-27T19:53:57Z</time>
      </trkpt>
      <trkpt lat="47.79227" lon="-4.2609">
        <ele>3.818</ele>
        <time>2016-04-27T19:53:37Z</time>
      </trkpt>
      <trkpt lat="47.7919" lon="-4.2627">
        <ele>3.081</ele>
        <time>2016-04-27T19:53:17Z</time>
      </trkpt>
      <trkpt lat="47.79164" lon="-4.26272">
        <ele>2.769</ele>
        <time>2016-04-27T19:52:57Z</time>
      </trkpt>
      <trkpt lat="47.79112" lon="-4.26429">
        <ele>1.993</ele>
        <time>2016-04-27T19:52:37Z</time>
      </trkpt>
      <trkpt lat="47.79053" lon="-4.26638">
        <ele>2.808</ele>
        <time>2016-04-27T19:52:17Z</time>
      </trkpt>
      <trkpt lat="47.79044" lon="-4.26766">
        <ele>2.514</ele>
        <time>2016-04-27T19:51:57Z</time>
      </trkpt>
      <trkpt lat="47.79122" lon="-4.26942">
        <ele>2.613</ele>
        <time>2016-04-27T19:51:37Z</time>
      </trkpt>
      <trkpt lat="47.79167" lon="-4.27133">
        <ele>2.072</ele>
        <time>2016-04-27T19:51:17Z</time>
      </trkpt>
      <trkpt lat="47.79199" lon="-4.27223">
        <ele>1.144</ele>
        <time>2016-04-27T19:50:57Z</time>
      </trkpt>
      <trkpt lat="47.79225" lon="-4.27211">
        <ele>2.036</ele>
        <time>2016-04-27T19:50:37Z</time>
      </trkpt>
      <trkpt lat="47.79251" lon="-4.27226">
        <ele>2.021</ele>
        <time>2016-04-27T19:50:17Z</time>
      </trkpt>
      <trkpt lat="47.79238" lon="-4.27464">
        <ele>3.08</ele>
        <time>2016-04-27T19:49:57Z</time>
      </trkpt>
      <trkpt lat="47.79217" lon="-4.27565">
        <ele>4.747</ele>
        <time>2016-04-27T19:49:37Z</time>
      </trkpt>
      <trkpt lat="47.79186" lon="-4.27629">
        <ele>5.39</ele>
        <time>2016-04-27T19:46:57Z</time>
      </trkpt>
      <trkpt lat="47.79223" lon="-4.27695">
        <ele>4.078</ele>
        <time>2016-04-27T19:46:37Z</time>
      </trkpt>
      <trkpt lat="47.79219" lon="-4.2782">
        <ele>3.252</ele>
        <time>2016-04-27T19:46:17Z</time>
      </trkpt>
      <trkpt lat="47.79275" lon="-4.27869">
        <ele>4.008</ele>
        <time>2016-04-27T19:44:57Z</time>
      </trkpt>
      <trkpt lat="47.79334" lon="-4.27893">
        <ele>4.818</ele>
        <time>2016-04-27T19:44:37Z</time>
      </trkpt>
      <trkpt lat="47.79354" lon="-4.27889">
        <ele>3.544</ele>
        <time>2016-04-27T19:44:17Z</time>
      </trkpt>
      <trkpt lat="47.79389" lon="-4.27792">
        <ele>2.563</ele>
        <time>2020-12-18T17:41:51Z</time>
      </trkpt>
      <trkpt lat="47.79421" lon="-4.27796">
        <ele>2.971</ele>
        <time>2020-12-18T17:41:31Z</time>
      </trkpt>
      <trkpt lat="47.79484" lon="-4.27648">
        <ele>4.763</ele>
        <time>2016-04-27T19:43:17Z</time>
      </trkpt>
      <trkpt lat="47.79524" lon="-4.27601">
        <ele>4.778</ele>
        <time>2016-04-27T19:42:57Z</time>
      </trkpt>
      <trkpt lat="47.79542" lon="-4.27427">
        <ele>5.647</ele>
        <time>2016-04-27T19:42:37Z</time>
      </trkpt>
      <trkpt lat="47.79559" lon="-4.27376">
        <ele>4.964</ele>
        <time>2016-04-27T19:42:17Z</time>
      </trkpt>
      <trkpt lat="47.79599" lon="-4.27326">
        <ele>6.667</ele>
        <time>2016-04-27T19:41:57Z</time>
      </trkpt>
      <trkpt lat="47.7966" lon="-4.2738">
        <ele>3.665</ele>
        <time>2016-04-27T19:41:37Z</time>
      </trkpt>
      <trkpt lat="47.79696" lon="-4.27455">
        <ele>1.689</ele>
        <time>2016-04-27T19:41:17Z</time>
      </trkpt>
      <trkpt lat="47.79705" lon="-4.27554">
        <ele>3.608</ele>
        <time>2016-04-27T19:40:57Z</time>
      </trkpt>
      <trkpt lat="47.79597" lon="-4.27711">
        <ele>4.71</ele>
        <time>2020-12-18T17:38:31Z</time>
      </trkpt>
      <trkpt lat="47.79607" lon="-4.27725">
        <ele>6.055</ele>
        <time>2020-12-18T17:38:11Z</time>
      </trkpt>
      <trkpt lat="47.79582" lon="-4.278">
        <ele>2.334</ele>
        <time>2020-12-18T17:37:51Z</time>
      </trkpt>
      <trkpt lat="47.79566" lon="-4.27923">
        <ele>3.179</ele>
        <time>2020-12-18T17:37:31Z</time>
      </trkpt>
      <trkpt lat="47.79544" lon="-4.28006">
        <ele>2.671</ele>
        <time>2020-12-18T17:37:11Z</time>
      </trkpt>
      <trkpt lat="47.79491" lon="-4.28101">
        <ele>5.766</ele>
        <time>2020-12-18T17:36:51Z</time>
      </trkpt>
      <trkpt lat="47.79423" lon="-4.28262">
        <ele>5.965</ele>
        <time>2020-12-18T17:36:31Z</time>
      </trkpt>
      <trkpt lat="47.79377" lon="-4.28351">
        <ele>7.012</ele>
        <time>2020-12-18T17:36:11Z</time>
      </trkpt>
      <trkpt lat="47.79313" lon="-4.28282">
        <ele>5.375</ele>
        <time>2020-12-18T17:35:51Z</time>
      </trkpt>
      <trkpt lat="47.79258" lon="-4.28399">
        <ele>7.953</ele>
        <time>2016-04-27T19:38:37Z</time>
      </trkpt>
      <trkpt lat="47.79233" lon="-4.28537">
        <ele>5.147</ele>
        <time>2016-04-27T19:38:17Z</time>
      </trkpt>
      <trkpt lat="47.79311" lon="-4.28577">
        <ele>6.908</ele>
        <time>2016-04-27T19:37:57Z</time>
      </trkpt>
      <trkpt lat="47.79321" lon="-4.28642">
        <ele>7.717</ele>
        <time>2016-04-27T19:37:37Z</time>
      </trkpt>
      <trkpt lat="47.79347" lon="-4.28646">
        <ele>9.098</ele>
        <time>2016-04-27T19:37:17Z</time>
      </trkpt>
      <trkpt lat="47.79337" lon="-4.28811">
        <ele>7.018</ele>
        <time>2016-04-27T19:36:57Z</time>
      </trkpt>
      <trkpt lat="47.79313" lon="-4.29045">
        <ele>7.52</ele>
        <time>2016-04-27T19:36:37Z</time>
      </trkpt>
      <trkpt lat="47.79292" lon="-4.29103">
        <ele>6.372</ele>
        <time>2016-04-27T19:36:17Z</time>
      </trkpt>
      <trkpt lat="47.79213" lon="-4.29198">
        <ele>5.327</ele>
        <time>2016-04-27T19:35:57Z</time>
      </trkpt>
      <trkpt lat="47.79263" lon="-4.29292">
        <ele>5.516</ele>
        <time>2016-04-27T19:35:37Z</time>
      </trkpt>
      <trkpt lat="47.79307" lon="-4.2932">
        <ele>5.523</ele>
        <time>2016-04-27T19:35:17Z</time>
      </trkpt>
      <trkpt lat="47.79424" lon="-4.29324">
        <ele>3.766</ele>
        <time>2016-04-27T19:34:57Z</time>
      </trkpt>
      <trkpt lat="47.79553" lon="-4.29298">
        <ele>2.684</ele>
        <time>2016-04-27T19:34:37Z</time>
      </trkpt>
      <trkpt lat="47.79647" lon="-4.29318">
        <ele>2.318</ele>
        <time>2016-04-27T19:34:17Z</time>
      </trkpt>
      <trkpt lat="47.79752" lon="-4.29365">
        <ele>3.808</ele>
        <time>2016-04-27T19:33:57Z</time>
      </trkpt>
      <trkpt lat="47.7984" lon="-4.29464">
        <ele>0.808</ele>
        <time>2016-04-27T19:33:37Z</time>
      </trkpt>
      <trkpt lat="47.79869" lon="-4.29526">
        <ele>-0.426</ele>
        <time>2016-04-27T19:33:17Z</time>
      </trkpt>
      <trkpt lat="47.79918" lon="-4.29562">
        <ele>3.825</ele>
        <time>2016-04-27T19:32:57Z</time>
      </trkpt>
      <trkpt lat="47.7996" lon="-4.29622">
        <ele>4.271</ele>
        <time>2016-04-27T19:32:37Z</time>
      </trkpt>
      <trkpt lat="47.80025" lon="-4.29749">
        <ele>5.953</ele>
        <time>2016-04-27T19:32:17Z</time>
      </trkpt>
      <trkpt lat="47.80048" lon="-4.29876">
        <ele>3.458</ele>
        <time>2016-04-27T19:31:57Z</time>
      </trkpt>
      <trkpt lat="47.80078" lon="-4.29925">
        <ele>5.367</ele>
        <time>2016-04-27T19:31:37Z</time>
      </trkpt>
      <trkpt lat="47.80085" lon="-4.29996">
        <ele>3.294</ele>
        <time>2016-04-27T19:31:17Z</time>
      </trkpt>
      <trkpt lat="47.80097" lon="-4.30067">
        <ele>2.517</ele>
        <time>2016-04-27T19:30:17Z</time>
      </trkpt>
      <trkpt lat="47.80097" lon="-4.3014">
        <ele>4.075</ele>
        <time>2016-04-27T19:29:57Z</time>
      </trkpt>
      <trkpt lat="47.80128" lon="-4.30262">
        <ele>5.619</ele>
        <time>2016-04-27T19:29:37Z</time>
      </trkpt>
      <trkpt lat="47.80125" lon="-4.30367">
        <ele>5.408</ele>
        <time>2016-04-27T19:29:17Z</time>
      </trkpt>
      <trkpt lat="47.80141" lon="-4.30491">
        <ele>5.117</ele>
        <time>2016-04-27T19:28:57Z</time>
      </trkpt>
      <trkpt lat="47.80136" lon="-4.30616">
        <ele>5.97</ele>
        <time>2016-04-27T19:28:37Z</time>
      </trkpt>
      <trkpt lat="47.80166" lon="-4.3074">
        <ele>8.338</ele>
        <time>2016-04-27T19:28:17Z</time>
      </trkpt>
      <trkpt lat="47.80143" lon="-4.30809">
        <ele>7.125</ele>
        <time>2016-04-27T19:27:57Z</time>
      </trkpt>
      <trkpt lat="47.80169" lon="-4.30903">
        <ele>5.597</ele>
        <time>2016-04-27T19:27:37Z</time>
      </trkpt>
      <trkpt lat="47.80164" lon="-4.30936">
        <ele>4.992</ele>
        <time>2016-04-27T19:27:17Z</time>
      </trkpt>
      <trkpt lat="47.80143" lon="-4.31071">
        <ele>5.061</ele>
        <time>2016-04-27T19:26:57Z</time>
      </trkpt>
      <trkpt lat="47.80088" lon="-4.31425">
        <ele>4.538</ele>
        <time>2016-04-27T19:26:37Z</time>
      </trkpt>
      <trkpt lat="47.80088" lon="-4.31556">
        <ele>5.041</ele>
        <time>2016-04-27T19:26:17Z</time>
      </trkpt>
      <trkpt lat="47.80051" lon="-4.31614">
        <ele>4.169</ele>
        <time>2016-04-27T19:25:57Z</time>
      </trkpt>
      <trkpt lat="47.80035" lon="-4.31689">
        <ele>4.273</ele>
        <time>2016-04-27T19:25:37Z</time>
      </trkpt>
      <trkpt lat="47.80029" lon="-4.31809">
        <ele>5.008</ele>
        <time>2016-04-27T19:25:17Z</time>
      </trkpt>
      <trkpt lat="47.79938" lon="-4.3209">
        <ele>2.126</ele>
        <time>2016-04-27T19:24:57Z</time>
      </trkpt>
      <trkpt lat="47.79928" lon="-4.32172">
        <ele>3.133</ele>
        <time>2016-04-27T19:24:37Z</time>
      </trkpt>
      <trkpt lat="47.79852" lon="-4.32332">
        <ele>2.778</ele>
        <time>2016-04-27T19:24:17Z</time>
      </trkpt>
      <trkpt lat="47.7983" lon="-4.32414">
        <ele>3.886</ele>
        <time>2016-04-27T19:23:57Z</time>
      </trkpt>
      <trkpt lat="47.79823" lon="-4.32521">
        <ele>4.648</ele>
        <time>2016-04-27T19:23:37Z</time>
      </trkpt>
      <trkpt lat="47.79847" lon="-4.32624">
        <ele>7.753</ele>
        <time>2016-04-27T19:23:17Z</time>
      </trkpt>
      <trkpt lat="47.7984" lon="-4.32783">
        <ele>6.272</ele>
        <time>2016-04-27T19:22:57Z</time>
      </trkpt>
      <trkpt lat="47.79908" lon="-4.33133">
        <ele>1.919</ele>
        <time>2016-04-27T19:22:37Z</time>
      </trkpt>
      <trkpt lat="47.79919" lon="-4.33206">
        <ele>3.992</ele>
        <time>2016-04-27T19:22:17Z</time>
      </trkpt>
      <trkpt lat="47.79915" lon="-4.33328">
        <ele>3.99</ele>
        <time>2016-04-27T19:21:57Z</time>
      </trkpt>
      <trkpt lat="47.79931" lon="-4.33427">
        <ele>3.114</ele>
        <time>2016-04-27T19:21:37Z</time>
      </trkpt>
      <trkpt lat="47.79932" lon="-4.33637">
        <ele>2.008</ele>
        <time>2016-04-27T19:21:17Z</time>
      </trkpt>
      <trkpt lat="47.79947" lon="-4.33669">
        <ele>2.017</ele>
        <time>2016-04-27T19:20:57Z</time>
      </trkpt>
      <trkpt lat="47.79945" lon="-4.33969">
        <ele>3.007</ele>
        <time>2016-04-27T19:20:37Z</time>
      </trkpt>
      <trkpt lat="47.80001" lon="-4.3417">
        <ele>4.284</ele>
        <time>2016-04-27T19:20:17Z</time>
      </trkpt>
      <trkpt lat="47.80013" lon="-4.34493">
        <ele>1.437</ele>
        <time>2016-04-27T19:19:57Z</time>
      </trkpt>
      <trkpt lat="47.79993" lon="-4.34648">
        <ele>3.569</ele>
        <time>2016-04-27T19:19:37Z</time>
      </trkpt>
      <trkpt lat="47.79951" lon="-4.34794">
        <ele>2.774</ele>
        <time>2016-04-27T19:19:17Z</time>
      </trkpt>
      <trkpt lat="47.79932" lon="-4.34899">
        <ele>5.273</ele>
        <time>2016-04-27T19:18:57Z</time>
      </trkpt>
      <trkpt lat="47.79878" lon="-4.34982">
        <ele>4.47</ele>
        <time>2016-04-27T19:18:37Z</time>
      </trkpt>
      <trkpt lat="47.79844" lon="-4.34965">
        <ele>4.933</ele>
        <time>2016-04-27T19:18:17Z</time>
      </trkpt>
      <trkpt lat="47.7981" lon="-4.35051">
        <ele>1.321</ele>
        <time>2016-04-27T19:17:57Z</time>
      </trkpt>
      <trkpt lat="47.79742" lon="-4.35358">
        <ele>3.735</ele>
        <time>2016-04-27T19:17:37Z</time>
      </trkpt>
      <trkpt lat="47.79729" lon="-4.35517">
        <ele>4.008</ele>
        <time>2016-04-27T19:17:17Z</time>
      </trkpt>
      <trkpt lat="47.79711" lon="-4.35556">
        <ele>3.221</ele>
        <time>2016-04-27T19:16:57Z</time>
      </trkpt>
      <trkpt lat="47.79702" lon="-4.35622">
        <ele>4.465</ele>
        <time>2016-04-27T19:16:37Z</time>
      </trkpt>
      <trkpt lat="47.79682" lon="-4.3568">
        <ele>4.393</ele>
        <time>2016-04-27T19:16:17Z</time>
      </trkpt>
      <trkpt lat="47.79679" lon="-4.36002">
        <ele>3.857</ele>
        <time>2016-04-27T19:15:57Z</time>
      </trkpt>
      <trkpt lat="47.79707" lon="-4.36088">
        <ele>3.049</ele>
        <time>2016-04-27T19:15:37Z</time>
      </trkpt>
      <trkpt lat="47.79716" lon="-4.3615">
        <ele>4.994</ele>
        <time>2016-04-27T19:15:17Z</time>
      </trkpt>
      <trkpt lat="47.79667" lon="-4.36195">
        <ele>6.033</ele>
        <time>2016-04-27T19:14:57Z</time>
      </trkpt>
      <trkpt lat="47.79631" lon="-4.36191">
        <ele>3.32</ele>
        <time>2016-04-27T19:14:37Z</time>
      </trkpt>
      <trkpt lat="47.79598" lon="-4.36253">
        <ele>4.213</ele>
        <time>2016-04-27T19:14:17Z</time>
      </trkpt>
      <trkpt lat="47.79582" lon="-4.36328">
        <ele>4.951</ele>
        <time>2016-04-27T19:13:57Z</time>
      </trkpt>
      <trkpt lat="47.79612" lon="-4.36431">
        <ele>4.045</ele>
        <time>2016-04-27T19:13:37Z</time>
      </trkpt>
      <trkpt lat="47.79618" lon="-4.36579">
        <ele>4.408</ele>
        <time>2016-04-27T19:13:17Z</time>
      </trkpt>
      <trkpt lat="47.79609" lon="-4.36639">
        <ele>2.922</ele>
        <time>2016-04-27T19:12:57Z</time>
      </trkpt>
      <trkpt lat="47.7963" lon="-4.36718">
        <ele>2.357</ele>
        <time>2016-04-27T19:12:37Z</time>
      </trkpt>
      <trkpt lat="47.7963" lon="-4.36811">
        <ele>2.894</ele>
        <time>2016-04-27T19:11:37Z</time>
      </trkpt>
      <trkpt lat="47.797" lon="-4.36969">
        <ele>2.734</ele>
        <time>2016-04-27T19:11:17Z</time>
      </trkpt>
      <trkpt lat="47.79729" lon="-4.37032">
        <ele>3.346</ele>
        <time>2016-04-27T19:10:57Z</time>
      </trkpt>
      <trkpt lat="47.79744" lon="-4.37154">
        <ele>3.271</ele>
        <time>2016-04-27T19:10:37Z</time>
      </trkpt>
      <trkpt lat="47.79781" lon="-4.37274">
        <ele>6.11</ele>
        <time>2016-04-27T19:10:17Z</time>
      </trkpt>
      <trkpt lat="47.79774" lon="-4.37321">
        <ele>4.947</ele>
        <time>2016-04-27T19:09:57Z</time>
      </trkpt>
      <trkpt lat="47.79797" lon="-4.37341">
        <ele>4.71</ele>
        <time>2016-04-27T19:09:37Z</time>
      </trkpt>
      <trkpt lat="47.79778" lon="-4.37396">
        <ele>3.758</ele>
        <time>2016-04-27T19:09:17Z</time>
      </trkpt>
      <trkpt lat="47.79814" lon="-4.3742">
        <ele>3.042</ele>
        <time>2016-04-27T19:08:57Z</time>
      </trkpt>
      <trkpt lat="47.79844" lon="-4.37373">
        <ele>3.608</ele>
        <time>2016-04-27T19:08:37Z</time>
      </trkpt>
      <trkpt lat="47.79899" lon="-4.37349">
        <ele>2.019</ele>
        <time>2016-04-27T19:08:17Z</time>
      </trkpt>
      <trkpt lat="47.79958" lon="-4.3736">
        <ele>1.081</ele>
        <time>2016-04-27T19:07:57Z</time>
      </trkpt>
      <trkpt lat="47.80019" lon="-4.37399">
        <ele>1.867</ele>
        <time>2016-04-27T19:07:37Z</time>
      </trkpt>
      <trkpt lat="47.80173" lon="-4.37394">
        <ele>2.457</ele>
        <time>2016-04-27T19:07:17Z</time>
      </trkpt>
      <trkpt lat="47.80343" lon="-4.37459">
        <ele>1.799</ele>
        <time>2016-04-27T19:06:57Z</time>
      </trkpt>
      <trkpt lat="47.80407" lon="-4.37446">
        <ele>2.654</ele>
        <time>2016-04-27T19:06:37Z</time>
      </trkpt>
      <trkpt lat="47.80506" lon="-4.37364">
        <ele>2.073</ele>
        <time>2016-04-27T19:06:17Z</time>
      </trkpt>
      <trkpt lat="47.80528" lon="-4.37298">
        <ele>2.32</ele>
        <time>2016-04-27T19:05:57Z</time>
      </trkpt>
      <trkpt lat="47.80581" lon="-4.37281">
        <ele>2.943</ele>
        <time>2016-04-27T19:05:37Z</time>
      </trkpt>
      <trkpt lat="47.80608" lon="-4.37304">
        <ele>1.951</ele>
        <time>2016-04-27T19:05:17Z</time>
      </trkpt>
      <trkpt lat="47.80626" lon="-4.37257">
        <ele>3.285</ele>
        <time>2016-04-27T19:04:57Z</time>
      </trkpt>
      <trkpt lat="47.8069" lon="-4.37231">
        <ele>1.008</ele>
        <time>2016-04-27T19:04:37Z</time>
      </trkpt>
      <trkpt lat="47.80763" lon="-4.37158">
        <ele>2.521</ele>
        <time>2016-04-27T19:04:17Z</time>
      </trkpt>
      <trkpt lat="47.80914" lon="-4.37135">
        <ele>2.965</ele>
        <time>2016-04-27T19:03:57Z</time>
      </trkpt>
      <trkpt lat="47.81025" lon="-4.37163">
        <ele>4.993</ele>
        <time>2016-04-27T19:03:37Z</time>
      </trkpt>
      <trkpt lat="47.81157" lon="-4.37261">
        <ele>3.754</ele>
        <time>2016-04-27T19:03:17Z</time>
      </trkpt>
      <trkpt lat="47.81319" lon="-4.37491">
        <ele>1.246</ele>
        <time>2016-04-27T19:02:57Z</time>
      </trkpt>
      <trkpt lat="47.81443" lon="-4.37465">
        <ele>1.061</ele>
        <time>2016-04-27T19:02:37Z</time>
      </trkpt>
      <trkpt lat="47.81587" lon="-4.37517">
        <ele>6.13</ele>
        <time>2016-04-27T19:02:17Z</time>
      </trkpt>
      <trkpt lat="47.81585" lon="-4.37568">
        <ele>7.017</ele>
        <time>2016-04-27T19:01:57Z</time>
      </trkpt>
      <trkpt lat="47.81693" lon="-4.37667">
        <ele>3.08</ele>
        <time>2016-04-27T19:01:37Z</time>
      </trkpt>
      <trkpt lat="47.81708" lon="-4.37654">
        <ele>4.418</ele>
        <time>2016-04-27T19:01:17Z</time>
      </trkpt>
      <trkpt lat="47.81738" lon="-4.37738">
        <ele>3.482</ele>
        <time>2016-04-27T19:00:57Z</time>
      </trkpt>
      <trkpt lat="47.8176" lon="-4.37771">
        <ele>5.108</ele>
        <time>2016-04-27T19:00:37Z</time>
      </trkpt>
      <trkpt lat="47.81684" lon="-4.37926">
        <ele>3.418</ele>
        <time>2016-04-27T19:00:17Z</time>
      </trkpt>
      <trkpt lat="47.81734" lon="-4.37978">
        <ele>6.644</ele>
        <time>2016-04-27T18:59:57Z</time>
      </trkpt>
      <trkpt lat="47.81764" lon="-4.37978">
        <ele>6.063</ele>
        <time>2016-04-27T18:59:37Z</time>
      </trkpt>
      <trkpt lat="47.81763" lon="-4.38006">
        <ele>5.962</ele>
        <time>2016-04-27T18:59:17Z</time>
      </trkpt>
      <trkpt lat="47.81779" lon="-4.38025">
        <ele>5.174</ele>
        <time>2016-04-27T18:58:57Z</time>
      </trkpt>
      <trkpt lat="47.81937" lon="-4.38025">
        <ele>6.139</ele>
        <time>2016-04-27T18:58:37Z</time>
      </trkpt>
      <trkpt lat="47.82081" lon="-4.37969">
        <ele>6.368</ele>
        <time>2016-04-27T18:58:17Z</time>
      </trkpt>
      <trkpt lat="47.82098" lon="-4.37944">
        <ele>8.175</ele>
        <time>2016-04-27T18:57:57Z</time>
      </trkpt>
      <trkpt lat="47.82136" lon="-4.37944">
        <ele>9.148</ele>
        <time>2016-04-27T18:57:37Z</time>
      </trkpt>
      <trkpt lat="47.82169" lon="-4.37875">
        <ele>8.566</ele>
        <time>2016-04-27T18:57:17Z</time>
      </trkpt>
      <trkpt lat="47.82136" lon="-4.37811">
        <ele>9.49</ele>
        <time>2020-12-18T16:55:11Z</time>
      </trkpt>
      <trkpt lat="47.82145" lon="-4.37752">
        <ele>6.708</ele>
        <time>2020-12-18T16:54:51Z</time>
      </trkpt>
      <trkpt lat="47.82176" lon="-4.37714">
        <ele>6.309</ele>
        <time>2016-04-27T18:56:17Z</time>
      </trkpt>
      <trkpt lat="47.82303" lon="-4.37638">
        <ele>5.281</ele>
        <time>2020-12-18T16:54:11Z</time>
      </trkpt>
      <trkpt lat="47.82324" lon="-4.37591">
        <ele>7.841</ele>
        <time>2020-12-18T16:53:51Z</time>
      </trkpt>
      <trkpt lat="47.8239" lon="-4.37506">
        <ele>6.98</ele>
        <time>2020-12-18T16:53:31Z</time>
      </trkpt>
      <trkpt lat="47.82433" lon="-4.37398">
        <ele>5.052</ele>
        <time>2020-12-18T16:53:11Z</time>
      </trkpt>
      <trkpt lat="47.82456" lon="-4.373">
        <ele>5.437</ele>
        <time>2016-04-27T18:54:37Z</time>
      </trkpt>
      <trkpt lat="47.82542" lon="-4.37167">
        <ele>4.056</ele>
        <time>2016-04-27T18:54:17Z</time>
      </trkpt>
      <trkpt lat="47.82548" lon="-4.37122">
        <ele>4.673</ele>
        <time>2016-04-27T18:53:57Z</time>
      </trkpt>
      <trkpt lat="47.82528" lon="-4.37038">
        <ele>4.186</ele>
        <time>2016-04-27T18:53:37Z</time>
      </trkpt>
      <trkpt lat="47.8249" lon="-4.36995">
        <ele>4.484</ele>
        <time>2016-04-27T18:52:17Z</time>
      </trkpt>
      <trkpt lat="47.8247" lon="-4.36937">
        <ele>5.318</ele>
        <time>2016-04-27T18:51:37Z</time>
      </trkpt>
      <trkpt lat="47.82453" lon="-4.36909">
        <ele>6.908</ele>
        <time>2016-04-27T18:50:57Z</time>
      </trkpt>
      <trkpt lat="47.82477" lon="-4.36753">
        <ele>5.605</ele>
        <time>2016-04-27T18:50:37Z</time>
      </trkpt>
      <trkpt lat="47.82503" lon="-4.36733">
        <ele>5.241</ele>
        <time>2016-04-27T18:50:17Z</time>
      </trkpt>
      <trkpt lat="47.82548" lon="-4.36742">
        <ele>4.421</ele>
        <time>2016-04-27T18:49:57Z</time>
      </trkpt>
      <trkpt lat="47.82571" lon="-4.36714">
        <ele>5.313</ele>
        <time>2016-04-27T18:49:37Z</time>
      </trkpt>
      <trkpt lat="47.82601" lon="-4.36693">
        <ele>7.275</ele>
        <time>2016-04-27T18:49:17Z</time>
      </trkpt>
      <trkpt lat="47.82736" lon="-4.36671">
        <ele>4.84</ele>
        <time>2016-04-27T18:48:57Z</time>
      </trkpt>
      <trkpt lat="47.82784" lon="-4.36622">
        <ele>5.829</ele>
        <time>2016-04-27T18:48:37Z</time>
      </trkpt>
      <trkpt lat="47.82804" lon="-4.36579">
        <ele>4.136</ele>
        <time>2016-04-27T18:48:17Z</time>
      </trkpt>
      <trkpt lat="47.82797" lon="-4.36429">
        <ele>4.619</ele>
        <time>2020-12-18T16:47:51Z</time>
      </trkpt>
      <trkpt lat="47.82819" lon="-4.36285">
        <ele>2.067</ele>
        <time>2016-04-27T18:47:17Z</time>
      </trkpt>
      <trkpt lat="47.82712" lon="-4.36324">
        <ele>4.471</ele>
        <time>2016-04-27T18:46:57Z</time>
      </trkpt>
      <trkpt lat="47.82633" lon="-4.36235">
        <ele>5.008</ele>
        <time>2020-12-18T16:46:51Z</time>
      </trkpt>
      <trkpt lat="47.82585" lon="-4.36133">
        <ele>5.814</ele>
        <time>2016-04-27T18:46:17Z</time>
      </trkpt>
      <trkpt lat="47.82574" lon="-4.36049">
        <ele>4.559</ele>
        <time>2016-04-27T18:45:57Z</time>
      </trkpt>
      <trkpt lat="47.82603" lon="-4.35871">
        <ele>4.156</ele>
        <time>2016-04-27T18:45:37Z</time>
      </trkpt>
      <trkpt lat="47.82581" lon="-4.35849">
        <ele>4.792</ele>
        <time>2016-04-27T18:45:17Z</time>
      </trkpt>
      <trkpt lat="47.82568" lon="-4.35804">
        <ele>4.054</ele>
        <time>2016-04-27T18:44:57Z</time>
      </trkpt>
      <trkpt lat="47.82545" lon="-4.35774">
        <ele>4.419</ele>
        <time>2020-12-18T16:44:51Z</time>
      </trkpt>
      <trkpt lat="47.82545" lon="-4.35721">
        <ele>4.458</ele>
        <time>2020-12-18T16:44:31Z</time>
      </trkpt>
      <trkpt lat="47.82542" lon="-4.35661">
        <ele>5.565</ele>
        <time>2020-12-18T16:44:11Z</time>
      </trkpt>
      <trkpt lat="47.82594" lon="-4.35547">
        <ele>4.338</ele>
        <time>2016-04-27T18:43:37Z</time>
      </trkpt>
      <trkpt lat="47.82654" lon="-4.35435">
        <ele>4.586</ele>
        <time>2016-04-27T18:43:17Z</time>
      </trkpt>
      <trkpt lat="47.82712" lon="-4.35279">
        <ele>4.62</ele>
        <time>2016-04-27T18:42:57Z</time>
      </trkpt>
      <trkpt lat="47.82787" lon="-4.35045">
        <ele>7.308</ele>
        <time>2016-04-27T18:42:37Z</time>
      </trkpt>
      <trkpt lat="47.82961" lon="-4.34871">
        <ele>7.51</ele>
        <time>2016-04-27T18:42:17Z</time>
      </trkpt>
      <trkpt lat="47.82999" lon="-4.34807">
        <ele>8.164</ele>
        <time>2016-04-27T18:41:57Z</time>
      </trkpt>
      <trkpt lat="47.83216" lon="-4.34753">
        <ele>4.543</ele>
        <time>2016-04-27T18:41:37Z</time>
      </trkpt>
      <trkpt lat="47.83316" lon="-4.34648">
        <ele>7.122</ele>
        <time>2016-04-27T18:41:17Z</time>
      </trkpt>
      <trkpt lat="47.83365" lon="-4.34663">
        <ele>6.114</ele>
        <time>2016-04-27T18:40:57Z</time>
      </trkpt>
      <trkpt lat="47.83533" lon="-4.34667">
        <ele>1.339</ele>
        <time>2016-04-27T18:40:37Z</time>
      </trkpt>
      <trkpt lat="47.83592" lon="-4.34777">
        <ele>4.778</ele>
        <time>2016-04-27T18:40:17Z</time>
      </trkpt>
      <trkpt lat="47.83666" lon="-4.34854">
        <ele>4.795</ele>
        <time>2016-04-27T18:39:57Z</time>
      </trkpt>
      <trkpt lat="47.83712" lon="-4.3486">
        <ele>3.418</ele>
        <time>2016-04-27T18:39:37Z</time>
      </trkpt>
      <trkpt lat="47.83728" lon="-4.34558">
        <ele>6.096</ele>
        <time>2016-04-27T18:39:17Z</time>
      </trkpt>
      <trkpt lat="47.83847" lon="-4.34465">
        <ele>6.19</ele>
        <time>2016-04-27T18:38:57Z</time>
      </trkpt>
      <trkpt lat="47.8403" lon="-4.34431">
        <ele>6.908</ele>
        <time>2020-12-18T16:38:51Z</time>
      </trkpt>
      <trkpt lat="47.84044" lon="-4.34337">
        <ele>7.614</ele>
        <time>2020-12-18T16:38:31Z</time>
      </trkpt>
      <trkpt lat="47.84095" lon="-4.34247">
        <ele>7.022</ele>
        <time>2020-12-18T16:38:11Z</time>
      </trkpt>
      <trkpt lat="47.84137" lon="-4.34298">
        <ele>6.042</ele>
        <time>2020-12-18T16:37:51Z</time>
      </trkpt>
      <trkpt lat="47.84153" lon="-4.34363">
        <ele>8.065</ele>
        <time>2020-12-18T16:37:31Z</time>
      </trkpt>
      <trkpt lat="47.84183" lon="-4.34337">
        <ele>6.517</ele>
        <time>2016-04-27T18:38:17Z</time>
      </trkpt>
      <trkpt lat="47.84308" lon="-4.34277">
        <ele>4.032</ele>
        <time>2016-04-27T18:37:57Z</time>
      </trkpt>
      <trkpt lat="47.84487" lon="-4.34244">
        <ele>6.881</ele>
        <time>2016-04-27T18:37:37Z</time>
      </trkpt>
      <trkpt lat="47.84704" lon="-4.34249">
        <ele>5.258</ele>
        <time>2016-04-27T18:37:17Z</time>
      </trkpt>
      <trkpt lat="47.84858" lon="-4.343">
        <ele>4.981</ele>
        <time>2016-04-27T18:36:57Z</time>
      </trkpt>
      <trkpt lat="47.85078" lon="-4.34362">
        <ele>7.839</ele>
        <time>2016-04-27T18:36:37Z</time>
      </trkpt>
      <trkpt lat="47.85097" lon="-4.34225">
        <ele>7.043</ele>
        <time>2016-04-27T18:36:17Z</time>
      </trkpt>
      <trkpt lat="47.85155" lon="-4.34214">
        <ele>6.108</ele>
        <time>2016-04-27T18:35:57Z</time>
      </trkpt>
      <trkpt lat="47.85314" lon="-4.34032">
        <ele>7.013</ele>
        <time>2016-04-27T18:35:37Z</time>
      </trkpt>
      <trkpt lat="47.8532" lon="-4.3385">
        <ele>9.485</ele>
        <time>2016-04-27T18:34:37Z</time>
      </trkpt>
      <trkpt lat="47.85317" lon="-4.33691">
        <ele>10.073</ele>
        <time>2016-04-27T18:34:17Z</time>
      </trkpt>
      <trkpt lat="47.85403" lon="-4.33749">
        <ele>10.021</ele>
        <time>2016-04-27T18:33:57Z</time>
      </trkpt>
      <trkpt lat="47.85408" lon="-4.33688">
        <ele>11.053</ele>
        <time>2016-04-27T18:33:37Z</time>
      </trkpt>
      <trkpt lat="47.85483" lon="-4.33714">
        <ele>8.328</ele>
        <time>2016-04-27T18:33:17Z</time>
      </trkpt>
      <trkpt lat="47.8582" lon="-4.33609">
        <ele>10.657</ele>
        <time>2016-04-27T18:32:57Z</time>
      </trkpt>
      <trkpt lat="47.85865" lon="-4.3352">
        <ele>13.954</ele>
        <time>2016-04-27T18:32:37Z</time>
      </trkpt>
      <trkpt lat="47.86002" lon="-4.33441">
        <ele>15.077</ele>
        <time>2016-04-27T18:32:17Z</time>
      </trkpt>
      <trkpt lat="47.86029" lon="-4.33244">
        <ele>17.255</ele>
        <time>2016-04-27T18:31:57Z</time>
      </trkpt>
      <trkpt lat="47.86262" lon="-4.33472">
        <ele>10.479</ele>
        <time>2016-04-27T18:31:37Z</time>
      </trkpt>
      <trkpt lat="47.86386" lon="-4.33574">
        <ele>7.308</ele>
        <time>2016-04-27T18:31:17Z</time>
      </trkpt>
      <trkpt lat="47.86414" lon="-4.33574">
        <ele>7.714</ele>
        <time>2016-04-27T18:30:57Z</time>
      </trkpt>
      <trkpt lat="47.86422" lon="-4.3353">
        <ele>8.886</ele>
        <time>2016-04-27T18:30:37Z</time>
      </trkpt>
      <trkpt lat="47.86485" lon="-4.33259">
        <ele>8.035</ele>
        <time>2016-04-27T18:30:17Z</time>
      </trkpt>
      <trkpt lat="47.86528" lon="-4.33212">
        <ele>8.094</ele>
        <time>2016-04-27T18:29:57Z</time>
      </trkpt>
      <trkpt lat="47.86553" lon="-4.33165">
        <ele>8.146</ele>
        <time>2016-04-27T18:28:17Z</time>
      </trkpt>
      <trkpt lat="47.86583" lon="-4.33051">
        <ele>8.881</ele>
        <time>2016-04-27T18:27:57Z</time>
      </trkpt>
      <trkpt lat="47.8678" lon="-4.32824">
        <ele>10.63</ele>
        <time>2016-04-27T18:26:57Z</time>
      </trkpt>
      <trkpt lat="47.86819" lon="-4.32723">
        <ele>10.577</ele>
        <time>2016-04-27T18:26:37Z</time>
      </trkpt>
      <trkpt lat="47.86826" lon="-4.32667">
        <ele>10.75</ele>
        <time>2016-04-27T18:25:37Z</time>
      </trkpt>
      <trkpt lat="47.86796" lon="-4.32609">
        <ele>12.088</ele>
        <time>2016-04-27T18:25:17Z</time>
      </trkpt>
      <trkpt lat="47.86771" lon="-4.32532">
        <ele>13.212</ele>
        <time>2016-04-27T18:24:57Z</time>
      </trkpt>
      <trkpt lat="47.86776" lon="-4.32481">
        <ele>13.108</ele>
        <time>2016-04-27T18:24:37Z</time>
      </trkpt>
      <trkpt lat="47.86773" lon="-4.32418">
        <ele>14.016</ele>
        <time>2016-04-27T18:24:17Z</time>
      </trkpt>
      <trkpt lat="47.86795" lon="-4.32322">
        <ele>12.706</ele>
        <time>2016-04-27T18:23:57Z</time>
      </trkpt>
      <trkpt lat="47.86846" lon="-4.32234">
        <ele>15.564</ele>
        <time>2016-04-27T18:23:37Z</time>
      </trkpt>
      <trkpt lat="47.86862" lon="-4.32191">
        <ele>15.976</ele>
        <time>2016-04-27T18:23:17Z</time>
      </trkpt>
      <trkpt lat="47.86913" lon="-4.32204">
        <ele>15.238</ele>
        <time>2016-04-27T18:22:57Z</time>
      </trkpt>
      <trkpt lat="47.86959" lon="-4.32191">
        <ele>15.073</ele>
        <time>2016-04-27T18:22:37Z</time>
      </trkpt>
      <trkpt lat="47.86999" lon="-4.32137">
        <ele>15.122</ele>
        <time>2016-04-27T18:22:17Z</time>
      </trkpt>
      <trkpt lat="47.8718" lon="-4.31727">
        <ele>17.319</ele>
        <time>2016-04-27T18:21:57Z</time>
      </trkpt>
      <trkpt lat="47.87185" lon="-4.31663">
        <ele>17.472</ele>
        <time>2016-04-27T18:21:37Z</time>
      </trkpt>
      <trkpt lat="47.87324" lon="-4.31747">
        <ele>6.72</ele>
        <time>2016-04-27T18:21:17Z</time>
      </trkpt>
      <trkpt lat="47.87388" lon="-4.31775">
        <ele>5.924</ele>
        <time>2016-04-27T18:20:57Z</time>
      </trkpt>
      <trkpt lat="47.87462" lon="-4.31749">
        <ele>10.908</ele>
        <time>2016-04-27T18:20:37Z</time>
      </trkpt>
      <trkpt lat="47.87493" lon="-4.31815">
        <ele>13.626</ele>
        <time>2016-04-27T18:20:17Z</time>
      </trkpt>
      <trkpt lat="47.87642" lon="-4.32008">
        <ele>27.242</ele>
        <time>2016-04-27T18:19:57Z</time>
      </trkpt>
      <trkpt lat="47.87557" lon="-4.32146">
        <ele>21.487</ele>
        <time>2016-04-27T18:19:37Z</time>
      </trkpt>
      <trkpt lat="47.87236" lon="-4.32837">
        <ele>20.756</ele>
        <time>2016-04-27T18:19:17Z</time>
      </trkpt>
      <trkpt lat="47.87211" lon="-4.32888">
        <ele>24.088</ele>
        <time>2020-12-18T16:21:11Z</time>
      </trkpt>
      <trkpt lat="47.87085" lon="-4.32769">
        <ele>9.863</ele>
        <time>2020-12-18T16:20:51Z</time>
      </trkpt>
      <trkpt lat="47.87067" lon="-4.32858">
        <ele>10.432</ele>
        <time>2020-12-18T16:20:31Z</time>
      </trkpt>
      <trkpt lat="47.87014" lon="-4.32992">
        <ele>10.279</ele>
        <time>2020-12-18T16:20:11Z</time>
      </trkpt>
      <trkpt lat="47.86978" lon="-4.33032">
        <ele>10.272</ele>
        <time>2020-12-18T16:19:51Z</time>
      </trkpt>
      <trkpt lat="47.86928" lon="-4.3314">
        <ele>8.46</ele>
        <time>2020-12-18T16:19:31Z</time>
      </trkpt>
      <trkpt lat="47.86898" lon="-4.33254">
        <ele>8.464</ele>
        <time>2020-12-18T16:19:11Z</time>
      </trkpt>
      <trkpt lat="47.86855" lon="-4.33346">
        <ele>6.908</ele>
        <time>2020-12-18T16:18:51Z</time>
      </trkpt>
      <trkpt lat="47.8685" lon="-4.33424">
        <ele>7.117</ele>
        <time>2020-12-18T16:18:31Z</time>
      </trkpt>
      <trkpt lat="47.86864" lon="-4.3354">
        <ele>7.289</ele>
        <time>2020-12-18T16:18:11Z</time>
      </trkpt>
      <trkpt lat="47.86867" lon="-4.33695">
        <ele>7.085</ele>
        <time>2020-12-18T16:17:51Z</time>
      </trkpt>
      <trkpt lat="47.86861" lon="-4.33835">
        <ele>9.046</ele>
        <time>2020-12-18T16:17:31Z</time>
      </trkpt>
      <trkpt lat="47.86932" lon="-4.33836">
        <ele>11.598</ele>
        <time>2020-12-18T16:17:11Z</time>
      </trkpt>
      <trkpt lat="47.86943" lon="-4.33849">
        <ele>12.013</ele>
        <time>2020-12-18T16:16:51Z</time>
      </trkpt>
      <trkpt lat="47.86992" lon="-4.33802">
        <ele>12.082</ele>
        <time>2016-04-27T18:15:17Z</time>
      </trkpt>
      <trkpt lat="47.87251" lon="-4.33816">
        <ele>14.099</ele>
        <time>2016-04-27T18:14:57Z</time>
      </trkpt>
      <trkpt lat="47.87223" lon="-4.33916">
        <ele>13.032</ele>
        <time>2016-04-27T18:14:37Z</time>
      </trkpt>
      <trkpt lat="47.87171" lon="-4.34008">
        <ele>10.34</ele>
        <time>2016-04-27T18:14:17Z</time>
      </trkpt>
      <trkpt lat="47.87148" lon="-4.34092">
        <ele>8.364</ele>
        <time>2016-04-27T18:13:57Z</time>
      </trkpt>
      <trkpt lat="47.87133" lon="-4.34094">
        <ele>8.008</ele>
        <time>2016-04-27T18:13:37Z</time>
      </trkpt>
      <trkpt lat="47.87114" lon="-4.34134">
        <ele>8.017</ele>
        <time>2016-04-27T18:13:17Z</time>
      </trkpt>
      <trkpt lat="47.86975" lon="-4.34079">
        <ele>10.125</ele>
        <time>2016-04-27T18:12:57Z</time>
      </trkpt>
      <trkpt lat="47.86857" lon="-4.34271">
        <ele>6.083</ele>
        <time>2016-04-27T18:11:37Z</time>
      </trkpt>
      <trkpt lat="47.8712" lon="-4.3493">
        <ele>5.215</ele>
        <time>2020-12-18T16:13:31Z</time>
      </trkpt>
      <trkpt lat="47.8739" lon="-4.35225">
        <ele>5.057</ele>
        <time>2020-12-18T16:13:11Z</time>
      </trkpt>
      <trkpt lat="47.87439" lon="-4.35137">
        <ele>4.132</ele>
        <time>2016-04-27T18:08:17Z</time>
      </trkpt>
      <trkpt lat="47.87474" lon="-4.35182">
        <ele>5.051</ele>
        <time>2016-04-27T18:07:57Z</time>
      </trkpt>
      <trkpt lat="47.87566" lon="-4.35206">
        <ele>4.278</ele>
        <time>2016-04-27T18:07:37Z</time>
      </trkpt>
      <trkpt lat="47.87631" lon="-4.35234">
        <ele>5.611</ele>
        <time>2016-04-27T18:07:17Z</time>
      </trkpt>
      <trkpt lat="47.87779" lon="-4.35266">
        <ele>7.699</ele>
        <time>2016-04-27T18:06:57Z</time>
      </trkpt>
      <trkpt lat="47.87924" lon="-4.35266">
        <ele>6.323</ele>
        <time>2016-04-27T18:06:37Z</time>
      </trkpt>
      <trkpt lat="47.87986" lon="-4.35281">
        <ele>6.008</ele>
        <time>2016-04-27T18:06:17Z</time>
      </trkpt>
      <trkpt lat="47.88205" lon="-4.35208">
        <ele>7.325</ele>
        <time>2016-04-27T18:05:57Z</time>
      </trkpt>
      <trkpt lat="47.88311" lon="-4.35161">
        <ele>6.005</ele>
        <time>2016-04-27T18:05:37Z</time>
      </trkpt>
      <trkpt lat="47.88386" lon="-4.35146">
        <ele>6.279</ele>
        <time>2016-04-27T18:05:17Z</time>
      </trkpt>
      <trkpt lat="47.88461" lon="-4.35098">
        <ele>5.551</ele>
        <time>2016-04-27T18:04:57Z</time>
      </trkpt>
      <trkpt lat="47.88527" lon="-4.35002">
        <ele>6.073</ele>
        <time>2016-04-27T18:04:37Z</time>
      </trkpt>
      <trkpt lat="47.88546" lon="-4.34946">
        <ele>6.068</ele>
        <time>2016-04-27T18:04:17Z</time>
      </trkpt>
      <trkpt lat="47.88694" lon="-4.35043">
        <ele>8.047</ele>
        <time>2016-04-27T18:03:57Z</time>
      </trkpt>
      <trkpt lat="47.88788" lon="-4.3524">
        <ele>4.614</ele>
        <time>2016-04-27T18:03:37Z</time>
      </trkpt>
      <trkpt lat="47.88843" lon="-4.35291">
        <ele>4.547</ele>
        <time>2020-12-18T16:07:51Z</time>
      </trkpt>
      <trkpt lat="47.88852" lon="-4.35274">
        <ele>4.185</ele>
        <time>2020-12-18T16:07:31Z</time>
      </trkpt>
      <trkpt lat="47.88884" lon="-4.35295">
        <ele>4.649</ele>
        <time>2020-12-18T16:07:11Z</time>
      </trkpt>
      <trkpt lat="47.88937" lon="-4.35265">
        <ele>4.108</ele>
        <time>2020-12-18T16:06:51Z</time>
      </trkpt>
      <trkpt lat="47.88952" lon="-4.35233">
        <ele>6.115</ele>
        <time>2020-12-18T16:06:31Z</time>
      </trkpt>
      <trkpt lat="47.88977" lon="-4.35229">
        <ele>5.723</ele>
        <time>2020-12-18T16:06:11Z</time>
      </trkpt>
      <trkpt lat="47.88985" lon="-4.35199">
        <ele>6.533</ele>
        <time>2016-04-27T18:02:57Z</time>
      </trkpt>
      <trkpt lat="47.89017" lon="-4.35173">
        <ele>6.859</ele>
        <time>2016-04-27T18:02:37Z</time>
      </trkpt>
      <trkpt lat="47.8905" lon="-4.35122">
        <ele>6.461</ele>
        <time>2016-04-27T18:02:17Z</time>
      </trkpt>
      <trkpt lat="47.89077" lon="-4.35019">
        <ele>8.616</ele>
        <time>2016-04-27T18:01:57Z</time>
      </trkpt>
      <trkpt lat="47.89089" lon="-4.3489">
        <ele>8.635</ele>
        <time>2016-04-27T18:01:37Z</time>
      </trkpt>
      <trkpt lat="47.89139" lon="-4.34759">
        <ele>9.382</ele>
        <time>2016-04-27T18:01:17Z</time>
      </trkpt>
      <trkpt lat="47.89211" lon="-4.34686">
        <ele>12.275</ele>
        <time>2016-04-27T18:00:57Z</time>
      </trkpt>
      <trkpt lat="47.89224" lon="-4.34665">
        <ele>13.063</ele>
        <time>2016-04-27T18:00:37Z</time>
      </trkpt>
      <trkpt lat="47.89274" lon="-4.34697">
        <ele>16.767</ele>
        <time>2016-04-27T18:00:17Z</time>
      </trkpt>
      <trkpt lat="47.89303" lon="-4.34671">
        <ele>18.008</ele>
        <time>2016-04-27T17:59:57Z</time>
      </trkpt>
      <trkpt lat="47.89463" lon="-4.34809">
        <ele>17.019</ele>
        <time>2016-04-27T17:59:37Z</time>
      </trkpt>
      <trkpt lat="47.89522" lon="-4.34736">
        <ele>16.709</ele>
        <time>2016-04-27T17:59:17Z</time>
      </trkpt>
      <trkpt lat="47.89578" lon="-4.34774">
        <ele>12.719</ele>
        <time>2016-04-27T17:58:57Z</time>
      </trkpt>
      <trkpt lat="47.89607" lon="-4.34781">
        <ele>10.125</ele>
        <time>2020-12-18T16:01:31Z</time>
      </trkpt>
      <trkpt lat="47.89619" lon="-4.34739">
        <ele>11.577</ele>
        <time>2020-12-18T16:01:11Z</time>
      </trkpt>
      <trkpt lat="47.89615" lon="-4.34666">
        <ele>15.342</ele>
        <time>2020-12-18T16:00:51Z</time>
      </trkpt>
      <trkpt lat="47.89625" lon="-4.346">
        <ele>15.551</ele>
        <time>2020-12-18T16:00:31Z</time>
      </trkpt>
      <trkpt lat="47.89617" lon="-4.34514">
        <ele>20.328</ele>
        <time>2020-12-18T16:00:11Z</time>
      </trkpt>
      <trkpt lat="47.89649" lon="-4.34439">
        <ele>18.091</ele>
        <time>2020-12-18T15:59:51Z</time>
      </trkpt>
      <trkpt lat="47.8967" lon="-4.34328">
        <ele>17.719</ele>
        <time>2020-12-18T15:59:31Z</time>
      </trkpt>
      <trkpt lat="47.89716" lon="-4.34208">
        <ele>16.433</ele>
        <time>2020-12-18T15:59:11Z</time>
      </trkpt>
      <trkpt lat="47.8979" lon="-4.34109">
        <ele>19.208</ele>
        <time>2020-12-18T15:58:51Z</time>
      </trkpt>
      <trkpt lat="47.8986" lon="-4.34096">
        <ele>9.92</ele>
        <time>2020-12-18T15:58:31Z</time>
      </trkpt>
      <trkpt lat="47.8986" lon="-4.3403">
        <ele>9.628</ele>
        <time>2020-12-18T15:58:11Z</time>
      </trkpt>
      <trkpt lat="47.89838" lon="-4.33991">
        <ele>12.475</ele>
        <time>2020-12-18T15:57:51Z</time>
      </trkpt>
      <trkpt lat="47.89801" lon="-4.33978">
        <ele>17.491</ele>
        <time>2016-04-27T17:55:17Z</time>
      </trkpt>
      <trkpt lat="47.89893" lon="-4.33847">
        <ele>9.883</ele>
        <time>2016-04-27T17:54:57Z</time>
      </trkpt>
      <trkpt lat="47.89976" lon="-4.33865">
        <ele>3.528</ele>
        <time>2016-04-27T17:54:37Z</time>
      </trkpt>
      <trkpt lat="47.90034" lon="-4.3395">
        <ele>7.047</ele>
        <time>2016-04-27T17:54:17Z</time>
      </trkpt>
      <trkpt lat="47.90251" lon="-4.3397">
        <ele>17.214</ele>
        <time>2016-04-27T17:53:57Z</time>
      </trkpt>
      <trkpt lat="47.90431" lon="-4.33794">
        <ele>23.947</ele>
        <time>2016-04-27T17:53:37Z</time>
      </trkpt>
      <trkpt lat="47.9047" lon="-4.33721">
        <ele>26.125</ele>
        <time>2016-04-27T17:53:17Z</time>
      </trkpt>
      <trkpt lat="47.90565" lon="-4.33815">
        <ele>23.079</ele>
        <time>2016-04-27T17:52:57Z</time>
      </trkpt>
      <trkpt lat="47.90632" lon="-4.33968">
        <ele>27.808</ele>
        <time>2016-04-27T17:52:37Z</time>
      </trkpt>
      <trkpt lat="47.90657" lon="-4.34079">
        <ele>27.718</ele>
        <time>2016-04-27T17:52:17Z</time>
      </trkpt>
      <trkpt lat="47.90649" lon="-4.3418">
        <ele>27.017</ele>
        <time>2016-04-27T17:51:57Z</time>
      </trkpt>
      <trkpt lat="47.90644" lon="-4.343">
        <ele>25.736</ele>
        <time>2016-04-27T17:51:37Z</time>
      </trkpt>
      <trkpt lat="47.90534" lon="-4.34429">
        <ele>25.197</ele>
        <time>2016-04-27T17:51:17Z</time>
      </trkpt>
      <trkpt lat="47.90431" lon="-4.3462">
        <ele>24.739</ele>
        <time>2016-04-27T17:50:57Z</time>
      </trkpt>
      <trkpt lat="47.90317" lon="-4.34669">
        <ele>18.894</ele>
        <time>2016-04-27T17:50:37Z</time>
      </trkpt>
      <trkpt lat="47.90224" lon="-4.34761">
        <ele>17.493</ele>
        <time>2016-04-27T17:50:17Z</time>
      </trkpt>
      <trkpt lat="47.90176" lon="-4.34764">
        <ele>16.36</ele>
        <time>2016-04-27T17:49:57Z</time>
      </trkpt>
      <trkpt lat="47.89942" lon="-4.34699">
        <ele>9.013</ele>
        <time>2016-04-27T17:49:37Z</time>
      </trkpt>
      <trkpt lat="47.89883" lon="-4.34899">
        <ele>8.011</ele>
        <time>2016-04-27T17:49:17Z</time>
      </trkpt>
      <trkpt lat="47.89835" lon="-4.35125">
        <ele>7.165</ele>
        <time>2020-03-29T06:22:16Z</time>
      </trkpt>
      <trkpt lat="47.89819" lon="-4.35185">
        <ele>7.808</ele>
        <time>2020-03-29T06:21:56Z</time>
      </trkpt>
      <trkpt lat="47.89807" lon="-4.35208">
        <ele>7.62</ele>
        <time>2020-03-29T06:21:36Z</time>
      </trkpt>
      <trkpt lat="47.89769" lon="-4.35243">
        <ele>7.773</ele>
        <time>2020-03-29T06:21:16Z</time>
      </trkpt>
      <trkpt lat="47.89721" lon="-4.35303">
        <ele>9.792</ele>
        <time>2016-04-30T01:05:22Z</time>
      </trkpt>
      <trkpt lat="47.89721" lon="-4.35303">
        <ele>9.792</ele>
        <time>2016-04-30T01:05:22Z</time>
      </trkpt>
    </trkseg>
  </trk>
  <trk>
    <name><![CDATA[GR34 De Douarnenez à Trunvel (Finistère) (2020)]]></name>
    <desc><![CDATA[Randonnée en Bretagne sur le GR34 à travers le Finistère de Douarnenez à Trunvel. Gîte d'étape, Maison d'hôtes, Chambres d'hôtes, Hôtel, Camping, Refuge, Auberge.]]></desc>
    <extensions>
      <line xmlns="http://www.topografix.com/GPX/gpx_style/0/2">
        <color>00FF00</color>
        <width>4</width>
      </line>
    </extensions>
    <trkseg>
      <trkpt lat="47.89721" lon="-4.35303">
        <ele>9.788</ele>
        <time>2016-04-30T01:05:22Z</time>
      </trkpt>
      <trkpt lat="47.89686" lon="-4.35393">
        <ele>5.976</ele>
        <time>2016-04-30T01:05:02Z</time>
      </trkpt>
      <trkpt lat="47.89644" lon="-4.35446">
        <ele>3.07</ele>
        <time>2016-04-30T01:04:42Z</time>
      </trkpt>
      <trkpt lat="47.89565" lon="-4.35684">
        <ele>3.708</ele>
        <time>2016-04-30T01:04:22Z</time>
      </trkpt>
      <trkpt lat="47.89486" lon="-4.35804">
        <ele>4.017</ele>
        <time>2016-04-30T01:04:02Z</time>
      </trkpt>
      <trkpt lat="47.89579" lon="-4.35981">
        <ele>4.861</ele>
        <time>2016-04-30T01:03:42Z</time>
      </trkpt>
      <trkpt lat="47.89685" lon="-4.36082">
        <ele>3.748</ele>
        <time>2016-04-30T01:03:22Z</time>
      </trkpt>
      <trkpt lat="47.89686" lon="-4.36115">
        <ele>3.174</ele>
        <time>2016-04-30T01:03:02Z</time>
      </trkpt>
      <trkpt lat="47.89876" lon="-4.3627">
        <ele>4.564</ele>
        <time>2016-04-30T01:02:42Z</time>
      </trkpt>
      <trkpt lat="47.89886" lon="-4.36252">
        <ele>4.94</ele>
        <time>2016-04-30T01:02:22Z</time>
      </trkpt>
      <trkpt lat="47.90017" lon="-4.36409">
        <ele>6.056</ele>
        <time>2016-04-30T01:02:02Z</time>
      </trkpt>
      <trkpt lat="47.90381" lon="-4.36492">
        <ele>5.554</ele>
        <time>2016-04-30T01:01:42Z</time>
      </trkpt>
      <trkpt lat="47.90452" lon="-4.36559">
        <ele>4.187</ele>
        <time>2016-04-30T01:01:22Z</time>
      </trkpt>
      <trkpt lat="47.90554" lon="-4.36605">
        <ele>4.245</ele>
        <time>2016-04-30T01:01:02Z</time>
      </trkpt>
      <trkpt lat="47.90601" lon="-4.36653">
        <ele>3.089</ele>
        <time>2016-04-30T01:00:42Z</time>
      </trkpt>
      <trkpt lat="47.90684" lon="-4.36614">
        <ele>2.308</ele>
        <time>2016-04-30T01:00:22Z</time>
      </trkpt>
      <trkpt lat="47.9071" lon="-4.36618">
        <ele>1.718</ele>
        <time>2016-04-30T01:00:02Z</time>
      </trkpt>
      <trkpt lat="47.90747" lon="-4.3658">
        <ele>5.017</ele>
        <time>2016-04-30T00:59:42Z</time>
      </trkpt>
      <trkpt lat="47.90762" lon="-4.3649">
        <ele>6.336</ele>
        <time>2016-04-30T00:59:22Z</time>
      </trkpt>
      <trkpt lat="47.90821" lon="-4.36389">
        <ele>5.84</ele>
        <time>2016-04-30T00:59:02Z</time>
      </trkpt>
      <trkpt lat="47.90796" lon="-4.36357">
        <ele>8.31</ele>
        <time>2016-04-30T00:58:42Z</time>
      </trkpt>
      <trkpt lat="47.90809" lon="-4.36322">
        <ele>7.376</ele>
        <time>2016-04-30T00:58:22Z</time>
      </trkpt>
      <trkpt lat="47.90847" lon="-4.36282">
        <ele>4.542</ele>
        <time>2016-04-30T00:58:02Z</time>
      </trkpt>
      <trkpt lat="47.90924" lon="-4.36247">
        <ele>4.64</ele>
        <time>2016-04-30T00:57:42Z</time>
      </trkpt>
      <trkpt lat="47.90943" lon="-4.36207">
        <ele>4.763</ele>
        <time>2016-04-30T00:57:22Z</time>
      </trkpt>
      <trkpt lat="47.90969" lon="-4.36041">
        <ele>4.391</ele>
        <time>2016-04-30T00:57:02Z</time>
      </trkpt>
      <trkpt lat="47.90975" lon="-4.35979">
        <ele>6.695</ele>
        <time>2016-04-30T00:56:42Z</time>
      </trkpt>
      <trkpt lat="47.91001" lon="-4.35947">
        <ele>5.908</ele>
        <time>2020-12-18T23:28:43Z</time>
      </trkpt>
      <trkpt lat="47.90859" lon="-4.3581">
        <ele>20.724</ele>
        <time>2020-12-18T23:28:23Z</time>
      </trkpt>
      <trkpt lat="47.90776" lon="-4.35749">
        <ele>20.031</ele>
        <time>2020-12-18T23:28:03Z</time>
      </trkpt>
      <trkpt lat="47.90812" lon="-4.35739">
        <ele>21.096</ele>
        <time>2020-12-18T23:27:43Z</time>
      </trkpt>
      <trkpt lat="47.90774" lon="-4.35293">
        <ele>22.057</ele>
        <time>2020-12-18T23:27:23Z</time>
      </trkpt>
      <trkpt lat="47.90845" lon="-4.35322">
        <ele>22.467</ele>
        <time>2020-12-18T23:27:03Z</time>
      </trkpt>
      <trkpt lat="47.90855" lon="-4.35268">
        <ele>23.583</ele>
        <time>2020-12-18T23:26:43Z</time>
      </trkpt>
      <trkpt lat="47.90926" lon="-4.35292">
        <ele>18.059</ele>
        <time>2016-04-30T00:54:02Z</time>
      </trkpt>
      <trkpt lat="47.90988" lon="-4.35162">
        <ele>20.117</ele>
        <time>2016-04-30T00:53:42Z</time>
      </trkpt>
      <trkpt lat="47.91055" lon="-4.35039">
        <ele>21.02</ele>
        <time>2016-04-30T00:53:22Z</time>
      </trkpt>
      <trkpt lat="47.91087" lon="-4.34956">
        <ele>20.118</ele>
        <time>2016-04-30T00:53:02Z</time>
      </trkpt>
      <trkpt lat="47.91176" lon="-4.34889">
        <ele>20.382</ele>
        <time>2016-04-30T00:52:42Z</time>
      </trkpt>
      <trkpt lat="47.91287" lon="-4.34782">
        <ele>9.108</ele>
        <time>2016-04-30T00:52:22Z</time>
      </trkpt>
      <trkpt lat="47.91333" lon="-4.34792">
        <ele>8.518</ele>
        <time>2016-04-30T00:52:02Z</time>
      </trkpt>
      <trkpt lat="47.91373" lon="-4.34865">
        <ele>7.144</ele>
        <time>2016-04-30T00:51:42Z</time>
      </trkpt>
      <trkpt lat="47.91376" lon="-4.34928">
        <ele>8.563</ele>
        <time>2016-04-30T00:51:22Z</time>
      </trkpt>
      <trkpt lat="47.91281" lon="-4.35166">
        <ele>6.524</ele>
        <time>2016-04-30T00:51:02Z</time>
      </trkpt>
      <trkpt lat="47.91295" lon="-4.35258">
        <ele>8.164</ele>
        <time>2016-04-30T00:50:42Z</time>
      </trkpt>
      <trkpt lat="47.91343" lon="-4.35327">
        <ele>8.77</ele>
        <time>2016-04-30T00:50:22Z</time>
      </trkpt>
      <trkpt lat="47.91389" lon="-4.35462">
        <ele>19.056</ele>
        <time>2016-04-30T00:50:02Z</time>
      </trkpt>
      <trkpt lat="47.91377" lon="-4.35554">
        <ele>18.524</ele>
        <time>2016-04-30T00:49:42Z</time>
      </trkpt>
      <trkpt lat="47.91392" lon="-4.35827">
        <ele>18.077</ele>
        <time>2016-04-30T00:49:22Z</time>
      </trkpt>
      <trkpt lat="47.91349" lon="-4.36041">
        <ele>17.075</ele>
        <time>2016-04-30T00:49:02Z</time>
      </trkpt>
      <trkpt lat="47.91374" lon="-4.36159">
        <ele>18.229</ele>
        <time>2016-04-30T00:48:42Z</time>
      </trkpt>
      <trkpt lat="47.91294" lon="-4.36282">
        <ele>13.908</ele>
        <time>2016-04-30T00:48:22Z</time>
      </trkpt>
      <trkpt lat="47.91274" lon="-4.36355">
        <ele>12.914</ele>
        <time>2016-04-30T00:48:02Z</time>
      </trkpt>
      <trkpt lat="47.91095" lon="-4.36799">
        <ele>9.686</ele>
        <time>2016-04-30T00:47:42Z</time>
      </trkpt>
      <trkpt lat="47.90976" lon="-4.37046">
        <ele>4.435</ele>
        <time>2016-04-30T00:47:22Z</time>
      </trkpt>
      <trkpt lat="47.90992" lon="-4.37088">
        <ele>2.858</ele>
        <time>2016-04-30T00:47:02Z</time>
      </trkpt>
      <trkpt lat="47.91062" lon="-4.37125">
        <ele>2.018</ele>
        <time>2016-04-30T00:46:42Z</time>
      </trkpt>
      <trkpt lat="47.91114" lon="-4.37286">
        <ele>1.974</ele>
        <time>2016-04-30T00:46:22Z</time>
      </trkpt>
      <trkpt lat="47.91274" lon="-4.37515">
        <ele>10.38</ele>
        <time>2016-04-30T00:46:02Z</time>
      </trkpt>
      <trkpt lat="47.91216" lon="-4.37679">
        <ele>4.078</ele>
        <time>2016-04-30T00:45:42Z</time>
      </trkpt>
      <trkpt lat="47.91258" lon="-4.37734">
        <ele>3.091</ele>
        <time>2016-04-30T00:45:22Z</time>
      </trkpt>
      <trkpt lat="47.91444" lon="-4.37878">
        <ele>5.429</ele>
        <time>2016-04-30T00:45:02Z</time>
      </trkpt>
      <trkpt lat="47.91468" lon="-4.37863">
        <ele>6.783</ele>
        <time>2016-04-30T00:44:42Z</time>
      </trkpt>
      <trkpt lat="47.91786" lon="-4.38099">
        <ele>3.308</ele>
        <time>2016-04-30T00:44:22Z</time>
      </trkpt>
      <trkpt lat="47.92536" lon="-4.38618">
        <ele>1.325</ele>
        <time>2016-04-30T00:44:02Z</time>
      </trkpt>
      <trkpt lat="47.93408" lon="-4.39429">
        <ele>3.905</ele>
        <time>2016-04-30T00:43:42Z</time>
      </trkpt>
      <trkpt lat="47.93487" lon="-4.39547">
        <ele>5.479</ele>
        <time>2016-04-30T00:43:22Z</time>
      </trkpt>
      <trkpt lat="47.93537" lon="-4.39593">
        <ele>5.329</ele>
        <time>2016-04-30T00:43:02Z</time>
      </trkpt>
      <trkpt lat="47.93618" lon="-4.39719">
        <ele>4.449</ele>
        <time>2016-04-30T00:42:42Z</time>
      </trkpt>
      <trkpt lat="47.93882" lon="-4.4005">
        <ele>5.655</ele>
        <time>2016-04-30T00:42:22Z</time>
      </trkpt>
      <trkpt lat="47.93961" lon="-4.40256">
        <ele>4.531</ele>
        <time>2016-04-30T00:42:02Z</time>
      </trkpt>
      <trkpt lat="47.94024" lon="-4.40331">
        <ele>5.939</ele>
        <time>2016-04-30T00:41:42Z</time>
      </trkpt>
      <trkpt lat="47.94045" lon="-4.40479">
        <ele>4.072</ele>
        <time>2016-04-30T00:41:22Z</time>
      </trkpt>
      <trkpt lat="47.94148" lon="-4.40595">
        <ele>2.76</ele>
        <time>2016-04-30T00:41:02Z</time>
      </trkpt>
      <trkpt lat="47.94257" lon="-4.40783">
        <ele>3.984</ele>
        <time>2016-04-30T00:40:42Z</time>
      </trkpt>
      <trkpt lat="47.94331" lon="-4.40837">
        <ele>4.708</ele>
        <time>2016-04-30T00:40:22Z</time>
      </trkpt>
      <trkpt lat="47.94385" lon="-4.4091">
        <ele>4.017</ele>
        <time>2016-04-30T00:40:02Z</time>
      </trkpt>
      <trkpt lat="47.94451" lon="-4.40912">
        <ele>4.425</ele>
        <time>2016-04-30T00:39:42Z</time>
      </trkpt>
      <trkpt lat="47.94538" lon="-4.40949">
        <ele>3.583</ele>
        <time>2016-04-30T00:39:22Z</time>
      </trkpt>
      <trkpt lat="47.94657" lon="-4.40955">
        <ele>4.918</ele>
        <time>2016-04-30T00:39:02Z</time>
      </trkpt>
      <trkpt lat="47.94743" lon="-4.4076">
        <ele>7.638</ele>
        <time>2016-04-30T00:38:42Z</time>
      </trkpt>
      <trkpt lat="47.94997" lon="-4.40891">
        <ele>3.824</ele>
        <time>2016-04-30T00:38:22Z</time>
      </trkpt>
      <trkpt lat="47.94979" lon="-4.41178">
        <ele>2.08</ele>
        <time>2016-04-30T00:38:02Z</time>
      </trkpt>
      <trkpt lat="47.94999" lon="-4.41232">
        <ele>1.618</ele>
        <time>2016-04-30T00:37:42Z</time>
      </trkpt>
      <trkpt lat="47.95065" lon="-4.4129">
        <ele>3.191</ele>
        <time>2016-04-30T00:37:22Z</time>
      </trkpt>
      <trkpt lat="47.95128" lon="-4.41307">
        <ele>3.539</ele>
        <time>2016-04-30T00:37:02Z</time>
      </trkpt>
      <trkpt lat="47.95306" lon="-4.41397">
        <ele>6.453</ele>
        <time>2016-04-30T00:36:42Z</time>
      </trkpt>
      <trkpt lat="47.95457" lon="-4.41489">
        <ele>6.208</ele>
        <time>2016-04-30T00:36:22Z</time>
      </trkpt>
      <trkpt lat="47.95536" lon="-4.41597">
        <ele>4.414</ele>
        <time>2016-04-30T00:36:02Z</time>
      </trkpt>
      <trkpt lat="47.95659" lon="-4.4167">
        <ele>3.913</ele>
        <time>2016-04-30T00:35:42Z</time>
      </trkpt>
      <trkpt lat="47.95919" lon="-4.41904">
        <ele>2.672</ele>
        <time>2016-04-30T00:35:22Z</time>
      </trkpt>
      <trkpt lat="47.96041" lon="-4.42015">
        <ele>5.548</ele>
        <time>2016-04-30T00:35:02Z</time>
      </trkpt>
      <trkpt lat="47.96137" lon="-4.42148">
        <ele>3.018</ele>
        <time>2016-04-30T00:34:42Z</time>
      </trkpt>
      <trkpt lat="47.96238" lon="-4.42247">
        <ele>3.634</ele>
        <time>2016-04-30T00:34:22Z</time>
      </trkpt>
      <trkpt lat="47.96345" lon="-4.42371">
        <ele>4.04</ele>
        <time>2016-04-30T00:34:02Z</time>
      </trkpt>
      <trkpt lat="47.96407" lon="-4.42584">
        <ele>3.668</ele>
        <time>2016-04-30T00:33:42Z</time>
      </trkpt>
      <trkpt lat="47.96413" lon="-4.42631">
        <ele>3.581</ele>
        <time>2016-04-30T00:33:22Z</time>
      </trkpt>
      <trkpt lat="47.96373" lon="-4.42685">
        <ele>2.889</ele>
        <time>2016-04-30T00:33:02Z</time>
      </trkpt>
      <trkpt lat="47.96394" lon="-4.42732">
        <ele>2.433</ele>
        <time>2016-04-30T00:32:42Z</time>
      </trkpt>
      <trkpt lat="47.96496" lon="-4.42835">
        <ele>6.008</ele>
        <time>2016-04-30T00:32:22Z</time>
      </trkpt>
      <trkpt lat="47.96529" lon="-4.42906">
        <ele>5.126</ele>
        <time>2016-04-30T00:32:02Z</time>
      </trkpt>
      <trkpt lat="47.96637" lon="-4.43017">
        <ele>3.833</ele>
        <time>2016-04-30T00:31:42Z</time>
      </trkpt>
      <trkpt lat="47.9666" lon="-4.43024">
        <ele>4.878</ele>
        <time>2016-04-30T00:31:22Z</time>
      </trkpt>
      <trkpt lat="47.967" lon="-4.43075">
        <ele>4.826</ele>
        <time>2016-04-30T00:31:02Z</time>
      </trkpt>
      <trkpt lat="47.96817" lon="-4.43236">
        <ele>5.366</ele>
        <time>2016-04-30T00:30:42Z</time>
      </trkpt>
      <trkpt lat="47.9689" lon="-4.43408">
        <ele>5.492</ele>
        <time>2016-04-30T00:30:22Z</time>
      </trkpt>
      <trkpt lat="47.96979" lon="-4.43513">
        <ele>3.878</ele>
        <time>2016-04-30T00:30:02Z</time>
      </trkpt>
      <trkpt lat="47.97023" lon="-4.43537">
        <ele>6.596</ele>
        <time>2020-12-18T23:02:03Z</time>
      </trkpt>
      <trkpt lat="47.97084" lon="-4.43542">
        <ele>9.639</ele>
        <time>2020-12-18T23:01:43Z</time>
      </trkpt>
      <trkpt lat="47.97501" lon="-4.44213">
        <ele>14.317</ele>
        <time>2020-12-18T23:01:23Z</time>
      </trkpt>
      <trkpt lat="47.9739" lon="-4.44402">
        <ele>4.211</ele>
        <time>2020-12-18T23:01:03Z</time>
      </trkpt>
      <trkpt lat="47.97522" lon="-4.44534">
        <ele>3.008</ele>
        <time>2016-04-30T00:26:42Z</time>
      </trkpt>
      <trkpt lat="47.97542" lon="-4.44579">
        <ele>0.411</ele>
        <time>2016-04-30T00:26:22Z</time>
      </trkpt>
      <trkpt lat="47.97587" lon="-4.44609">
        <ele>0.856</ele>
        <time>2016-04-30T00:26:02Z</time>
      </trkpt>
      <trkpt lat="47.97608" lon="-4.44592">
        <ele>4.554</ele>
        <time>2016-04-30T00:25:42Z</time>
      </trkpt>
      <trkpt lat="47.97657" lon="-4.44622">
        <ele>5.374</ele>
        <time>2016-04-30T00:25:22Z</time>
      </trkpt>
      <trkpt lat="47.97683" lon="-4.44682">
        <ele>4.614</ele>
        <time>2016-04-30T00:25:02Z</time>
      </trkpt>
      <trkpt lat="47.97773" lon="-4.44779">
        <ele>6.05</ele>
        <time>2016-04-30T00:24:42Z</time>
      </trkpt>
      <trkpt lat="47.97808" lon="-4.44785">
        <ele>6.626</ele>
        <time>2016-04-30T00:24:22Z</time>
      </trkpt>
      <trkpt lat="47.97871" lon="-4.44882">
        <ele>5.464</ele>
        <time>2016-04-30T00:24:02Z</time>
      </trkpt>
      <trkpt lat="47.97894" lon="-4.44882">
        <ele>7.987</ele>
        <time>2016-04-30T00:23:42Z</time>
      </trkpt>
      <trkpt lat="47.97957" lon="-4.44945">
        <ele>5.925</ele>
        <time>2020-12-18T22:57:23Z</time>
      </trkpt>
      <trkpt lat="47.98005" lon="-4.44966">
        <ele>6.539</ele>
        <time>2016-04-30T00:23:02Z</time>
      </trkpt>
      <trkpt lat="47.98099" lon="-4.45034">
        <ele>8.708</ele>
        <time>2016-04-30T00:22:42Z</time>
      </trkpt>
      <trkpt lat="47.98169" lon="-4.45145">
        <ele>10.917</ele>
        <time>2020-12-18T22:56:23Z</time>
      </trkpt>
      <trkpt lat="47.98191" lon="-4.45218">
        <ele>9.87</ele>
        <time>2020-12-18T22:56:03Z</time>
      </trkpt>
      <trkpt lat="47.98207" lon="-4.4523">
        <ele>12.538</ele>
        <time>2020-12-18T22:55:43Z</time>
      </trkpt>
      <trkpt lat="47.98244" lon="-4.45345">
        <ele>15.263</ele>
        <time>2020-12-18T22:55:23Z</time>
      </trkpt>
      <trkpt lat="47.98202" lon="-4.45377">
        <ele>7.653</ele>
        <time>2020-12-18T22:55:03Z</time>
      </trkpt>
      <trkpt lat="47.98217" lon="-4.45425">
        <ele>7.099</ele>
        <time>2020-12-18T22:54:43Z</time>
      </trkpt>
      <trkpt lat="47.9825" lon="-4.45644">
        <ele>5.925</ele>
        <time>2020-12-18T22:54:23Z</time>
      </trkpt>
      <trkpt lat="47.98313" lon="-4.45561">
        <ele>18.683</ele>
        <time>2020-12-18T22:54:03Z</time>
      </trkpt>
      <trkpt lat="47.98355" lon="-4.45749">
        <ele>16.466</ele>
        <time>2020-12-18T22:53:43Z</time>
      </trkpt>
      <trkpt lat="47.98374" lon="-4.45804">
        <ele>15.024</ele>
        <time>2020-12-18T22:53:23Z</time>
      </trkpt>
      <trkpt lat="47.98411" lon="-4.45755">
        <ele>19.758</ele>
        <time>2016-04-30T00:20:42Z</time>
      </trkpt>
      <trkpt lat="47.98533" lon="-4.46119">
        <ele>9.908</ele>
        <time>2020-12-18T22:52:43Z</time>
      </trkpt>
      <trkpt lat="47.98556" lon="-4.46141">
        <ele>9.014</ele>
        <time>2020-12-18T22:52:23Z</time>
      </trkpt>
      <trkpt lat="47.98522" lon="-4.46217">
        <ele>7.204</ele>
        <time>2020-12-18T22:52:03Z</time>
      </trkpt>
      <trkpt lat="47.98604" lon="-4.46221">
        <ele>4.824</ele>
        <time>2016-04-30T00:19:22Z</time>
      </trkpt>
      <trkpt lat="47.98628" lon="-4.46268">
        <ele>8.525</ele>
        <time>2016-04-30T00:19:02Z</time>
      </trkpt>
      <trkpt lat="47.98596" lon="-4.4638">
        <ele>9.925</ele>
        <time>2016-04-30T00:18:42Z</time>
      </trkpt>
      <trkpt lat="47.98563" lon="-4.46392">
        <ele>6.771</ele>
        <time>2016-04-30T00:18:22Z</time>
      </trkpt>
      <trkpt lat="47.98542" lon="-4.46431">
        <ele>8.367</ele>
        <time>2016-04-30T00:18:02Z</time>
      </trkpt>
      <trkpt lat="47.98503" lon="-4.46436">
        <ele>4.995</ele>
        <time>2020-12-18T22:50:03Z</time>
      </trkpt>
      <trkpt lat="47.98493" lon="-4.46577">
        <ele>5.828</ele>
        <time>2016-04-30T00:17:22Z</time>
      </trkpt>
      <trkpt lat="47.9851" lon="-4.46641">
        <ele>9.956</ele>
        <time>2016-04-30T00:17:02Z</time>
      </trkpt>
      <trkpt lat="47.98502" lon="-4.46669">
        <ele>7.46</ele>
        <time>2016-04-30T00:16:42Z</time>
      </trkpt>
      <trkpt lat="47.98499" lon="-4.46811">
        <ele>7.608</ele>
        <time>2016-04-30T00:16:22Z</time>
      </trkpt>
      <trkpt lat="47.98489" lon="-4.46845">
        <ele>5.414</ele>
        <time>2016-04-30T00:16:02Z</time>
      </trkpt>
      <trkpt lat="47.98503" lon="-4.46873">
        <ele>7.522</ele>
        <time>2016-04-30T00:15:42Z</time>
      </trkpt>
      <trkpt lat="47.98504" lon="-4.46948">
        <ele>5.842</ele>
        <time>2016-04-30T00:15:22Z</time>
      </trkpt>
      <trkpt lat="47.98493" lon="-4.46974">
        <ele>3.745</ele>
        <time>2016-04-30T00:15:02Z</time>
      </trkpt>
      <trkpt lat="47.98504" lon="-4.47002">
        <ele>3.985</ele>
        <time>2016-04-30T00:14:42Z</time>
      </trkpt>
      <trkpt lat="47.98519" lon="-4.4698">
        <ele>7.841</ele>
        <time>2016-04-30T00:14:22Z</time>
      </trkpt>
      <trkpt lat="47.98536" lon="-4.47025">
        <ele>8.927</ele>
        <time>2016-04-30T00:14:02Z</time>
      </trkpt>
      <trkpt lat="47.9854" lon="-4.47086">
        <ele>6.195</ele>
        <time>2016-04-30T00:13:42Z</time>
      </trkpt>
      <trkpt lat="47.98566" lon="-4.47171">
        <ele>7.618</ele>
        <time>2016-04-30T00:13:22Z</time>
      </trkpt>
      <trkpt lat="47.98588" lon="-4.47221">
        <ele>8.196</ele>
        <time>2016-04-30T00:13:02Z</time>
      </trkpt>
      <trkpt lat="47.98605" lon="-4.47334">
        <ele>7.92</ele>
        <time>2016-04-30T00:12:42Z</time>
      </trkpt>
      <trkpt lat="47.98602" lon="-4.47403">
        <ele>9.908</ele>
        <time>2016-04-30T00:12:22Z</time>
      </trkpt>
      <trkpt lat="47.98609" lon="-4.47491">
        <ele>12.009</ele>
        <time>2016-04-30T00:12:02Z</time>
      </trkpt>
      <trkpt lat="47.98647" lon="-4.47534">
        <ele>14.881</ele>
        <time>2016-04-30T00:11:42Z</time>
      </trkpt>
      <trkpt lat="47.98651" lon="-4.47566">
        <ele>12.941</ele>
        <time>2016-04-30T00:11:22Z</time>
      </trkpt>
      <trkpt lat="47.98677" lon="-4.47618">
        <ele>10.382</ele>
        <time>2016-04-30T00:11:02Z</time>
      </trkpt>
      <trkpt lat="47.9872" lon="-4.47646">
        <ele>8.032</ele>
        <time>2016-04-30T00:10:42Z</time>
      </trkpt>
      <trkpt lat="47.98795" lon="-4.47671">
        <ele>7.318</ele>
        <time>2016-04-30T00:10:22Z</time>
      </trkpt>
      <trkpt lat="47.98811" lon="-4.4773">
        <ele>4.654</ele>
        <time>2020-12-18T22:42:23Z</time>
      </trkpt>
      <trkpt lat="47.98839" lon="-4.47776">
        <ele>4.232</ele>
        <time>2020-12-18T22:42:03Z</time>
      </trkpt>
      <trkpt lat="47.98854" lon="-4.47861">
        <ele>1.355</ele>
        <time>2020-12-18T22:41:43Z</time>
      </trkpt>
      <trkpt lat="47.98876" lon="-4.47889">
        <ele>1.543</ele>
        <time>2020-12-18T22:41:23Z</time>
      </trkpt>
      <trkpt lat="47.98905" lon="-4.4787">
        <ele>2.877</ele>
        <time>2020-12-18T22:41:03Z</time>
      </trkpt>
      <trkpt lat="47.98945" lon="-4.47855">
        <ele>3.408</ele>
        <time>2020-12-18T22:40:43Z</time>
      </trkpt>
      <trkpt lat="47.98965" lon="-4.47793">
        <ele>9.707</ele>
        <time>2020-12-18T22:40:23Z</time>
      </trkpt>
      <trkpt lat="47.98988" lon="-4.4778">
        <ele>9.743</ele>
        <time>2020-12-18T22:40:03Z</time>
      </trkpt>
      <trkpt lat="47.99057" lon="-4.47783">
        <ele>7.813</ele>
        <time>2016-04-30T00:09:02Z</time>
      </trkpt>
      <trkpt lat="47.99121" lon="-4.47877">
        <ele>8.816</ele>
        <time>2016-04-30T00:08:42Z</time>
      </trkpt>
      <trkpt lat="47.99218" lon="-4.47989">
        <ele>8.746</ele>
        <time>2016-04-30T00:08:22Z</time>
      </trkpt>
      <trkpt lat="47.99304" lon="-4.4815">
        <ele>7.532</ele>
        <time>2016-04-30T00:08:02Z</time>
      </trkpt>
      <trkpt lat="47.99392" lon="-4.48272">
        <ele>10.848</ele>
        <time>2016-04-30T00:07:42Z</time>
      </trkpt>
      <trkpt lat="47.99498" lon="-4.48562">
        <ele>8.966</ele>
        <time>2016-04-30T00:07:22Z</time>
      </trkpt>
      <trkpt lat="47.99504" lon="-4.48613">
        <ele>1.419</ele>
        <time>2016-04-30T00:07:02Z</time>
      </trkpt>
      <trkpt lat="47.99623" lon="-4.48884">
        <ele>7.997</ele>
        <time>2016-04-30T00:06:42Z</time>
      </trkpt>
      <trkpt lat="47.99665" lon="-4.48931">
        <ele>8.841</ele>
        <time>2016-04-30T00:06:22Z</time>
      </trkpt>
      <trkpt lat="47.99683" lon="-4.49027">
        <ele>4.208</ele>
        <time>2016-04-30T00:06:02Z</time>
      </trkpt>
      <trkpt lat="47.99708" lon="-4.49077">
        <ele>3.514</ele>
        <time>2016-04-30T00:05:42Z</time>
      </trkpt>
      <trkpt lat="47.99722" lon="-4.49124">
        <ele>4.559</ele>
        <time>2016-04-30T00:05:22Z</time>
      </trkpt>
      <trkpt lat="47.99817" lon="-4.49236">
        <ele>5.356</ele>
        <time>2016-04-30T00:05:02Z</time>
      </trkpt>
      <trkpt lat="47.99857" lon="-4.49336">
        <ele>5.475</ele>
        <time>2016-04-30T00:04:42Z</time>
      </trkpt>
      <trkpt lat="47.99966" lon="-4.49427">
        <ele>12.425</ele>
        <time>2016-04-30T00:04:22Z</time>
      </trkpt>
      <trkpt lat="47.99994" lon="-4.49506">
        <ele>8.511</ele>
        <time>2016-04-30T00:04:02Z</time>
      </trkpt>
      <trkpt lat="48.00119" lon="-4.49716">
        <ele>7.517</ele>
        <time>2016-04-30T00:03:42Z</time>
      </trkpt>
      <trkpt lat="48.00172" lon="-4.49841">
        <ele>9.125</ele>
        <time>2016-04-30T00:03:22Z</time>
      </trkpt>
      <trkpt lat="48.00147" lon="-4.49869">
        <ele>7.038</ele>
        <time>2016-04-30T00:03:02Z</time>
      </trkpt>
      <trkpt lat="48.0017" lon="-4.4995">
        <ele>6.016</ele>
        <time>2016-04-30T00:02:42Z</time>
      </trkpt>
      <trkpt lat="48.00239" lon="-4.50124">
        <ele>5.89</ele>
        <time>2016-04-30T00:02:22Z</time>
      </trkpt>
      <trkpt lat="48.00266" lon="-4.50148">
        <ele>5.408</ele>
        <time>2016-04-30T00:02:02Z</time>
      </trkpt>
      <trkpt lat="48.00269" lon="-4.50197">
        <ele>3.614</ele>
        <time>2016-04-30T00:01:42Z</time>
      </trkpt>
      <trkpt lat="48.00295" lon="-4.503">
        <ele>6.222</ele>
        <time>2016-04-30T00:01:22Z</time>
      </trkpt>
      <trkpt lat="48.00297" lon="-4.5042">
        <ele>4.942</ele>
        <time>2016-04-30T00:01:02Z</time>
      </trkpt>
      <trkpt lat="48.00321" lon="-4.50557">
        <ele>4.029</ele>
        <time>2016-04-30T00:00:42Z</time>
      </trkpt>
      <trkpt lat="48.00485" lon="-4.50892">
        <ele>7.679</ele>
        <time>2016-04-30T00:00:22Z</time>
      </trkpt>
      <trkpt lat="48.00566" lon="-4.51145">
        <ele>7.095</ele>
        <time>2016-04-30T00:00:02Z</time>
      </trkpt>
      <trkpt lat="48.00582" lon="-4.51223">
        <ele>7.071</ele>
        <time>2016-04-29T23:59:42Z</time>
      </trkpt>
      <trkpt lat="48.00572" lon="-4.51259">
        <ele>6.889</ele>
        <time>2020-12-18T22:30:03Z</time>
      </trkpt>
      <trkpt lat="48.00569" lon="-4.51341">
        <ele>4.752</ele>
        <time>2020-12-18T22:29:43Z</time>
      </trkpt>
      <trkpt lat="48.00612" lon="-4.51463">
        <ele>5.49</ele>
        <time>2016-04-29T23:58:42Z</time>
      </trkpt>
      <trkpt lat="48.00631" lon="-4.51572">
        <ele>4.054</ele>
        <time>2016-04-29T23:58:22Z</time>
      </trkpt>
      <trkpt lat="48.00658" lon="-4.51617">
        <ele>4.208</ele>
        <time>2016-04-29T23:58:02Z</time>
      </trkpt>
      <trkpt lat="48.00643" lon="-4.51783">
        <ele>5.917</ele>
        <time>2016-04-29T23:57:42Z</time>
      </trkpt>
      <trkpt lat="48.00497" lon="-4.51942">
        <ele>1.961</ele>
        <time>2020-12-18T22:28:03Z</time>
      </trkpt>
      <trkpt lat="48.00531" lon="-4.51984">
        <ele>4.681</ele>
        <time>2016-04-29T23:57:02Z</time>
      </trkpt>
      <trkpt lat="48.00546" lon="-4.52066">
        <ele>4.82</ele>
        <time>2020-12-18T22:27:23Z</time>
      </trkpt>
      <trkpt lat="48.00579" lon="-4.52081">
        <ele>9.55</ele>
        <time>2016-04-29T23:56:22Z</time>
      </trkpt>
      <trkpt lat="48.00601" lon="-4.5224">
        <ele>6.046</ele>
        <time>2016-04-29T23:56:02Z</time>
      </trkpt>
      <trkpt lat="48.00579" lon="-4.52389">
        <ele>3.592</ele>
        <time>2020-12-18T22:26:23Z</time>
      </trkpt>
      <trkpt lat="48.006" lon="-4.52442">
        <ele>7.01</ele>
        <time>2020-12-18T22:26:03Z</time>
      </trkpt>
      <trkpt lat="48.00607" lon="-4.52516">
        <ele>5.993</ele>
        <time>2016-04-29T23:55:02Z</time>
      </trkpt>
      <trkpt lat="48.00644" lon="-4.52604">
        <ele>5.751</ele>
        <time>2016-04-29T23:54:42Z</time>
      </trkpt>
      <trkpt lat="48.00689" lon="-4.52614">
        <ele>7.475</ele>
        <time>2020-12-18T22:25:03Z</time>
      </trkpt>
      <trkpt lat="48.00711" lon="-4.52698">
        <ele>4.608</ele>
        <time>2020-12-18T22:24:43Z</time>
      </trkpt>
      <trkpt lat="48.0077" lon="-4.52819">
        <ele>4.225</ele>
        <time>2016-04-29T23:54:02Z</time>
      </trkpt>
      <trkpt lat="48.00832" lon="-4.52894">
        <ele>6.323</ele>
        <time>2016-04-29T23:53:42Z</time>
      </trkpt>
      <trkpt lat="48.00876" lon="-4.53032">
        <ele>1.597</ele>
        <time>2020-12-18T22:23:43Z</time>
      </trkpt>
      <trkpt lat="48.00931" lon="-4.53094">
        <ele>4.579</ele>
        <time>2016-04-29T23:53:02Z</time>
      </trkpt>
      <trkpt lat="48.00957" lon="-4.5321">
        <ele>4.749</ele>
        <time>2016-04-29T23:52:42Z</time>
      </trkpt>
      <trkpt lat="48.0098" lon="-4.53336">
        <ele>5.475</ele>
        <time>2016-04-29T23:52:22Z</time>
      </trkpt>
      <trkpt lat="48.00989" lon="-4.53474">
        <ele>3.881</ele>
        <time>2020-12-18T22:22:23Z</time>
      </trkpt>
      <trkpt lat="48.01068" lon="-4.53523">
        <ele>7.439</ele>
        <time>2020-12-18T22:22:03Z</time>
      </trkpt>
      <trkpt lat="48.01204" lon="-4.53695">
        <ele>5.092</ele>
        <time>2020-12-18T22:21:43Z</time>
      </trkpt>
      <trkpt lat="48.01259" lon="-4.53683">
        <ele>2.97</ele>
        <time>2020-12-18T22:21:23Z</time>
      </trkpt>
      <trkpt lat="48.01297" lon="-4.53652">
        <ele>2.264</ele>
        <time>2020-12-18T22:21:03Z</time>
      </trkpt>
      <trkpt lat="48.01342" lon="-4.53581">
        <ele>5.508</ele>
        <time>2016-04-29T23:50:02Z</time>
      </trkpt>
      <trkpt lat="48.0136" lon="-4.53527">
        <ele>5.126</ele>
        <time>2020-12-18T22:20:23Z</time>
      </trkpt>
      <trkpt lat="48.01389" lon="-4.53507">
        <ele>7.242</ele>
        <time>2020-12-18T22:20:03Z</time>
      </trkpt>
      <trkpt lat="48.01443" lon="-4.53505">
        <ele>6.587</ele>
        <time>2020-12-18T22:19:43Z</time>
      </trkpt>
      <trkpt lat="48.01485" lon="-4.53514">
        <ele>1.175</ele>
        <time>2020-12-18T22:19:23Z</time>
      </trkpt>
      <trkpt lat="48.01524" lon="-4.53547">
        <ele>0.685</ele>
        <time>2020-12-18T22:19:03Z</time>
      </trkpt>
      <trkpt lat="48.01546" lon="-4.53521">
        <ele>1.431</ele>
        <time>2020-12-18T22:18:43Z</time>
      </trkpt>
      <trkpt lat="48.01562" lon="-4.53441">
        <ele>7.517</ele>
        <time>2020-12-18T22:18:23Z</time>
      </trkpt>
      <trkpt lat="48.0158" lon="-4.53415">
        <ele>6.485</ele>
        <time>2020-12-18T22:18:03Z</time>
      </trkpt>
      <trkpt lat="48.01597" lon="-4.53405">
        <ele>5.438</ele>
        <time>2020-12-18T22:17:43Z</time>
      </trkpt>
      <trkpt lat="48.01613" lon="-4.53377">
        <ele>8.786</ele>
        <time>2020-12-18T22:17:23Z</time>
      </trkpt>
      <trkpt lat="48.01645" lon="-4.53349">
        <ele>13.08</ele>
        <time>2020-12-18T22:17:03Z</time>
      </trkpt>
      <trkpt lat="48.01645" lon="-4.53316">
        <ele>17.208</ele>
        <time>2020-12-18T22:16:43Z</time>
      </trkpt>
      <trkpt lat="48.01653" lon="-4.53289">
        <ele>18.422</ele>
        <time>2020-12-18T22:16:23Z</time>
      </trkpt>
      <trkpt lat="48.01653" lon="-4.53248">
        <ele>19.402</ele>
        <time>2016-04-29T23:45:42Z</time>
      </trkpt>
      <trkpt lat="48.01761" lon="-4.53275">
        <ele>10.149</ele>
        <time>2020-12-18T22:15:43Z</time>
      </trkpt>
      <trkpt lat="48.01773" lon="-4.53313">
        <ele>5.532</ele>
        <time>2020-12-18T22:15:23Z</time>
      </trkpt>
      <trkpt lat="48.01808" lon="-4.53325">
        <ele>1.242</ele>
        <time>2020-12-18T22:15:03Z</time>
      </trkpt>
      <trkpt lat="48.01817" lon="-4.53308">
        <ele>3.378</ele>
        <time>2016-04-29T23:44:42Z</time>
      </trkpt>
      <trkpt lat="48.01971" lon="-4.53257">
        <ele>0.834</ele>
        <time>2020-12-18T22:14:23Z</time>
      </trkpt>
      <trkpt lat="48.02062" lon="-4.53308">
        <ele>0.092</ele>
        <time>2020-12-18T22:14:03Z</time>
      </trkpt>
      <trkpt lat="48.02084" lon="-4.53197">
        <ele>8.825</ele>
        <time>2020-12-18T22:13:43Z</time>
      </trkpt>
      <trkpt lat="48.02152" lon="-4.53268">
        <ele>8.853</ele>
        <time>2020-12-18T22:13:23Z</time>
      </trkpt>
      <trkpt lat="48.02195" lon="-4.53348">
        <ele>6.167</ele>
        <time>2020-12-18T22:13:03Z</time>
      </trkpt>
      <trkpt lat="48.02227" lon="-4.53434">
        <ele>0.508</ele>
        <time>2020-12-18T22:12:43Z</time>
      </trkpt>
      <trkpt lat="48.02265" lon="-4.53454">
        <ele>1.105</ele>
        <time>2016-04-29T23:42:22Z</time>
      </trkpt>
      <trkpt lat="48.02298" lon="-4.53413">
        <ele>4.532</ele>
        <time>2016-04-29T23:42:02Z</time>
      </trkpt>
      <trkpt lat="48.02352" lon="-4.53381">
        <ele>8.112</ele>
        <time>2016-04-29T23:41:42Z</time>
      </trkpt>
      <trkpt lat="48.02399" lon="-4.53401">
        <ele>0.744</ele>
        <time>2016-04-29T23:41:22Z</time>
      </trkpt>
      <trkpt lat="48.02488" lon="-4.53564">
        <ele>1.324</ele>
        <time>2016-04-29T23:41:02Z</time>
      </trkpt>
      <trkpt lat="48.02361" lon="-4.53785">
        <ele>5.21</ele>
        <time>2016-04-29T23:40:42Z</time>
      </trkpt>
      <trkpt lat="48.02348" lon="-4.53858">
        <ele>5.556</ele>
        <time>2016-04-29T23:40:22Z</time>
      </trkpt>
      <trkpt lat="48.0226" lon="-4.53879">
        <ele>7.934</ele>
        <time>2016-04-29T23:40:02Z</time>
      </trkpt>
      <trkpt lat="48.0194" lon="-4.53527">
        <ele>3.367</ele>
        <time>2016-04-29T23:39:42Z</time>
      </trkpt>
      <trkpt lat="48.01903" lon="-4.53514">
        <ele>5.065</ele>
        <time>2016-04-29T23:39:22Z</time>
      </trkpt>
      <trkpt lat="48.01837" lon="-4.53538">
        <ele>8.889</ele>
        <time>2016-04-29T23:39:02Z</time>
      </trkpt>
      <trkpt lat="48.01782" lon="-4.53594">
        <ele>8.008</ele>
        <time>2016-04-29T23:38:42Z</time>
      </trkpt>
      <trkpt lat="48.01712" lon="-4.53583">
        <ele>1.015</ele>
        <time>2016-04-29T23:38:22Z</time>
      </trkpt>
      <trkpt lat="48.01682" lon="-4.53757">
        <ele>1.223</ele>
        <time>2016-04-29T23:38:02Z</time>
      </trkpt>
      <trkpt lat="48.01395" lon="-4.53982">
        <ele>11.233</ele>
        <time>2016-04-29T23:37:42Z</time>
      </trkpt>
      <trkpt lat="48.01267" lon="-4.5407">
        <ele>1.687</ele>
        <time>2016-04-29T23:37:22Z</time>
      </trkpt>
      <trkpt lat="48.01211" lon="-4.54079">
        <ele>0.057</ele>
        <time>2016-04-29T23:37:02Z</time>
      </trkpt>
      <trkpt lat="48.01108" lon="-4.54081">
        <ele>2.033</ele>
        <time>2016-04-29T23:36:42Z</time>
      </trkpt>
      <trkpt lat="48.01103" lon="-4.54126">
        <ele>3.729</ele>
        <time>2016-04-29T23:36:22Z</time>
      </trkpt>
      <trkpt lat="48.01132" lon="-4.5419">
        <ele>4.977</ele>
        <time>2016-04-29T23:36:02Z</time>
      </trkpt>
      <trkpt lat="48.01168" lon="-4.54212">
        <ele>8.24</ele>
        <time>2016-04-29T23:35:42Z</time>
      </trkpt>
      <trkpt lat="48.01243" lon="-4.54621">
        <ele>17.968</ele>
        <time>2016-04-29T23:35:22Z</time>
      </trkpt>
      <trkpt lat="48.0125" lon="-4.54759">
        <ele>15.062</ele>
        <time>2016-04-29T23:35:02Z</time>
      </trkpt>
      <trkpt lat="48.01241" lon="-4.54915">
        <ele>7.108</ele>
        <time>2016-04-29T23:34:42Z</time>
      </trkpt>
      <trkpt lat="48.01191" lon="-4.55033">
        <ele>7.926</ele>
        <time>2016-04-29T23:34:22Z</time>
      </trkpt>
      <trkpt lat="48.01182" lon="-4.55132">
        <ele>12.142</ele>
        <time>2016-04-29T23:34:02Z</time>
      </trkpt>
      <trkpt lat="48.01167" lon="-4.55194">
        <ele>17.068</ele>
        <time>2016-04-29T23:33:42Z</time>
      </trkpt>
      <trkpt lat="48.01092" lon="-4.55276">
        <ele>14.567</ele>
        <time>2016-04-29T23:33:22Z</time>
      </trkpt>
      <trkpt lat="48.01036" lon="-4.5541">
        <ele>5.647</ele>
        <time>2020-12-18T22:03:03Z</time>
      </trkpt>
      <trkpt lat="48.01033" lon="-4.55528">
        <ele>11.693</ele>
        <time>2020-12-18T22:02:43Z</time>
      </trkpt>
      <trkpt lat="48.01009" lon="-4.55595">
        <ele>9.639</ele>
        <time>2020-12-18T22:02:23Z</time>
      </trkpt>
      <trkpt lat="48.00992" lon="-4.55577">
        <ele>7.417</ele>
        <time>2020-12-18T22:02:03Z</time>
      </trkpt>
      <trkpt lat="48.00967" lon="-4.55623">
        <ele>7.31</ele>
        <time>2020-12-18T22:01:43Z</time>
      </trkpt>
      <trkpt lat="48.00924" lon="-4.55641">
        <ele>7.228</ele>
        <time>2020-12-18T22:01:23Z</time>
      </trkpt>
      <trkpt lat="48.0088" lon="-4.55589">
        <ele>5.432</ele>
        <time>2020-12-18T22:01:03Z</time>
      </trkpt>
      <trkpt lat="48.00757" lon="-4.55739">
        <ele>6.408</ele>
        <time>2016-04-29T23:31:42Z</time>
      </trkpt>
      <trkpt lat="48.00628" lon="-4.55739">
        <ele>4.624</ele>
        <time>2020-12-18T22:00:23Z</time>
      </trkpt>
      <trkpt lat="48.00614" lon="-4.55666">
        <ele>2.704</ele>
        <time>2016-04-29T23:31:02Z</time>
      </trkpt>
      <trkpt lat="48.00535" lon="-4.55669">
        <ele>1.369</ele>
        <time>2016-04-29T23:30:42Z</time>
      </trkpt>
      <trkpt lat="48.00531" lon="-4.55688">
        <ele>1.955</ele>
        <time>2016-04-29T23:30:22Z</time>
      </trkpt>
      <trkpt lat="48.00502" lon="-4.55697">
        <ele>2.145</ele>
        <time>2016-04-29T23:30:02Z</time>
      </trkpt>
      <trkpt lat="48.0048" lon="-4.55759">
        <ele>5.951</ele>
        <time>2016-04-29T23:29:42Z</time>
      </trkpt>
      <trkpt lat="48.00416" lon="-4.55797">
        <ele>2.097</ele>
        <time>2016-04-29T23:29:22Z</time>
      </trkpt>
      <trkpt lat="48.00391" lon="-4.55877">
        <ele>3.765</ele>
        <time>2016-04-29T23:29:02Z</time>
      </trkpt>
      <trkpt lat="48.00341" lon="-4.55963">
        <ele>5.948</ele>
        <time>2016-04-29T23:28:42Z</time>
      </trkpt>
      <trkpt lat="48.00258" lon="-4.56014">
        <ele>2.616</ele>
        <time>2016-04-29T23:28:22Z</time>
      </trkpt>
      <trkpt lat="48.00256" lon="-4.56143">
        <ele>2.84</ele>
        <time>2016-04-29T23:28:02Z</time>
      </trkpt>
      <trkpt lat="48.00245" lon="-4.56205">
        <ele>3.808</ele>
        <time>2016-04-29T23:27:42Z</time>
      </trkpt>
      <trkpt lat="48.00077" lon="-4.56428">
        <ele>2.422</ele>
        <time>2016-04-29T23:27:22Z</time>
      </trkpt>
      <trkpt lat="48.00032" lon="-4.56478">
        <ele>3.502</ele>
        <time>2016-04-29T23:27:02Z</time>
      </trkpt>
      <trkpt lat="48.00002" lon="-4.56529">
        <ele>3.349</ele>
        <time>2016-04-29T23:26:42Z</time>
      </trkpt>
      <trkpt lat="47.99994" lon="-4.56619">
        <ele>2.396</ele>
        <time>2016-04-29T23:26:22Z</time>
      </trkpt>
      <trkpt lat="48.00019" lon="-4.56699">
        <ele>4.516</ele>
        <time>2016-04-29T23:26:02Z</time>
      </trkpt>
      <trkpt lat="48.00038" lon="-4.56769">
        <ele>3.872</ele>
        <time>2016-04-29T23:25:42Z</time>
      </trkpt>
      <trkpt lat="48.00035" lon="-4.56877">
        <ele>3.098</ele>
        <time>2016-04-29T23:25:22Z</time>
      </trkpt>
      <trkpt lat="48.00137" lon="-4.56993">
        <ele>6.456</ele>
        <time>2016-04-29T23:25:02Z</time>
      </trkpt>
      <trkpt lat="48.00245" lon="-4.57098">
        <ele>7.939</ele>
        <time>2016-04-29T23:24:42Z</time>
      </trkpt>
      <trkpt lat="48.00276" lon="-4.57158">
        <ele>4.917</ele>
        <time>2016-04-29T23:24:22Z</time>
      </trkpt>
      <trkpt lat="48.00324" lon="-4.57194">
        <ele>5.311</ele>
        <time>2016-04-29T23:24:02Z</time>
      </trkpt>
      <trkpt lat="48.00348" lon="-4.57259">
        <ele>5.608</ele>
        <time>2016-04-29T23:23:42Z</time>
      </trkpt>
      <trkpt lat="48.00342" lon="-4.57349">
        <ele>5.517</ele>
        <time>2016-04-29T23:23:22Z</time>
      </trkpt>
      <trkpt lat="48.00398" lon="-4.57544">
        <ele>7.007</ele>
        <time>2016-04-29T23:23:02Z</time>
      </trkpt>
      <trkpt lat="48.00433" lon="-4.57613">
        <ele>6.655</ele>
        <time>2016-04-29T23:22:42Z</time>
      </trkpt>
      <trkpt lat="48.00485" lon="-4.57647">
        <ele>9.492</ele>
        <time>2016-04-29T23:22:22Z</time>
      </trkpt>
      <trkpt lat="48.00499" lon="-4.57731">
        <ele>8.822</ele>
        <time>2016-04-29T23:22:02Z</time>
      </trkpt>
      <trkpt lat="48.00416" lon="-4.57969">
        <ele>5.838</ele>
        <time>2016-04-29T23:21:42Z</time>
      </trkpt>
      <trkpt lat="48.0041" lon="-4.58023">
        <ele>6.064</ele>
        <time>2016-04-29T23:21:22Z</time>
      </trkpt>
      <trkpt lat="48.00475" lon="-4.58115">
        <ele>7.432</ele>
        <time>2016-04-29T23:21:02Z</time>
      </trkpt>
      <trkpt lat="48.00505" lon="-4.58231">
        <ele>7.235</ele>
        <time>2016-04-29T23:20:42Z</time>
      </trkpt>
      <trkpt lat="48.00493" lon="-4.58282">
        <ele>4.733</ele>
        <time>2016-04-29T23:20:22Z</time>
      </trkpt>
      <trkpt lat="48.00512" lon="-4.58312">
        <ele>7.317</ele>
        <time>2016-04-29T23:20:02Z</time>
      </trkpt>
      <trkpt lat="48.00505" lon="-4.58353">
        <ele>4.908</ele>
        <time>2016-04-29T23:19:42Z</time>
      </trkpt>
      <trkpt lat="48.00542" lon="-4.58467">
        <ele>5.917</ele>
        <time>2016-04-29T23:19:22Z</time>
      </trkpt>
      <trkpt lat="48.00598" lon="-4.58563">
        <ele>8.798</ele>
        <time>2016-04-29T23:19:02Z</time>
      </trkpt>
      <trkpt lat="48.00637" lon="-4.58595">
        <ele>11.918</ele>
        <time>2016-04-29T23:18:42Z</time>
      </trkpt>
      <trkpt lat="48.00671" lon="-4.58649">
        <ele>12.447</ele>
        <time>2016-04-29T23:18:22Z</time>
      </trkpt>
      <trkpt lat="48.0069" lon="-4.58726">
        <ele>10.037</ele>
        <time>2016-04-29T23:18:02Z</time>
      </trkpt>
      <trkpt lat="48.00749" lon="-4.58789">
        <ele>9.123</ele>
        <time>2016-04-29T23:17:42Z</time>
      </trkpt>
      <trkpt lat="48.00747" lon="-4.58889">
        <ele>3.829</ele>
        <time>2016-04-29T23:17:22Z</time>
      </trkpt>
      <trkpt lat="48.00697" lon="-4.59128">
        <ele>4.987</ele>
        <time>2016-04-29T23:17:02Z</time>
      </trkpt>
      <trkpt lat="48.00699" lon="-4.59213">
        <ele>3.83</ele>
        <time>2016-04-29T23:16:42Z</time>
      </trkpt>
      <trkpt lat="48.00785" lon="-4.59224">
        <ele>4.618</ele>
        <time>2016-04-29T23:16:22Z</time>
      </trkpt>
      <trkpt lat="48.00907" lon="-4.59186">
        <ele>3.482</ele>
        <time>2016-04-29T23:16:02Z</time>
      </trkpt>
      <trkpt lat="48.00917" lon="-4.59162">
        <ele>4.308</ele>
        <time>2016-04-29T23:15:42Z</time>
      </trkpt>
      <trkpt lat="48.00971" lon="-4.59145">
        <ele>4.114</ele>
        <time>2016-04-29T23:15:22Z</time>
      </trkpt>
      <trkpt lat="48.01004" lon="-4.59085">
        <ele>6.168</ele>
        <time>2016-04-29T23:15:02Z</time>
      </trkpt>
      <trkpt lat="48.01141" lon="-4.59108">
        <ele>13.165</ele>
        <time>2016-04-29T23:14:42Z</time>
      </trkpt>
      <trkpt lat="48.012" lon="-4.59162">
        <ele>11.247</ele>
        <time>2016-04-29T23:14:22Z</time>
      </trkpt>
      <trkpt lat="48.01314" lon="-4.59213">
        <ele>12.577</ele>
        <time>2016-04-29T23:14:02Z</time>
      </trkpt>
      <trkpt lat="48.01316" lon="-4.59291">
        <ele>12.083</ele>
        <time>2016-04-29T23:13:42Z</time>
      </trkpt>
      <trkpt lat="48.01369" lon="-4.59439">
        <ele>9.689</ele>
        <time>2016-04-29T23:13:22Z</time>
      </trkpt>
      <trkpt lat="48.01408" lon="-4.59488">
        <ele>10.847</ele>
        <time>2016-04-29T23:13:02Z</time>
      </trkpt>
      <trkpt lat="48.01449" lon="-4.59615">
        <ele>5.22</ele>
        <time>2016-04-29T23:12:42Z</time>
      </trkpt>
      <trkpt lat="48.01553" lon="-4.59709">
        <ele>8.578</ele>
        <time>2016-04-29T23:12:22Z</time>
      </trkpt>
      <trkpt lat="48.01553" lon="-4.59783">
        <ele>6.132</ele>
        <time>2020-12-18T21:41:03Z</time>
      </trkpt>
      <trkpt lat="48.01564" lon="-4.59815">
        <ele>6.208</ele>
        <time>2020-12-18T21:40:43Z</time>
      </trkpt>
      <trkpt lat="48.01525" lon="-4.59861">
        <ele>4.818</ele>
        <time>2016-04-29T23:11:42Z</time>
      </trkpt>
      <trkpt lat="48.01551" lon="-4.59934">
        <ele>6.544</ele>
        <time>2016-04-29T23:11:22Z</time>
      </trkpt>
      <trkpt lat="48.01553" lon="-4.60093">
        <ele>6.363</ele>
        <time>2016-04-29T23:11:02Z</time>
      </trkpt>
      <trkpt lat="48.01541" lon="-4.60177">
        <ele>4.618</ele>
        <time>2016-04-29T23:10:42Z</time>
      </trkpt>
      <trkpt lat="48.01554" lon="-4.60252">
        <ele>8.718</ele>
        <time>2016-04-29T23:10:22Z</time>
      </trkpt>
      <trkpt lat="48.01545" lon="-4.60331">
        <ele>7.994</ele>
        <time>2016-04-29T23:10:02Z</time>
      </trkpt>
      <trkpt lat="48.01573" lon="-4.60417">
        <ele>9.71</ele>
        <time>2016-04-29T23:09:42Z</time>
      </trkpt>
      <trkpt lat="48.01634" lon="-4.60718">
        <ele>5.738</ele>
        <time>2016-04-29T23:09:22Z</time>
      </trkpt>
      <trkpt lat="48.01679" lon="-4.60833">
        <ele>9.351</ele>
        <time>2016-04-29T23:09:02Z</time>
      </trkpt>
      <trkpt lat="48.01726" lon="-4.60919">
        <ele>11.329</ele>
        <time>2016-04-29T23:08:42Z</time>
      </trkpt>
      <trkpt lat="48.01752" lon="-4.60928">
        <ele>13.433</ele>
        <time>2016-04-29T23:08:22Z</time>
      </trkpt>
      <trkpt lat="48.01808" lon="-4.61014">
        <ele>10.108</ele>
        <time>2016-04-29T23:08:02Z</time>
      </trkpt>
      <trkpt lat="48.01858" lon="-4.61022">
        <ele>12.125</ele>
        <time>2016-04-29T23:07:42Z</time>
      </trkpt>
      <trkpt lat="48.01854" lon="-4.61076">
        <ele>9.805</ele>
        <time>2016-04-29T23:07:22Z</time>
      </trkpt>
      <trkpt lat="48.01883" lon="-4.61188">
        <ele>17.979</ele>
        <time>2016-04-29T23:06:42Z</time>
      </trkpt>
      <trkpt lat="48.01828" lon="-4.61235">
        <ele>11.434</ele>
        <time>2016-04-29T23:06:22Z</time>
      </trkpt>
      <trkpt lat="48.01794" lon="-4.61316">
        <ele>13.894</ele>
        <time>2016-04-29T23:06:02Z</time>
      </trkpt>
      <trkpt lat="48.01768" lon="-4.61333">
        <ele>12.63</ele>
        <time>2016-04-29T23:05:42Z</time>
      </trkpt>
      <trkpt lat="48.01742" lon="-4.61359">
        <ele>10.446</ele>
        <time>2016-04-29T23:05:22Z</time>
      </trkpt>
      <trkpt lat="48.01716" lon="-4.61451">
        <ele>11.294</ele>
        <time>2016-04-29T23:05:02Z</time>
      </trkpt>
      <trkpt lat="48.01718" lon="-4.61589">
        <ele>15.977</ele>
        <time>2016-04-29T23:04:42Z</time>
      </trkpt>
      <trkpt lat="48.01729" lon="-4.61722">
        <ele>14.335</ele>
        <time>2020-12-18T21:33:23Z</time>
      </trkpt>
      <trkpt lat="48.01795" lon="-4.61831">
        <ele>12.419</ele>
        <time>2016-04-29T23:03:42Z</time>
      </trkpt>
      <trkpt lat="48.01852" lon="-4.61946">
        <ele>10.208</ele>
        <time>2020-12-18T21:32:43Z</time>
      </trkpt>
      <trkpt lat="48.01866" lon="-4.61994">
        <ele>11.817</ele>
        <time>2016-04-29T23:03:22Z</time>
      </trkpt>
      <trkpt lat="48.01821" lon="-4.62082">
        <ele>6.27</ele>
        <time>2016-04-29T23:03:02Z</time>
      </trkpt>
      <trkpt lat="48.018" lon="-4.62102">
        <ele>4.738</ele>
        <time>2016-04-29T23:02:42Z</time>
      </trkpt>
      <trkpt lat="48.01818" lon="-4.62268">
        <ele>5.789</ele>
        <time>2020-12-18T21:31:23Z</time>
      </trkpt>
      <trkpt lat="48.01836" lon="-4.62256">
        <ele>5.779</ele>
        <time>2020-12-18T21:31:03Z</time>
      </trkpt>
      <trkpt lat="48.01872" lon="-4.62203">
        <ele>9.315</ele>
        <time>2020-12-18T21:30:43Z</time>
      </trkpt>
      <trkpt lat="48.01884" lon="-4.62198">
        <ele>9.091</ele>
        <time>2020-12-18T21:30:23Z</time>
      </trkpt>
      <trkpt lat="48.01899" lon="-4.62205">
        <ele>7.129</ele>
        <time>2020-12-18T21:30:03Z</time>
      </trkpt>
      <trkpt lat="48.01935" lon="-4.6216">
        <ele>11.382</ele>
        <time>2020-12-18T21:29:43Z</time>
      </trkpt>
      <trkpt lat="48.01972" lon="-4.6218">
        <ele>9.69</ele>
        <time>2020-12-18T21:29:23Z</time>
      </trkpt>
      <trkpt lat="48.01992" lon="-4.62211">
        <ele>7.014</ele>
        <time>2020-12-18T21:29:03Z</time>
      </trkpt>
      <trkpt lat="48.02066" lon="-4.62237">
        <ele>9.608</ele>
        <time>2016-04-29T23:00:42Z</time>
      </trkpt>
      <trkpt lat="48.02115" lon="-4.6234">
        <ele>10.426</ele>
        <time>2016-04-29T23:00:22Z</time>
      </trkpt>
      <trkpt lat="48.02105" lon="-4.6237">
        <ele>8.624</ele>
        <time>2016-04-29T23:00:02Z</time>
      </trkpt>
      <trkpt lat="48.02117" lon="-4.62445">
        <ele>8.088</ele>
        <time>2016-04-29T22:59:42Z</time>
      </trkpt>
      <trkpt lat="48.02143" lon="-4.62499">
        <ele>9.667</ele>
        <time>2016-04-29T22:59:22Z</time>
      </trkpt>
      <trkpt lat="48.02188" lon="-4.62503">
        <ele>15.147</ele>
        <time>2016-04-29T22:59:02Z</time>
      </trkpt>
      <trkpt lat="48.02194" lon="-4.62537">
        <ele>13.653</ele>
        <time>2016-04-29T22:58:42Z</time>
      </trkpt>
      <trkpt lat="48.02178" lon="-4.62617">
        <ele>13.299</ele>
        <time>2016-04-29T22:58:22Z</time>
      </trkpt>
      <trkpt lat="48.02186" lon="-4.62685">
        <ele>13.937</ele>
        <time>2016-04-29T22:58:02Z</time>
      </trkpt>
      <trkpt lat="48.02229" lon="-4.62754">
        <ele>12.25</ele>
        <time>2016-04-29T22:57:42Z</time>
      </trkpt>
      <trkpt lat="48.023" lon="-4.62803">
        <ele>3.528</ele>
        <time>2016-04-29T22:57:22Z</time>
      </trkpt>
      <trkpt lat="48.02349" lon="-4.62763">
        <ele>6.942</ele>
        <time>2016-04-29T22:57:02Z</time>
      </trkpt>
      <trkpt lat="48.02376" lon="-4.62758">
        <ele>8.008</ele>
        <time>2016-04-29T22:56:42Z</time>
      </trkpt>
      <trkpt lat="48.02468" lon="-4.62853">
        <ele>4.724</ele>
        <time>2016-04-29T22:56:22Z</time>
      </trkpt>
      <trkpt lat="48.02544" lon="-4.62838">
        <ele>7.204</ele>
        <time>2016-04-29T22:56:02Z</time>
      </trkpt>
      <trkpt lat="48.02629" lon="-4.62926">
        <ele>6.069</ele>
        <time>2016-04-29T22:55:42Z</time>
      </trkpt>
      <trkpt lat="48.02645" lon="-4.62971">
        <ele>4.394</ele>
        <time>2016-04-29T22:55:22Z</time>
      </trkpt>
      <trkpt lat="48.02658" lon="-4.62973">
        <ele>4.644</ele>
        <time>2020-12-18T21:23:03Z</time>
      </trkpt>
      <trkpt lat="48.02667" lon="-4.63008">
        <ele>2.26</ele>
        <time>2020-12-18T21:22:43Z</time>
      </trkpt>
      <trkpt lat="48.02705" lon="-4.62985">
        <ele>4.366</ele>
        <time>2020-12-18T21:22:23Z</time>
      </trkpt>
      <trkpt lat="48.02744" lon="-4.63005">
        <ele>5.484</ele>
        <time>2016-04-29T22:55:02Z</time>
      </trkpt>
      <trkpt lat="48.02777" lon="-4.63078">
        <ele>3.437</ele>
        <time>2016-04-29T22:54:42Z</time>
      </trkpt>
      <trkpt lat="48.02857" lon="-4.63093">
        <ele>6.255</ele>
        <time>2016-04-29T22:54:22Z</time>
      </trkpt>
      <trkpt lat="48.02905" lon="-4.63144">
        <ele>4.719</ele>
        <time>2016-04-29T22:54:02Z</time>
      </trkpt>
      <trkpt lat="48.02964" lon="-4.63292">
        <ele>3.808</ele>
        <time>2020-12-18T21:20:43Z</time>
      </trkpt>
      <trkpt lat="48.02959" lon="-4.63492">
        <ele>10.711</ele>
        <time>2016-04-29T22:52:42Z</time>
      </trkpt>
      <trkpt lat="48.02909" lon="-4.63529">
        <ele>5.892</ele>
        <time>2016-04-29T22:52:22Z</time>
      </trkpt>
      <trkpt lat="48.02884" lon="-4.63617">
        <ele>5.832</ele>
        <time>2016-04-29T22:52:02Z</time>
      </trkpt>
      <trkpt lat="48.02878" lon="-4.63715">
        <ele>8.028</ele>
        <time>2020-12-18T21:19:23Z</time>
      </trkpt>
      <trkpt lat="48.02826" lon="-4.63788">
        <ele>12.468</ele>
        <time>2020-12-18T21:19:03Z</time>
      </trkpt>
      <trkpt lat="48.02737" lon="-4.63877">
        <ele>8.014</ele>
        <time>2020-12-18T21:18:43Z</time>
      </trkpt>
      <trkpt lat="48.02725" lon="-4.63983">
        <ele>8.11</ele>
        <time>2016-04-29T22:49:42Z</time>
      </trkpt>
      <trkpt lat="48.02698" lon="-4.63983">
        <ele>5.798</ele>
        <time>2016-04-29T22:49:22Z</time>
      </trkpt>
      <trkpt lat="48.02669" lon="-4.64069">
        <ele>5.821</ele>
        <time>2016-04-29T22:49:02Z</time>
      </trkpt>
      <trkpt lat="48.02635" lon="-4.64129">
        <ele>5.749</ele>
        <time>2016-04-29T22:48:42Z</time>
      </trkpt>
      <trkpt lat="48.02595" lon="-4.64121">
        <ele>5.043</ele>
        <time>2016-04-29T22:48:22Z</time>
      </trkpt>
      <trkpt lat="48.02509" lon="-4.6425">
        <ele>19.208</ele>
        <time>2016-04-29T22:48:02Z</time>
      </trkpt>
      <trkpt lat="48.02441" lon="-4.64316">
        <ele>25.014</ele>
        <time>2016-04-29T22:47:42Z</time>
      </trkpt>
      <trkpt lat="48.02382" lon="-4.64348">
        <ele>17.113</ele>
        <time>2016-04-29T22:47:22Z</time>
      </trkpt>
      <trkpt lat="48.02411" lon="-4.64406">
        <ele>30.372</ele>
        <time>2016-04-29T22:47:02Z</time>
      </trkpt>
      <trkpt lat="48.02401" lon="-4.64445">
        <ele>30.796</ele>
        <time>2016-04-29T22:46:42Z</time>
      </trkpt>
      <trkpt lat="48.02402" lon="-4.64848">
        <ele>16.896</ele>
        <time>2016-04-29T22:46:22Z</time>
      </trkpt>
      <trkpt lat="48.02371" lon="-4.65003">
        <ele>8.182</ele>
        <time>2016-04-29T22:46:02Z</time>
      </trkpt>
      <trkpt lat="48.02325" lon="-4.65067">
        <ele>15.678</ele>
        <time>2016-04-29T22:45:42Z</time>
      </trkpt>
      <trkpt lat="48.02227" lon="-4.65061">
        <ele>7.816</ele>
        <time>2016-04-29T22:45:22Z</time>
      </trkpt>
      <trkpt lat="48.02223" lon="-4.6523">
        <ele>8.279</ele>
        <time>2016-04-29T22:45:02Z</time>
      </trkpt>
      <trkpt lat="48.02252" lon="-4.65327">
        <ele>13.597</ele>
        <time>2016-04-29T22:44:42Z</time>
      </trkpt>
      <trkpt lat="48.02227" lon="-4.6546">
        <ele>11.581</ele>
        <time>2016-04-29T22:44:22Z</time>
      </trkpt>
      <trkpt lat="48.0224" lon="-4.65552">
        <ele>11.508</ele>
        <time>2016-04-29T22:44:02Z</time>
      </trkpt>
      <trkpt lat="48.02286" lon="-4.65627">
        <ele>14.911</ele>
        <time>2016-04-29T22:43:42Z</time>
      </trkpt>
      <trkpt lat="48.02356" lon="-4.65676">
        <ele>18.356</ele>
        <time>2016-04-29T22:43:22Z</time>
      </trkpt>
      <trkpt lat="48.02391" lon="-4.65775">
        <ele>15.154</ele>
        <time>2016-04-29T22:43:02Z</time>
      </trkpt>
      <trkpt lat="48.02422" lon="-4.65925">
        <ele>22.512</ele>
        <time>2016-04-29T22:42:42Z</time>
      </trkpt>
      <trkpt lat="48.02435" lon="-4.65996">
        <ele>23.262</ele>
        <time>2016-04-29T22:42:22Z</time>
      </trkpt>
      <trkpt lat="48.02481" lon="-4.66155">
        <ele>16.368</ele>
        <time>2016-04-29T22:42:02Z</time>
      </trkpt>
      <trkpt lat="48.02529" lon="-4.6626">
        <ele>12.214</ele>
        <time>2016-04-29T22:41:42Z</time>
      </trkpt>
      <trkpt lat="48.02616" lon="-4.66213">
        <ele>27.212</ele>
        <time>2016-04-29T22:41:22Z</time>
      </trkpt>
      <trkpt lat="48.02711" lon="-4.66382">
        <ele>19.145</ele>
        <time>2016-04-29T22:41:02Z</time>
      </trkpt>
      <trkpt lat="48.02681" lon="-4.66546">
        <ele>15.183</ele>
        <time>2016-04-29T22:40:42Z</time>
      </trkpt>
      <trkpt lat="48.02625" lon="-4.66644">
        <ele>8.187</ele>
        <time>2016-04-29T22:40:22Z</time>
      </trkpt>
      <trkpt lat="48.02619" lon="-4.66794">
        <ele>12.708</ele>
        <time>2016-04-29T22:40:02Z</time>
      </trkpt>
      <trkpt lat="48.02652" lon="-4.66906">
        <ele>16.503</ele>
        <time>2016-04-29T22:39:42Z</time>
      </trkpt>
      <trkpt lat="48.02643" lon="-4.66962">
        <ele>16.221</ele>
        <time>2016-04-29T22:39:22Z</time>
      </trkpt>
      <trkpt lat="48.02748" lon="-4.67357">
        <ele>33.411</ele>
        <time>2016-04-29T22:39:02Z</time>
      </trkpt>
      <trkpt lat="48.02784" lon="-4.67404">
        <ele>29.786</ele>
        <time>2016-04-29T22:38:42Z</time>
      </trkpt>
      <trkpt lat="48.02793" lon="-4.67463">
        <ele>25.716</ele>
        <time>2020-12-18T21:07:03Z</time>
      </trkpt>
      <trkpt lat="48.02818" lon="-4.67531">
        <ele>31.372</ele>
        <time>2020-12-18T21:06:43Z</time>
      </trkpt>
      <trkpt lat="48.02824" lon="-4.67586">
        <ele>40.738</ele>
        <time>2020-12-18T21:06:23Z</time>
      </trkpt>
      <trkpt lat="48.02775" lon="-4.67572">
        <ele>22.616</ele>
        <time>2020-12-18T21:06:03Z</time>
      </trkpt>
      <trkpt lat="48.02727" lon="-4.67685">
        <ele>21.899</ele>
        <time>2016-04-29T22:38:02Z</time>
      </trkpt>
      <trkpt lat="48.02738" lon="-4.67818">
        <ele>20.947</ele>
        <time>2016-04-29T22:37:42Z</time>
      </trkpt>
      <trkpt lat="48.02783" lon="-4.67945">
        <ele>42.681</ele>
        <time>2016-04-29T22:37:22Z</time>
      </trkpt>
      <trkpt lat="48.02771" lon="-4.68058">
        <ele>43.008</ele>
        <time>2016-04-29T22:37:02Z</time>
      </trkpt>
      <trkpt lat="48.02778" lon="-4.68196">
        <ele>42.014</ele>
        <time>2016-04-29T22:36:42Z</time>
      </trkpt>
      <trkpt lat="48.02745" lon="-4.68337">
        <ele>15.304</ele>
        <time>2016-04-29T22:36:22Z</time>
      </trkpt>
      <trkpt lat="48.02718" lon="-4.68399">
        <ele>8.553</ele>
        <time>2016-04-29T22:36:02Z</time>
      </trkpt>
      <trkpt lat="48.02715" lon="-4.68466">
        <ele>11.984</ele>
        <time>2016-04-29T22:35:42Z</time>
      </trkpt>
      <trkpt lat="48.02755" lon="-4.68635">
        <ele>26.934</ele>
        <time>2016-04-29T22:35:22Z</time>
      </trkpt>
      <trkpt lat="48.02731" lon="-4.68732">
        <ele>27.02</ele>
        <time>2016-04-29T22:35:02Z</time>
      </trkpt>
      <trkpt lat="48.02728" lon="-4.68865">
        <ele>32.836</ele>
        <time>2016-04-29T22:34:42Z</time>
      </trkpt>
      <trkpt lat="48.02715" lon="-4.68914">
        <ele>27.824</ele>
        <time>2016-04-29T22:34:22Z</time>
      </trkpt>
      <trkpt lat="48.02709" lon="-4.6897">
        <ele>25.887</ele>
        <time>2016-04-29T22:34:02Z</time>
      </trkpt>
      <trkpt lat="48.0275" lon="-4.69047">
        <ele>33.065</ele>
        <time>2016-04-29T22:33:42Z</time>
      </trkpt>
      <trkpt lat="48.02783" lon="-4.6914">
        <ele>32.219</ele>
        <time>2016-04-29T22:33:22Z</time>
      </trkpt>
      <trkpt lat="48.02807" lon="-4.69247">
        <ele>18.108</ele>
        <time>2016-04-29T22:33:02Z</time>
      </trkpt>
      <trkpt lat="48.02834" lon="-4.69299">
        <ele>19.718</ele>
        <time>2016-04-29T22:32:42Z</time>
      </trkpt>
      <trkpt lat="48.0288" lon="-4.69414">
        <ele>28.017</ele>
        <time>2016-04-29T22:32:22Z</time>
      </trkpt>
      <trkpt lat="48.02877" lon="-4.69537">
        <ele>15.136</ele>
        <time>2016-04-29T22:32:02Z</time>
      </trkpt>
      <trkpt lat="48.02892" lon="-4.69625">
        <ele>30.68</ele>
        <time>2016-04-29T22:31:42Z</time>
      </trkpt>
      <trkpt lat="48.02859" lon="-4.69631">
        <ele>28.48</ele>
        <time>2016-04-29T22:31:22Z</time>
      </trkpt>
      <trkpt lat="48.02806" lon="-4.69612">
        <ele>19.236</ele>
        <time>2016-04-29T22:31:02Z</time>
      </trkpt>
      <trkpt lat="48.02775" lon="-4.69614">
        <ele>19.672</ele>
        <time>2016-04-29T22:30:42Z</time>
      </trkpt>
      <trkpt lat="48.0274" lon="-4.69588">
        <ele>11.55</ele>
        <time>2016-04-29T22:30:22Z</time>
      </trkpt>
      <trkpt lat="48.02708" lon="-4.69588">
        <ele>7.693</ele>
        <time>2016-04-29T22:30:02Z</time>
      </trkpt>
      <trkpt lat="48.02702" lon="-4.69687">
        <ele>21.261</ele>
        <time>2016-04-29T22:29:42Z</time>
      </trkpt>
      <trkpt lat="48.02646" lon="-4.69673">
        <ele>10.445</ele>
        <time>2020-12-18T20:57:03Z</time>
      </trkpt>
      <trkpt lat="48.02635" lon="-4.69683">
        <ele>10.608</ele>
        <time>2016-04-29T22:29:22Z</time>
      </trkpt>
      <trkpt lat="48.02642" lon="-4.69745">
        <ele>14.726</ele>
        <time>2016-04-29T22:29:02Z</time>
      </trkpt>
      <trkpt lat="48.02705" lon="-4.69844">
        <ele>20.515</ele>
        <time>2016-04-29T22:28:42Z</time>
      </trkpt>
      <trkpt lat="48.02811" lon="-4.69908">
        <ele>34.998</ele>
        <time>2016-04-29T22:28:22Z</time>
      </trkpt>
      <trkpt lat="48.02867" lon="-4.69994">
        <ele>37.769</ele>
        <time>2016-04-29T22:28:02Z</time>
      </trkpt>
      <trkpt lat="48.02939" lon="-4.70144">
        <ele>32.879</ele>
        <time>2016-04-29T22:27:42Z</time>
      </trkpt>
      <trkpt lat="48.03037" lon="-4.70303">
        <ele>46.585</ele>
        <time>2016-04-29T22:27:22Z</time>
      </trkpt>
      <trkpt lat="48.03065" lon="-4.70406">
        <ele>37.131</ele>
        <time>2016-04-29T22:27:02Z</time>
      </trkpt>
      <trkpt lat="48.03075" lon="-4.70502">
        <ele>33.469</ele>
        <time>2016-04-29T22:26:42Z</time>
      </trkpt>
      <trkpt lat="48.03199" lon="-4.70689">
        <ele>36.492</ele>
        <time>2016-04-29T22:26:22Z</time>
      </trkpt>
      <trkpt lat="48.03213" lon="-4.70781">
        <ele>33.82</ele>
        <time>2016-04-29T22:26:02Z</time>
      </trkpt>
      <trkpt lat="48.03216" lon="-4.70897">
        <ele>19.184</ele>
        <time>2016-04-29T22:25:42Z</time>
      </trkpt>
      <trkpt lat="48.03265" lon="-4.70925">
        <ele>34.208</ele>
        <time>2016-04-29T22:25:22Z</time>
      </trkpt>
      <trkpt lat="48.03319" lon="-4.70987">
        <ele>26.217</ele>
        <time>2016-04-29T22:25:02Z</time>
      </trkpt>
      <trkpt lat="48.03345" lon="-4.71041">
        <ele>21.025</ele>
        <time>2016-04-29T22:24:42Z</time>
      </trkpt>
      <trkpt lat="48.03359" lon="-4.71095">
        <ele>13.783</ele>
        <time>2016-04-29T22:24:22Z</time>
      </trkpt>
      <trkpt lat="48.03427" lon="-4.71176">
        <ele>9.577</ele>
        <time>2016-04-29T22:24:02Z</time>
      </trkpt>
      <trkpt lat="48.03456" lon="-4.71247">
        <ele>13.067</ele>
        <time>2016-04-29T22:23:42Z</time>
      </trkpt>
      <trkpt lat="48.03444" lon="-4.71262">
        <ele>12.373</ele>
        <time>2016-04-29T22:23:22Z</time>
      </trkpt>
      <trkpt lat="48.03405" lon="-4.71266">
        <ele>11.579</ele>
        <time>2016-04-29T22:23:02Z</time>
      </trkpt>
      <trkpt lat="48.03384" lon="-4.71243">
        <ele>7.177</ele>
        <time>2016-04-29T22:22:42Z</time>
      </trkpt>
      <trkpt lat="48.03342" lon="-4.71279">
        <ele>9.09</ele>
        <time>2016-04-29T22:22:22Z</time>
      </trkpt>
      <trkpt lat="48.03369" lon="-4.71298">
        <ele>11.878</ele>
        <time>2016-04-29T22:22:02Z</time>
      </trkpt>
      <trkpt lat="48.03398" lon="-4.71367">
        <ele>19.322</ele>
        <time>2016-04-29T22:21:42Z</time>
      </trkpt>
      <trkpt lat="48.03417" lon="-4.71472">
        <ele>24.008</ele>
        <time>2016-04-29T22:21:22Z</time>
      </trkpt>
      <trkpt lat="48.03382" lon="-4.71504">
        <ele>18.016</ele>
        <time>2016-04-29T22:21:02Z</time>
      </trkpt>
      <trkpt lat="48.03354" lon="-4.7159">
        <ele>18.606</ele>
        <time>2016-04-29T22:20:42Z</time>
      </trkpt>
      <trkpt lat="48.03345" lon="-4.71648">
        <ele>21.264</ele>
        <time>2016-04-29T22:20:22Z</time>
      </trkpt>
      <trkpt lat="48.03382" lon="-4.71678">
        <ele>35.45</ele>
        <time>2016-04-29T22:20:02Z</time>
      </trkpt>
      <trkpt lat="48.03405" lon="-4.71736">
        <ele>40.34</ele>
        <time>2016-04-29T22:19:42Z</time>
      </trkpt>
      <trkpt lat="48.0339" lon="-4.71775">
        <ele>32.536</ele>
        <time>2016-04-29T22:19:22Z</time>
      </trkpt>
      <trkpt lat="48.03391" lon="-4.71816">
        <ele>28.412</ele>
        <time>2016-04-29T22:19:02Z</time>
      </trkpt>
      <trkpt lat="48.0342" lon="-4.7191">
        <ele>25.19</ele>
        <time>2016-04-29T22:18:42Z</time>
      </trkpt>
      <trkpt lat="48.03411" lon="-4.71955">
        <ele>20.583</ele>
        <time>2016-04-29T22:18:22Z</time>
      </trkpt>
      <trkpt lat="48.03391" lon="-4.71961">
        <ele>12.331</ele>
        <time>2016-04-29T22:18:02Z</time>
      </trkpt>
      <trkpt lat="48.03384" lon="-4.72">
        <ele>10.745</ele>
        <time>2016-04-29T22:17:42Z</time>
      </trkpt>
      <trkpt lat="48.03435" lon="-4.7206">
        <ele>31.908</ele>
        <time>2016-04-29T22:17:22Z</time>
      </trkpt>
      <trkpt lat="48.03423" lon="-4.72125">
        <ele>25.322</ele>
        <time>2016-04-29T22:17:02Z</time>
      </trkpt>
      <trkpt lat="48.03438" lon="-4.72221">
        <ele>30.757</ele>
        <time>2016-04-29T22:16:42Z</time>
      </trkpt>
      <trkpt lat="48.03388" lon="-4.7238">
        <ele>34.194</ele>
        <time>2016-04-29T22:16:22Z</time>
      </trkpt>
      <trkpt lat="48.03341" lon="-4.72427">
        <ele>23.973</ele>
        <time>2016-04-29T22:16:02Z</time>
      </trkpt>
      <trkpt lat="48.03336" lon="-4.72547">
        <ele>32.343</ele>
        <time>2016-04-29T22:15:42Z</time>
      </trkpt>
      <trkpt lat="48.03367" lon="-4.7265">
        <ele>29.019</ele>
        <time>2016-04-29T22:15:22Z</time>
      </trkpt>
      <trkpt lat="48.03489" lon="-4.72723">
        <ele>43.975</ele>
        <time>2016-04-29T22:15:02Z</time>
      </trkpt>
      <trkpt lat="48.03599" lon="-4.72815">
        <ele>53.863</ele>
        <time>2016-04-29T22:14:42Z</time>
      </trkpt>
      <trkpt lat="48.03674" lon="-4.72974">
        <ele>55.886</ele>
        <time>2016-04-29T22:14:22Z</time>
      </trkpt>
      <trkpt lat="48.03725" lon="-4.73036">
        <ele>58.054</ele>
        <time>2016-04-29T22:14:02Z</time>
      </trkpt>
      <trkpt lat="48.0377" lon="-4.73129">
        <ele>57.848</ele>
        <time>2016-04-29T22:13:42Z</time>
      </trkpt>
      <trkpt lat="48.03864" lon="-4.73313">
        <ele>60.008</ele>
        <time>2016-04-29T22:13:22Z</time>
      </trkpt>
      <trkpt lat="48.03899" lon="-4.73332">
        <ele>63.92</ele>
        <time>2020-12-18T20:40:23Z</time>
      </trkpt>
      <trkpt lat="48.0391" lon="-4.73472">
        <ele>47.8</ele>
        <time>2016-04-29T22:12:42Z</time>
      </trkpt>
      <trkpt lat="48.03953" lon="-4.73597">
        <ele>41.429</ele>
        <time>2016-04-29T22:12:22Z</time>
      </trkpt>
      <trkpt lat="48.03985" lon="-4.73566">
        <ele>45.234</ele>
        <time>2016-04-29T22:12:02Z</time>
      </trkpt>
      <trkpt lat="48.03952" lon="-4.73433">
        <ele>55.954</ele>
        <time>2016-04-29T22:11:42Z</time>
      </trkpt>
      <trkpt lat="48.03986" lon="-4.73358">
        <ele>61.12</ele>
        <time>2016-04-29T22:11:22Z</time>
      </trkpt>
      <trkpt lat="48.03986" lon="-4.73311">
        <ele>62.076</ele>
        <time>2016-04-29T22:11:02Z</time>
      </trkpt>
      <trkpt lat="48.04004" lon="-4.73257">
        <ele>59.674</ele>
        <time>2016-04-29T22:10:42Z</time>
      </trkpt>
      <trkpt lat="48.04004" lon="-4.73202">
        <ele>60.577</ele>
        <time>2016-04-29T22:10:22Z</time>
      </trkpt>
      <trkpt lat="48.03952" lon="-4.7309">
        <ele>65.565</ele>
        <time>2016-04-29T22:10:02Z</time>
      </trkpt>
      <trkpt lat="48.03986" lon="-4.73024">
        <ele>60.379</ele>
        <time>2016-04-29T22:09:42Z</time>
      </trkpt>
      <trkpt lat="48.04001" lon="-4.72974">
        <ele>57.808</ele>
        <time>2016-04-29T22:09:22Z</time>
      </trkpt>
      <trkpt lat="48.03988" lon="-4.7294">
        <ele>59.81</ele>
        <time>2016-04-29T22:09:02Z</time>
      </trkpt>
      <trkpt lat="48.04001" lon="-4.72706">
        <ele>57.555</ele>
        <time>2016-04-29T22:08:42Z</time>
      </trkpt>
      <trkpt lat="48.03998" lon="-4.72474">
        <ele>64.134</ele>
        <time>2020-12-18T20:35:43Z</time>
      </trkpt>
      <trkpt lat="48.04045" lon="-4.72346">
        <ele>50.772</ele>
        <time>2016-04-29T22:07:42Z</time>
      </trkpt>
      <trkpt lat="48.04054" lon="-4.72225">
        <ele>50.532</ele>
        <time>2016-04-29T22:07:22Z</time>
      </trkpt>
      <trkpt lat="48.04032" lon="-4.7218">
        <ele>56.248</ele>
        <time>2016-04-29T22:07:02Z</time>
      </trkpt>
      <trkpt lat="48.04017" lon="-4.72109">
        <ele>54.994</ele>
        <time>2016-04-29T22:06:42Z</time>
      </trkpt>
      <trkpt lat="48.04022" lon="-4.72028">
        <ele>50.072</ele>
        <time>2016-04-29T22:06:22Z</time>
      </trkpt>
      <trkpt lat="48.04045" lon="-4.72">
        <ele>46.665</ele>
        <time>2016-04-29T22:06:02Z</time>
      </trkpt>
      <trkpt lat="48.04091" lon="-4.71989">
        <ele>33.083</ele>
        <time>2016-04-29T22:05:42Z</time>
      </trkpt>
      <trkpt lat="48.04128" lon="-4.7197">
        <ele>26.667</ele>
        <time>2016-04-29T22:05:22Z</time>
      </trkpt>
      <trkpt lat="48.04173" lon="-4.71961">
        <ele>8.308</ele>
        <time>2016-04-29T22:05:02Z</time>
      </trkpt>
      <trkpt lat="48.04176" lon="-4.71846">
        <ele>22.413</ele>
        <time>2016-04-29T22:04:42Z</time>
      </trkpt>
      <trkpt lat="48.0412" lon="-4.71682">
        <ele>35.676</ele>
        <time>2016-04-29T22:04:22Z</time>
      </trkpt>
      <trkpt lat="48.04113" lon="-4.71573">
        <ele>33.516</ele>
        <time>2016-04-29T22:04:02Z</time>
      </trkpt>
      <trkpt lat="48.04127" lon="-4.71526">
        <ele>22.05</ele>
        <time>2016-04-29T22:03:42Z</time>
      </trkpt>
      <trkpt lat="48.04108" lon="-4.71457">
        <ele>29.92</ele>
        <time>2016-04-29T22:03:22Z</time>
      </trkpt>
      <trkpt lat="48.04127" lon="-4.71386">
        <ele>25.436</ele>
        <time>2016-04-29T22:03:02Z</time>
      </trkpt>
      <trkpt lat="48.04131" lon="-4.71294">
        <ele>39.532</ele>
        <time>2016-04-29T22:02:42Z</time>
      </trkpt>
      <trkpt lat="48.04169" lon="-4.71228">
        <ele>37.03</ele>
        <time>2016-04-29T22:02:22Z</time>
      </trkpt>
      <trkpt lat="48.04184" lon="-4.7117">
        <ele>46.163</ele>
        <time>2016-04-29T22:02:02Z</time>
      </trkpt>
      <trkpt lat="48.04225" lon="-4.71152">
        <ele>32.481</ele>
        <time>2016-04-29T22:01:42Z</time>
      </trkpt>
      <trkpt lat="48.04255" lon="-4.7112">
        <ele>27.215</ele>
        <time>2016-04-29T22:01:22Z</time>
      </trkpt>
      <trkpt lat="48.04269" lon="-4.71052">
        <ele>38.408</ele>
        <time>2016-04-29T22:01:02Z</time>
      </trkpt>
      <trkpt lat="48.04272" lon="-4.70981">
        <ele>51.826</ele>
        <time>2016-04-29T22:00:42Z</time>
      </trkpt>
      <trkpt lat="48.04308" lon="-4.70927">
        <ele>42.515</ele>
        <time>2016-04-29T22:00:22Z</time>
      </trkpt>
      <trkpt lat="48.04325" lon="-4.70865">
        <ele>42.398</ele>
        <time>2016-04-29T22:00:02Z</time>
      </trkpt>
      <trkpt lat="48.04367" lon="-4.70807">
        <ele>32.772</ele>
        <time>2016-04-29T21:59:42Z</time>
      </trkpt>
      <trkpt lat="48.04392" lon="-4.70723">
        <ele>35.162</ele>
        <time>2016-04-29T21:59:22Z</time>
      </trkpt>
      <trkpt lat="48.04457" lon="-4.70678">
        <ele>16.868</ele>
        <time>2016-04-29T21:59:02Z</time>
      </trkpt>
      <trkpt lat="48.0452" lon="-4.70586">
        <ele>5.724</ele>
        <time>2016-04-29T21:58:42Z</time>
      </trkpt>
      <trkpt lat="48.0457" lon="-4.70552">
        <ele>5.532</ele>
        <time>2016-04-29T21:58:22Z</time>
      </trkpt>
      <trkpt lat="48.04569" lon="-4.70485">
        <ele>6.545</ele>
        <time>2016-04-29T21:58:02Z</time>
      </trkpt>
      <trkpt lat="48.04721" lon="-4.70451">
        <ele>6.253</ele>
        <time>2016-04-29T21:57:42Z</time>
      </trkpt>
      <trkpt lat="48.0474" lon="-4.70485">
        <ele>7.657</ele>
        <time>2016-04-29T21:57:22Z</time>
      </trkpt>
      <trkpt lat="48.04833" lon="-4.70511">
        <ele>8.808</ele>
        <time>2016-04-29T21:57:02Z</time>
      </trkpt>
      <trkpt lat="48.04963" lon="-4.70481">
        <ele>19.513</ele>
        <time>2016-04-29T21:56:42Z</time>
      </trkpt>
      <trkpt lat="48.04969" lon="-4.70509">
        <ele>17.276</ele>
        <time>2016-04-29T21:56:22Z</time>
      </trkpt>
      <trkpt lat="48.04962" lon="-4.70552">
        <ele>13.416</ele>
        <time>2016-04-29T21:56:02Z</time>
      </trkpt>
      <trkpt lat="48.04971" lon="-4.70588">
        <ele>12.589</ele>
        <time>2016-04-29T21:55:42Z</time>
      </trkpt>
      <trkpt lat="48.05001" lon="-4.70622">
        <ele>20.059</ele>
        <time>2016-04-29T21:55:22Z</time>
      </trkpt>
      <trkpt lat="48.05037" lon="-4.70708">
        <ele>26.975</ele>
        <time>2016-04-29T21:55:02Z</time>
      </trkpt>
      <trkpt lat="48.05037" lon="-4.70776">
        <ele>21.351</ele>
        <time>2020-12-18T20:22:23Z</time>
      </trkpt>
      <trkpt lat="48.05086" lon="-4.70847">
        <ele>29.769</ele>
        <time>2020-12-18T20:22:03Z</time>
      </trkpt>
      <trkpt lat="48.05146" lon="-4.7101">
        <ele>15.092</ele>
        <time>2020-12-18T20:21:43Z</time>
      </trkpt>
      <trkpt lat="48.05154" lon="-4.70948">
        <ele>27.25</ele>
        <time>2020-12-18T20:21:23Z</time>
      </trkpt>
      <trkpt lat="48.05192" lon="-4.70911">
        <ele>36.514</ele>
        <time>2020-12-18T20:21:03Z</time>
      </trkpt>
      <trkpt lat="48.05219" lon="-4.70852">
        <ele>42.608</ele>
        <time>2020-12-18T20:20:43Z</time>
      </trkpt>
      <trkpt lat="48.05285" lon="-4.70876">
        <ele>36.326</ele>
        <time>2016-04-29T21:54:02Z</time>
      </trkpt>
      <trkpt lat="48.05338" lon="-4.70996">
        <ele>25.006</ele>
        <time>2016-04-29T21:53:42Z</time>
      </trkpt>
      <trkpt lat="48.05336" lon="-4.71208">
        <ele>15.389</ele>
        <time>2016-04-29T21:53:22Z</time>
      </trkpt>
      <trkpt lat="48.05355" lon="-4.71277">
        <ele>18.93</ele>
        <time>2016-04-29T21:53:02Z</time>
      </trkpt>
      <trkpt lat="48.05371" lon="-4.71301">
        <ele>18.28</ele>
        <time>2016-04-29T21:52:42Z</time>
      </trkpt>
      <trkpt lat="48.05488" lon="-4.71089">
        <ele>33.176</ele>
        <time>2020-12-18T20:18:43Z</time>
      </trkpt>
      <trkpt lat="48.05511" lon="-4.71027">
        <ele>33.242</ele>
        <time>2020-12-18T20:18:23Z</time>
      </trkpt>
      <trkpt lat="48.05528" lon="-4.7104">
        <ele>27.39</ele>
        <time>2020-12-18T20:18:03Z</time>
      </trkpt>
      <trkpt lat="48.0555" lon="-4.71016">
        <ele>30.253</ele>
        <time>2020-12-18T20:17:43Z</time>
      </trkpt>
      <trkpt lat="48.05538" lon="-4.70898">
        <ele>40.881</ele>
        <time>2020-12-18T20:17:23Z</time>
      </trkpt>
      <trkpt lat="48.05568" lon="-4.70764">
        <ele>49.495</ele>
        <time>2020-12-18T20:17:03Z</time>
      </trkpt>
      <trkpt lat="48.05592" lon="-4.70714">
        <ele>53.408</ele>
        <time>2020-12-18T20:16:43Z</time>
      </trkpt>
      <trkpt lat="48.05612" lon="-4.70635">
        <ele>57.32</ele>
        <time>2020-12-18T20:16:23Z</time>
      </trkpt>
      <trkpt lat="48.05612" lon="-4.70697">
        <ele>56.073</ele>
        <time>2020-12-18T20:16:03Z</time>
      </trkpt>
      <trkpt lat="48.05581" lon="-4.70794">
        <ele>49.792</ele>
        <time>2020-12-18T20:15:43Z</time>
      </trkpt>
      <trkpt lat="48.05636" lon="-4.70947">
        <ele>52.685</ele>
        <time>2020-12-18T20:15:23Z</time>
      </trkpt>
      <trkpt lat="48.05631" lon="-4.70992">
        <ele>50.765</ele>
        <time>2020-12-18T20:15:03Z</time>
      </trkpt>
      <trkpt lat="48.05749" lon="-4.71091">
        <ele>52.341</ele>
        <time>2020-12-18T20:14:43Z</time>
      </trkpt>
      <trkpt lat="48.05734" lon="-4.71176">
        <ele>47.047</ele>
        <time>2020-12-18T20:14:23Z</time>
      </trkpt>
      <trkpt lat="48.05757" lon="-4.71302">
        <ele>23.035</ele>
        <time>2020-12-18T20:14:03Z</time>
      </trkpt>
      <trkpt lat="48.05785" lon="-4.71337">
        <ele>15.478</ele>
        <time>2016-04-29T21:50:22Z</time>
      </trkpt>
      <trkpt lat="48.05823" lon="-4.71292">
        <ele>35.396</ele>
        <time>2016-04-29T21:50:02Z</time>
      </trkpt>
      <trkpt lat="48.05859" lon="-4.71276">
        <ele>42.49</ele>
        <time>2020-12-18T20:13:03Z</time>
      </trkpt>
      <trkpt lat="48.0589" lon="-4.7122">
        <ele>49.008</ele>
        <time>2020-12-18T20:12:43Z</time>
      </trkpt>
      <trkpt lat="48.05911" lon="-4.71165">
        <ele>51.116</ele>
        <time>2020-12-18T20:12:23Z</time>
      </trkpt>
      <trkpt lat="48.05977" lon="-4.71191">
        <ele>45.988</ele>
        <time>2016-04-29T21:49:02Z</time>
      </trkpt>
      <trkpt lat="48.0603" lon="-4.71204">
        <ele>44.246</ele>
        <time>2016-04-29T21:48:42Z</time>
      </trkpt>
      <trkpt lat="48.06088" lon="-4.71318">
        <ele>34.954</ele>
        <time>2016-04-29T21:48:22Z</time>
      </trkpt>
      <trkpt lat="48.06169" lon="-4.7143">
        <ele>38.654</ele>
        <time>2020-12-18T20:11:03Z</time>
      </trkpt>
      <trkpt lat="48.06232" lon="-4.71427">
        <ele>50.42</ele>
        <time>2020-12-18T20:10:43Z</time>
      </trkpt>
      <trkpt lat="48.06264" lon="-4.71408">
        <ele>53.336</ele>
        <time>2020-12-18T20:10:23Z</time>
      </trkpt>
      <trkpt lat="48.0632" lon="-4.71448">
        <ele>50.434</ele>
        <time>2020-12-18T20:10:03Z</time>
      </trkpt>
      <trkpt lat="48.06349" lon="-4.71378">
        <ele>52.447</ele>
        <time>2016-04-29T21:46:42Z</time>
      </trkpt>
      <trkpt lat="48.0639" lon="-4.71165">
        <ele>51.445</ele>
        <time>2016-04-29T21:46:22Z</time>
      </trkpt>
      <trkpt lat="48.06297" lon="-4.71045">
        <ele>54.389</ele>
        <time>2016-04-29T21:46:02Z</time>
      </trkpt>
      <trkpt lat="48.0628" lon="-4.71004">
        <ele>51.908</ele>
        <time>2016-04-29T21:45:42Z</time>
      </trkpt>
      <trkpt lat="48.06253" lon="-4.70962">
        <ele>54.417</ele>
        <time>2016-04-29T21:45:22Z</time>
      </trkpt>
      <trkpt lat="48.06253" lon="-4.70859">
        <ele>55.67</ele>
        <time>2016-04-29T21:45:02Z</time>
      </trkpt>
      <trkpt lat="48.06248" lon="-4.7071">
        <ele>58.638</ele>
        <time>2016-04-29T21:44:42Z</time>
      </trkpt>
      <trkpt lat="48.06228" lon="-4.7058">
        <ele>56.783</ele>
        <time>2016-04-29T21:44:22Z</time>
      </trkpt>
      <trkpt lat="48.06201" lon="-4.70481">
        <ele>57.493</ele>
        <time>2016-04-29T21:44:02Z</time>
      </trkpt>
      <trkpt lat="48.06161" lon="-4.70399">
        <ele>62.829</ele>
        <time>2016-04-29T21:43:42Z</time>
      </trkpt>
      <trkpt lat="48.06134" lon="-4.70294">
        <ele>65.285</ele>
        <time>2016-04-29T21:43:22Z</time>
      </trkpt>
      <trkpt lat="48.06127" lon="-4.70223">
        <ele>63.693</ele>
        <time>2016-04-29T21:43:02Z</time>
      </trkpt>
      <trkpt lat="48.06144" lon="-4.70165">
        <ele>57.316</ele>
        <time>2016-04-29T21:42:42Z</time>
      </trkpt>
      <trkpt lat="48.06134" lon="-4.70138">
        <ele>62.954</ele>
        <time>2016-04-29T21:42:22Z</time>
      </trkpt>
      <trkpt lat="48.06175" lon="-4.69996">
        <ele>47.768</ele>
        <time>2016-04-29T21:42:02Z</time>
      </trkpt>
      <trkpt lat="48.06161" lon="-4.69953">
        <ele>52.708</ele>
        <time>2016-04-29T21:41:42Z</time>
      </trkpt>
      <trkpt lat="48.06179" lon="-4.69903">
        <ele>37.408</ele>
        <time>2020-12-18T20:04:23Z</time>
      </trkpt>
      <trkpt lat="48.0616" lon="-4.69869">
        <ele>39.526</ele>
        <time>2016-04-29T21:41:02Z</time>
      </trkpt>
      <trkpt lat="48.06121" lon="-4.69871">
        <ele>50.325</ele>
        <time>2016-04-29T21:40:42Z</time>
      </trkpt>
      <trkpt lat="48.06114" lon="-4.6982">
        <ele>43.222</ele>
        <time>2016-04-29T21:40:22Z</time>
      </trkpt>
      <trkpt lat="48.06088" lon="-4.69792">
        <ele>46.582</ele>
        <time>2016-04-29T21:40:02Z</time>
      </trkpt>
      <trkpt lat="48.06079" lon="-4.6976">
        <ele>46.478</ele>
        <time>2016-04-29T21:39:42Z</time>
      </trkpt>
      <trkpt lat="48.06091" lon="-4.697">
        <ele>27.824</ele>
        <time>2016-04-29T21:39:22Z</time>
      </trkpt>
      <trkpt lat="48.06084" lon="-4.69655">
        <ele>21.872</ele>
        <time>2016-04-29T21:39:02Z</time>
      </trkpt>
      <trkpt lat="48.06039" lon="-4.69713">
        <ele>54.655</ele>
        <time>2016-04-29T21:38:42Z</time>
      </trkpt>
      <trkpt lat="48.06019" lon="-4.6967">
        <ele>57.873</ele>
        <time>2016-04-29T21:38:22Z</time>
      </trkpt>
      <trkpt lat="48.06013" lon="-4.69605">
        <ele>55.487</ele>
        <time>2016-04-29T21:38:02Z</time>
      </trkpt>
      <trkpt lat="48.05986" lon="-4.69537">
        <ele>62.008</ele>
        <time>2016-04-29T21:37:42Z</time>
      </trkpt>
      <trkpt lat="48.0599" lon="-4.69464">
        <ele>48.609</ele>
        <time>2016-04-29T21:37:22Z</time>
      </trkpt>
      <trkpt lat="48.05962" lon="-4.69438">
        <ele>55.854</ele>
        <time>2016-04-29T21:37:02Z</time>
      </trkpt>
      <trkpt lat="48.05927" lon="-4.69354">
        <ele>60.414</ele>
        <time>2016-04-29T21:36:42Z</time>
      </trkpt>
      <trkpt lat="48.05897" lon="-4.69324">
        <ele>64.782</ele>
        <time>2016-04-29T21:36:22Z</time>
      </trkpt>
      <trkpt lat="48.05926" lon="-4.69245">
        <ele>63.992</ele>
        <time>2016-04-29T21:36:02Z</time>
      </trkpt>
      <trkpt lat="48.05953" lon="-4.69251">
        <ele>58.718</ele>
        <time>2016-04-29T21:35:42Z</time>
      </trkpt>
      <trkpt lat="48.05976" lon="-4.69247">
        <ele>53.834</ele>
        <time>2016-04-29T21:35:22Z</time>
      </trkpt>
      <trkpt lat="48.06003" lon="-4.69266">
        <ele>44.562</ele>
        <time>2016-04-29T21:35:02Z</time>
      </trkpt>
      <trkpt lat="48.06033" lon="-4.69226">
        <ele>48.675</ele>
        <time>2016-04-29T21:34:42Z</time>
      </trkpt>
      <trkpt lat="48.06115" lon="-4.69204">
        <ele>20.073</ele>
        <time>2016-04-29T21:34:22Z</time>
      </trkpt>
      <trkpt lat="48.06081" lon="-4.69142">
        <ele>43.617</ele>
        <time>2016-04-29T21:34:02Z</time>
      </trkpt>
      <trkpt lat="48.06094" lon="-4.6912">
        <ele>39.908</ele>
        <time>2016-04-29T21:33:42Z</time>
      </trkpt>
      <trkpt lat="48.06091" lon="-4.69095">
        <ele>43.807</ele>
        <time>2016-04-29T21:33:22Z</time>
      </trkpt>
      <trkpt lat="48.06096" lon="-4.69047">
        <ele>46.443</ele>
        <time>2016-04-29T21:33:02Z</time>
      </trkpt>
      <trkpt lat="48.06073" lon="-4.68955">
        <ele>55.813</ele>
        <time>2016-04-29T21:32:42Z</time>
      </trkpt>
      <trkpt lat="48.06117" lon="-4.68927">
        <ele>52.155</ele>
        <time>2016-04-29T21:32:22Z</time>
      </trkpt>
      <trkpt lat="48.06112" lon="-4.6891">
        <ele>55.585</ele>
        <time>2016-04-29T21:32:02Z</time>
      </trkpt>
      <trkpt lat="48.06148" lon="-4.68846">
        <ele>54.431</ele>
        <time>2016-04-29T21:31:42Z</time>
      </trkpt>
      <trkpt lat="48.06139" lon="-4.68794">
        <ele>51.757</ele>
        <time>2016-04-29T21:31:22Z</time>
      </trkpt>
      <trkpt lat="48.06119" lon="-4.68773">
        <ele>54.195</ele>
        <time>2016-04-29T21:31:02Z</time>
      </trkpt>
      <trkpt lat="48.06112" lon="-4.68736">
        <ele>51.798</ele>
        <time>2016-04-29T21:30:42Z</time>
      </trkpt>
      <trkpt lat="48.06095" lon="-4.68719">
        <ele>56.846</ele>
        <time>2016-04-29T21:30:22Z</time>
      </trkpt>
      <trkpt lat="48.06084" lon="-4.68629">
        <ele>46.89</ele>
        <time>2016-04-29T21:30:02Z</time>
      </trkpt>
      <trkpt lat="48.06049" lon="-4.68605">
        <ele>55.808</ele>
        <time>2016-04-29T21:29:42Z</time>
      </trkpt>
      <trkpt lat="48.06016" lon="-4.68571">
        <ele>56.411</ele>
        <time>2016-04-29T21:29:22Z</time>
      </trkpt>
      <trkpt lat="48.05993" lon="-4.68509">
        <ele>57.647</ele>
        <time>2016-04-29T21:29:02Z</time>
      </trkpt>
      <trkpt lat="48.06065" lon="-4.68451">
        <ele>48.845</ele>
        <time>2016-04-29T21:28:42Z</time>
      </trkpt>
      <trkpt lat="48.06072" lon="-4.68342">
        <ele>53.946</ele>
        <time>2016-04-29T21:28:22Z</time>
      </trkpt>
      <trkpt lat="48.06124" lon="-4.68303">
        <ele>42.126</ele>
        <time>2016-04-29T21:28:02Z</time>
      </trkpt>
      <trkpt lat="48.06131" lon="-4.68254">
        <ele>48.632</ele>
        <time>2016-04-29T21:27:42Z</time>
      </trkpt>
      <trkpt lat="48.0617" lon="-4.68215">
        <ele>43.228</ele>
        <time>2016-04-29T21:27:22Z</time>
      </trkpt>
      <trkpt lat="48.06185" lon="-4.6811">
        <ele>36.736</ele>
        <time>2016-04-29T21:27:02Z</time>
      </trkpt>
      <trkpt lat="48.06142" lon="-4.68108">
        <ele>54.879</ele>
        <time>2016-04-29T21:26:42Z</time>
      </trkpt>
      <trkpt lat="48.06129" lon="-4.68052">
        <ele>53.287</ele>
        <time>2016-04-29T21:26:22Z</time>
      </trkpt>
      <trkpt lat="48.06091" lon="-4.67998">
        <ele>54.271</ele>
        <time>2016-04-29T21:26:02Z</time>
      </trkpt>
      <trkpt lat="48.06069" lon="-4.6794">
        <ele>49.108</ele>
        <time>2016-04-29T21:25:42Z</time>
      </trkpt>
      <trkpt lat="48.06042" lon="-4.67929">
        <ele>53.311</ele>
        <time>2020-12-18T19:48:23Z</time>
      </trkpt>
      <trkpt lat="48.06033" lon="-4.6791">
        <ele>54.356</ele>
        <time>2016-04-29T21:25:22Z</time>
      </trkpt>
      <trkpt lat="48.06055" lon="-4.67827">
        <ele>46.654</ele>
        <time>2016-04-29T21:25:02Z</time>
      </trkpt>
      <trkpt lat="48.0605" lon="-4.67768">
        <ele>49.868</ele>
        <time>2020-12-18T19:47:23Z</time>
      </trkpt>
      <trkpt lat="48.06061" lon="-4.67693">
        <ele>50.288</ele>
        <time>2016-04-29T21:24:42Z</time>
      </trkpt>
      <trkpt lat="48.06103" lon="-4.67539">
        <ele>42.694</ele>
        <time>2020-12-18T19:46:43Z</time>
      </trkpt>
      <trkpt lat="48.06142" lon="-4.67518">
        <ele>24.61</ele>
        <time>2016-04-29T21:24:02Z</time>
      </trkpt>
      <trkpt lat="48.06139" lon="-4.67481">
        <ele>27.078</ele>
        <time>2016-04-29T21:23:42Z</time>
      </trkpt>
      <trkpt lat="48.06114" lon="-4.67449">
        <ele>31.031</ele>
        <time>2016-04-29T21:23:22Z</time>
      </trkpt>
      <trkpt lat="48.06076" lon="-4.67348">
        <ele>23.099</ele>
        <time>2016-04-29T21:23:02Z</time>
      </trkpt>
      <trkpt lat="48.06059" lon="-4.67333">
        <ele>26.723</ele>
        <time>2016-04-29T21:22:42Z</time>
      </trkpt>
      <trkpt lat="48.06061" lon="-4.67301">
        <ele>22.808</ele>
        <time>2016-04-29T21:22:22Z</time>
      </trkpt>
      <trkpt lat="48.0602" lon="-4.67179">
        <ele>23.419</ele>
        <time>2016-04-29T21:22:02Z</time>
      </trkpt>
      <trkpt lat="48.06015" lon="-4.67125">
        <ele>21.49</ele>
        <time>2016-04-29T21:21:42Z</time>
      </trkpt>
      <trkpt lat="48.06036" lon="-4.67093">
        <ele>23.076</ele>
        <time>2016-04-29T21:21:22Z</time>
      </trkpt>
      <trkpt lat="48.06119" lon="-4.67138">
        <ele>18.162</ele>
        <time>2016-04-29T21:21:02Z</time>
      </trkpt>
      <trkpt lat="48.06154" lon="-4.67125">
        <ele>15.692</ele>
        <time>2016-04-29T21:20:42Z</time>
      </trkpt>
      <trkpt lat="48.062" lon="-4.66996">
        <ele>28.128</ele>
        <time>2016-04-29T21:20:22Z</time>
      </trkpt>
      <trkpt lat="48.0623" lon="-4.67007">
        <ele>25.514</ele>
        <time>2016-04-29T21:20:02Z</time>
      </trkpt>
      <trkpt lat="48.06246" lon="-4.67067">
        <ele>18.992</ele>
        <time>2016-04-29T21:19:42Z</time>
      </trkpt>
      <trkpt lat="48.06258" lon="-4.6705">
        <ele>25.575</ele>
        <time>2016-04-29T21:19:22Z</time>
      </trkpt>
      <trkpt lat="48.0628" lon="-4.67088">
        <ele>23.663</ele>
        <time>2016-04-29T21:19:02Z</time>
      </trkpt>
      <trkpt lat="48.06326" lon="-4.67076">
        <ele>39.117</ele>
        <time>2016-04-29T21:18:42Z</time>
      </trkpt>
      <trkpt lat="48.06365" lon="-4.67125">
        <ele>30.808</ele>
        <time>2016-04-29T21:18:22Z</time>
      </trkpt>
      <trkpt lat="48.06379" lon="-4.67127">
        <ele>29.205</ele>
        <time>2016-04-29T21:18:02Z</time>
      </trkpt>
      <trkpt lat="48.06395" lon="-4.6708">
        <ele>37.732</ele>
        <time>2016-04-29T21:17:42Z</time>
      </trkpt>
      <trkpt lat="48.06478" lon="-4.67003">
        <ele>45.312</ele>
        <time>2016-04-29T21:17:22Z</time>
      </trkpt>
      <trkpt lat="48.06551" lon="-4.66912">
        <ele>46.428</ele>
        <time>2016-04-29T21:17:02Z</time>
      </trkpt>
      <trkpt lat="48.06552" lon="-4.66839">
        <ele>60.738</ele>
        <time>2016-04-29T21:16:42Z</time>
      </trkpt>
      <trkpt lat="48.06574" lon="-4.66803">
        <ele>59.564</ele>
        <time>2016-04-29T21:16:22Z</time>
      </trkpt>
      <trkpt lat="48.06608" lon="-4.66805">
        <ele>53.55</ele>
        <time>2016-04-29T21:16:02Z</time>
      </trkpt>
      <trkpt lat="48.06633" lon="-4.66773">
        <ele>53.978</ele>
        <time>2016-04-29T21:15:42Z</time>
      </trkpt>
      <trkpt lat="48.06631" lon="-4.66732">
        <ele>58.331</ele>
        <time>2016-04-29T21:15:22Z</time>
      </trkpt>
      <trkpt lat="48.06671" lon="-4.66674">
        <ele>60.549</ele>
        <time>2016-04-29T21:15:02Z</time>
      </trkpt>
      <trkpt lat="48.06743" lon="-4.66704">
        <ele>57.723</ele>
        <time>2016-04-29T21:14:42Z</time>
      </trkpt>
      <trkpt lat="48.06782" lon="-4.66739">
        <ele>48.308</ele>
        <time>2016-04-29T21:14:22Z</time>
      </trkpt>
      <trkpt lat="48.06822" lon="-4.66709">
        <ele>62.714</ele>
        <time>2016-04-29T21:14:02Z</time>
      </trkpt>
      <trkpt lat="48.06852" lon="-4.66732">
        <ele>57.013</ele>
        <time>2016-04-29T21:13:42Z</time>
      </trkpt>
      <trkpt lat="48.06868" lon="-4.66779">
        <ele>40.472</ele>
        <time>2016-04-29T21:13:22Z</time>
      </trkpt>
      <trkpt lat="48.06935" lon="-4.66694">
        <ele>56.857</ele>
        <time>2016-04-29T21:13:02Z</time>
      </trkpt>
      <trkpt lat="48.0704" lon="-4.66679">
        <ele>47.287</ele>
        <time>2016-04-29T21:12:42Z</time>
      </trkpt>
      <trkpt lat="48.07053" lon="-4.66582">
        <ele>57.583</ele>
        <time>2020-12-18T19:34:43Z</time>
      </trkpt>
      <trkpt lat="48.071" lon="-4.66498">
        <ele>55.439</ele>
        <time>2016-04-29T21:12:02Z</time>
      </trkpt>
      <trkpt lat="48.07145" lon="-4.66466">
        <ele>47.157</ele>
        <time>2016-04-29T21:11:42Z</time>
      </trkpt>
      <trkpt lat="48.07146" lon="-4.66419">
        <ele>42.33</ele>
        <time>2016-04-29T21:11:22Z</time>
      </trkpt>
      <trkpt lat="48.07096" lon="-4.66412">
        <ele>50.878</ele>
        <time>2016-04-29T21:11:02Z</time>
      </trkpt>
      <trkpt lat="48.06976" lon="-4.66458">
        <ele>58.932</ele>
        <time>2020-12-18T19:33:03Z</time>
      </trkpt>
      <trkpt lat="48.06953" lon="-4.66406">
        <ele>52.608</ele>
        <time>2016-04-29T21:10:22Z</time>
      </trkpt>
      <trkpt lat="48.06895" lon="-4.66427">
        <ele>62.614</ele>
        <time>2016-04-29T21:10:02Z</time>
      </trkpt>
      <trkpt lat="48.06904" lon="-4.66385">
        <ele>53.968</ele>
        <time>2016-04-29T21:09:42Z</time>
      </trkpt>
      <trkpt lat="48.06877" lon="-4.66355">
        <ele>51.565</ele>
        <time>2016-04-29T21:09:22Z</time>
      </trkpt>
      <trkpt lat="48.06854" lon="-4.66346">
        <ele>52.178</ele>
        <time>2016-04-29T21:09:02Z</time>
      </trkpt>
      <trkpt lat="48.06785" lon="-4.66297">
        <ele>58.188</ele>
        <time>2016-04-29T21:08:42Z</time>
      </trkpt>
      <trkpt lat="48.06808" lon="-4.66052">
        <ele>55.794</ele>
        <time>2016-04-29T21:08:22Z</time>
      </trkpt>
      <trkpt lat="48.06858" lon="-4.6599">
        <ele>48.15</ele>
        <time>2016-04-29T21:08:02Z</time>
      </trkpt>
      <trkpt lat="48.06848" lon="-4.65962">
        <ele>52.338</ele>
        <time>2016-04-29T21:07:42Z</time>
      </trkpt>
      <trkpt lat="48.06848" lon="-4.65928">
        <ele>50.111</ele>
        <time>2016-04-29T21:07:22Z</time>
      </trkpt>
      <trkpt lat="48.06816" lon="-4.65902">
        <ele>55.669</ele>
        <time>2016-04-29T21:07:02Z</time>
      </trkpt>
      <trkpt lat="48.06816" lon="-4.65857">
        <ele>48.273</ele>
        <time>2016-04-29T21:06:42Z</time>
      </trkpt>
      <trkpt lat="48.06782" lon="-4.65818">
        <ele>54.208</ele>
        <time>2016-04-29T21:06:22Z</time>
      </trkpt>
      <trkpt lat="48.06758" lon="-4.65679">
        <ele>50.019</ele>
        <time>2016-04-29T21:06:02Z</time>
      </trkpt>
      <trkpt lat="48.06747" lon="-4.65659">
        <ele>50.69</ele>
        <time>2016-04-29T21:05:42Z</time>
      </trkpt>
      <trkpt lat="48.06756" lon="-4.65631">
        <ele>44.276</ele>
        <time>2016-04-29T21:05:22Z</time>
      </trkpt>
      <trkpt lat="48.06725" lon="-4.65599">
        <ele>48.626</ele>
        <time>2016-04-29T21:05:02Z</time>
      </trkpt>
      <trkpt lat="48.06716" lon="-4.65569">
        <ele>50.446</ele>
        <time>2016-04-29T21:04:42Z</time>
      </trkpt>
      <trkpt lat="48.06743" lon="-4.6555">
        <ele>46.742</ele>
        <time>2016-04-29T21:04:22Z</time>
      </trkpt>
      <trkpt lat="48.06752" lon="-4.65511">
        <ele>53.788</ele>
        <time>2016-04-29T21:04:02Z</time>
      </trkpt>
      <trkpt lat="48.06775" lon="-4.6547">
        <ele>57.196</ele>
        <time>2016-04-29T21:03:42Z</time>
      </trkpt>
      <trkpt lat="48.06834" lon="-4.65432">
        <ele>44.279</ele>
        <time>2016-04-29T21:03:22Z</time>
      </trkpt>
      <trkpt lat="48.06826" lon="-4.65348">
        <ele>55.747</ele>
        <time>2016-04-29T21:03:02Z</time>
      </trkpt>
      <trkpt lat="48.06823" lon="-4.65269">
        <ele>59.031</ele>
        <time>2016-04-29T21:02:42Z</time>
      </trkpt>
      <trkpt lat="48.06783" lon="-4.6511">
        <ele>70.508</ele>
        <time>2016-04-29T21:02:22Z</time>
      </trkpt>
      <trkpt lat="48.06795" lon="-4.65063">
        <ele>72.914</ele>
        <time>2016-04-29T21:02:02Z</time>
      </trkpt>
      <trkpt lat="48.06882" lon="-4.65061">
        <ele>60.259</ele>
        <time>2016-04-29T21:01:42Z</time>
      </trkpt>
      <trkpt lat="48.06889" lon="-4.65033">
        <ele>61.356</ele>
        <time>2016-04-29T21:01:22Z</time>
      </trkpt>
      <trkpt lat="48.06874" lon="-4.65018">
        <ele>66.166</ele>
        <time>2016-04-29T21:01:02Z</time>
      </trkpt>
      <trkpt lat="48.06855" lon="-4.64983">
        <ele>70.946</ele>
        <time>2016-04-29T21:00:42Z</time>
      </trkpt>
      <trkpt lat="48.06844" lon="-4.64895">
        <ele>68.132</ele>
        <time>2016-04-29T21:00:22Z</time>
      </trkpt>
      <trkpt lat="48.06846" lon="-4.64853">
        <ele>60.618</ele>
        <time>2016-04-29T21:00:02Z</time>
      </trkpt>
      <trkpt lat="48.06813" lon="-4.64807">
        <ele>66.266</ele>
        <time>2016-04-29T20:59:42Z</time>
      </trkpt>
      <trkpt lat="48.06809" lon="-4.64717">
        <ele>58.329</ele>
        <time>2016-04-29T20:59:22Z</time>
      </trkpt>
      <trkpt lat="48.06779" lon="-4.64625">
        <ele>49.937</ele>
        <time>2016-04-29T20:59:02Z</time>
      </trkpt>
      <trkpt lat="48.06737" lon="-4.64582">
        <ele>57.461</ele>
        <time>2016-04-29T20:58:42Z</time>
      </trkpt>
      <trkpt lat="48.06706" lon="-4.64503">
        <ele>53.608</ele>
        <time>2016-04-29T20:58:22Z</time>
      </trkpt>
      <trkpt lat="48.06683" lon="-4.64518">
        <ele>60.708</ele>
        <time>2016-04-29T20:58:02Z</time>
      </trkpt>
      <trkpt lat="48.0669" lon="-4.64486">
        <ele>57.253</ele>
        <time>2016-04-29T20:57:42Z</time>
      </trkpt>
      <trkpt lat="48.06673" lon="-4.64406">
        <ele>54.352</ele>
        <time>2016-04-29T20:57:22Z</time>
      </trkpt>
      <trkpt lat="48.06641" lon="-4.64335">
        <ele>59.183</ele>
        <time>2016-04-29T20:57:02Z</time>
      </trkpt>
      <trkpt lat="48.06634" lon="-4.64282">
        <ele>63.893</ele>
        <time>2016-04-29T20:56:42Z</time>
      </trkpt>
      <trkpt lat="48.06656" lon="-4.64241">
        <ele>57.839</ele>
        <time>2016-04-29T20:56:22Z</time>
      </trkpt>
      <trkpt lat="48.06646" lon="-4.64065">
        <ele>64.015</ele>
        <time>2016-04-29T20:56:02Z</time>
      </trkpt>
      <trkpt lat="48.06664" lon="-4.64007">
        <ele>66.333</ele>
        <time>2016-04-29T20:55:42Z</time>
      </trkpt>
      <trkpt lat="48.06696" lon="-4.63983">
        <ele>63.996</ele>
        <time>2016-04-29T20:55:22Z</time>
      </trkpt>
      <trkpt lat="48.06752" lon="-4.63898">
        <ele>57.424</ele>
        <time>2016-04-29T20:55:02Z</time>
      </trkpt>
      <trkpt lat="48.06749" lon="-4.63831">
        <ele>71.328</ele>
        <time>2016-04-29T20:54:42Z</time>
      </trkpt>
      <trkpt lat="48.06763" lon="-4.63689">
        <ele>66.908</ele>
        <time>2016-04-29T20:54:22Z</time>
      </trkpt>
      <trkpt lat="48.0673" lon="-4.63644">
        <ele>72.908</ele>
        <time>2016-04-29T20:54:02Z</time>
      </trkpt>
      <trkpt lat="48.06727" lon="-4.6352">
        <ele>68.126</ele>
        <time>2016-04-29T20:53:42Z</time>
      </trkpt>
      <trkpt lat="48.06706" lon="-4.63428">
        <ele>64.525</ele>
        <time>2016-04-29T20:53:22Z</time>
      </trkpt>
      <trkpt lat="48.06651" lon="-4.63353">
        <ele>68.642</ele>
        <time>2016-04-29T20:53:02Z</time>
      </trkpt>
      <trkpt lat="48.0665" lon="-4.6332">
        <ele>67.762</ele>
        <time>2016-04-29T20:52:42Z</time>
      </trkpt>
      <trkpt lat="48.0663" lon="-4.63261">
        <ele>70.298</ele>
        <time>2020-12-18T19:14:43Z</time>
      </trkpt>
      <trkpt lat="48.06615" lon="-4.63279">
        <ele>72.674</ele>
        <time>2020-12-18T19:14:23Z</time>
      </trkpt>
      <trkpt lat="48.06507" lon="-4.63205">
        <ele>75.882</ele>
        <time>2020-12-18T19:14:03Z</time>
      </trkpt>
      <trkpt lat="48.06474" lon="-4.63094">
        <ele>75.525</ele>
        <time>2020-12-18T19:13:43Z</time>
      </trkpt>
      <trkpt lat="48.06493" lon="-4.63029">
        <ele>76.283</ele>
        <time>2020-12-18T19:13:23Z</time>
      </trkpt>
      <trkpt lat="48.06528" lon="-4.63032">
        <ele>73.747</ele>
        <time>2020-12-18T19:13:03Z</time>
      </trkpt>
      <trkpt lat="48.06563" lon="-4.63005">
        <ele>68.208</ele>
        <time>2020-12-18T19:12:43Z</time>
      </trkpt>
      <trkpt lat="48.06568" lon="-4.62958">
        <ele>66.509</ele>
        <time>2016-04-29T20:50:42Z</time>
      </trkpt>
      <trkpt lat="48.06561" lon="-4.62898">
        <ele>68.254</ele>
        <time>2016-04-29T20:50:22Z</time>
      </trkpt>
      <trkpt lat="48.06595" lon="-4.62833">
        <ele>67.114</ele>
        <time>2016-04-29T20:50:02Z</time>
      </trkpt>
      <trkpt lat="48.06723" lon="-4.62851">
        <ele>60.387</ele>
        <time>2016-04-29T20:49:42Z</time>
      </trkpt>
      <trkpt lat="48.06789" lon="-4.6276">
        <ele>63.467</ele>
        <time>2016-04-29T20:49:22Z</time>
      </trkpt>
      <trkpt lat="48.06832" lon="-4.6276">
        <ele>63.613</ele>
        <time>2016-04-29T20:49:02Z</time>
      </trkpt>
      <trkpt lat="48.06845" lon="-4.62745">
        <ele>64.689</ele>
        <time>2016-04-29T20:48:42Z</time>
      </trkpt>
      <trkpt lat="48.07011" lon="-4.62754">
        <ele>67.387</ele>
        <time>2016-04-29T20:48:22Z</time>
      </trkpt>
      <trkpt lat="48.07029" lon="-4.62786">
        <ele>65.31</ele>
        <time>2016-04-29T20:48:02Z</time>
      </trkpt>
      <trkpt lat="48.07072" lon="-4.62808">
        <ele>61.298</ele>
        <time>2016-04-29T20:47:42Z</time>
      </trkpt>
      <trkpt lat="48.07079" lon="-4.62795">
        <ele>57.542</ele>
        <time>2016-04-29T20:47:22Z</time>
      </trkpt>
      <trkpt lat="48.07014" lon="-4.62651">
        <ele>59.908</ele>
        <time>2016-04-29T20:47:02Z</time>
      </trkpt>
      <trkpt lat="48.07016" lon="-4.62582">
        <ele>51.716</ele>
        <time>2016-04-29T20:46:42Z</time>
      </trkpt>
      <trkpt lat="48.06986" lon="-4.62494">
        <ele>53.006</ele>
        <time>2016-04-29T20:46:22Z</time>
      </trkpt>
      <trkpt lat="48.06975" lon="-4.62387">
        <ele>41.964</ele>
        <time>2016-04-29T20:46:02Z</time>
      </trkpt>
      <trkpt lat="48.06852" lon="-4.62222">
        <ele>20.297</ele>
        <time>2016-04-29T20:45:42Z</time>
      </trkpt>
      <trkpt lat="48.06683" lon="-4.62207">
        <ele>51.337</ele>
        <time>2016-04-29T20:45:22Z</time>
      </trkpt>
      <trkpt lat="48.06716" lon="-4.6217">
        <ele>47.883</ele>
        <time>2016-04-29T20:45:02Z</time>
      </trkpt>
      <trkpt lat="48.06719" lon="-4.62145">
        <ele>51.439</ele>
        <time>2016-04-29T20:44:42Z</time>
      </trkpt>
      <trkpt lat="48.06709" lon="-4.62104">
        <ele>56.917</ele>
        <time>2016-04-29T20:44:22Z</time>
      </trkpt>
      <trkpt lat="48.0672" lon="-4.61951">
        <ele>52.36</ele>
        <time>2016-04-29T20:44:02Z</time>
      </trkpt>
      <trkpt lat="48.06739" lon="-4.61934">
        <ele>52.248</ele>
        <time>2016-04-29T20:43:42Z</time>
      </trkpt>
      <trkpt lat="48.06829" lon="-4.6202">
        <ele>41.142</ele>
        <time>2016-04-29T20:43:22Z</time>
      </trkpt>
      <trkpt lat="48.06854" lon="-4.61973">
        <ele>52.208</ele>
        <time>2016-04-29T20:43:02Z</time>
      </trkpt>
      <trkpt lat="48.06852" lon="-4.61934">
        <ele>58.026</ele>
        <time>2016-04-29T20:42:42Z</time>
      </trkpt>
      <trkpt lat="48.06872" lon="-4.61885">
        <ele>58.742</ele>
        <time>2016-04-29T20:42:22Z</time>
      </trkpt>
      <trkpt lat="48.06918" lon="-4.61816">
        <ele>59.868</ele>
        <time>2016-04-29T20:42:02Z</time>
      </trkpt>
      <trkpt lat="48.06951" lon="-4.61788">
        <ele>54.729</ele>
        <time>2016-04-29T20:41:42Z</time>
      </trkpt>
      <trkpt lat="48.06955" lon="-4.61756">
        <ele>54.419</ele>
        <time>2016-04-29T20:41:22Z</time>
      </trkpt>
      <trkpt lat="48.06942" lon="-4.61703">
        <ele>61.615</ele>
        <time>2016-04-29T20:41:02Z</time>
      </trkpt>
      <trkpt lat="48.06951" lon="-4.61675">
        <ele>59.381</ele>
        <time>2016-04-29T20:40:42Z</time>
      </trkpt>
      <trkpt lat="48.06948" lon="-4.61632">
        <ele>63.249</ele>
        <time>2016-04-29T20:40:22Z</time>
      </trkpt>
      <trkpt lat="48.06958" lon="-4.61591">
        <ele>62.152</ele>
        <time>2016-04-29T20:40:02Z</time>
      </trkpt>
      <trkpt lat="48.06872" lon="-4.61548">
        <ele>65.17</ele>
        <time>2016-04-29T20:39:42Z</time>
      </trkpt>
      <trkpt lat="48.06988" lon="-4.61155">
        <ele>69.494</ele>
        <time>2016-04-29T20:39:22Z</time>
      </trkpt>
      <trkpt lat="48.07041" lon="-4.61012">
        <ele>67.908</ele>
        <time>2016-04-29T20:39:02Z</time>
      </trkpt>
      <trkpt lat="48.07122" lon="-4.60864">
        <ele>46.726</ele>
        <time>2016-04-29T20:38:42Z</time>
      </trkpt>
      <trkpt lat="48.07176" lon="-4.60876">
        <ele>40.642</ele>
        <time>2016-04-29T20:38:22Z</time>
      </trkpt>
      <trkpt lat="48.07166" lon="-4.60842">
        <ele>37.387</ele>
        <time>2016-04-29T20:38:02Z</time>
      </trkpt>
      <trkpt lat="48.07176" lon="-4.60823">
        <ele>34.075</ele>
        <time>2016-04-29T20:37:42Z</time>
      </trkpt>
      <trkpt lat="48.07216" lon="-4.60818">
        <ele>28.495</ele>
        <time>2016-04-29T20:37:22Z</time>
      </trkpt>
      <trkpt lat="48.07197" lon="-4.60771">
        <ele>34.661</ele>
        <time>2020-12-18T18:58:43Z</time>
      </trkpt>
      <trkpt lat="48.07231" lon="-4.60761">
        <ele>37.217</ele>
        <time>2016-04-29T20:37:02Z</time>
      </trkpt>
      <trkpt lat="48.07272" lon="-4.60741">
        <ele>39.465</ele>
        <time>2016-04-29T20:36:42Z</time>
      </trkpt>
      <trkpt lat="48.07341" lon="-4.60677">
        <ele>39.818</ele>
        <time>2016-04-29T20:36:22Z</time>
      </trkpt>
      <trkpt lat="48.07353" lon="-4.60625">
        <ele>46.676</ele>
        <time>2016-04-29T20:36:02Z</time>
      </trkpt>
      <trkpt lat="48.07384" lon="-4.6058">
        <ele>44.75</ele>
        <time>2016-04-29T20:35:42Z</time>
      </trkpt>
      <trkpt lat="48.07358" lon="-4.60469">
        <ele>63.808</ele>
        <time>2016-04-29T20:35:22Z</time>
      </trkpt>
      <trkpt lat="48.07386" lon="-4.60402">
        <ele>63.515</ele>
        <time>2016-04-29T20:35:02Z</time>
      </trkpt>
      <trkpt lat="48.07456" lon="-4.60346">
        <ele>69.005</ele>
        <time>2016-04-29T20:34:42Z</time>
      </trkpt>
      <trkpt lat="48.07438" lon="-4.60284">
        <ele>76.244</ele>
        <time>2020-12-18T18:55:43Z</time>
      </trkpt>
      <trkpt lat="48.07427" lon="-4.60168">
        <ele>74.354</ele>
        <time>2016-04-29T20:34:22Z</time>
      </trkpt>
      <trkpt lat="48.07469" lon="-4.60028">
        <ele>55.624</ele>
        <time>2020-12-18T18:55:03Z</time>
      </trkpt>
      <trkpt lat="48.07408" lon="-4.59968">
        <ele>60.31</ele>
        <time>2020-12-18T18:54:43Z</time>
      </trkpt>
      <trkpt lat="48.07373" lon="-4.59866">
        <ele>63.386</ele>
        <time>2020-12-18T18:54:23Z</time>
      </trkpt>
      <trkpt lat="48.07379" lon="-4.59829">
        <ele>64.554</ele>
        <time>2020-12-18T18:54:03Z</time>
      </trkpt>
      <trkpt lat="48.07372" lon="-4.59797">
        <ele>67.637</ele>
        <time>2020-12-18T18:53:43Z</time>
      </trkpt>
      <trkpt lat="48.07393" lon="-4.59692">
        <ele>70.915</ele>
        <time>2020-12-18T18:53:23Z</time>
      </trkpt>
      <trkpt lat="48.07361" lon="-4.59651">
        <ele>72.099</ele>
        <time>2016-04-29T20:32:42Z</time>
      </trkpt>
      <trkpt lat="48.07384" lon="-4.59537">
        <ele>69.908</ele>
        <time>2016-04-29T20:32:22Z</time>
      </trkpt>
      <trkpt lat="48.0734" lon="-4.59497">
        <ele>70.707</ele>
        <time>2016-04-29T20:32:02Z</time>
      </trkpt>
      <trkpt lat="48.07335" lon="-4.59331">
        <ele>61.561</ele>
        <time>2016-04-29T20:31:42Z</time>
      </trkpt>
      <trkpt lat="48.0735" lon="-4.59224">
        <ele>49.131</ele>
        <time>2016-04-29T20:31:22Z</time>
      </trkpt>
      <trkpt lat="48.0732" lon="-4.59203">
        <ele>54.617</ele>
        <time>2016-04-29T20:31:02Z</time>
      </trkpt>
      <trkpt lat="48.07321" lon="-4.59173">
        <ele>51.767</ele>
        <time>2016-04-29T20:30:42Z</time>
      </trkpt>
      <trkpt lat="48.07251" lon="-4.5902">
        <ele>59.773</ele>
        <time>2016-04-29T20:30:22Z</time>
      </trkpt>
      <trkpt lat="48.07264" lon="-4.59005">
        <ele>58.639</ele>
        <time>2016-04-29T20:30:02Z</time>
      </trkpt>
      <trkpt lat="48.07288" lon="-4.59016">
        <ele>57.747</ele>
        <time>2016-04-29T20:29:42Z</time>
      </trkpt>
      <trkpt lat="48.07291" lon="-4.59001">
        <ele>58.45</ele>
        <time>2016-04-29T20:29:22Z</time>
      </trkpt>
      <trkpt lat="48.07267" lon="-4.58945">
        <ele>61.558</ele>
        <time>2016-04-29T20:29:02Z</time>
      </trkpt>
      <trkpt lat="48.07394" lon="-4.58945">
        <ele>63.812</ele>
        <time>2016-04-29T20:28:42Z</time>
      </trkpt>
      <trkpt lat="48.07521" lon="-4.58912">
        <ele>66.208</ele>
        <time>2020-12-18T18:48:43Z</time>
      </trkpt>
      <trkpt lat="48.07585" lon="-4.5884">
        <ele>67.724</ele>
        <time>2016-04-29T20:28:02Z</time>
      </trkpt>
      <trkpt lat="48.07667" lon="-4.5869">
        <ele>63.204</ele>
        <time>2016-04-29T20:27:42Z</time>
      </trkpt>
      <trkpt lat="48.07768" lon="-4.58467">
        <ele>62.169</ele>
        <time>2016-04-29T20:27:22Z</time>
      </trkpt>
      <trkpt lat="48.07847" lon="-4.58411">
        <ele>56.487</ele>
        <time>2016-04-29T20:27:02Z</time>
      </trkpt>
      <trkpt lat="48.07892" lon="-4.58344">
        <ele>46.927</ele>
        <time>2016-04-29T20:26:42Z</time>
      </trkpt>
      <trkpt lat="48.0794" lon="-4.58344">
        <ele>35.083</ele>
        <time>2020-12-18T18:46:43Z</time>
      </trkpt>
      <trkpt lat="48.07938" lon="-4.58321">
        <ele>32.949</ele>
        <time>2020-12-18T18:46:23Z</time>
      </trkpt>
      <trkpt lat="48.07965" lon="-4.58312">
        <ele>26.247</ele>
        <time>2020-12-18T18:46:03Z</time>
      </trkpt>
      <trkpt lat="48.0793" lon="-4.58265">
        <ele>36.98</ele>
        <time>2020-12-18T18:45:43Z</time>
      </trkpt>
      <trkpt lat="48.07996" lon="-4.58203">
        <ele>34.858</ele>
        <time>2016-04-29T20:25:22Z</time>
      </trkpt>
      <trkpt lat="48.08003" lon="-4.58164">
        <ele>41.652</ele>
        <time>2016-04-29T20:25:02Z</time>
      </trkpt>
      <trkpt lat="48.08041" lon="-4.58149">
        <ele>37.408</ele>
        <time>2016-04-29T20:24:42Z</time>
      </trkpt>
      <trkpt lat="48.08108" lon="-4.5816">
        <ele>26.213</ele>
        <time>2016-04-29T20:24:22Z</time>
      </trkpt>
      <trkpt lat="48.08157" lon="-4.58196">
        <ele>3.821</ele>
        <time>2016-04-29T20:24:02Z</time>
      </trkpt>
      <trkpt lat="48.08173" lon="-4.58031">
        <ele>0.061</ele>
        <time>2016-04-29T20:23:42Z</time>
      </trkpt>
      <trkpt lat="48.08145" lon="-4.57952">
        <ele>0.022</ele>
        <time>2016-04-29T20:23:22Z</time>
      </trkpt>
      <trkpt lat="48.08108" lon="-4.57926">
        <ele>41.852</ele>
        <time>2016-04-29T20:23:02Z</time>
      </trkpt>
      <trkpt lat="48.08062" lon="-4.57793">
        <ele>54.228</ele>
        <time>2016-04-29T20:22:42Z</time>
      </trkpt>
      <trkpt lat="48.08107" lon="-4.57716">
        <ele>44.354</ele>
        <time>2016-04-29T20:22:22Z</time>
      </trkpt>
      <trkpt lat="48.08097" lon="-4.57626">
        <ele>50.062</ele>
        <time>2016-04-29T20:22:02Z</time>
      </trkpt>
      <trkpt lat="48.08072" lon="-4.57555">
        <ele>51.425</ele>
        <time>2016-04-29T20:21:42Z</time>
      </trkpt>
      <trkpt lat="48.08144" lon="-4.57544">
        <ele>30.263</ele>
        <time>2016-04-29T20:21:22Z</time>
      </trkpt>
      <trkpt lat="48.08157" lon="-4.5743">
        <ele>27.517</ele>
        <time>2016-04-29T20:21:02Z</time>
      </trkpt>
      <trkpt lat="48.08161" lon="-4.57377">
        <ele>21.208</ele>
        <time>2016-04-29T20:20:42Z</time>
      </trkpt>
      <trkpt lat="48.08177" lon="-4.57338">
        <ele>9.607</ele>
        <time>2016-04-29T20:20:22Z</time>
      </trkpt>
      <trkpt lat="48.08151" lon="-4.57317">
        <ele>14.843</ele>
        <time>2016-04-29T20:20:02Z</time>
      </trkpt>
      <trkpt lat="48.08135" lon="-4.57334">
        <ele>24.113</ele>
        <time>2016-04-29T20:19:42Z</time>
      </trkpt>
      <trkpt lat="48.08112" lon="-4.57325">
        <ele>28.983</ele>
        <time>2016-04-29T20:19:22Z</time>
      </trkpt>
      <trkpt lat="48.08082" lon="-4.5728">
        <ele>32.013</ele>
        <time>2016-04-29T20:19:02Z</time>
      </trkpt>
      <trkpt lat="48.08039" lon="-4.57267">
        <ele>48.219</ele>
        <time>2016-04-29T20:18:42Z</time>
      </trkpt>
      <trkpt lat="48.08006" lon="-4.57214">
        <ele>52.995</ele>
        <time>2016-04-29T20:18:22Z</time>
      </trkpt>
      <trkpt lat="48.08062" lon="-4.57164">
        <ele>45.353</ele>
        <time>2016-04-29T20:18:02Z</time>
      </trkpt>
      <trkpt lat="48.08044" lon="-4.57126">
        <ele>56.516</ele>
        <time>2020-12-18T18:37:43Z</time>
      </trkpt>
      <trkpt lat="48.08092" lon="-4.57005">
        <ele>56.784</ele>
        <time>2016-04-29T20:17:22Z</time>
      </trkpt>
      <trkpt lat="48.08084" lon="-4.56958">
        <ele>61.978</ele>
        <time>2016-04-29T20:17:02Z</time>
      </trkpt>
      <trkpt lat="48.08089" lon="-4.56922">
        <ele>64.108</ele>
        <time>2016-04-29T20:16:42Z</time>
      </trkpt>
      <trkpt lat="48.0813" lon="-4.569">
        <ele>52.314</ele>
        <time>2016-04-29T20:16:22Z</time>
      </trkpt>
      <trkpt lat="48.08161" lon="-4.56827">
        <ele>43.004</ele>
        <time>2016-04-29T20:16:02Z</time>
      </trkpt>
      <trkpt lat="48.08163" lon="-4.56772">
        <ele>38.224</ele>
        <time>2016-04-29T20:15:42Z</time>
      </trkpt>
      <trkpt lat="48.08137" lon="-4.56749">
        <ele>44.269</ele>
        <time>2020-12-18T18:35:23Z</time>
      </trkpt>
      <trkpt lat="48.08148" lon="-4.56719">
        <ele>30.919</ele>
        <time>2020-12-18T18:35:03Z</time>
      </trkpt>
      <trkpt lat="48.08088" lon="-4.56735">
        <ele>55.255</ele>
        <time>2016-04-29T20:15:02Z</time>
      </trkpt>
      <trkpt lat="48.08045" lon="-4.56677">
        <ele>54.331</ele>
        <time>2016-04-29T20:14:42Z</time>
      </trkpt>
      <trkpt lat="48.08002" lon="-4.56639">
        <ele>59.179</ele>
        <time>2016-04-29T20:14:22Z</time>
      </trkpt>
      <trkpt lat="48.0797" lon="-4.56593">
        <ele>61.742</ele>
        <time>2016-04-29T20:14:02Z</time>
      </trkpt>
      <trkpt lat="48.07946" lon="-4.56518">
        <ele>63.01</ele>
        <time>2016-04-29T20:13:42Z</time>
      </trkpt>
      <trkpt lat="48.07956" lon="-4.56381">
        <ele>55.044</ele>
        <time>2016-04-29T20:13:22Z</time>
      </trkpt>
      <trkpt lat="48.07937" lon="-4.56364">
        <ele>64.308</ele>
        <time>2016-04-29T20:13:02Z</time>
      </trkpt>
      <trkpt lat="48.0791" lon="-4.56287">
        <ele>66.026</ele>
        <time>2016-04-29T20:12:42Z</time>
      </trkpt>
      <trkpt lat="48.07884" lon="-4.56261">
        <ele>65.906</ele>
        <time>2016-04-29T20:12:22Z</time>
      </trkpt>
      <trkpt lat="48.07872" lon="-4.56231">
        <ele>60.889</ele>
        <time>2016-04-29T20:12:02Z</time>
      </trkpt>
      <trkpt lat="48.07829" lon="-4.56218">
        <ele>63.662</ele>
        <time>2016-04-29T20:11:42Z</time>
      </trkpt>
      <trkpt lat="48.07797" lon="-4.56115">
        <ele>51.242</ele>
        <time>2016-04-29T20:11:22Z</time>
      </trkpt>
      <trkpt lat="48.07753" lon="-4.56014">
        <ele>42.038</ele>
        <time>2016-04-29T20:11:02Z</time>
      </trkpt>
      <trkpt lat="48.07712" lon="-4.55995">
        <ele>49.264</ele>
        <time>2016-04-29T20:10:42Z</time>
      </trkpt>
      <trkpt lat="48.07747" lon="-4.55935">
        <ele>37.842</ele>
        <time>2016-04-29T20:10:22Z</time>
      </trkpt>
      <trkpt lat="48.07743" lon="-4.55911">
        <ele>38.925</ele>
        <time>2016-04-29T20:10:02Z</time>
      </trkpt>
      <trkpt lat="48.07753" lon="-4.55862">
        <ele>34.543</ele>
        <time>2016-04-29T20:09:42Z</time>
      </trkpt>
      <trkpt lat="48.07745" lon="-4.55795">
        <ele>35.597</ele>
        <time>2016-04-29T20:09:22Z</time>
      </trkpt>
      <trkpt lat="48.07725" lon="-4.55763">
        <ele>41.208</ele>
        <time>2016-04-29T20:09:02Z</time>
      </trkpt>
      <trkpt lat="48.0776" lon="-4.55716">
        <ele>36.413</ele>
        <time>2016-04-29T20:08:42Z</time>
      </trkpt>
      <trkpt lat="48.07804" lon="-4.55701">
        <ele>23.876</ele>
        <time>2016-04-29T20:08:22Z</time>
      </trkpt>
      <trkpt lat="48.07833" lon="-4.55731">
        <ele>7.516</ele>
        <time>2016-04-29T20:08:02Z</time>
      </trkpt>
      <trkpt lat="48.07846" lon="-4.55727">
        <ele>6.07</ele>
        <time>2016-04-29T20:07:42Z</time>
      </trkpt>
      <trkpt lat="48.07827" lon="-4.55662">
        <ele>16.36</ele>
        <time>2016-04-29T20:07:22Z</time>
      </trkpt>
      <trkpt lat="48.07834" lon="-4.55594">
        <ele>11.546</ele>
        <time>2016-04-29T20:07:02Z</time>
      </trkpt>
      <trkpt lat="48.07765" lon="-4.55463">
        <ele>9.672</ele>
        <time>2016-04-29T20:06:42Z</time>
      </trkpt>
      <trkpt lat="48.07743" lon="-4.55499">
        <ele>22.01</ele>
        <time>2016-04-29T20:06:22Z</time>
      </trkpt>
      <trkpt lat="48.07697" lon="-4.55413">
        <ele>24.423</ele>
        <time>2016-04-29T20:06:02Z</time>
      </trkpt>
      <trkpt lat="48.07697" lon="-4.55373">
        <ele>16.181</ele>
        <time>2016-04-29T20:05:42Z</time>
      </trkpt>
      <trkpt lat="48.07668" lon="-4.55302">
        <ele>10.285</ele>
        <time>2016-04-29T20:05:22Z</time>
      </trkpt>
      <trkpt lat="48.07629" lon="-4.55276">
        <ele>14.708</ele>
        <time>2016-04-29T20:05:02Z</time>
      </trkpt>
      <trkpt lat="48.07595" lon="-4.55224">
        <ele>9.624</ele>
        <time>2016-04-29T20:04:42Z</time>
      </trkpt>
      <trkpt lat="48.0757" lon="-4.55207">
        <ele>12.931</ele>
        <time>2016-04-29T20:04:22Z</time>
      </trkpt>
      <trkpt lat="48.07573" lon="-4.55186">
        <ele>13.996</ele>
        <time>2016-04-29T20:04:02Z</time>
      </trkpt>
      <trkpt lat="48.07598" lon="-4.55173">
        <ele>13.463</ele>
        <time>2016-04-29T20:03:42Z</time>
      </trkpt>
      <trkpt lat="48.07621" lon="-4.55111">
        <ele>27.753</ele>
        <time>2016-04-29T20:03:22Z</time>
      </trkpt>
      <trkpt lat="48.07652" lon="-4.55111">
        <ele>22.239</ele>
        <time>2016-04-29T20:03:02Z</time>
      </trkpt>
      <trkpt lat="48.07712" lon="-4.54999">
        <ele>32.075</ele>
        <time>2016-04-29T20:02:42Z</time>
      </trkpt>
      <trkpt lat="48.07698" lon="-4.54948">
        <ele>40.743</ele>
        <time>2016-04-29T20:02:22Z</time>
      </trkpt>
      <trkpt lat="48.07704" lon="-4.54873">
        <ele>31.126</ele>
        <time>2016-04-29T20:02:02Z</time>
      </trkpt>
      <trkpt lat="48.0775" lon="-4.54834">
        <ele>18.114</ele>
        <time>2016-04-29T20:01:42Z</time>
      </trkpt>
      <trkpt lat="48.07717" lon="-4.54626">
        <ele>46.338</ele>
        <time>2016-04-29T20:01:22Z</time>
      </trkpt>
      <trkpt lat="48.0774" lon="-4.54553">
        <ele>48.908</ele>
        <time>2016-04-29T20:01:02Z</time>
      </trkpt>
      <trkpt lat="48.07763" lon="-4.54546">
        <ele>43.614</ele>
        <time>2016-04-29T20:00:42Z</time>
      </trkpt>
      <trkpt lat="48.07783" lon="-4.54561">
        <ele>34.068</ele>
        <time>2016-04-29T20:00:22Z</time>
      </trkpt>
      <trkpt lat="48.07833" lon="-4.5457">
        <ele>18.527</ele>
        <time>2016-04-29T20:00:02Z</time>
      </trkpt>
      <trkpt lat="48.07826" lon="-4.54518">
        <ele>31.514</ele>
        <time>2016-04-29T19:59:42Z</time>
      </trkpt>
      <trkpt lat="48.07834" lon="-4.54471">
        <ele>37.834</ele>
        <time>2016-04-29T19:59:22Z</time>
      </trkpt>
      <trkpt lat="48.07876" lon="-4.54443">
        <ele>33.79</ele>
        <time>2016-04-29T19:59:02Z</time>
      </trkpt>
      <trkpt lat="48.07946" lon="-4.54531">
        <ele>21.656</ele>
        <time>2016-04-29T19:58:42Z</time>
      </trkpt>
      <trkpt lat="48.08016" lon="-4.54559">
        <ele>23.144</ele>
        <time>2016-04-29T19:58:22Z</time>
      </trkpt>
      <trkpt lat="48.08067" lon="-4.54424">
        <ele>44.397</ele>
        <time>2016-04-29T19:58:02Z</time>
      </trkpt>
      <trkpt lat="48.08102" lon="-4.54435">
        <ele>26.575</ele>
        <time>2016-04-29T19:57:42Z</time>
      </trkpt>
      <trkpt lat="48.08102" lon="-4.54282">
        <ele>33.389</ele>
        <time>2016-04-29T19:57:22Z</time>
      </trkpt>
      <trkpt lat="48.08084" lon="-4.54229">
        <ele>38.308</ele>
        <time>2016-04-29T19:57:02Z</time>
      </trkpt>
      <trkpt lat="48.0811" lon="-4.54113">
        <ele>24.618</ele>
        <time>2016-04-29T19:56:42Z</time>
      </trkpt>
      <trkpt lat="48.08091" lon="-4.54031">
        <ele>26.817</ele>
        <time>2016-04-29T19:56:22Z</time>
      </trkpt>
      <trkpt lat="48.08098" lon="-4.54004">
        <ele>28.136</ele>
        <time>2016-04-29T19:56:02Z</time>
      </trkpt>
      <trkpt lat="48.08158" lon="-4.54061">
        <ele>19.259</ele>
        <time>2016-04-29T19:55:42Z</time>
      </trkpt>
      <trkpt lat="48.08173" lon="-4.54085">
        <ele>16.669</ele>
        <time>2016-04-29T19:55:22Z</time>
      </trkpt>
      <trkpt lat="48.08256" lon="-4.54107">
        <ele>23.435</ele>
        <time>2016-04-29T19:55:02Z</time>
      </trkpt>
      <trkpt lat="48.0829" lon="-4.54094">
        <ele>30.871</ele>
        <time>2016-04-29T19:54:42Z</time>
      </trkpt>
      <trkpt lat="48.08329" lon="-4.54104">
        <ele>23.499</ele>
        <time>2016-04-29T19:54:22Z</time>
      </trkpt>
      <trkpt lat="48.08333" lon="-4.54025">
        <ele>42.142</ele>
        <time>2016-04-29T19:54:02Z</time>
      </trkpt>
      <trkpt lat="48.08353" lon="-4.53971">
        <ele>42.39</ele>
        <time>2016-04-29T19:53:42Z</time>
      </trkpt>
      <trkpt lat="48.08432" lon="-4.53935">
        <ele>37.984</ele>
        <time>2016-04-29T19:53:22Z</time>
      </trkpt>
      <trkpt lat="48.08482" lon="-4.53946">
        <ele>35.208</ele>
        <time>2016-04-29T19:53:02Z</time>
      </trkpt>
      <trkpt lat="48.08508" lon="-4.53969">
        <ele>24.617</ele>
        <time>2016-04-29T19:52:42Z</time>
      </trkpt>
      <trkpt lat="48.0852" lon="-4.53946">
        <ele>27.925</ele>
        <time>2016-04-29T19:52:22Z</time>
      </trkpt>
      <trkpt lat="48.08515" lon="-4.53873">
        <ele>41.783</ele>
        <time>2016-04-29T19:52:02Z</time>
      </trkpt>
      <trkpt lat="48.08531" lon="-4.53843">
        <ele>42.887</ele>
        <time>2016-04-29T19:51:42Z</time>
      </trkpt>
      <trkpt lat="48.08561" lon="-4.53853">
        <ele>42.067</ele>
        <time>2016-04-29T19:51:22Z</time>
      </trkpt>
      <trkpt lat="48.086" lon="-4.53943">
        <ele>18.593</ele>
        <time>2016-04-29T19:51:02Z</time>
      </trkpt>
      <trkpt lat="48.08643" lon="-4.53946">
        <ele>18.989</ele>
        <time>2016-04-29T19:50:42Z</time>
      </trkpt>
      <trkpt lat="48.08676" lon="-4.53913">
        <ele>31.127</ele>
        <time>2016-04-29T19:50:22Z</time>
      </trkpt>
      <trkpt lat="48.08737" lon="-4.53911">
        <ele>22.02</ele>
        <time>2016-04-29T19:50:02Z</time>
      </trkpt>
      <trkpt lat="48.08759" lon="-4.53804">
        <ele>41.068</ele>
        <time>2016-04-29T19:49:42Z</time>
      </trkpt>
      <trkpt lat="48.08799" lon="-4.53725">
        <ele>35.952</ele>
        <time>2016-04-29T19:49:22Z</time>
      </trkpt>
      <trkpt lat="48.088" lon="-4.53626">
        <ele>47.208</ele>
        <time>2016-04-29T19:49:02Z</time>
      </trkpt>
      <trkpt lat="48.08846" lon="-4.53523">
        <ele>35.218</ele>
        <time>2016-04-29T19:48:42Z</time>
      </trkpt>
      <trkpt lat="48.08815" lon="-4.5333">
        <ele>25.044</ele>
        <time>2016-04-29T19:48:22Z</time>
      </trkpt>
      <trkpt lat="48.08785" lon="-4.53306">
        <ele>24.263</ele>
        <time>2016-04-29T19:48:02Z</time>
      </trkpt>
      <trkpt lat="48.08699" lon="-4.53336">
        <ele>44.633</ele>
        <time>2016-04-29T19:47:42Z</time>
      </trkpt>
      <trkpt lat="48.08659" lon="-4.53304">
        <ele>43.663</ele>
        <time>2016-04-29T19:47:22Z</time>
      </trkpt>
      <trkpt lat="48.0862" lon="-4.53109">
        <ele>21.929</ele>
        <time>2016-04-29T19:47:02Z</time>
      </trkpt>
      <trkpt lat="48.08631" lon="-4.53031">
        <ele>23.645</ele>
        <time>2016-04-29T19:46:42Z</time>
      </trkpt>
      <trkpt lat="48.08694" lon="-4.52995">
        <ele>12.083</ele>
        <time>2016-04-29T19:46:22Z</time>
      </trkpt>
      <trkpt lat="48.08644" lon="-4.52875">
        <ele>16.716</ele>
        <time>2016-04-29T19:46:02Z</time>
      </trkpt>
      <trkpt lat="48.08577" lon="-4.5284">
        <ele>24.184</ele>
        <time>2016-04-29T19:45:42Z</time>
      </trkpt>
      <trkpt lat="48.08547" lon="-4.52802">
        <ele>23.798</ele>
        <time>2016-04-29T19:45:22Z</time>
      </trkpt>
      <trkpt lat="48.08507" lon="-4.52802">
        <ele>34.508</ele>
        <time>2016-04-29T19:45:02Z</time>
      </trkpt>
      <trkpt lat="48.08501" lon="-4.52778">
        <ele>33.914</ele>
        <time>2016-04-29T19:44:42Z</time>
      </trkpt>
      <trkpt lat="48.08548" lon="-4.52744">
        <ele>19.468</ele>
        <time>2016-04-29T19:44:22Z</time>
      </trkpt>
      <trkpt lat="48.08497" lon="-4.52637">
        <ele>38.427</ele>
        <time>2016-04-29T19:44:02Z</time>
      </trkpt>
      <trkpt lat="48.08491" lon="-4.52577">
        <ele>37.463</ele>
        <time>2016-04-29T19:43:42Z</time>
      </trkpt>
      <trkpt lat="48.08573" lon="-4.52435">
        <ele>39.443</ele>
        <time>2016-04-29T19:43:22Z</time>
      </trkpt>
      <trkpt lat="48.08597" lon="-4.52437">
        <ele>33.019</ele>
        <time>2016-04-29T19:43:02Z</time>
      </trkpt>
      <trkpt lat="48.08611" lon="-4.52411">
        <ele>28.435</ele>
        <time>2016-04-29T19:42:42Z</time>
      </trkpt>
      <trkpt lat="48.08563" lon="-4.52403">
        <ele>42.973</ele>
        <time>2016-04-29T19:42:22Z</time>
      </trkpt>
      <trkpt lat="48.08512" lon="-4.52328">
        <ele>45.946</ele>
        <time>2016-04-29T19:42:02Z</time>
      </trkpt>
      <trkpt lat="48.08517" lon="-4.52274">
        <ele>48.874</ele>
        <time>2016-04-29T19:41:42Z</time>
      </trkpt>
      <trkpt lat="48.08571" lon="-4.52235">
        <ele>31.418</ele>
        <time>2016-04-29T19:41:22Z</time>
      </trkpt>
      <trkpt lat="48.08611" lon="-4.52186">
        <ele>25.108</ele>
        <time>2016-04-29T19:41:02Z</time>
      </trkpt>
      <trkpt lat="48.08621" lon="-4.52126">
        <ele>37.214</ele>
        <time>2016-04-29T19:40:42Z</time>
      </trkpt>
      <trkpt lat="48.08684" lon="-4.52019">
        <ele>43.268</ele>
        <time>2016-04-29T19:40:22Z</time>
      </trkpt>
      <trkpt lat="48.08714" lon="-4.52019">
        <ele>38.027</ele>
        <time>2016-04-29T19:40:02Z</time>
      </trkpt>
      <trkpt lat="48.0874" lon="-4.5204">
        <ele>30.164</ele>
        <time>2016-04-29T19:39:42Z</time>
      </trkpt>
      <trkpt lat="48.08796" lon="-4.52038">
        <ele>23.474</ele>
        <time>2016-04-29T19:39:22Z</time>
      </trkpt>
      <trkpt lat="48.08819" lon="-4.52008">
        <ele>24.95</ele>
        <time>2016-04-29T19:39:02Z</time>
      </trkpt>
      <trkpt lat="48.08782" lon="-4.51984">
        <ele>28.826</ele>
        <time>2016-04-29T19:38:42Z</time>
      </trkpt>
      <trkpt lat="48.08767" lon="-4.51954">
        <ele>32.744</ele>
        <time>2016-04-29T19:38:22Z</time>
      </trkpt>
      <trkpt lat="48.08785" lon="-4.51832">
        <ele>25.657</ele>
        <time>2016-04-29T19:38:02Z</time>
      </trkpt>
      <trkpt lat="48.08772" lon="-4.51757">
        <ele>30.295</ele>
        <time>2016-04-29T19:37:42Z</time>
      </trkpt>
      <trkpt lat="48.0879" lon="-4.51693">
        <ele>23.759</ele>
        <time>2016-04-29T19:37:22Z</time>
      </trkpt>
      <trkpt lat="48.08765" lon="-4.51583">
        <ele>31.408</ele>
        <time>2016-04-29T19:37:02Z</time>
      </trkpt>
      <trkpt lat="48.08767" lon="-4.51562">
        <ele>33.411</ele>
        <time>2016-04-29T19:36:42Z</time>
      </trkpt>
      <trkpt lat="48.08856" lon="-4.51613">
        <ele>12.592</ele>
        <time>2016-04-29T19:36:22Z</time>
      </trkpt>
      <trkpt lat="48.08846" lon="-4.51562">
        <ele>23.032</ele>
        <time>2016-04-29T19:36:02Z</time>
      </trkpt>
      <trkpt lat="48.08869" lon="-4.51519">
        <ele>19.42</ele>
        <time>2016-04-29T19:35:42Z</time>
      </trkpt>
      <trkpt lat="48.08829" lon="-4.51461">
        <ele>39.25</ele>
        <time>2016-04-29T19:35:22Z</time>
      </trkpt>
      <trkpt lat="48.08833" lon="-4.51338">
        <ele>42.616</ele>
        <time>2016-04-29T19:35:02Z</time>
      </trkpt>
      <trkpt lat="48.08874" lon="-4.51278">
        <ele>34.082</ele>
        <time>2016-04-29T19:34:42Z</time>
      </trkpt>
      <trkpt lat="48.08901" lon="-4.5127">
        <ele>22.85</ele>
        <time>2016-04-29T19:34:22Z</time>
      </trkpt>
      <trkpt lat="48.08895" lon="-4.51156">
        <ele>35.763</ele>
        <time>2016-04-29T19:34:02Z</time>
      </trkpt>
      <trkpt lat="48.08915" lon="-4.51143">
        <ele>26.361</ele>
        <time>2016-04-29T19:33:42Z</time>
      </trkpt>
      <trkpt lat="48.08922" lon="-4.51051">
        <ele>18.915</ele>
        <time>2016-04-29T19:33:22Z</time>
      </trkpt>
      <trkpt lat="48.08836" lon="-4.50957">
        <ele>23.208</ele>
        <time>2016-04-29T19:33:02Z</time>
      </trkpt>
      <trkpt lat="48.08859" lon="-4.50886">
        <ele>22.826</ele>
        <time>2016-04-29T19:32:42Z</time>
      </trkpt>
      <trkpt lat="48.08902" lon="-4.50838">
        <ele>17.115</ele>
        <time>2016-04-29T19:32:22Z</time>
      </trkpt>
      <trkpt lat="48.08925" lon="-4.50755">
        <ele>17.698</ele>
        <time>2016-04-29T19:32:02Z</time>
      </trkpt>
      <trkpt lat="48.08856" lon="-4.50688">
        <ele>28.314</ele>
        <time>2016-04-29T19:31:42Z</time>
      </trkpt>
      <trkpt lat="48.08845" lon="-4.50617">
        <ele>23.074</ele>
        <time>2016-04-29T19:31:22Z</time>
      </trkpt>
      <trkpt lat="48.0879" lon="-4.50579">
        <ele>38.67</ele>
        <time>2016-04-29T19:31:02Z</time>
      </trkpt>
      <trkpt lat="48.08776" lon="-4.50547">
        <ele>43.236</ele>
        <time>2016-04-29T19:30:42Z</time>
      </trkpt>
      <trkpt lat="48.0878" lon="-4.50476">
        <ele>38.524</ele>
        <time>2016-04-29T19:30:22Z</time>
      </trkpt>
      <trkpt lat="48.08773" lon="-4.50399">
        <ele>37.927</ele>
        <time>2016-04-29T19:30:02Z</time>
      </trkpt>
      <trkpt lat="48.0878" lon="-4.50343">
        <ele>34.925</ele>
        <time>2016-04-29T19:29:42Z</time>
      </trkpt>
      <trkpt lat="48.08775" lon="-4.50276">
        <ele>37.659</ele>
        <time>2016-04-29T19:29:22Z</time>
      </trkpt>
      <trkpt lat="48.08825" lon="-4.50246">
        <ele>29.908</ele>
        <time>2016-04-29T19:29:02Z</time>
      </trkpt>
      <trkpt lat="48.08865" lon="-4.50244">
        <ele>28.11</ele>
        <time>2016-04-29T19:28:42Z</time>
      </trkpt>
      <trkpt lat="48.08908" lon="-4.50283">
        <ele>18.755</ele>
        <time>2016-04-29T19:28:22Z</time>
      </trkpt>
      <trkpt lat="48.08939" lon="-4.50293">
        <ele>14.934</ele>
        <time>2016-04-29T19:28:02Z</time>
      </trkpt>
      <trkpt lat="48.08947" lon="-4.50227">
        <ele>26.036</ele>
        <time>2016-04-29T19:27:42Z</time>
      </trkpt>
      <trkpt lat="48.09" lon="-4.50182">
        <ele>17.966</ele>
        <time>2016-04-29T19:27:22Z</time>
      </trkpt>
      <trkpt lat="48.09027" lon="-4.50118">
        <ele>18.962</ele>
        <time>2016-04-29T19:27:02Z</time>
      </trkpt>
      <trkpt lat="48.09024" lon="-4.50079">
        <ele>15.938</ele>
        <time>2016-04-29T19:26:42Z</time>
      </trkpt>
      <trkpt lat="48.0896" lon="-4.50057">
        <ele>19.326</ele>
        <time>2016-04-29T19:26:22Z</time>
      </trkpt>
      <trkpt lat="48.08948" lon="-4.50027">
        <ele>14.289</ele>
        <time>2016-04-29T19:26:02Z</time>
      </trkpt>
      <trkpt lat="48.08882" lon="-4.50019">
        <ele>27.917</ele>
        <time>2016-04-29T19:25:42Z</time>
      </trkpt>
      <trkpt lat="48.08813" lon="-4.49894">
        <ele>29.231</ele>
        <time>2016-04-29T19:25:22Z</time>
      </trkpt>
      <trkpt lat="48.08808" lon="-4.49845">
        <ele>24.208</ele>
        <time>2016-04-29T19:25:02Z</time>
      </trkpt>
      <trkpt lat="48.08792" lon="-4.49821">
        <ele>23.323</ele>
        <time>2016-04-29T19:24:42Z</time>
      </trkpt>
      <trkpt lat="48.08785" lon="-4.4977">
        <ele>16.203</ele>
        <time>2016-04-29T19:24:22Z</time>
      </trkpt>
      <trkpt lat="48.08767" lon="-4.49759">
        <ele>18.859</ele>
        <time>2016-04-29T19:24:02Z</time>
      </trkpt>
      <trkpt lat="48.0876" lon="-4.49721">
        <ele>20.232</ele>
        <time>2016-04-29T19:23:42Z</time>
      </trkpt>
      <trkpt lat="48.08769" lon="-4.4968">
        <ele>18.092</ele>
        <time>2016-04-29T19:23:22Z</time>
      </trkpt>
      <trkpt lat="48.08763" lon="-4.49628">
        <ele>17.958</ele>
        <time>2016-04-29T19:23:02Z</time>
      </trkpt>
      <trkpt lat="48.08749" lon="-4.49585">
        <ele>19.744</ele>
        <time>2016-04-29T19:22:42Z</time>
      </trkpt>
      <trkpt lat="48.08752" lon="-4.49545">
        <ele>14.122</ele>
        <time>2016-04-29T19:22:22Z</time>
      </trkpt>
      <trkpt lat="48.08739" lon="-4.49512">
        <ele>16.475</ele>
        <time>2016-04-29T19:22:02Z</time>
      </trkpt>
      <trkpt lat="48.0874" lon="-4.49485">
        <ele>14.513</ele>
        <time>2016-04-29T19:21:42Z</time>
      </trkpt>
      <trkpt lat="48.08726" lon="-4.49452">
        <ele>20.277</ele>
        <time>2016-04-29T19:21:22Z</time>
      </trkpt>
      <trkpt lat="48.08735" lon="-4.49416">
        <ele>16.708</ele>
        <time>2016-04-29T19:21:02Z</time>
      </trkpt>
      <trkpt lat="48.08722" lon="-4.49403">
        <ele>22.113</ele>
        <time>2016-04-29T19:20:42Z</time>
      </trkpt>
      <trkpt lat="48.08722" lon="-4.49354">
        <ele>20.376</ele>
        <time>2016-04-29T19:20:22Z</time>
      </trkpt>
      <trkpt lat="48.08737" lon="-4.49315">
        <ele>11.216</ele>
        <time>2016-04-29T19:20:02Z</time>
      </trkpt>
      <trkpt lat="48.08733" lon="-4.49283">
        <ele>8.257</ele>
        <time>2016-04-29T19:19:42Z</time>
      </trkpt>
      <trkpt lat="48.08676" lon="-4.49302">
        <ele>19.717</ele>
        <time>2016-04-29T19:19:22Z</time>
      </trkpt>
      <trkpt lat="48.08643" lon="-4.49255">
        <ele>14.683</ele>
        <time>2016-04-29T19:19:02Z</time>
      </trkpt>
      <trkpt lat="48.08624" lon="-4.49184">
        <ele>11.539</ele>
        <time>2016-04-29T19:18:42Z</time>
      </trkpt>
      <trkpt lat="48.08594" lon="-4.49186">
        <ele>16.067</ele>
        <time>2016-04-29T19:18:22Z</time>
      </trkpt>
      <trkpt lat="48.0866" lon="-4.49079">
        <ele>13.12</ele>
        <time>2016-04-29T19:18:02Z</time>
      </trkpt>
      <trkpt lat="48.08624" lon="-4.48995">
        <ele>19.958</ele>
        <time>2016-04-29T19:17:42Z</time>
      </trkpt>
      <trkpt lat="48.08621" lon="-4.48959">
        <ele>17.832</ele>
        <time>2016-04-29T19:17:22Z</time>
      </trkpt>
      <trkpt lat="48.08594" lon="-4.48933">
        <ele>28.208</ele>
        <time>2016-04-29T19:17:02Z</time>
      </trkpt>
      <trkpt lat="48.08578" lon="-4.48894">
        <ele>31.124</ele>
        <time>2016-04-29T19:16:42Z</time>
      </trkpt>
      <trkpt lat="48.08614" lon="-4.48821">
        <ele>24.004</ele>
        <time>2016-04-29T19:16:22Z</time>
      </trkpt>
      <trkpt lat="48.08646" lon="-4.48791">
        <ele>17.769</ele>
        <time>2016-04-29T19:16:02Z</time>
      </trkpt>
      <trkpt lat="48.0862" lon="-4.48673">
        <ele>16.683</ele>
        <time>2016-04-29T19:15:42Z</time>
      </trkpt>
      <trkpt lat="48.08578" lon="-4.48611">
        <ele>19.193</ele>
        <time>2016-04-29T19:15:22Z</time>
      </trkpt>
      <trkpt lat="48.08585" lon="-4.4857">
        <ele>18.349</ele>
        <time>2016-04-29T19:15:02Z</time>
      </trkpt>
      <trkpt lat="48.08647" lon="-4.48609">
        <ele>11.195</ele>
        <time>2016-04-29T19:14:42Z</time>
      </trkpt>
      <trkpt lat="48.08654" lon="-4.48551">
        <ele>13.473</ele>
        <time>2016-04-29T19:14:22Z</time>
      </trkpt>
      <trkpt lat="48.08693" lon="-4.48558">
        <ele>16.646</ele>
        <time>2016-04-29T19:14:02Z</time>
      </trkpt>
      <trkpt lat="48.08717" lon="-4.48581">
        <ele>16.024</ele>
        <time>2016-04-29T19:13:42Z</time>
      </trkpt>
      <trkpt lat="48.08745" lon="-4.48585">
        <ele>13.278</ele>
        <time>2016-04-29T19:13:22Z</time>
      </trkpt>
      <trkpt lat="48.08757" lon="-4.48575">
        <ele>13.608</ele>
        <time>2016-04-29T19:13:02Z</time>
      </trkpt>
      <trkpt lat="48.0874" lon="-4.48532">
        <ele>23.308</ele>
        <time>2016-04-29T19:12:42Z</time>
      </trkpt>
      <trkpt lat="48.0875" lon="-4.48478">
        <ele>26.526</ele>
        <time>2016-04-29T19:12:22Z</time>
      </trkpt>
      <trkpt lat="48.08772" lon="-4.48425">
        <ele>25.825</ele>
        <time>2016-04-29T19:12:02Z</time>
      </trkpt>
      <trkpt lat="48.08796" lon="-4.48427">
        <ele>19.432</ele>
        <time>2016-04-29T19:11:42Z</time>
      </trkpt>
      <trkpt lat="48.08845" lon="-4.48377">
        <ele>21.222</ele>
        <time>2016-04-29T19:11:22Z</time>
      </trkpt>
      <trkpt lat="48.08865" lon="-4.48334">
        <ele>22.248</ele>
        <time>2016-04-29T19:11:02Z</time>
      </trkpt>
      <trkpt lat="48.08862" lon="-4.48257">
        <ele>29.764</ele>
        <time>2016-04-29T19:10:42Z</time>
      </trkpt>
      <trkpt lat="48.08881" lon="-4.48225">
        <ele>29.442</ele>
        <time>2016-04-29T19:10:22Z</time>
      </trkpt>
      <trkpt lat="48.08929" lon="-4.48274">
        <ele>12.445</ele>
        <time>2016-04-29T19:10:02Z</time>
      </trkpt>
      <trkpt lat="48.08951" lon="-4.48276">
        <ele>9.643</ele>
        <time>2016-04-29T19:09:42Z</time>
      </trkpt>
      <trkpt lat="48.08987" lon="-4.48186">
        <ele>25.177</ele>
        <time>2016-04-29T19:09:22Z</time>
      </trkpt>
      <trkpt lat="48.09031" lon="-4.48193">
        <ele>14.108</ele>
        <time>2016-04-29T19:09:02Z</time>
      </trkpt>
      <trkpt lat="48.09071" lon="-4.48171">
        <ele>15.617</ele>
        <time>2016-04-29T19:08:42Z</time>
      </trkpt>
      <trkpt lat="48.0912" lon="-4.48085">
        <ele>20.898</ele>
        <time>2016-04-29T19:08:22Z</time>
      </trkpt>
      <trkpt lat="48.09142" lon="-4.47998">
        <ele>29.918</ele>
        <time>2016-04-29T19:08:02Z</time>
      </trkpt>
      <trkpt lat="48.09147" lon="-4.47948">
        <ele>33.263</ele>
        <time>2016-04-29T19:07:42Z</time>
      </trkpt>
      <trkpt lat="48.09175" lon="-4.47897">
        <ele>31.113</ele>
        <time>2016-04-29T19:07:22Z</time>
      </trkpt>
      <trkpt lat="48.09193" lon="-4.47822">
        <ele>37.159</ele>
        <time>2016-04-29T19:07:02Z</time>
      </trkpt>
      <trkpt lat="48.09215" lon="-4.47792">
        <ele>32.015</ele>
        <time>2016-04-29T19:06:42Z</time>
      </trkpt>
      <trkpt lat="48.09232" lon="-4.47731">
        <ele>30.543</ele>
        <time>2016-04-29T19:06:22Z</time>
      </trkpt>
      <trkpt lat="48.09226" lon="-4.4768">
        <ele>38.636</ele>
        <time>2016-04-29T19:06:02Z</time>
      </trkpt>
      <trkpt lat="48.09233" lon="-4.47637">
        <ele>40.154</ele>
        <time>2016-04-29T19:05:42Z</time>
      </trkpt>
      <trkpt lat="48.09269" lon="-4.47613">
        <ele>38.898</ele>
        <time>2016-04-29T19:05:22Z</time>
      </trkpt>
      <trkpt lat="48.09291" lon="-4.4765">
        <ele>29.308</ele>
        <time>2016-04-29T19:05:02Z</time>
      </trkpt>
      <trkpt lat="48.09312" lon="-4.47665">
        <ele>26.02</ele>
        <time>2016-04-29T19:04:42Z</time>
      </trkpt>
      <trkpt lat="48.09344" lon="-4.47652">
        <ele>32</ele>
        <time>2016-04-29T19:04:22Z</time>
      </trkpt>
      <trkpt lat="48.09357" lon="-4.47669">
        <ele>27.029</ele>
        <time>2016-04-29T19:04:02Z</time>
      </trkpt>
      <trkpt lat="48.09392" lon="-4.47686">
        <ele>24.059</ele>
        <time>2016-04-29T19:03:42Z</time>
      </trkpt>
      <trkpt lat="48.09428" lon="-4.47669">
        <ele>33.639</ele>
        <time>2016-04-29T19:03:22Z</time>
      </trkpt>
      <trkpt lat="48.09476" lon="-4.47676">
        <ele>27.085</ele>
        <time>2016-04-29T19:03:02Z</time>
      </trkpt>
      <trkpt lat="48.09517" lon="-4.47641">
        <ele>24.781</ele>
        <time>2016-04-29T19:02:42Z</time>
      </trkpt>
      <trkpt lat="48.09539" lon="-4.47555">
        <ele>19.639</ele>
        <time>2016-04-29T19:02:22Z</time>
      </trkpt>
      <trkpt lat="48.095" lon="-4.47491">
        <ele>27.232</ele>
        <time>2016-04-29T19:02:02Z</time>
      </trkpt>
      <trkpt lat="48.09478" lon="-4.47442">
        <ele>30.09</ele>
        <time>2016-04-29T19:01:42Z</time>
      </trkpt>
      <trkpt lat="48.09487" lon="-4.47373">
        <ele>29.814</ele>
        <time>2016-04-29T19:01:22Z</time>
      </trkpt>
      <trkpt lat="48.09541" lon="-4.47315">
        <ele>14.308</ele>
        <time>2016-04-29T19:01:02Z</time>
      </trkpt>
      <trkpt lat="48.09549" lon="-4.47212">
        <ele>12.326</ele>
        <time>2016-04-29T19:00:42Z</time>
      </trkpt>
      <trkpt lat="48.09533" lon="-4.47169">
        <ele>20.424</ele>
        <time>2016-04-29T19:00:22Z</time>
      </trkpt>
      <trkpt lat="48.09544" lon="-4.47096">
        <ele>16.988</ele>
        <time>2016-04-29T19:00:02Z</time>
      </trkpt>
      <trkpt lat="48.09566" lon="-4.47064">
        <ele>10.734</ele>
        <time>2016-04-29T18:59:42Z</time>
      </trkpt>
      <trkpt lat="48.09556" lon="-4.47002">
        <ele>18.894</ele>
        <time>2016-04-29T18:59:22Z</time>
      </trkpt>
      <trkpt lat="48.09553" lon="-4.46953">
        <ele>18.96</ele>
        <time>2016-04-29T18:59:02Z</time>
      </trkpt>
      <trkpt lat="48.09527" lon="-4.46892">
        <ele>20.236</ele>
        <time>2016-04-29T18:58:42Z</time>
      </trkpt>
      <trkpt lat="48.09536" lon="-4.46738">
        <ele>18.444</ele>
        <time>2016-04-29T18:58:22Z</time>
      </trkpt>
      <trkpt lat="48.09566" lon="-4.46678">
        <ele>10.947</ele>
        <time>2016-04-29T18:58:02Z</time>
      </trkpt>
      <trkpt lat="48.09561" lon="-4.46622">
        <ele>19.215</ele>
        <time>2016-04-29T18:57:42Z</time>
      </trkpt>
      <trkpt lat="48.09587" lon="-4.46577">
        <ele>18.749</ele>
        <time>2016-04-29T18:57:22Z</time>
      </trkpt>
      <trkpt lat="48.09623" lon="-4.46547">
        <ele>20.208</ele>
        <time>2016-04-29T18:57:02Z</time>
      </trkpt>
      <trkpt lat="48.09665" lon="-4.46564">
        <ele>16.61</ele>
        <time>2016-04-29T18:56:42Z</time>
      </trkpt>
      <trkpt lat="48.09675" lon="-4.46609">
        <ele>11.755</ele>
        <time>2016-04-29T18:56:22Z</time>
      </trkpt>
      <trkpt lat="48.09748" lon="-4.46618">
        <ele>18.634</ele>
        <time>2016-04-29T18:56:02Z</time>
      </trkpt>
      <trkpt lat="48.09802" lon="-4.46588">
        <ele>20.496</ele>
        <time>2016-04-29T18:55:42Z</time>
      </trkpt>
      <trkpt lat="48.09824" lon="-4.4647">
        <ele>32.446</ele>
        <time>2016-04-29T18:55:22Z</time>
      </trkpt>
      <trkpt lat="48.09877" lon="-4.46472">
        <ele>21.382</ele>
        <time>2016-04-29T18:55:02Z</time>
      </trkpt>
      <trkpt lat="48.09883" lon="-4.46438">
        <ele>18.578</ele>
        <time>2016-04-29T18:54:42Z</time>
      </trkpt>
      <trkpt lat="48.09857" lon="-4.46365">
        <ele>21.736</ele>
        <time>2016-04-29T18:54:22Z</time>
      </trkpt>
      <trkpt lat="48.0986" lon="-4.46307">
        <ele>12.049</ele>
        <time>2016-04-29T18:54:02Z</time>
      </trkpt>
      <trkpt lat="48.09819" lon="-4.46257">
        <ele>15.787</ele>
        <time>2016-04-29T18:53:42Z</time>
      </trkpt>
      <trkpt lat="48.09781" lon="-4.46242">
        <ele>21.551</ele>
        <time>2016-04-29T18:53:22Z</time>
      </trkpt>
      <trkpt lat="48.09752" lon="-4.46255">
        <ele>21.908</ele>
        <time>2016-04-29T18:53:02Z</time>
      </trkpt>
      <trkpt lat="48.09709" lon="-4.46242">
        <ele>12.811</ele>
        <time>2016-04-29T18:52:42Z</time>
      </trkpt>
      <trkpt lat="48.09685" lon="-4.46195">
        <ele>9.156</ele>
        <time>2016-04-29T18:52:22Z</time>
      </trkpt>
      <trkpt lat="48.09711" lon="-4.46148">
        <ele>6.354</ele>
        <time>2016-04-29T18:52:02Z</time>
      </trkpt>
      <trkpt lat="48.09698" lon="-4.4606">
        <ele>7.936</ele>
        <time>2016-04-29T18:51:42Z</time>
      </trkpt>
      <trkpt lat="48.09647" lon="-4.45968">
        <ele>15.196</ele>
        <time>2016-04-29T18:51:22Z</time>
      </trkpt>
      <trkpt lat="48.09666" lon="-4.45925">
        <ele>6.922</ele>
        <time>2016-04-29T18:51:02Z</time>
      </trkpt>
      <trkpt lat="48.09659" lon="-4.4589">
        <ele>11.378</ele>
        <time>2016-04-29T18:50:42Z</time>
      </trkpt>
      <trkpt lat="48.0967" lon="-4.4586">
        <ele>9.896</ele>
        <time>2016-04-29T18:50:22Z</time>
      </trkpt>
      <trkpt lat="48.09663" lon="-4.45828">
        <ele>13.269</ele>
        <time>2016-04-29T18:50:02Z</time>
      </trkpt>
      <trkpt lat="48.09683" lon="-4.45792">
        <ele>7.317</ele>
        <time>2016-04-29T18:49:42Z</time>
      </trkpt>
      <trkpt lat="48.09642" lon="-4.45753">
        <ele>15.241</ele>
        <time>2016-04-29T18:49:22Z</time>
      </trkpt>
      <trkpt lat="48.09615" lon="-4.45693">
        <ele>24.208</ele>
        <time>2016-04-29T18:49:02Z</time>
      </trkpt>
      <trkpt lat="48.09615" lon="-4.45626">
        <ele>29.914</ele>
        <time>2016-04-29T18:48:42Z</time>
      </trkpt>
      <trkpt lat="48.09649" lon="-4.45622">
        <ele>12.859</ele>
        <time>2016-04-29T18:48:22Z</time>
      </trkpt>
      <trkpt lat="48.09672" lon="-4.45609">
        <ele>5.456</ele>
        <time>2016-04-29T18:48:02Z</time>
      </trkpt>
      <trkpt lat="48.09663" lon="-4.45517">
        <ele>22.425</ele>
        <time>2016-04-29T18:47:42Z</time>
      </trkpt>
      <trkpt lat="48.09692" lon="-4.45508">
        <ele>10.315</ele>
        <time>2016-04-29T18:47:22Z</time>
      </trkpt>
      <trkpt lat="48.09708" lon="-4.45463">
        <ele>10.491</ele>
        <time>2016-04-29T18:47:02Z</time>
      </trkpt>
      <trkpt lat="48.09703" lon="-4.45412">
        <ele>22.457</ele>
        <time>2016-04-29T18:46:42Z</time>
      </trkpt>
      <trkpt lat="48.09726" lon="-4.45373">
        <ele>14.725</ele>
        <time>2016-04-29T18:46:22Z</time>
      </trkpt>
      <trkpt lat="48.09712" lon="-4.45326">
        <ele>26.768</ele>
        <time>2016-04-29T18:46:02Z</time>
      </trkpt>
      <trkpt lat="48.09765" lon="-4.45272">
        <ele>9.296</ele>
        <time>2016-04-29T18:45:42Z</time>
      </trkpt>
      <trkpt lat="48.09754" lon="-4.45212">
        <ele>29.16</ele>
        <time>2016-04-29T18:45:22Z</time>
      </trkpt>
      <trkpt lat="48.09754" lon="-4.45152">
        <ele>37.208</ele>
        <time>2016-04-29T18:45:02Z</time>
      </trkpt>
      <trkpt lat="48.09815" lon="-4.45114">
        <ele>11.01</ele>
        <time>2016-04-29T18:44:42Z</time>
      </trkpt>
      <trkpt lat="48.09821" lon="-4.45058">
        <ele>15.564</ele>
        <time>2016-04-29T18:44:22Z</time>
      </trkpt>
      <trkpt lat="48.09825" lon="-4.45017">
        <ele>16.343</ele>
        <time>2016-04-29T18:44:02Z</time>
      </trkpt>
      <trkpt lat="48.09814" lon="-4.44974">
        <ele>24.795</ele>
        <time>2016-04-29T18:43:42Z</time>
      </trkpt>
      <trkpt lat="48.09807" lon="-4.4494">
        <ele>27.845</ele>
        <time>2016-04-29T18:43:22Z</time>
      </trkpt>
      <trkpt lat="48.09821" lon="-4.44927">
        <ele>12.861</ele>
        <time>2016-04-29T18:43:02Z</time>
      </trkpt>
      <trkpt lat="48.09814" lon="-4.4486">
        <ele>14.077</ele>
        <time>2016-04-29T18:42:42Z</time>
      </trkpt>
      <trkpt lat="48.09776" lon="-4.44757">
        <ele>12.255</ele>
        <time>2016-04-29T18:42:22Z</time>
      </trkpt>
      <trkpt lat="48.09755" lon="-4.44727">
        <ele>15.368</ele>
        <time>2016-04-29T18:42:02Z</time>
      </trkpt>
      <trkpt lat="48.09764" lon="-4.44695">
        <ele>7.756</ele>
        <time>2016-04-29T18:41:42Z</time>
      </trkpt>
      <trkpt lat="48.09735" lon="-4.44667">
        <ele>15.51</ele>
        <time>2016-04-29T18:41:22Z</time>
      </trkpt>
      <trkpt lat="48.09723" lon="-4.44605">
        <ele>14.908</ele>
        <time>2016-04-29T18:41:02Z</time>
      </trkpt>
      <trkpt lat="48.09738" lon="-4.44588">
        <ele>7.415</ele>
        <time>2016-04-29T18:40:42Z</time>
      </trkpt>
      <trkpt lat="48.09718" lon="-4.44549">
        <ele>11.405</ele>
        <time>2016-04-29T18:40:22Z</time>
      </trkpt>
      <trkpt lat="48.09702" lon="-4.44539">
        <ele>19.044</ele>
        <time>2016-04-29T18:40:02Z</time>
      </trkpt>
      <trkpt lat="48.09723" lon="-4.44455">
        <ele>16.729</ele>
        <time>2016-04-29T18:39:42Z</time>
      </trkpt>
      <trkpt lat="48.09764" lon="-4.44418">
        <ele>5.059</ele>
        <time>2016-04-29T18:39:22Z</time>
      </trkpt>
      <trkpt lat="48.09749" lon="-4.44386">
        <ele>11.175</ele>
        <time>2016-04-29T18:39:02Z</time>
      </trkpt>
      <trkpt lat="48.09718" lon="-4.44363">
        <ele>18.191</ele>
        <time>2016-04-29T18:38:42Z</time>
      </trkpt>
      <trkpt lat="48.09685" lon="-4.44311">
        <ele>19.649</ele>
        <time>2016-04-29T18:38:22Z</time>
      </trkpt>
      <trkpt lat="48.09688" lon="-4.44255">
        <ele>6.672</ele>
        <time>2016-04-29T18:38:02Z</time>
      </trkpt>
      <trkpt lat="48.09676" lon="-4.44247">
        <ele>8.88</ele>
        <time>2016-04-29T18:37:42Z</time>
      </trkpt>
      <trkpt lat="48.09649" lon="-4.44266">
        <ele>21.664</ele>
        <time>2016-04-29T18:37:22Z</time>
      </trkpt>
      <trkpt lat="48.09635" lon="-4.44257">
        <ele>24.508</ele>
        <time>2016-04-29T18:37:02Z</time>
      </trkpt>
      <trkpt lat="48.09607" lon="-4.44277">
        <ele>37.326</ele>
        <time>2016-04-29T18:36:42Z</time>
      </trkpt>
      <trkpt lat="48.09602" lon="-4.4423">
        <ele>35.06</ele>
        <time>2016-04-29T18:36:22Z</time>
      </trkpt>
      <trkpt lat="48.09616" lon="-4.44191">
        <ele>24.486</ele>
        <time>2016-04-29T18:36:02Z</time>
      </trkpt>
      <trkpt lat="48.0962" lon="-4.44148">
        <ele>23.424</ele>
        <time>2016-04-29T18:35:42Z</time>
      </trkpt>
      <trkpt lat="48.09662" lon="-4.44105">
        <ele>5.144</ele>
        <time>2016-04-29T18:35:22Z</time>
      </trkpt>
      <trkpt lat="48.0965" lon="-4.44079">
        <ele>14.38</ele>
        <time>2016-04-29T18:35:02Z</time>
      </trkpt>
      <trkpt lat="48.09655" lon="-4.43993">
        <ele>14.066</ele>
        <time>2016-04-29T18:34:42Z</time>
      </trkpt>
      <trkpt lat="48.09645" lon="-4.43968">
        <ele>23.214</ele>
        <time>2016-04-29T18:34:22Z</time>
      </trkpt>
      <trkpt lat="48.09647" lon="-4.43897">
        <ele>25.847</ele>
        <time>2016-04-29T18:34:02Z</time>
      </trkpt>
      <trkpt lat="48.09662" lon="-4.43867">
        <ele>24.665</ele>
        <time>2016-04-29T18:33:42Z</time>
      </trkpt>
      <trkpt lat="48.09659" lon="-4.4383">
        <ele>29.079</ele>
        <time>2016-04-29T18:33:22Z</time>
      </trkpt>
      <trkpt lat="48.09666" lon="-4.43796">
        <ele>29.508</ele>
        <time>2016-04-29T18:33:02Z</time>
      </trkpt>
      <trkpt lat="48.09663" lon="-4.43747">
        <ele>32.107</ele>
        <time>2016-04-29T18:32:42Z</time>
      </trkpt>
      <trkpt lat="48.09699" lon="-4.43691">
        <ele>25.661</ele>
        <time>2016-04-29T18:32:22Z</time>
      </trkpt>
      <trkpt lat="48.09742" lon="-4.43676">
        <ele>5.831</ele>
        <time>2016-04-29T18:32:02Z</time>
      </trkpt>
      <trkpt lat="48.09745" lon="-4.43624">
        <ele>9.888</ele>
        <time>2016-04-29T18:31:42Z</time>
      </trkpt>
      <trkpt lat="48.09716" lon="-4.43566">
        <ele>26.258</ele>
        <time>2016-04-29T18:31:22Z</time>
      </trkpt>
      <trkpt lat="48.09702" lon="-4.43461">
        <ele>22.134</ele>
        <time>2016-04-29T18:31:02Z</time>
      </trkpt>
      <trkpt lat="48.09703" lon="-4.43418">
        <ele>12.58</ele>
        <time>2016-04-29T18:30:42Z</time>
      </trkpt>
      <trkpt lat="48.09659" lon="-4.43378">
        <ele>19.228</ele>
        <time>2016-04-29T18:30:22Z</time>
      </trkpt>
      <trkpt lat="48.09627" lon="-4.43363">
        <ele>24.991</ele>
        <time>2016-04-29T18:30:02Z</time>
      </trkpt>
      <trkpt lat="48.09637" lon="-4.43326">
        <ele>24.499</ele>
        <time>2016-04-29T18:29:42Z</time>
      </trkpt>
      <trkpt lat="48.09702" lon="-4.43273">
        <ele>18.463</ele>
        <time>2016-04-29T18:29:22Z</time>
      </trkpt>
      <trkpt lat="48.09718" lon="-4.43249">
        <ele>19.108</ele>
        <time>2016-04-29T18:29:02Z</time>
      </trkpt>
      <trkpt lat="48.09725" lon="-4.43189">
        <ele>33.413</ele>
        <time>2016-04-29T18:28:42Z</time>
      </trkpt>
      <trkpt lat="48.09739" lon="-4.43165">
        <ele>34.685</ele>
        <time>2016-04-29T18:28:22Z</time>
      </trkpt>
      <trkpt lat="48.09755" lon="-4.43116">
        <ele>42.673</ele>
        <time>2016-04-29T18:28:02Z</time>
      </trkpt>
      <trkpt lat="48.09791" lon="-4.43099">
        <ele>37.15</ele>
        <time>2016-04-29T18:27:42Z</time>
      </trkpt>
      <trkpt lat="48.09818" lon="-4.43103">
        <ele>26.02</ele>
        <time>2016-04-29T18:27:22Z</time>
      </trkpt>
      <trkpt lat="48.09855" lon="-4.43067">
        <ele>27.676</ele>
        <time>2016-04-29T18:27:02Z</time>
      </trkpt>
      <trkpt lat="48.09865" lon="-4.43011">
        <ele>39.922</ele>
        <time>2016-04-29T18:26:42Z</time>
      </trkpt>
      <trkpt lat="48.09943" lon="-4.42946">
        <ele>18.88</ele>
        <time>2016-04-29T18:26:22Z</time>
      </trkpt>
      <trkpt lat="48.09953" lon="-4.42891">
        <ele>29.533</ele>
        <time>2016-04-29T18:26:02Z</time>
      </trkpt>
      <trkpt lat="48.0998" lon="-4.42888">
        <ele>16.531</ele>
        <time>2016-04-29T18:25:42Z</time>
      </trkpt>
      <trkpt lat="48.09997" lon="-4.42865">
        <ele>11.755</ele>
        <time>2016-04-29T18:25:22Z</time>
      </trkpt>
      <trkpt lat="48.09989" lon="-4.42813">
        <ele>18.908</ele>
        <time>2016-04-29T18:25:02Z</time>
      </trkpt>
      <trkpt lat="48.1" lon="-4.42775">
        <ele>11.025</ele>
        <time>2016-04-29T18:24:42Z</time>
      </trkpt>
      <trkpt lat="48.09997" lon="-4.4273">
        <ele>10.423</ele>
        <time>2016-04-29T18:24:22Z</time>
      </trkpt>
      <trkpt lat="48.09968" lon="-4.42702">
        <ele>20.297</ele>
        <time>2016-04-29T18:24:02Z</time>
      </trkpt>
      <trkpt lat="48.09973" lon="-4.42648">
        <ele>11.23</ele>
        <time>2016-04-29T18:23:42Z</time>
      </trkpt>
      <trkpt lat="48.09943" lon="-4.42599">
        <ele>22.96</ele>
        <time>2016-04-29T18:23:22Z</time>
      </trkpt>
      <trkpt lat="48.09986" lon="-4.42554">
        <ele>7.216</ele>
        <time>2016-04-29T18:23:02Z</time>
      </trkpt>
      <trkpt lat="48.09971" lon="-4.42504">
        <ele>15.142</ele>
        <time>2016-04-29T18:22:42Z</time>
      </trkpt>
      <trkpt lat="48.0995" lon="-4.42491">
        <ele>26.57</ele>
        <time>2016-04-29T18:22:22Z</time>
      </trkpt>
      <trkpt lat="48.09974" lon="-4.42479">
        <ele>17.283</ele>
        <time>2016-04-29T18:22:02Z</time>
      </trkpt>
      <trkpt lat="48.09981" lon="-4.42444">
        <ele>18.151</ele>
        <time>2016-04-29T18:21:42Z</time>
      </trkpt>
      <trkpt lat="48.09997" lon="-4.42431">
        <ele>12.265</ele>
        <time>2016-04-29T18:21:22Z</time>
      </trkpt>
      <trkpt lat="48.0999" lon="-4.42395">
        <ele>17.608</ele>
        <time>2016-04-29T18:21:02Z</time>
      </trkpt>
      <trkpt lat="48.09996" lon="-4.42358">
        <ele>14.52</ele>
        <time>2016-04-29T18:20:42Z</time>
      </trkpt>
      <trkpt lat="48.09986" lon="-4.42294">
        <ele>15.373</ele>
        <time>2016-04-29T18:20:22Z</time>
      </trkpt>
      <trkpt lat="48.10044" lon="-4.42281">
        <ele>12.992</ele>
        <time>2016-04-29T18:20:02Z</time>
      </trkpt>
      <trkpt lat="48.10083" lon="-4.42303">
        <ele>9.784</ele>
        <time>2016-04-29T18:19:42Z</time>
      </trkpt>
      <trkpt lat="48.10149" lon="-4.42311">
        <ele>10.714</ele>
        <time>2016-04-29T18:19:22Z</time>
      </trkpt>
      <trkpt lat="48.10169" lon="-4.42255">
        <ele>24.77</ele>
        <time>2016-04-29T18:19:02Z</time>
      </trkpt>
      <trkpt lat="48.10202" lon="-4.42262">
        <ele>25.756</ele>
        <time>2016-04-29T18:18:42Z</time>
      </trkpt>
      <trkpt lat="48.10226" lon="-4.42298">
        <ele>17.634</ele>
        <time>2016-04-29T18:18:22Z</time>
      </trkpt>
      <trkpt lat="48.10275" lon="-4.42313">
        <ele>8.887</ele>
        <time>2016-04-29T18:18:02Z</time>
      </trkpt>
      <trkpt lat="48.10291" lon="-4.42273">
        <ele>17.265</ele>
        <time>2016-04-29T18:17:42Z</time>
      </trkpt>
      <trkpt lat="48.10315" lon="-4.42262">
        <ele>15.669</ele>
        <time>2016-04-29T18:17:22Z</time>
      </trkpt>
      <trkpt lat="48.10375" lon="-4.42114">
        <ele>32.508</ele>
        <time>2016-04-29T18:17:02Z</time>
      </trkpt>
      <trkpt lat="48.10414" lon="-4.4211">
        <ele>18.507</ele>
        <time>2016-04-29T18:16:42Z</time>
      </trkpt>
      <trkpt lat="48.10433" lon="-4.4206">
        <ele>29.361</ele>
        <time>2016-04-29T18:16:22Z</time>
      </trkpt>
      <trkpt lat="48.1049" lon="-4.42047">
        <ele>12.231</ele>
        <time>2016-04-29T18:16:02Z</time>
      </trkpt>
      <trkpt lat="48.10506" lon="-4.42034">
        <ele>9.189</ele>
        <time>2016-04-29T18:15:42Z</time>
      </trkpt>
      <trkpt lat="48.10507" lon="-4.41996">
        <ele>11.729</ele>
        <time>2016-04-29T18:15:22Z</time>
      </trkpt>
      <trkpt lat="48.1046" lon="-4.41929">
        <ele>36.635</ele>
        <time>2016-04-29T18:15:02Z</time>
      </trkpt>
      <trkpt lat="48.10533" lon="-4.41841">
        <ele>31.461</ele>
        <time>2016-04-29T18:14:42Z</time>
      </trkpt>
      <trkpt lat="48.10559" lon="-4.41828">
        <ele>23.319</ele>
        <time>2016-04-29T18:14:22Z</time>
      </trkpt>
      <trkpt lat="48.10537" lon="-4.41721">
        <ele>45.392</ele>
        <time>2016-04-29T18:14:02Z</time>
      </trkpt>
      <trkpt lat="48.10552" lon="-4.41683">
        <ele>42.42</ele>
        <time>2016-04-29T18:13:42Z</time>
      </trkpt>
      <trkpt lat="48.10602" lon="-4.41661">
        <ele>28.364</ele>
        <time>2016-04-29T18:13:22Z</time>
      </trkpt>
      <trkpt lat="48.10608" lon="-4.4162">
        <ele>33.308</ele>
        <time>2016-04-29T18:13:02Z</time>
      </trkpt>
      <trkpt lat="48.10632" lon="-4.41502">
        <ele>19.026</ele>
        <time>2016-04-29T18:12:42Z</time>
      </trkpt>
      <trkpt lat="48.10645" lon="-4.41498">
        <ele>12.66</ele>
        <time>2016-04-29T18:12:22Z</time>
      </trkpt>
      <trkpt lat="48.10655" lon="-4.41479">
        <ele>8.386</ele>
        <time>2016-04-29T18:12:02Z</time>
      </trkpt>
      <trkpt lat="48.10628" lon="-4.41401">
        <ele>20.742</ele>
        <time>2016-04-29T18:11:42Z</time>
      </trkpt>
      <trkpt lat="48.10641" lon="-4.41384">
        <ele>15.632</ele>
        <time>2016-04-29T18:11:22Z</time>
      </trkpt>
      <trkpt lat="48.10668" lon="-4.41286">
        <ele>12.038</ele>
        <time>2016-04-29T18:11:02Z</time>
      </trkpt>
      <trkpt lat="48.10653" lon="-4.41245">
        <ele>18.774</ele>
        <time>2016-04-29T18:10:42Z</time>
      </trkpt>
      <trkpt lat="48.1062" lon="-4.41097">
        <ele>13.882</ele>
        <time>2016-04-29T18:10:22Z</time>
      </trkpt>
      <trkpt lat="48.10609" lon="-4.4105">
        <ele>12.275</ele>
        <time>2016-04-29T18:10:02Z</time>
      </trkpt>
      <trkpt lat="48.10573" lon="-4.40998">
        <ele>18.073</ele>
        <time>2016-04-29T18:09:42Z</time>
      </trkpt>
      <trkpt lat="48.10559" lon="-4.4094">
        <ele>10.957</ele>
        <time>2016-04-29T18:09:22Z</time>
      </trkpt>
      <trkpt lat="48.10512" lon="-4.40899">
        <ele>14.208</ele>
        <time>2016-04-29T18:09:02Z</time>
      </trkpt>
      <trkpt lat="48.10461" lon="-4.40824">
        <ele>15.609</ele>
        <time>2016-04-29T18:08:42Z</time>
      </trkpt>
      <trkpt lat="48.10454" lon="-4.40788">
        <ele>10.354</ele>
        <time>2016-04-29T18:08:22Z</time>
      </trkpt>
      <trkpt lat="48.10434" lon="-4.40758">
        <ele>13.314</ele>
        <time>2016-04-29T18:08:02Z</time>
      </trkpt>
      <trkpt lat="48.10437" lon="-4.40738">
        <ele>8.827</ele>
        <time>2016-04-29T18:07:42Z</time>
      </trkpt>
      <trkpt lat="48.10427" lon="-4.40713">
        <ele>8.477</ele>
        <time>2016-04-29T18:07:22Z</time>
      </trkpt>
      <trkpt lat="48.1038" lon="-4.407">
        <ele>14.693</ele>
        <time>2016-04-29T18:07:02Z</time>
      </trkpt>
      <trkpt lat="48.1033" lon="-4.40713">
        <ele>24.329</ele>
        <time>2016-04-29T18:06:42Z</time>
      </trkpt>
      <trkpt lat="48.10327" lon="-4.40676">
        <ele>26.797</ele>
        <time>2016-04-29T18:06:22Z</time>
      </trkpt>
      <trkpt lat="48.10367" lon="-4.40504">
        <ele>19.95</ele>
        <time>2016-04-29T18:06:02Z</time>
      </trkpt>
      <trkpt lat="48.10365" lon="-4.40432">
        <ele>17.428</ele>
        <time>2016-04-29T18:05:42Z</time>
      </trkpt>
      <trkpt lat="48.10411" lon="-4.40417">
        <ele>13.292</ele>
        <time>2016-04-29T18:05:22Z</time>
      </trkpt>
      <trkpt lat="48.10453" lon="-4.40425">
        <ele>10.808</ele>
        <time>2016-04-29T18:05:02Z</time>
      </trkpt>
      <trkpt lat="48.10481" lon="-4.40395">
        <ele>19.516</ele>
        <time>2016-04-29T18:04:42Z</time>
      </trkpt>
      <trkpt lat="48.1052" lon="-4.40399">
        <ele>9.706</ele>
        <time>2016-04-29T18:04:22Z</time>
      </trkpt>
      <trkpt lat="48.10535" lon="-4.40369">
        <ele>8.764</ele>
        <time>2016-04-29T18:04:02Z</time>
      </trkpt>
      <trkpt lat="48.1052" lon="-4.40215">
        <ele>24.357</ele>
        <time>2016-04-29T18:03:42Z</time>
      </trkpt>
      <trkpt lat="48.10503" lon="-4.40161">
        <ele>35.597</ele>
        <time>2016-04-29T18:03:22Z</time>
      </trkpt>
      <trkpt lat="48.10526" lon="-4.40007">
        <ele>9.853</ele>
        <time>2016-04-29T18:03:02Z</time>
      </trkpt>
      <trkpt lat="48.10471" lon="-4.39893">
        <ele>24.049</ele>
        <time>2016-04-29T18:02:42Z</time>
      </trkpt>
      <trkpt lat="48.10457" lon="-4.39839">
        <ele>27.557</ele>
        <time>2016-04-29T18:02:22Z</time>
      </trkpt>
      <trkpt lat="48.1047" lon="-4.39768">
        <ele>13.47</ele>
        <time>2016-04-29T18:02:02Z</time>
      </trkpt>
      <trkpt lat="48.10443" lon="-4.39706">
        <ele>27.968</ele>
        <time>2016-04-29T18:01:42Z</time>
      </trkpt>
      <trkpt lat="48.10423" lon="-4.39655">
        <ele>37.752</ele>
        <time>2016-04-29T18:01:22Z</time>
      </trkpt>
      <trkpt lat="48.10426" lon="-4.39595">
        <ele>29.308</ele>
        <time>2016-04-29T18:01:02Z</time>
      </trkpt>
      <trkpt lat="48.1041" lon="-4.39524">
        <ele>38.711</ele>
        <time>2016-04-29T18:00:42Z</time>
      </trkpt>
      <trkpt lat="48.1039" lon="-4.39447">
        <ele>43.583</ele>
        <time>2016-04-29T18:00:22Z</time>
      </trkpt>
      <trkpt lat="48.10428" lon="-4.39264">
        <ele>39.962</ele>
        <time>2016-04-29T18:00:02Z</time>
      </trkpt>
      <trkpt lat="48.10436" lon="-4.39161">
        <ele>40.246</ele>
        <time>2016-04-29T17:59:42Z</time>
      </trkpt>
      <trkpt lat="48.10461" lon="-4.39093">
        <ele>19.446</ele>
        <time>2016-04-29T17:59:22Z</time>
      </trkpt>
      <trkpt lat="48.10439" lon="-4.39022">
        <ele>21.872</ele>
        <time>2016-04-29T17:59:02Z</time>
      </trkpt>
      <trkpt lat="48.10476" lon="-4.38863">
        <ele>13.618</ele>
        <time>2016-04-29T17:58:42Z</time>
      </trkpt>
      <trkpt lat="48.10483" lon="-4.38717">
        <ele>31.066</ele>
        <time>2016-04-29T17:58:22Z</time>
      </trkpt>
      <trkpt lat="48.10513" lon="-4.38687">
        <ele>22.269</ele>
        <time>2016-04-29T17:58:02Z</time>
      </trkpt>
      <trkpt lat="48.10519" lon="-4.38659">
        <ele>23.467</ele>
        <time>2016-04-29T17:57:42Z</time>
      </trkpt>
      <trkpt lat="48.10499" lon="-4.3862">
        <ele>37.351</ele>
        <time>2016-04-29T17:57:22Z</time>
      </trkpt>
      <trkpt lat="48.10547" lon="-4.38447">
        <ele>34.308</ele>
        <time>2016-04-29T17:57:02Z</time>
      </trkpt>
      <trkpt lat="48.10552" lon="-4.38389">
        <ele>39.114</ele>
        <time>2016-04-29T17:56:42Z</time>
      </trkpt>
      <trkpt lat="48.10565" lon="-4.38352">
        <ele>34.504</ele>
        <time>2016-04-29T17:56:22Z</time>
      </trkpt>
      <trkpt lat="48.10565" lon="-4.38296">
        <ele>35.953</ele>
        <time>2016-04-29T17:56:02Z</time>
      </trkpt>
      <trkpt lat="48.10599" lon="-4.38258">
        <ele>24.61</ele>
        <time>2016-04-29T17:55:42Z</time>
      </trkpt>
      <trkpt lat="48.10641" lon="-4.38168">
        <ele>25.97</ele>
        <time>2016-04-29T17:55:22Z</time>
      </trkpt>
      <trkpt lat="48.10709" lon="-4.38078">
        <ele>18.396</ele>
        <time>2016-04-29T17:55:02Z</time>
      </trkpt>
      <trkpt lat="48.10716" lon="-4.38026">
        <ele>28.242</ele>
        <time>2016-04-29T17:54:42Z</time>
      </trkpt>
      <trkpt lat="48.10757" lon="-4.3797">
        <ele>19.89</ele>
        <time>2016-04-29T17:54:22Z</time>
      </trkpt>
      <trkpt lat="48.10748" lon="-4.37902">
        <ele>34.763</ele>
        <time>2016-04-29T17:54:02Z</time>
      </trkpt>
      <trkpt lat="48.10719" lon="-4.37863">
        <ele>42.351</ele>
        <time>2016-04-29T17:53:42Z</time>
      </trkpt>
      <trkpt lat="48.10751" lon="-4.37816">
        <ele>43.865</ele>
        <time>2016-04-29T17:53:22Z</time>
      </trkpt>
      <trkpt lat="48.10772" lon="-4.3779">
        <ele>40.608</ele>
        <time>2016-04-29T17:53:02Z</time>
      </trkpt>
      <trkpt lat="48.10778" lon="-4.37751">
        <ele>41.819</ele>
        <time>2016-04-29T17:52:42Z</time>
      </trkpt>
      <trkpt lat="48.10797" lon="-4.37687">
        <ele>36.581</ele>
        <time>2016-04-29T17:52:22Z</time>
      </trkpt>
      <trkpt lat="48.10814" lon="-4.37565">
        <ele>36.591</ele>
        <time>2016-04-29T17:52:02Z</time>
      </trkpt>
      <trkpt lat="48.10833" lon="-4.37524">
        <ele>33.987</ele>
        <time>2016-04-29T17:51:42Z</time>
      </trkpt>
      <trkpt lat="48.10898" lon="-4.37481">
        <ele>23.767</ele>
        <time>2016-04-29T17:51:22Z</time>
      </trkpt>
      <trkpt lat="48.10957" lon="-4.3747">
        <ele>22.333</ele>
        <time>2016-04-29T17:51:02Z</time>
      </trkpt>
      <trkpt lat="48.10979" lon="-4.37417">
        <ele>22.939</ele>
        <time>2016-04-29T17:50:42Z</time>
      </trkpt>
      <trkpt lat="48.10972" lon="-4.3737">
        <ele>31.057</ele>
        <time>2016-04-29T17:50:22Z</time>
      </trkpt>
      <trkpt lat="48.10986" lon="-4.37348">
        <ele>21.05</ele>
        <time>2016-04-29T17:50:02Z</time>
      </trkpt>
      <trkpt lat="48.10996" lon="-4.37271">
        <ele>13.838</ele>
        <time>2016-04-29T17:49:42Z</time>
      </trkpt>
      <trkpt lat="48.10979" lon="-4.37144">
        <ele>22.642</ele>
        <time>2016-04-29T17:49:22Z</time>
      </trkpt>
      <trkpt lat="48.10982" lon="-4.37095">
        <ele>16.108</ele>
        <time>2016-04-29T17:49:02Z</time>
      </trkpt>
      <trkpt lat="48.10931" lon="-4.36981">
        <ele>32.126</ele>
        <time>2016-04-29T17:48:42Z</time>
      </trkpt>
      <trkpt lat="48.10939" lon="-4.36925">
        <ele>34.042</ele>
        <time>2016-04-29T17:48:22Z</time>
      </trkpt>
      <trkpt lat="48.10961" lon="-4.36921">
        <ele>18.568</ele>
        <time>2016-04-29T17:48:02Z</time>
      </trkpt>
      <trkpt lat="48.10966" lon="-4.36846">
        <ele>12.978</ele>
        <time>2016-04-29T17:47:42Z</time>
      </trkpt>
      <trkpt lat="48.10939" lon="-4.36794">
        <ele>13.788</ele>
        <time>2016-04-29T17:47:22Z</time>
      </trkpt>
      <trkpt lat="48.10941" lon="-4.36739">
        <ele>1.974</ele>
        <time>2016-04-29T17:47:02Z</time>
      </trkpt>
      <trkpt lat="48.10876" lon="-4.36543">
        <ele>25.74</ele>
        <time>2016-04-29T17:46:42Z</time>
      </trkpt>
      <trkpt lat="48.10881" lon="-4.36494">
        <ele>23.778</ele>
        <time>2016-04-29T17:46:22Z</time>
      </trkpt>
      <trkpt lat="48.10873" lon="-4.3641">
        <ele>30.441</ele>
        <time>2016-04-29T17:46:02Z</time>
      </trkpt>
      <trkpt lat="48.10898" lon="-4.36357">
        <ele>11.539</ele>
        <time>2016-04-29T17:45:42Z</time>
      </trkpt>
      <trkpt lat="48.109" lon="-4.36316">
        <ele>8.373</ele>
        <time>2016-04-29T17:45:22Z</time>
      </trkpt>
      <trkpt lat="48.10914" lon="-4.36273">
        <ele>3.508</ele>
        <time>2016-04-29T17:45:02Z</time>
      </trkpt>
      <trkpt lat="48.10894" lon="-4.36207">
        <ele>6.021</ele>
        <time>2016-04-29T17:44:42Z</time>
      </trkpt>
      <trkpt lat="48.10861" lon="-4.36202">
        <ele>9.056</ele>
        <time>2016-04-29T17:44:22Z</time>
      </trkpt>
      <trkpt lat="48.10801" lon="-4.36146">
        <ele>11.674</ele>
        <time>2016-04-29T17:44:02Z</time>
      </trkpt>
      <trkpt lat="48.10735" lon="-4.3614">
        <ele>17.31</ele>
        <time>2016-04-29T17:43:42Z</time>
      </trkpt>
      <trkpt lat="48.10712" lon="-4.36114">
        <ele>15.18</ele>
        <time>2016-04-29T17:43:22Z</time>
      </trkpt>
      <trkpt lat="48.10669" lon="-4.36106">
        <ele>23.556</ele>
        <time>2016-04-29T17:43:02Z</time>
      </trkpt>
      <trkpt lat="48.10628" lon="-4.35951">
        <ele>15.612</ele>
        <time>2016-04-29T17:42:42Z</time>
      </trkpt>
      <trkpt lat="48.10555" lon="-4.35994">
        <ele>30.01</ele>
        <time>2016-04-29T17:42:22Z</time>
      </trkpt>
      <trkpt lat="48.10486" lon="-4.35833">
        <ele>25.043</ele>
        <time>2016-04-29T17:42:02Z</time>
      </trkpt>
      <trkpt lat="48.10483" lon="-4.35747">
        <ele>17.871</ele>
        <time>2016-04-29T17:41:42Z</time>
      </trkpt>
      <trkpt lat="48.10384" lon="-4.35599">
        <ele>19.935</ele>
        <time>2016-04-29T17:41:22Z</time>
      </trkpt>
      <trkpt lat="48.10414" lon="-4.35539">
        <ele>8.408</ele>
        <time>2016-04-29T17:41:02Z</time>
      </trkpt>
      <trkpt lat="48.10354" lon="-4.35473">
        <ele>14.02</ele>
        <time>2016-04-29T17:40:42Z</time>
      </trkpt>
      <trkpt lat="48.10291" lon="-4.3543">
        <ele>7.773</ele>
        <time>2016-04-29T17:40:22Z</time>
      </trkpt>
      <trkpt lat="48.10267" lon="-4.35329">
        <ele>4.792</ele>
        <time>2016-04-29T17:40:02Z</time>
      </trkpt>
      <trkpt lat="48.10246" lon="-4.35325">
        <ele>6.91</ele>
        <time>2016-04-29T17:39:42Z</time>
      </trkpt>
      <trkpt lat="48.10198" lon="-4.35284">
        <ele>5.51</ele>
        <time>2016-04-29T17:39:22Z</time>
      </trkpt>
      <trkpt lat="48.10168" lon="-4.35189">
        <ele>5.156</ele>
        <time>2016-04-29T17:39:02Z</time>
      </trkpt>
      <trkpt lat="48.10216" lon="-4.35155">
        <ele>2.882</ele>
        <time>2016-04-29T17:38:42Z</time>
      </trkpt>
      <trkpt lat="48.10205" lon="-4.34998">
        <ele>7.58</ele>
        <time>2016-04-29T17:38:22Z</time>
      </trkpt>
      <trkpt lat="48.10216" lon="-4.34895">
        <ele>5.143</ele>
        <time>2016-04-29T17:38:02Z</time>
      </trkpt>
      <trkpt lat="48.10229" lon="-4.34906">
        <ele>3.281</ele>
        <time>2016-04-29T17:37:42Z</time>
      </trkpt>
      <trkpt lat="48.10235" lon="-4.34885">
        <ele>3.355</ele>
        <time>2016-04-29T17:37:22Z</time>
      </trkpt>
      <trkpt lat="48.10214" lon="-4.34846">
        <ele>6.308</ele>
        <time>2016-04-29T17:37:02Z</time>
      </trkpt>
      <trkpt lat="48.10206" lon="-4.34786">
        <ele>6.919</ele>
        <time>2016-04-29T17:36:42Z</time>
      </trkpt>
      <trkpt lat="48.10176" lon="-4.34765">
        <ele>10.081</ele>
        <time>2016-04-29T17:36:22Z</time>
      </trkpt>
      <trkpt lat="48.10155" lon="-4.34735">
        <ele>11.291</ele>
        <time>2016-04-29T17:36:02Z</time>
      </trkpt>
      <trkpt lat="48.10123" lon="-4.34726">
        <ele>13.927</ele>
        <time>2016-04-29T17:35:42Z</time>
      </trkpt>
      <trkpt lat="48.10073" lon="-4.34664">
        <ele>13.417</ele>
        <time>2016-04-29T17:35:22Z</time>
      </trkpt>
      <trkpt lat="48.10059" lon="-4.34505">
        <ele>14.033</ele>
        <time>2016-04-29T17:35:02Z</time>
      </trkpt>
      <trkpt lat="48.101" lon="-4.34404">
        <ele>7.199</ele>
        <time>2016-04-29T17:34:42Z</time>
      </trkpt>
      <trkpt lat="48.10087" lon="-4.34327">
        <ele>3.797</ele>
        <time>2016-04-29T17:34:22Z</time>
      </trkpt>
      <trkpt lat="48.10024" lon="-4.34295">
        <ele>10.37</ele>
        <time>2016-04-29T17:34:02Z</time>
      </trkpt>
      <trkpt lat="48.10014" lon="-4.34269">
        <ele>12.738</ele>
        <time>2016-04-29T17:33:42Z</time>
      </trkpt>
      <trkpt lat="48.10034" lon="-4.34183">
        <ele>14.442</ele>
        <time>2016-04-29T17:33:22Z</time>
      </trkpt>
      <trkpt lat="48.10042" lon="-4.34127">
        <ele>5.608</ele>
        <time>2016-04-29T17:33:02Z</time>
      </trkpt>
      <trkpt lat="48.09852" lon="-4.33949">
        <ele>0.818</ele>
        <time>2016-04-29T17:32:42Z</time>
      </trkpt>
      <trkpt lat="48.09802" lon="-4.33969">
        <ele>1.644</ele>
        <time>2020-12-18T15:52:03Z</time>
      </trkpt>
      <trkpt lat="48.0978" lon="-4.34036">
        <ele>2.663</ele>
        <time>2020-12-18T15:51:43Z</time>
      </trkpt>
      <trkpt lat="48.09784" lon="-4.34075">
        <ele>5.444</ele>
        <time>2020-12-18T15:51:23Z</time>
      </trkpt>
      <trkpt lat="48.09708" lon="-4.34277">
        <ele>9.424</ele>
        <time>2016-04-29T17:29:42Z</time>
      </trkpt>
      <trkpt lat="48.09586" lon="-4.34166">
        <ele>3.73</ele>
        <time>2016-04-29T17:29:22Z</time>
      </trkpt>
      <trkpt lat="48.09615" lon="-4.34089">
        <ele>4.976</ele>
        <time>2016-04-29T17:29:02Z</time>
      </trkpt>
      <trkpt lat="48.09669" lon="-4.34048">
        <ele>4.124</ele>
        <time>2016-04-29T17:28:42Z</time>
      </trkpt>
      <trkpt lat="48.0967" lon="-4.33908">
        <ele>3.137</ele>
        <time>2016-04-29T17:28:22Z</time>
      </trkpt>
      <trkpt lat="48.09679" lon="-4.33865">
        <ele>2.035</ele>
        <time>2016-04-29T17:28:02Z</time>
      </trkpt>
      <trkpt lat="48.09679" lon="-4.33865">
        <ele>2.049</ele>
        <time>2016-04-29T17:27:42Z</time>
      </trkpt>
      <trkpt lat="48.09672" lon="-4.33833">
        <ele>1.008</ele>
        <time>2020-12-18T15:48:43Z</time>
      </trkpt>
      <trkpt lat="48.09657" lon="-4.33858">
        <ele>4.907</ele>
        <time>2020-12-18T15:48:23Z</time>
      </trkpt>
      <trkpt lat="48.09593" lon="-4.33853">
        <ele>10.261</ele>
        <time>2016-04-29T17:27:22Z</time>
      </trkpt>
      <trkpt lat="48.09589" lon="-4.33825">
        <ele>7.731</ele>
        <time>2016-04-29T17:27:02Z</time>
      </trkpt>
      <trkpt lat="48.09553" lon="-4.33799">
        <ele>7.864</ele>
        <time>2016-04-29T17:26:42Z</time>
      </trkpt>
      <trkpt lat="48.09526" lon="-4.33762">
        <ele>12.554</ele>
        <time>2016-04-29T17:26:22Z</time>
      </trkpt>
      <trkpt lat="48.09496" lon="-4.33752">
        <ele>20.32</ele>
        <time>2016-04-29T17:26:02Z</time>
      </trkpt>
      <trkpt lat="48.09468" lon="-4.33711">
        <ele>18.816</ele>
        <time>2016-04-29T17:25:42Z</time>
      </trkpt>
      <trkpt lat="48.09458" lon="-4.33707">
        <ele>20.674</ele>
        <time>2016-04-29T17:25:22Z</time>
      </trkpt>
      <trkpt lat="48.09437" lon="-4.33654">
        <ele>11.897</ele>
        <time>2020-12-18T15:45:43Z</time>
      </trkpt>
      <trkpt lat="48.09351" lon="-4.33569">
        <ele>12.585</ele>
        <time>2020-12-18T15:45:23Z</time>
      </trkpt>
      <trkpt lat="48.09245" lon="-4.33483">
        <ele>10.239</ele>
        <time>2020-12-18T15:45:03Z</time>
      </trkpt>
      <trkpt lat="48.09152" lon="-4.33483">
        <ele>13.308</ele>
        <time>2020-12-18T15:44:43Z</time>
      </trkpt>
      <trkpt lat="48.09127" lon="-4.33538">
        <ele>20.607</ele>
        <time>2020-12-18T15:44:23Z</time>
      </trkpt>
      <trkpt lat="48.08961" lon="-4.33447">
        <ele>14.861</ele>
        <time>2020-12-18T15:44:03Z</time>
      </trkpt>
      <trkpt lat="48.09021" lon="-4.33172">
        <ele>18.731</ele>
        <time>2020-12-18T15:43:43Z</time>
      </trkpt>
      <trkpt lat="48.0904" lon="-4.33193">
        <ele>15.396</ele>
        <time>2020-12-18T15:43:23Z</time>
      </trkpt>
      <trkpt lat="48.09035" lon="-4.33235">
        <ele>4.816</ele>
        <time>2020-12-18T15:43:03Z</time>
      </trkpt>
      <trkpt lat="48.09217" lon="-4.33326">
        <ele>8.862</ele>
        <time>2020-12-18T15:42:43Z</time>
      </trkpt>
      <trkpt lat="48.09471" lon="-4.33494">
        <ele>0.828</ele>
        <time>2016-04-29T17:24:42Z</time>
      </trkpt>
      <trkpt lat="48.09663" lon="-4.33539">
        <ele>1.786</ele>
        <time>2020-03-28T21:39:36Z</time>
      </trkpt>
      <trkpt lat="48.09704" lon="-4.33526">
        <ele>3.659</ele>
        <time>2020-03-28T21:39:16Z</time>
      </trkpt>
      <trkpt lat="48.09768" lon="-4.3344">
        <ele>2.987</ele>
        <time>2020-03-28T21:38:56Z</time>
      </trkpt>
      <trkpt lat="48.09774" lon="-4.33382">
        <ele>3.521</ele>
        <time>2020-03-28T21:38:36Z</time>
      </trkpt>
      <trkpt lat="48.09761" lon="-4.33344">
        <ele>4.208</ele>
        <time>2020-03-28T21:38:16Z</time>
      </trkpt>
      <trkpt lat="48.09704" lon="-4.33326">
        <ele>14.317</ele>
        <time>2020-03-28T21:37:56Z</time>
      </trkpt>
      <trkpt lat="48.09685" lon="-4.33262">
        <ele>13.707</ele>
        <time>2020-03-28T21:37:36Z</time>
      </trkpt>
      <trkpt lat="48.09704" lon="-4.33148">
        <ele>7.955</ele>
        <time>2020-03-28T21:37:16Z</time>
      </trkpt>
      <trkpt lat="48.09656" lon="-4.331">
        <ele>17.377</ele>
        <time>2020-03-28T21:36:56Z</time>
      </trkpt>
      <trkpt lat="48.09646" lon="-4.33062">
        <ele>13.637</ele>
        <time>2019-04-04T21:46:39Z</time>
      </trkpt>
      <trkpt lat="48.09651" lon="-4.33023">
        <ele>10.623</ele>
        <time>2019-04-04T21:46:19Z</time>
      </trkpt>
      <trkpt lat="48.09688" lon="-4.32963">
        <ele>11.689</ele>
        <time>2019-04-04T21:45:59Z</time>
      </trkpt>
      <trkpt lat="48.09775" lon="-4.32896">
        <ele>3.027</ele>
        <time>2019-04-04T21:45:39Z</time>
      </trkpt>
      <trkpt lat="48.09749" lon="-4.32595">
        <ele>4.85</ele>
        <time>2019-04-04T21:45:19Z</time>
      </trkpt>
      <trkpt lat="48.09729" lon="-4.32526">
        <ele>8.968</ele>
        <time>2019-04-04T21:44:59Z</time>
      </trkpt>
      <trkpt lat="48.09703" lon="-4.32485">
        <ele>10.892</ele>
        <time>2019-04-04T21:44:39Z</time>
      </trkpt>
      <trkpt lat="48.09656" lon="-4.32452">
        <ele>11.408</ele>
        <time>2019-04-04T21:44:19Z</time>
      </trkpt>
      <trkpt lat="48.09528" lon="-4.32462">
        <ele>12.911</ele>
        <time>2019-04-04T21:43:59Z</time>
      </trkpt>
      <trkpt lat="48.09499" lon="-4.32473">
        <ele>11.083</ele>
        <time>2019-04-04T21:43:39Z</time>
      </trkpt>
      <trkpt lat="48.09365" lon="-4.32425">
        <ele>3.562</ele>
        <time>2019-04-04T21:43:19Z</time>
      </trkpt>
      <trkpt lat="48.09365" lon="-4.32425">
        <ele>3.562</ele>
        <time>2019-04-04T21:43:19Z</time>
      </trkpt>
    </trkseg>
  </trk>
</gpx>